<?xml version="1.0" encoding="UTF-8" standalone="no" ?>
<gpx xmlns="http://www.topografix.com/GPX/1/1" xmlns:xsi="http://www.w3.org/2001/XMLSchema-instance" xsi:schemaLocation="http://www.topografix.com/GPX/1/1 http://www.topografix.com/GPX/1/1/gpx.xsd" version="1.1" creator="VisuGPX - https://www.visugpx.com">
  <metadata>
    <name>Trace Mt Bouquet 26 mars 2015</name>
    <desc><![CDATA[Randonnée effectuée par 15 membres du SCLapalud]]></desc>
  </metadata>
  <trk>
    <name><![CDATA[ACTIVE LOG-3]]></name>
    <trkseg>
      <trkpt lat="44.11658" lon="4.28543">
        <ele>255.36731</ele>
        <time>2015-03-26T08:57:40Z</time>
      </trkpt>
      <trkpt lat="44.11658" lon="4.28544">
        <ele>258.731934</ele>
        <time>2015-03-26T08:57:54Z</time>
      </trkpt>
      <trkpt lat="44.11658" lon="4.28544">
        <ele>260.654541</ele>
        <time>2015-03-26T08:59:03Z</time>
      </trkpt>
      <trkpt lat="44.11658" lon="4.28543">
        <ele>261.135254</ele>
        <time>2015-03-26T08:59:12Z</time>
      </trkpt>
      <trkpt lat="44.11658" lon="4.28544">
        <ele>261.615967</ele>
        <time>2015-03-26T08:59:14Z</time>
      </trkpt>
      <trkpt lat="44.11656" lon="4.2854">
        <ele>261.135254</ele>
        <time>2015-03-26T08:59:20Z</time>
      </trkpt>
      <trkpt lat="44.11656" lon="4.28539">
        <ele>261.615967</ele>
        <time>2015-03-26T08:59:21Z</time>
      </trkpt>
      <trkpt lat="44.11656" lon="4.28531">
        <ele>261.135254</ele>
        <time>2015-03-26T08:59:26Z</time>
      </trkpt>
      <trkpt lat="44.11658" lon="4.28523">
        <ele>262.096558</ele>
        <time>2015-03-26T08:59:32Z</time>
      </trkpt>
      <trkpt lat="44.11661" lon="4.28522">
        <ele>261.615967</ele>
        <time>2015-03-26T08:59:39Z</time>
      </trkpt>
      <trkpt lat="44.11665" lon="4.2852">
        <ele>260.17395</ele>
        <time>2015-03-26T08:59:46Z</time>
      </trkpt>
      <trkpt lat="44.1167" lon="4.28522">
        <ele>261.135254</ele>
        <time>2015-03-26T08:59:50Z</time>
      </trkpt>
      <trkpt lat="44.11676" lon="4.28515">
        <ele>260.654541</ele>
        <time>2015-03-26T08:59:58Z</time>
      </trkpt>
      <trkpt lat="44.11672" lon="4.28518">
        <ele>260.654541</ele>
        <time>2015-03-26T09:00:03Z</time>
      </trkpt>
      <trkpt lat="44.11669" lon="4.28534">
        <ele>261.135254</ele>
        <time>2015-03-26T09:00:12Z</time>
      </trkpt>
      <trkpt lat="44.11668" lon="4.28537">
        <ele>260.654541</ele>
        <time>2015-03-26T09:00:17Z</time>
      </trkpt>
      <trkpt lat="44.11663" lon="4.28529">
        <ele>261.135254</ele>
        <time>2015-03-26T09:00:21Z</time>
      </trkpt>
      <trkpt lat="44.11661" lon="4.28526">
        <ele>261.135254</ele>
        <time>2015-03-26T09:00:24Z</time>
      </trkpt>
      <trkpt lat="44.11657" lon="4.28529">
        <ele>261.615967</ele>
        <time>2015-03-26T09:00:28Z</time>
      </trkpt>
      <trkpt lat="44.11659" lon="4.28537">
        <ele>261.615967</ele>
        <time>2015-03-26T09:00:36Z</time>
      </trkpt>
      <trkpt lat="44.11659" lon="4.28537">
        <ele>261.615967</ele>
        <time>2015-03-26T09:00:44Z</time>
      </trkpt>
      <trkpt lat="44.11657" lon="4.28533">
        <ele>262.096558</ele>
        <time>2015-03-26T09:00:52Z</time>
      </trkpt>
      <trkpt lat="44.11658" lon="4.28532">
        <ele>262.096558</ele>
        <time>2015-03-26T09:00:53Z</time>
      </trkpt>
      <trkpt lat="44.11674" lon="4.28523">
        <ele>262.096558</ele>
        <time>2015-03-26T09:01:07Z</time>
      </trkpt>
      <trkpt lat="44.11686" lon="4.28515">
        <ele>261.615967</ele>
        <time>2015-03-26T09:01:17Z</time>
      </trkpt>
      <trkpt lat="44.11702" lon="4.28505">
        <ele>262.096558</ele>
        <time>2015-03-26T09:01:30Z</time>
      </trkpt>
      <trkpt lat="44.1172" lon="4.28496">
        <ele>262.096558</ele>
        <time>2015-03-26T09:01:43Z</time>
      </trkpt>
      <trkpt lat="44.1173" lon="4.28492">
        <ele>263.057861</ele>
        <time>2015-03-26T09:01:53Z</time>
      </trkpt>
      <trkpt lat="44.11732" lon="4.28491">
        <ele>263.538574</ele>
        <time>2015-03-26T09:01:55Z</time>
      </trkpt>
      <trkpt lat="44.1174" lon="4.2849">
        <ele>264.019287</ele>
        <time>2015-03-26T09:02:02Z</time>
      </trkpt>
      <trkpt lat="44.11752" lon="4.28486">
        <ele>264.980591</ele>
        <time>2015-03-26T09:02:13Z</time>
      </trkpt>
      <trkpt lat="44.11765" lon="4.2848">
        <ele>266.422485</ele>
        <time>2015-03-26T09:02:25Z</time>
      </trkpt>
      <trkpt lat="44.11763" lon="4.28477">
        <ele>266.422485</ele>
        <time>2015-03-26T09:02:33Z</time>
      </trkpt>
      <trkpt lat="44.11767" lon="4.28476">
        <ele>266.422485</ele>
        <time>2015-03-26T09:02:40Z</time>
      </trkpt>
      <trkpt lat="44.11769" lon="4.28474">
        <ele>267.383911</ele>
        <time>2015-03-26T09:02:47Z</time>
      </trkpt>
      <trkpt lat="44.11778" lon="4.2847">
        <ele>267.864502</ele>
        <time>2015-03-26T09:02:58Z</time>
      </trkpt>
      <trkpt lat="44.11786" lon="4.28468">
        <ele>269.306519</ele>
        <time>2015-03-26T09:03:06Z</time>
      </trkpt>
      <trkpt lat="44.11798" lon="4.28464">
        <ele>269.787109</ele>
        <time>2015-03-26T09:03:16Z</time>
      </trkpt>
      <trkpt lat="44.11808" lon="4.28461">
        <ele>270.748413</ele>
        <time>2015-03-26T09:03:26Z</time>
      </trkpt>
      <trkpt lat="44.11816" lon="4.28457">
        <ele>271.229126</ele>
        <time>2015-03-26T09:03:35Z</time>
      </trkpt>
      <trkpt lat="44.11827" lon="4.28452">
        <ele>271.709717</ele>
        <time>2015-03-26T09:03:45Z</time>
      </trkpt>
      <trkpt lat="44.11837" lon="4.28456">
        <ele>272.19043</ele>
        <time>2015-03-26T09:03:53Z</time>
      </trkpt>
      <trkpt lat="44.11841" lon="4.28461">
        <ele>273.151855</ele>
        <time>2015-03-26T09:04:01Z</time>
      </trkpt>
      <trkpt lat="44.11842" lon="4.28463">
        <ele>273.151855</ele>
        <time>2015-03-26T09:04:03Z</time>
      </trkpt>
      <trkpt lat="44.11846" lon="4.28468">
        <ele>273.632446</ele>
        <time>2015-03-26T09:04:10Z</time>
      </trkpt>
      <trkpt lat="44.11854" lon="4.28475">
        <ele>274.59375</ele>
        <time>2015-03-26T09:04:19Z</time>
      </trkpt>
      <trkpt lat="44.11862" lon="4.28484">
        <ele>274.59375</ele>
        <time>2015-03-26T09:04:28Z</time>
      </trkpt>
      <trkpt lat="44.11863" lon="4.28485">
        <ele>274.59375</ele>
        <time>2015-03-26T09:04:30Z</time>
      </trkpt>
      <trkpt lat="44.11874" lon="4.28493">
        <ele>276.035645</ele>
        <time>2015-03-26T09:04:40Z</time>
      </trkpt>
      <trkpt lat="44.11878" lon="4.28497">
        <ele>276.516357</ele>
        <time>2015-03-26T09:04:47Z</time>
      </trkpt>
      <trkpt lat="44.11887" lon="4.28501">
        <ele>277.477661</ele>
        <time>2015-03-26T09:04:56Z</time>
      </trkpt>
      <trkpt lat="44.11894" lon="4.28502">
        <ele>277.477661</ele>
        <time>2015-03-26T09:05:01Z</time>
      </trkpt>
      <trkpt lat="44.119" lon="4.28501">
        <ele>278.438965</ele>
        <time>2015-03-26T09:05:08Z</time>
      </trkpt>
      <trkpt lat="44.11912" lon="4.28499">
        <ele>279.400269</ele>
        <time>2015-03-26T09:05:19Z</time>
      </trkpt>
      <trkpt lat="44.11921" lon="4.28498">
        <ele>280.361694</ele>
        <time>2015-03-26T09:05:28Z</time>
      </trkpt>
      <trkpt lat="44.1193" lon="4.28497">
        <ele>281.322998</ele>
        <time>2015-03-26T09:05:38Z</time>
      </trkpt>
      <trkpt lat="44.11932" lon="4.28496">
        <ele>281.803589</ele>
        <time>2015-03-26T09:05:40Z</time>
      </trkpt>
      <trkpt lat="44.11938" lon="4.28495">
        <ele>282.284302</ele>
        <time>2015-03-26T09:05:47Z</time>
      </trkpt>
      <trkpt lat="44.11942" lon="4.28494">
        <ele>282.765015</ele>
        <time>2015-03-26T09:05:51Z</time>
      </trkpt>
      <trkpt lat="44.11942" lon="4.28494">
        <ele>284.206909</ele>
        <time>2015-03-26T09:05:58Z</time>
      </trkpt>
      <trkpt lat="44.11942" lon="4.28494">
        <ele>284.687622</ele>
        <time>2015-03-26T09:06:04Z</time>
      </trkpt>
      <trkpt lat="44.11942" lon="4.28494">
        <ele>285.168213</ele>
        <time>2015-03-26T09:06:15Z</time>
      </trkpt>
      <trkpt lat="44.11942" lon="4.28494">
        <ele>285.648804</ele>
        <time>2015-03-26T09:06:25Z</time>
      </trkpt>
      <trkpt lat="44.11942" lon="4.28494">
        <ele>286.610229</ele>
        <time>2015-03-26T09:06:36Z</time>
      </trkpt>
      <trkpt lat="44.11942" lon="4.28494">
        <ele>287.09082</ele>
        <time>2015-03-26T09:06:44Z</time>
      </trkpt>
      <trkpt lat="44.11942" lon="4.28494">
        <ele>288.052246</ele>
        <time>2015-03-26T09:06:54Z</time>
      </trkpt>
      <trkpt lat="44.11942" lon="4.28494">
        <ele>289.974854</ele>
        <time>2015-03-26T09:07:02Z</time>
      </trkpt>
      <trkpt lat="44.11942" lon="4.28494">
        <ele>290.455566</ele>
        <time>2015-03-26T09:07:05Z</time>
      </trkpt>
      <trkpt lat="44.11942" lon="4.28494">
        <ele>293.339355</ele>
        <time>2015-03-26T09:07:22Z</time>
      </trkpt>
      <trkpt lat="44.11942" lon="4.28494">
        <ele>295.261963</ele>
        <time>2015-03-26T09:07:37Z</time>
      </trkpt>
      <trkpt lat="44.11942" lon="4.28494">
        <ele>295.742676</ele>
        <time>2015-03-26T09:07:49Z</time>
      </trkpt>
      <trkpt lat="44.11942" lon="4.28494">
        <ele>296.223511</ele>
        <time>2015-03-26T09:07:53Z</time>
      </trkpt>
      <trkpt lat="44.11942" lon="4.28494">
        <ele>297.184692</ele>
        <time>2015-03-26T09:08:02Z</time>
      </trkpt>
      <trkpt lat="44.11942" lon="4.28494">
        <ele>297.665405</ele>
        <time>2015-03-26T09:08:11Z</time>
      </trkpt>
      <trkpt lat="44.11942" lon="4.28494">
        <ele>298.146118</ele>
        <time>2015-03-26T09:08:20Z</time>
      </trkpt>
      <trkpt lat="44.11953" lon="4.28443">
        <ele>298.146118</ele>
        <time>2015-03-26T09:08:28Z</time>
      </trkpt>
      <trkpt lat="44.11953" lon="4.28443">
        <ele>298.146118</ele>
        <time>2015-03-26T09:08:35Z</time>
      </trkpt>
      <trkpt lat="44.11953" lon="4.28443">
        <ele>297.665405</ele>
        <time>2015-03-26T09:08:46Z</time>
      </trkpt>
      <trkpt lat="44.11953" lon="4.28443">
        <ele>297.184692</ele>
        <time>2015-03-26T09:08:52Z</time>
      </trkpt>
      <trkpt lat="44.11953" lon="4.28443">
        <ele>296.223511</ele>
        <time>2015-03-26T09:08:59Z</time>
      </trkpt>
      <trkpt lat="44.11953" lon="4.28443">
        <ele>295.742676</ele>
        <time>2015-03-26T09:09:01Z</time>
      </trkpt>
      <trkpt lat="44.11953" lon="4.28443">
        <ele>294.781372</ele>
        <time>2015-03-26T09:09:09Z</time>
      </trkpt>
      <trkpt lat="44.11953" lon="4.28443">
        <ele>291.897461</ele>
        <time>2015-03-26T09:09:21Z</time>
      </trkpt>
      <trkpt lat="44.11953" lon="4.28443">
        <ele>290.936157</ele>
        <time>2015-03-26T09:09:29Z</time>
      </trkpt>
      <trkpt lat="44.11957" lon="4.28492">
        <ele>287.571411</ele>
        <time>2015-03-26T09:09:41Z</time>
      </trkpt>
      <trkpt lat="44.11957" lon="4.28496">
        <ele>286.610229</ele>
        <time>2015-03-26T09:09:45Z</time>
      </trkpt>
      <trkpt lat="44.11957" lon="4.28496">
        <ele>286.610229</ele>
        <time>2015-03-26T09:09:52Z</time>
      </trkpt>
      <trkpt lat="44.11957" lon="4.28496">
        <ele>286.610229</ele>
        <time>2015-03-26T09:09:53Z</time>
      </trkpt>
      <trkpt lat="44.11971" lon="4.28507">
        <ele>287.09082</ele>
        <time>2015-03-26T09:10:02Z</time>
      </trkpt>
      <trkpt lat="44.11971" lon="4.28507">
        <ele>289.01355</ele>
        <time>2015-03-26T09:10:11Z</time>
      </trkpt>
      <trkpt lat="44.11971" lon="4.28507">
        <ele>289.974854</ele>
        <time>2015-03-26T09:10:17Z</time>
      </trkpt>
      <trkpt lat="44.11987" lon="4.28514">
        <ele>291.416748</ele>
        <time>2015-03-26T09:10:25Z</time>
      </trkpt>
      <trkpt lat="44.11995" lon="4.2852">
        <ele>291.897461</ele>
        <time>2015-03-26T09:10:30Z</time>
      </trkpt>
      <trkpt lat="44.12002" lon="4.28529">
        <ele>292.858765</ele>
        <time>2015-03-26T09:10:40Z</time>
      </trkpt>
      <trkpt lat="44.12002" lon="4.28529">
        <ele>292.858765</ele>
        <time>2015-03-26T09:10:41Z</time>
      </trkpt>
      <trkpt lat="44.12009" lon="4.28544">
        <ele>294.300781</ele>
        <time>2015-03-26T09:10:51Z</time>
      </trkpt>
      <trkpt lat="44.12011" lon="4.28557">
        <ele>295.742676</ele>
        <time>2015-03-26T09:11:01Z</time>
      </trkpt>
      <trkpt lat="44.12011" lon="4.28557">
        <ele>295.742676</ele>
        <time>2015-03-26T09:11:08Z</time>
      </trkpt>
      <trkpt lat="44.12011" lon="4.28562">
        <ele>296.223511</ele>
        <time>2015-03-26T09:11:14Z</time>
      </trkpt>
      <trkpt lat="44.12011" lon="4.28564">
        <ele>297.184692</ele>
        <time>2015-03-26T09:11:22Z</time>
      </trkpt>
      <trkpt lat="44.12011" lon="4.28564">
        <ele>297.665405</ele>
        <time>2015-03-26T09:11:25Z</time>
      </trkpt>
      <trkpt lat="44.12011" lon="4.28585">
        <ele>297.665405</ele>
        <time>2015-03-26T09:11:29Z</time>
      </trkpt>
      <trkpt lat="44.12013" lon="4.28598">
        <ele>297.665405</ele>
        <time>2015-03-26T09:11:36Z</time>
      </trkpt>
      <trkpt lat="44.12015" lon="4.28603">
        <ele>297.184692</ele>
        <time>2015-03-26T09:11:41Z</time>
      </trkpt>
      <trkpt lat="44.12018" lon="4.28609">
        <ele>299.1073</ele>
        <time>2015-03-26T09:11:49Z</time>
      </trkpt>
      <trkpt lat="44.12018" lon="4.28609">
        <ele>300.068726</ele>
        <time>2015-03-26T09:11:58Z</time>
      </trkpt>
      <trkpt lat="44.12018" lon="4.28609">
        <ele>301.51062</ele>
        <time>2015-03-26T09:12:08Z</time>
      </trkpt>
      <trkpt lat="44.12018" lon="4.28609">
        <ele>301.991333</ele>
        <time>2015-03-26T09:12:16Z</time>
      </trkpt>
      <trkpt lat="44.12018" lon="4.28609">
        <ele>302.952515</ele>
        <time>2015-03-26T09:12:18Z</time>
      </trkpt>
      <trkpt lat="44.12018" lon="4.28609">
        <ele>303.91394</ele>
        <time>2015-03-26T09:12:24Z</time>
      </trkpt>
      <trkpt lat="44.12018" lon="4.28609">
        <ele>304.394653</ele>
        <time>2015-03-26T09:12:27Z</time>
      </trkpt>
      <trkpt lat="44.12057" lon="4.28621">
        <ele>305.355957</ele>
        <time>2015-03-26T09:12:35Z</time>
      </trkpt>
      <trkpt lat="44.12057" lon="4.28621">
        <ele>305.83667</ele>
        <time>2015-03-26T09:12:39Z</time>
      </trkpt>
      <trkpt lat="44.12057" lon="4.28621">
        <ele>307.278564</ele>
        <time>2015-03-26T09:12:47Z</time>
      </trkpt>
      <trkpt lat="44.12057" lon="4.28621">
        <ele>307.759277</ele>
        <time>2015-03-26T09:12:49Z</time>
      </trkpt>
      <trkpt lat="44.12057" lon="4.28621">
        <ele>309.201172</ele>
        <time>2015-03-26T09:13:00Z</time>
      </trkpt>
      <trkpt lat="44.12089" lon="4.28623">
        <ele>309.681885</ele>
        <time>2015-03-26T09:13:08Z</time>
      </trkpt>
      <trkpt lat="44.12089" lon="4.28623">
        <ele>310.643066</ele>
        <time>2015-03-26T09:13:15Z</time>
      </trkpt>
      <trkpt lat="44.12089" lon="4.28623">
        <ele>312.085205</ele>
        <time>2015-03-26T09:13:23Z</time>
      </trkpt>
      <trkpt lat="44.12089" lon="4.28623">
        <ele>313.527222</ele>
        <time>2015-03-26T09:13:31Z</time>
      </trkpt>
      <trkpt lat="44.12089" lon="4.28623">
        <ele>313.527222</ele>
        <time>2015-03-26T09:13:32Z</time>
      </trkpt>
      <trkpt lat="44.12114" lon="4.28628">
        <ele>314.969116</ele>
        <time>2015-03-26T09:13:39Z</time>
      </trkpt>
      <trkpt lat="44.12114" lon="4.28628">
        <ele>315.93042</ele>
        <time>2015-03-26T09:13:46Z</time>
      </trkpt>
      <trkpt lat="44.12114" lon="4.28628">
        <ele>315.93042</ele>
        <time>2015-03-26T09:13:47Z</time>
      </trkpt>
      <trkpt lat="44.12114" lon="4.28628">
        <ele>316.891724</ele>
        <time>2015-03-26T09:13:51Z</time>
      </trkpt>
      <trkpt lat="44.12114" lon="4.28628">
        <ele>319.295044</ele>
        <time>2015-03-26T09:14:00Z</time>
      </trkpt>
      <trkpt lat="44.12142" lon="4.28641">
        <ele>320.256348</ele>
        <time>2015-03-26T09:14:09Z</time>
      </trkpt>
      <trkpt lat="44.1215" lon="4.28644">
        <ele>321.217773</ele>
        <time>2015-03-26T09:14:18Z</time>
      </trkpt>
      <trkpt lat="44.1215" lon="4.28644">
        <ele>321.698364</ele>
        <time>2015-03-26T09:14:23Z</time>
      </trkpt>
      <trkpt lat="44.1215" lon="4.28644">
        <ele>323.140381</ele>
        <time>2015-03-26T09:14:32Z</time>
      </trkpt>
      <trkpt lat="44.1217" lon="4.2865">
        <ele>325.062988</ele>
        <time>2015-03-26T09:14:40Z</time>
      </trkpt>
      <trkpt lat="44.1217" lon="4.2865">
        <ele>326.504883</ele>
        <time>2015-03-26T09:14:53Z</time>
      </trkpt>
      <trkpt lat="44.1217" lon="4.2865">
        <ele>327.466187</ele>
        <time>2015-03-26T09:15:00Z</time>
      </trkpt>
      <trkpt lat="44.1217" lon="4.2865">
        <ele>328.427612</ele>
        <time>2015-03-26T09:15:06Z</time>
      </trkpt>
      <trkpt lat="44.1217" lon="4.2865">
        <ele>329.388916</ele>
        <time>2015-03-26T09:15:15Z</time>
      </trkpt>
      <trkpt lat="44.1217" lon="4.2865">
        <ele>329.869507</ele>
        <time>2015-03-26T09:15:21Z</time>
      </trkpt>
      <trkpt lat="44.1217" lon="4.2865">
        <ele>330.830933</ele>
        <time>2015-03-26T09:15:25Z</time>
      </trkpt>
      <trkpt lat="44.1217" lon="4.2865">
        <ele>333.234131</ele>
        <time>2015-03-26T09:15:37Z</time>
      </trkpt>
      <trkpt lat="44.1217" lon="4.2865">
        <ele>334.195435</ele>
        <time>2015-03-26T09:15:42Z</time>
      </trkpt>
      <trkpt lat="44.12216" lon="4.28696">
        <ele>334.676147</ele>
        <time>2015-03-26T09:15:47Z</time>
      </trkpt>
      <trkpt lat="44.12216" lon="4.28696">
        <ele>335.156738</ele>
        <time>2015-03-26T09:15:49Z</time>
      </trkpt>
      <trkpt lat="44.12222" lon="4.28696">
        <ele>335.156738</ele>
        <time>2015-03-26T09:15:52Z</time>
      </trkpt>
      <trkpt lat="44.12225" lon="4.28696">
        <ele>336.598877</ele>
        <time>2015-03-26T09:16:01Z</time>
      </trkpt>
      <trkpt lat="44.12239" lon="4.28695">
        <ele>338.521484</ele>
        <time>2015-03-26T09:16:07Z</time>
      </trkpt>
      <trkpt lat="44.12239" lon="4.28695">
        <ele>339.002075</ele>
        <time>2015-03-26T09:16:12Z</time>
      </trkpt>
      <trkpt lat="44.12239" lon="4.28695">
        <ele>338.521484</ele>
        <time>2015-03-26T09:16:13Z</time>
      </trkpt>
      <trkpt lat="44.12239" lon="4.28695">
        <ele>339.482666</ele>
        <time>2015-03-26T09:16:19Z</time>
      </trkpt>
      <trkpt lat="44.12239" lon="4.28695">
        <ele>339.963379</ele>
        <time>2015-03-26T09:16:21Z</time>
      </trkpt>
      <trkpt lat="44.12258" lon="4.28697">
        <ele>340.444092</ele>
        <time>2015-03-26T09:16:27Z</time>
      </trkpt>
      <trkpt lat="44.12264" lon="4.28699">
        <ele>341.405273</ele>
        <time>2015-03-26T09:16:34Z</time>
      </trkpt>
      <trkpt lat="44.12264" lon="4.28699">
        <ele>342.366699</ele>
        <time>2015-03-26T09:16:42Z</time>
      </trkpt>
      <trkpt lat="44.12279" lon="4.28704">
        <ele>344.289429</ele>
        <time>2015-03-26T09:16:50Z</time>
      </trkpt>
      <trkpt lat="44.12287" lon="4.28706">
        <ele>345.25061</ele>
        <time>2015-03-26T09:16:59Z</time>
      </trkpt>
      <trkpt lat="44.12287" lon="4.28706">
        <ele>346.692627</ele>
        <time>2015-03-26T09:17:09Z</time>
      </trkpt>
      <trkpt lat="44.12304" lon="4.28715">
        <ele>347.653931</ele>
        <time>2015-03-26T09:17:18Z</time>
      </trkpt>
      <trkpt lat="44.12304" lon="4.28715">
        <ele>349.095825</ele>
        <time>2015-03-26T09:17:26Z</time>
      </trkpt>
      <trkpt lat="44.12319" lon="4.28724">
        <ele>349.095825</ele>
        <time>2015-03-26T09:17:30Z</time>
      </trkpt>
      <trkpt lat="44.12326" lon="4.28729">
        <ele>350.057251</ele>
        <time>2015-03-26T09:17:40Z</time>
      </trkpt>
      <trkpt lat="44.12326" lon="4.28729">
        <ele>351.979858</ele>
        <time>2015-03-26T09:17:49Z</time>
      </trkpt>
      <trkpt lat="44.12326" lon="4.28729">
        <ele>351.979858</ele>
        <time>2015-03-26T09:17:57Z</time>
      </trkpt>
      <trkpt lat="44.12326" lon="4.28729">
        <ele>352.941162</ele>
        <time>2015-03-26T09:18:04Z</time>
      </trkpt>
      <trkpt lat="44.12326" lon="4.28729">
        <ele>353.421875</ele>
        <time>2015-03-26T09:18:13Z</time>
      </trkpt>
      <trkpt lat="44.12326" lon="4.28729">
        <ele>353.421875</ele>
        <time>2015-03-26T09:18:26Z</time>
      </trkpt>
      <trkpt lat="44.12326" lon="4.28729">
        <ele>353.421875</ele>
        <time>2015-03-26T09:18:40Z</time>
      </trkpt>
      <trkpt lat="44.12326" lon="4.28729">
        <ele>353.902588</ele>
        <time>2015-03-26T09:18:44Z</time>
      </trkpt>
      <trkpt lat="44.12326" lon="4.28729">
        <ele>354.86377</ele>
        <time>2015-03-26T09:18:54Z</time>
      </trkpt>
      <trkpt lat="44.12326" lon="4.28729">
        <ele>354.86377</ele>
        <time>2015-03-26T09:19:34Z</time>
      </trkpt>
      <trkpt lat="44.12326" lon="4.28729">
        <ele>355.344482</ele>
        <time>2015-03-26T09:20:06Z</time>
      </trkpt>
      <trkpt lat="44.12378" lon="4.28763">
        <ele>355.825195</ele>
        <time>2015-03-26T09:20:15Z</time>
      </trkpt>
      <trkpt lat="44.12378" lon="4.28763">
        <ele>357.26709</ele>
        <time>2015-03-26T09:20:24Z</time>
      </trkpt>
      <trkpt lat="44.12394" lon="4.28776">
        <ele>358.228394</ele>
        <time>2015-03-26T09:20:34Z</time>
      </trkpt>
      <trkpt lat="44.12394" lon="4.28776">
        <ele>358.228394</ele>
        <time>2015-03-26T09:20:41Z</time>
      </trkpt>
      <trkpt lat="44.12394" lon="4.28776">
        <ele>359.67041</ele>
        <time>2015-03-26T09:20:51Z</time>
      </trkpt>
      <trkpt lat="44.12413" lon="4.28792">
        <ele>359.189697</ele>
        <time>2015-03-26T09:21:02Z</time>
      </trkpt>
      <trkpt lat="44.12413" lon="4.28792">
        <ele>360.151123</ele>
        <time>2015-03-26T09:21:04Z</time>
      </trkpt>
      <trkpt lat="44.12416" lon="4.28794">
        <ele>360.151123</ele>
        <time>2015-03-26T09:21:09Z</time>
      </trkpt>
      <trkpt lat="44.12419" lon="4.28797">
        <ele>360.151123</ele>
        <time>2015-03-26T09:21:11Z</time>
      </trkpt>
      <trkpt lat="44.12421" lon="4.28798">
        <ele>361.112427</ele>
        <time>2015-03-26T09:21:16Z</time>
      </trkpt>
      <trkpt lat="44.12428" lon="4.28804">
        <ele>361.59314</ele>
        <time>2015-03-26T09:21:24Z</time>
      </trkpt>
      <trkpt lat="44.12428" lon="4.28804">
        <ele>362.07373</ele>
        <time>2015-03-26T09:21:29Z</time>
      </trkpt>
      <trkpt lat="44.1244" lon="4.28812">
        <ele>363.515747</ele>
        <time>2015-03-26T09:21:37Z</time>
      </trkpt>
      <trkpt lat="44.1244" lon="4.28812">
        <ele>363.996338</ele>
        <time>2015-03-26T09:21:44Z</time>
      </trkpt>
      <trkpt lat="44.12455" lon="4.28818">
        <ele>363.515747</ele>
        <time>2015-03-26T09:21:50Z</time>
      </trkpt>
      <trkpt lat="44.1246" lon="4.2882">
        <ele>363.515747</ele>
        <time>2015-03-26T09:21:54Z</time>
      </trkpt>
      <trkpt lat="44.12471" lon="4.28825">
        <ele>363.996338</ele>
        <time>2015-03-26T09:22:03Z</time>
      </trkpt>
      <trkpt lat="44.12484" lon="4.28827">
        <ele>365.438354</ele>
        <time>2015-03-26T09:22:12Z</time>
      </trkpt>
      <trkpt lat="44.12484" lon="4.28827">
        <ele>364.957642</ele>
        <time>2015-03-26T09:22:18Z</time>
      </trkpt>
      <trkpt lat="44.12484" lon="4.28827">
        <ele>366.880249</ele>
        <time>2015-03-26T09:22:25Z</time>
      </trkpt>
      <trkpt lat="44.12484" lon="4.28827">
        <ele>367.360962</ele>
        <time>2015-03-26T09:22:32Z</time>
      </trkpt>
      <trkpt lat="44.12484" lon="4.28827">
        <ele>368.802979</ele>
        <time>2015-03-26T09:22:40Z</time>
      </trkpt>
      <trkpt lat="44.12484" lon="4.28827">
        <ele>370.244873</ele>
        <time>2015-03-26T09:22:50Z</time>
      </trkpt>
      <trkpt lat="44.12484" lon="4.28827">
        <ele>371.68689</ele>
        <time>2015-03-26T09:23:01Z</time>
      </trkpt>
      <trkpt lat="44.12484" lon="4.28827">
        <ele>372.648193</ele>
        <time>2015-03-26T09:23:02Z</time>
      </trkpt>
      <trkpt lat="44.12484" lon="4.28827">
        <ele>373.609497</ele>
        <time>2015-03-26T09:23:11Z</time>
      </trkpt>
      <trkpt lat="44.12484" lon="4.28827">
        <ele>375.051514</ele>
        <time>2015-03-26T09:23:17Z</time>
      </trkpt>
      <trkpt lat="44.12484" lon="4.28827">
        <ele>375.532104</ele>
        <time>2015-03-26T09:23:24Z</time>
      </trkpt>
      <trkpt lat="44.12484" lon="4.28827">
        <ele>376.012817</ele>
        <time>2015-03-26T09:23:31Z</time>
      </trkpt>
      <trkpt lat="44.12484" lon="4.28827">
        <ele>376.974243</ele>
        <time>2015-03-26T09:23:43Z</time>
      </trkpt>
      <trkpt lat="44.12484" lon="4.28827">
        <ele>378.416138</ele>
        <time>2015-03-26T09:23:55Z</time>
      </trkpt>
      <trkpt lat="44.12484" lon="4.28827">
        <ele>379.377441</ele>
        <time>2015-03-26T09:24:05Z</time>
      </trkpt>
      <trkpt lat="44.12484" lon="4.28827">
        <ele>380.338745</ele>
        <time>2015-03-26T09:24:12Z</time>
      </trkpt>
      <trkpt lat="44.12484" lon="4.28827">
        <ele>380.819458</ele>
        <time>2015-03-26T09:24:15Z</time>
      </trkpt>
      <trkpt lat="44.12484" lon="4.28827">
        <ele>381.78064</ele>
        <time>2015-03-26T09:24:25Z</time>
      </trkpt>
      <trkpt lat="44.12484" lon="4.28827">
        <ele>382.742065</ele>
        <time>2015-03-26T09:24:38Z</time>
      </trkpt>
      <trkpt lat="44.12484" lon="4.28827">
        <ele>382.261353</ele>
        <time>2015-03-26T09:24:44Z</time>
      </trkpt>
      <trkpt lat="44.1246" lon="4.28733">
        <ele>383.703247</ele>
        <time>2015-03-26T09:24:49Z</time>
      </trkpt>
      <trkpt lat="44.12457" lon="4.28728">
        <ele>384.664795</ele>
        <time>2015-03-26T09:24:58Z</time>
      </trkpt>
      <trkpt lat="44.12453" lon="4.28717">
        <ele>386.587402</ele>
        <time>2015-03-26T09:25:09Z</time>
      </trkpt>
      <trkpt lat="44.12447" lon="4.28713">
        <ele>388.51001</ele>
        <time>2015-03-26T09:25:18Z</time>
      </trkpt>
      <trkpt lat="44.12445" lon="4.28707">
        <ele>389.471191</ele>
        <time>2015-03-26T09:25:26Z</time>
      </trkpt>
      <trkpt lat="44.12447" lon="4.28703">
        <ele>389.951904</ele>
        <time>2015-03-26T09:25:33Z</time>
      </trkpt>
      <trkpt lat="44.12451" lon="4.28703">
        <ele>390.913208</ele>
        <time>2015-03-26T09:25:38Z</time>
      </trkpt>
      <trkpt lat="44.12456" lon="4.28703">
        <ele>391.393799</ele>
        <time>2015-03-26T09:25:45Z</time>
      </trkpt>
      <trkpt lat="44.12462" lon="4.28701">
        <ele>392.355347</ele>
        <time>2015-03-26T09:25:51Z</time>
      </trkpt>
      <trkpt lat="44.12465" lon="4.28702">
        <ele>392.835938</ele>
        <time>2015-03-26T09:25:56Z</time>
      </trkpt>
      <trkpt lat="44.12467" lon="4.28702">
        <ele>393.316528</ele>
        <time>2015-03-26T09:25:58Z</time>
      </trkpt>
      <trkpt lat="44.12474" lon="4.28704">
        <ele>393.797241</ele>
        <time>2015-03-26T09:26:05Z</time>
      </trkpt>
      <trkpt lat="44.12477" lon="4.28705">
        <ele>394.277954</ele>
        <time>2015-03-26T09:26:10Z</time>
      </trkpt>
      <trkpt lat="44.12485" lon="4.28706">
        <ele>395.719849</ele>
        <time>2015-03-26T09:26:18Z</time>
      </trkpt>
      <trkpt lat="44.12487" lon="4.28705">
        <ele>395.719849</ele>
        <time>2015-03-26T09:26:26Z</time>
      </trkpt>
      <trkpt lat="44.1249" lon="4.28704">
        <ele>397.642456</ele>
        <time>2015-03-26T09:26:34Z</time>
      </trkpt>
      <trkpt lat="44.12495" lon="4.28705">
        <ele>397.161743</ele>
        <time>2015-03-26T09:26:41Z</time>
      </trkpt>
      <trkpt lat="44.12502" lon="4.28706">
        <ele>398.123169</ele>
        <time>2015-03-26T09:26:49Z</time>
      </trkpt>
      <trkpt lat="44.12508" lon="4.28709">
        <ele>399.565063</ele>
        <time>2015-03-26T09:26:59Z</time>
      </trkpt>
      <trkpt lat="44.12513" lon="4.28708">
        <ele>401.487793</ele>
        <time>2015-03-26T09:27:06Z</time>
      </trkpt>
      <trkpt lat="44.12519" lon="4.2871">
        <ele>401.968506</ele>
        <time>2015-03-26T09:27:16Z</time>
      </trkpt>
      <trkpt lat="44.12525" lon="4.28711">
        <ele>402.929688</ele>
        <time>2015-03-26T09:27:23Z</time>
      </trkpt>
      <trkpt lat="44.12532" lon="4.28711">
        <ele>403.891113</ele>
        <time>2015-03-26T09:27:31Z</time>
      </trkpt>
      <trkpt lat="44.12538" lon="4.28711">
        <ele>405.813721</ele>
        <time>2015-03-26T09:27:39Z</time>
      </trkpt>
      <trkpt lat="44.1254" lon="4.28712">
        <ele>405.333008</ele>
        <time>2015-03-26T09:27:46Z</time>
      </trkpt>
      <trkpt lat="44.12543" lon="4.28713">
        <ele>405.813721</ele>
        <time>2015-03-26T09:27:53Z</time>
      </trkpt>
      <trkpt lat="44.1255" lon="4.28712">
        <ele>407.255615</ele>
        <time>2015-03-26T09:28:03Z</time>
      </trkpt>
      <trkpt lat="44.12553" lon="4.28712">
        <ele>407.736328</ele>
        <time>2015-03-26T09:28:08Z</time>
      </trkpt>
      <trkpt lat="44.12559" lon="4.28711">
        <ele>409.178345</ele>
        <time>2015-03-26T09:28:17Z</time>
      </trkpt>
      <trkpt lat="44.12565" lon="4.28709">
        <ele>410.620239</ele>
        <time>2015-03-26T09:28:27Z</time>
      </trkpt>
      <trkpt lat="44.12571" lon="4.28709">
        <ele>412.062256</ele>
        <time>2015-03-26T09:28:40Z</time>
      </trkpt>
      <trkpt lat="44.12576" lon="4.2871">
        <ele>413.504272</ele>
        <time>2015-03-26T09:28:48Z</time>
      </trkpt>
      <trkpt lat="44.1258" lon="4.28709">
        <ele>414.946167</ele>
        <time>2015-03-26T09:28:54Z</time>
      </trkpt>
      <trkpt lat="44.12584" lon="4.28708">
        <ele>414.946167</ele>
        <time>2015-03-26T09:29:02Z</time>
      </trkpt>
      <trkpt lat="44.12588" lon="4.28706">
        <ele>415.907471</ele>
        <time>2015-03-26T09:29:08Z</time>
      </trkpt>
      <trkpt lat="44.12593" lon="4.28701">
        <ele>416.868896</ele>
        <time>2015-03-26T09:29:17Z</time>
      </trkpt>
      <trkpt lat="44.12598" lon="4.28698">
        <ele>417.349609</ele>
        <time>2015-03-26T09:29:25Z</time>
      </trkpt>
      <trkpt lat="44.126" lon="4.28694">
        <ele>418.791504</ele>
        <time>2015-03-26T09:29:32Z</time>
      </trkpt>
      <trkpt lat="44.12599" lon="4.28695">
        <ele>418.310791</ele>
        <time>2015-03-26T09:29:39Z</time>
      </trkpt>
      <trkpt lat="44.12598" lon="4.28698">
        <ele>418.310791</ele>
        <time>2015-03-26T09:29:49Z</time>
      </trkpt>
      <trkpt lat="44.12598" lon="4.28698">
        <ele>418.791504</ele>
        <time>2015-03-26T09:30:02Z</time>
      </trkpt>
      <trkpt lat="44.12597" lon="4.28695">
        <ele>421.675415</ele>
        <time>2015-03-26T09:32:41Z</time>
      </trkpt>
      <trkpt lat="44.12589" lon="4.28689">
        <ele>424.078735</ele>
        <time>2015-03-26T09:32:53Z</time>
      </trkpt>
      <trkpt lat="44.12581" lon="4.2868">
        <ele>426.482056</ele>
        <time>2015-03-26T09:33:05Z</time>
      </trkpt>
      <trkpt lat="44.12575" lon="4.28674">
        <ele>428.885376</ele>
        <time>2015-03-26T09:33:15Z</time>
      </trkpt>
      <trkpt lat="44.1257" lon="4.28668">
        <ele>430.327271</ele>
        <time>2015-03-26T09:33:25Z</time>
      </trkpt>
      <trkpt lat="44.12561" lon="4.28659">
        <ele>431.769165</ele>
        <time>2015-03-26T09:33:35Z</time>
      </trkpt>
      <trkpt lat="44.12561" lon="4.28657">
        <ele>431.769165</ele>
        <time>2015-03-26T09:33:36Z</time>
      </trkpt>
      <trkpt lat="44.12559" lon="4.28653">
        <ele>432.25</ele>
        <time>2015-03-26T09:33:45Z</time>
      </trkpt>
      <trkpt lat="44.12553" lon="4.28646">
        <ele>433.211304</ele>
        <time>2015-03-26T09:33:56Z</time>
      </trkpt>
      <trkpt lat="44.1255" lon="4.28642">
        <ele>434.172607</ele>
        <time>2015-03-26T09:34:03Z</time>
      </trkpt>
      <trkpt lat="44.12545" lon="4.28637">
        <ele>435.614502</ele>
        <time>2015-03-26T09:34:12Z</time>
      </trkpt>
      <trkpt lat="44.1254" lon="4.28632">
        <ele>437.056519</ele>
        <time>2015-03-26T09:34:21Z</time>
      </trkpt>
      <trkpt lat="44.12533" lon="4.28625">
        <ele>438.498535</ele>
        <time>2015-03-26T09:34:31Z</time>
      </trkpt>
      <trkpt lat="44.12524" lon="4.28619">
        <ele>440.421265</ele>
        <time>2015-03-26T09:34:44Z</time>
      </trkpt>
      <trkpt lat="44.12515" lon="4.28616">
        <ele>440.901855</ele>
        <time>2015-03-26T09:34:54Z</time>
      </trkpt>
      <trkpt lat="44.1251" lon="4.28612">
        <ele>441.863159</ele>
        <time>2015-03-26T09:35:02Z</time>
      </trkpt>
      <trkpt lat="44.12501" lon="4.28604">
        <ele>443.785767</ele>
        <time>2015-03-26T09:35:15Z</time>
      </trkpt>
      <trkpt lat="44.12494" lon="4.28598">
        <ele>444.74707</ele>
        <time>2015-03-26T09:35:25Z</time>
      </trkpt>
      <trkpt lat="44.12485" lon="4.28591">
        <ele>445.708374</ele>
        <time>2015-03-26T09:35:35Z</time>
      </trkpt>
      <trkpt lat="44.1248" lon="4.28583">
        <ele>447.150269</ele>
        <time>2015-03-26T09:35:46Z</time>
      </trkpt>
      <trkpt lat="44.12476" lon="4.28585">
        <ele>448.111816</ele>
        <time>2015-03-26T09:35:54Z</time>
      </trkpt>
      <trkpt lat="44.12477" lon="4.28585">
        <ele>448.111816</ele>
        <time>2015-03-26T09:35:55Z</time>
      </trkpt>
      <trkpt lat="44.1247" lon="4.28583">
        <ele>448.111816</ele>
        <time>2015-03-26T09:36:04Z</time>
      </trkpt>
      <trkpt lat="44.12463" lon="4.2858">
        <ele>448.111816</ele>
        <time>2015-03-26T09:36:14Z</time>
      </trkpt>
      <trkpt lat="44.12453" lon="4.28575">
        <ele>448.592407</ele>
        <time>2015-03-26T09:36:27Z</time>
      </trkpt>
      <trkpt lat="44.12447" lon="4.2857">
        <ele>449.553711</ele>
        <time>2015-03-26T09:36:37Z</time>
      </trkpt>
      <trkpt lat="44.12441" lon="4.28569">
        <ele>450.034424</ele>
        <time>2015-03-26T09:37:12Z</time>
      </trkpt>
      <trkpt lat="44.12434" lon="4.28561">
        <ele>450.995605</ele>
        <time>2015-03-26T09:37:22Z</time>
      </trkpt>
      <trkpt lat="44.12431" lon="4.28557">
        <ele>451.957031</ele>
        <time>2015-03-26T09:37:33Z</time>
      </trkpt>
      <trkpt lat="44.12428" lon="4.28553">
        <ele>452.918213</ele>
        <time>2015-03-26T09:37:43Z</time>
      </trkpt>
      <trkpt lat="44.12426" lon="4.28548">
        <ele>454.360229</ele>
        <time>2015-03-26T09:37:49Z</time>
      </trkpt>
      <trkpt lat="44.1242" lon="4.28539">
        <ele>456.76355</ele>
        <time>2015-03-26T09:38:03Z</time>
      </trkpt>
      <trkpt lat="44.12424" lon="4.28535">
        <ele>458.205566</ele>
        <time>2015-03-26T09:38:13Z</time>
      </trkpt>
      <trkpt lat="44.12432" lon="4.28537">
        <ele>459.647583</ele>
        <time>2015-03-26T09:38:27Z</time>
      </trkpt>
      <trkpt lat="44.12439" lon="4.28536">
        <ele>461.089478</ele>
        <time>2015-03-26T09:38:41Z</time>
      </trkpt>
      <trkpt lat="44.12438" lon="4.28535">
        <ele>462.050781</ele>
        <time>2015-03-26T09:39:00Z</time>
      </trkpt>
      <trkpt lat="44.12432" lon="4.28539">
        <ele>465.415527</ele>
        <time>2015-03-26T09:40:06Z</time>
      </trkpt>
      <trkpt lat="44.12423" lon="4.28529">
        <ele>466.857422</ele>
        <time>2015-03-26T09:40:17Z</time>
      </trkpt>
      <trkpt lat="44.12422" lon="4.28518">
        <ele>467.818726</ele>
        <time>2015-03-26T09:40:25Z</time>
      </trkpt>
      <trkpt lat="44.12417" lon="4.28511">
        <ele>469.741333</ele>
        <time>2015-03-26T09:40:35Z</time>
      </trkpt>
      <trkpt lat="44.12413" lon="4.28503">
        <ele>471.66394</ele>
        <time>2015-03-26T09:40:43Z</time>
      </trkpt>
      <trkpt lat="44.12412" lon="4.285">
        <ele>472.144653</ele>
        <time>2015-03-26T09:40:45Z</time>
      </trkpt>
      <trkpt lat="44.12406" lon="4.28499">
        <ele>473.106079</ele>
        <time>2015-03-26T09:40:52Z</time>
      </trkpt>
      <trkpt lat="44.12402" lon="4.28496">
        <ele>474.067261</ele>
        <time>2015-03-26T09:40:57Z</time>
      </trkpt>
      <trkpt lat="44.12393" lon="4.28485">
        <ele>475.509277</ele>
        <time>2015-03-26T09:41:11Z</time>
      </trkpt>
      <trkpt lat="44.12387" lon="4.28478">
        <ele>476.951294</ele>
        <time>2015-03-26T09:41:20Z</time>
      </trkpt>
      <trkpt lat="44.12383" lon="4.28466">
        <ele>478.393188</ele>
        <time>2015-03-26T09:41:30Z</time>
      </trkpt>
      <trkpt lat="44.12382" lon="4.2846">
        <ele>480.315918</ele>
        <time>2015-03-26T09:41:40Z</time>
      </trkpt>
      <trkpt lat="44.1238" lon="4.28444">
        <ele>482.719238</ele>
        <time>2015-03-26T09:41:55Z</time>
      </trkpt>
      <trkpt lat="44.12381" lon="4.28438">
        <ele>483.199829</ele>
        <time>2015-03-26T09:42:05Z</time>
      </trkpt>
      <trkpt lat="44.12382" lon="4.28439">
        <ele>484.641846</ele>
        <time>2015-03-26T09:42:20Z</time>
      </trkpt>
      <trkpt lat="44.12384" lon="4.28441">
        <ele>485.122437</ele>
        <time>2015-03-26T09:42:30Z</time>
      </trkpt>
      <trkpt lat="44.1239" lon="4.28446">
        <ele>486.564453</ele>
        <time>2015-03-26T09:43:05Z</time>
      </trkpt>
      <trkpt lat="44.12395" lon="4.28448">
        <ele>488.967773</ele>
        <time>2015-03-26T09:43:18Z</time>
      </trkpt>
      <trkpt lat="44.12397" lon="4.28442">
        <ele>489.929077</ele>
        <time>2015-03-26T09:43:24Z</time>
      </trkpt>
      <trkpt lat="44.12397" lon="4.28432">
        <ele>491.851685</ele>
        <time>2015-03-26T09:43:36Z</time>
      </trkpt>
      <trkpt lat="44.12403" lon="4.28437">
        <ele>493.774292</ele>
        <time>2015-03-26T09:43:47Z</time>
      </trkpt>
      <trkpt lat="44.12408" lon="4.2844">
        <ele>495.216187</ele>
        <time>2015-03-26T09:43:58Z</time>
      </trkpt>
      <trkpt lat="44.12411" lon="4.28442">
        <ele>496.658325</ele>
        <time>2015-03-26T09:44:06Z</time>
      </trkpt>
      <trkpt lat="44.1242" lon="4.28441">
        <ele>499.542236</ele>
        <time>2015-03-26T09:44:20Z</time>
      </trkpt>
      <trkpt lat="44.12435" lon="4.28446">
        <ele>501.945557</ele>
        <time>2015-03-26T09:44:35Z</time>
      </trkpt>
      <trkpt lat="44.12441" lon="4.28448">
        <ele>503.387451</ele>
        <time>2015-03-26T09:44:46Z</time>
      </trkpt>
      <trkpt lat="44.12445" lon="4.28451">
        <ele>505.310181</ele>
        <time>2015-03-26T09:44:56Z</time>
      </trkpt>
      <trkpt lat="44.12452" lon="4.28452">
        <ele>506.271484</ele>
        <time>2015-03-26T09:45:06Z</time>
      </trkpt>
      <trkpt lat="44.12454" lon="4.28452">
        <ele>506.271484</ele>
        <time>2015-03-26T09:45:07Z</time>
      </trkpt>
      <trkpt lat="44.12464" lon="4.28458">
        <ele>508.674683</ele>
        <time>2015-03-26T09:45:20Z</time>
      </trkpt>
      <trkpt lat="44.12472" lon="4.28467">
        <ele>510.116699</ele>
        <time>2015-03-26T09:45:31Z</time>
      </trkpt>
      <trkpt lat="44.12481" lon="4.28473">
        <ele>510.59729</ele>
        <time>2015-03-26T09:45:40Z</time>
      </trkpt>
      <trkpt lat="44.12491" lon="4.28468">
        <ele>512.52002</ele>
        <time>2015-03-26T09:45:51Z</time>
      </trkpt>
      <trkpt lat="44.12499" lon="4.2847">
        <ele>514.442627</ele>
        <time>2015-03-26T09:46:02Z</time>
      </trkpt>
      <trkpt lat="44.12505" lon="4.28471">
        <ele>516.365234</ele>
        <time>2015-03-26T09:46:12Z</time>
      </trkpt>
      <trkpt lat="44.12511" lon="4.28471">
        <ele>517.807251</ele>
        <time>2015-03-26T09:46:23Z</time>
      </trkpt>
      <trkpt lat="44.1252" lon="4.2847">
        <ele>520.691284</ele>
        <time>2015-03-26T09:46:35Z</time>
      </trkpt>
      <trkpt lat="44.12525" lon="4.2847">
        <ele>522.133179</ele>
        <time>2015-03-26T09:46:54Z</time>
      </trkpt>
      <trkpt lat="44.12536" lon="4.28466">
        <ele>524.055786</ele>
        <time>2015-03-26T09:47:13Z</time>
      </trkpt>
      <trkpt lat="44.12536" lon="4.28468">
        <ele>524.536499</ele>
        <time>2015-03-26T09:47:36Z</time>
      </trkpt>
      <trkpt lat="44.12537" lon="4.28468">
        <ele>524.536499</ele>
        <time>2015-03-26T09:48:36Z</time>
      </trkpt>
      <trkpt lat="44.12541" lon="4.28467">
        <ele>525.978394</ele>
        <time>2015-03-26T09:49:15Z</time>
      </trkpt>
      <trkpt lat="44.12543" lon="4.28468">
        <ele>526.459106</ele>
        <time>2015-03-26T09:49:27Z</time>
      </trkpt>
      <trkpt lat="44.1255" lon="4.28468">
        <ele>529.34314</ele>
        <time>2015-03-26T09:51:25Z</time>
      </trkpt>
      <trkpt lat="44.12559" lon="4.28468">
        <ele>530.304443</ele>
        <time>2015-03-26T09:51:33Z</time>
      </trkpt>
      <trkpt lat="44.12571" lon="4.2847">
        <ele>531.746338</ele>
        <time>2015-03-26T09:51:46Z</time>
      </trkpt>
      <trkpt lat="44.12585" lon="4.2847">
        <ele>533.668945</ele>
        <time>2015-03-26T09:52:01Z</time>
      </trkpt>
      <trkpt lat="44.12589" lon="4.28468">
        <ele>533.668945</ele>
        <time>2015-03-26T09:52:05Z</time>
      </trkpt>
      <trkpt lat="44.126" lon="4.28475">
        <ele>534.630371</ele>
        <time>2015-03-26T09:52:16Z</time>
      </trkpt>
      <trkpt lat="44.12608" lon="4.28478">
        <ele>535.110962</ele>
        <time>2015-03-26T09:52:23Z</time>
      </trkpt>
      <trkpt lat="44.12617" lon="4.28479">
        <ele>536.553101</ele>
        <time>2015-03-26T09:52:32Z</time>
      </trkpt>
      <trkpt lat="44.12623" lon="4.28481">
        <ele>537.994995</ele>
        <time>2015-03-26T09:52:42Z</time>
      </trkpt>
      <trkpt lat="44.12631" lon="4.2848">
        <ele>540.398315</ele>
        <time>2015-03-26T09:52:53Z</time>
      </trkpt>
      <trkpt lat="44.12642" lon="4.28477">
        <ele>542.320923</ele>
        <time>2015-03-26T09:53:05Z</time>
      </trkpt>
      <trkpt lat="44.12651" lon="4.28473">
        <ele>544.243652</ele>
        <time>2015-03-26T09:53:17Z</time>
      </trkpt>
      <trkpt lat="44.12658" lon="4.28469">
        <ele>546.646851</ele>
        <time>2015-03-26T09:53:28Z</time>
      </trkpt>
      <trkpt lat="44.12667" lon="4.28468">
        <ele>548.088867</ele>
        <time>2015-03-26T09:53:38Z</time>
      </trkpt>
      <trkpt lat="44.12672" lon="4.28467">
        <ele>549.530762</ele>
        <time>2015-03-26T09:53:45Z</time>
      </trkpt>
      <trkpt lat="44.1268" lon="4.28463">
        <ele>550.972656</ele>
        <time>2015-03-26T09:53:56Z</time>
      </trkpt>
      <trkpt lat="44.12686" lon="4.28463">
        <ele>551.934082</ele>
        <time>2015-03-26T09:54:05Z</time>
      </trkpt>
      <trkpt lat="44.12694" lon="4.28472">
        <ele>553.375977</ele>
        <time>2015-03-26T09:59:17Z</time>
      </trkpt>
      <trkpt lat="44.127" lon="4.28469">
        <ele>554.817871</ele>
        <time>2015-03-26T09:59:26Z</time>
      </trkpt>
      <trkpt lat="44.127" lon="4.28469">
        <ele>554.817871</ele>
        <time>2015-03-26T09:59:27Z</time>
      </trkpt>
      <trkpt lat="44.12708" lon="4.28466">
        <ele>555.779297</ele>
        <time>2015-03-26T09:59:36Z</time>
      </trkpt>
      <trkpt lat="44.12717" lon="4.28462">
        <ele>557.702148</ele>
        <time>2015-03-26T09:59:46Z</time>
      </trkpt>
      <trkpt lat="44.12727" lon="4.28452">
        <ele>559.144043</ele>
        <time>2015-03-26T09:59:59Z</time>
      </trkpt>
      <trkpt lat="44.12739" lon="4.28446">
        <ele>561.547363</ele>
        <time>2015-03-26T10:00:15Z</time>
      </trkpt>
      <trkpt lat="44.12755" lon="4.2844">
        <ele>563.950439</ele>
        <time>2015-03-26T10:00:33Z</time>
      </trkpt>
      <trkpt lat="44.12768" lon="4.28437">
        <ele>565.873291</ele>
        <time>2015-03-26T10:00:44Z</time>
      </trkpt>
      <trkpt lat="44.12776" lon="4.28434">
        <ele>567.315186</ele>
        <time>2015-03-26T10:00:52Z</time>
      </trkpt>
      <trkpt lat="44.12784" lon="4.28433">
        <ele>567.795654</ele>
        <time>2015-03-26T10:01:02Z</time>
      </trkpt>
      <trkpt lat="44.12793" lon="4.28428">
        <ele>568.75708</ele>
        <time>2015-03-26T10:01:11Z</time>
      </trkpt>
      <trkpt lat="44.12797" lon="4.28426">
        <ele>569.237793</ele>
        <time>2015-03-26T10:01:20Z</time>
      </trkpt>
      <trkpt lat="44.12797" lon="4.28426">
        <ele>568.75708</ele>
        <time>2015-03-26T10:02:47Z</time>
      </trkpt>
      <trkpt lat="44.12798" lon="4.28426">
        <ele>568.75708</ele>
        <time>2015-03-26T10:02:51Z</time>
      </trkpt>
      <trkpt lat="44.12807" lon="4.28427">
        <ele>569.718506</ele>
        <time>2015-03-26T10:03:02Z</time>
      </trkpt>
      <trkpt lat="44.12809" lon="4.2843">
        <ele>571.1604</ele>
        <time>2015-03-26T10:03:09Z</time>
      </trkpt>
      <trkpt lat="44.12814" lon="4.2843">
        <ele>571.1604</ele>
        <time>2015-03-26T10:03:18Z</time>
      </trkpt>
      <trkpt lat="44.12822" lon="4.28429">
        <ele>571.640869</ele>
        <time>2015-03-26T10:03:28Z</time>
      </trkpt>
      <trkpt lat="44.12829" lon="4.2843">
        <ele>572.602539</ele>
        <time>2015-03-26T10:03:36Z</time>
      </trkpt>
      <trkpt lat="44.12837" lon="4.2843">
        <ele>573.563965</ele>
        <time>2015-03-26T10:03:46Z</time>
      </trkpt>
      <trkpt lat="44.12842" lon="4.2843">
        <ele>574.044434</ele>
        <time>2015-03-26T10:03:53Z</time>
      </trkpt>
      <trkpt lat="44.12845" lon="4.2843">
        <ele>575.005859</ele>
        <time>2015-03-26T10:03:59Z</time>
      </trkpt>
      <trkpt lat="44.12852" lon="4.28427">
        <ele>576.447754</ele>
        <time>2015-03-26T10:04:10Z</time>
      </trkpt>
      <trkpt lat="44.12857" lon="4.28426">
        <ele>577.40918</ele>
        <time>2015-03-26T10:04:17Z</time>
      </trkpt>
      <trkpt lat="44.12862" lon="4.28424">
        <ele>578.370361</ele>
        <time>2015-03-26T10:04:27Z</time>
      </trkpt>
      <trkpt lat="44.12868" lon="4.28424">
        <ele>579.331543</ele>
        <time>2015-03-26T10:04:37Z</time>
      </trkpt>
      <trkpt lat="44.12874" lon="4.28422">
        <ele>580.773682</ele>
        <time>2015-03-26T10:04:46Z</time>
      </trkpt>
      <trkpt lat="44.1288" lon="4.28422">
        <ele>581.254395</ele>
        <time>2015-03-26T10:04:53Z</time>
      </trkpt>
      <trkpt lat="44.12887" lon="4.28421">
        <ele>582.215576</ele>
        <time>2015-03-26T10:05:01Z</time>
      </trkpt>
      <trkpt lat="44.12898" lon="4.28422">
        <ele>584.138184</ele>
        <time>2015-03-26T10:05:16Z</time>
      </trkpt>
      <trkpt lat="44.12907" lon="4.28423">
        <ele>584.618896</ele>
        <time>2015-03-26T10:05:26Z</time>
      </trkpt>
      <trkpt lat="44.12914" lon="4.28426">
        <ele>586.060791</ele>
        <time>2015-03-26T10:05:35Z</time>
      </trkpt>
      <trkpt lat="44.12922" lon="4.28429">
        <ele>586.060791</ele>
        <time>2015-03-26T10:05:45Z</time>
      </trkpt>
      <trkpt lat="44.12927" lon="4.2843">
        <ele>587.021973</ele>
        <time>2015-03-26T10:05:53Z</time>
      </trkpt>
      <trkpt lat="44.12932" lon="4.28432">
        <ele>587.021973</ele>
        <time>2015-03-26T10:06:03Z</time>
      </trkpt>
      <trkpt lat="44.12941" lon="4.28435">
        <ele>588.945068</ele>
        <time>2015-03-26T10:06:13Z</time>
      </trkpt>
      <trkpt lat="44.12948" lon="4.28438">
        <ele>589.425537</ele>
        <time>2015-03-26T10:06:23Z</time>
      </trkpt>
      <trkpt lat="44.12959" lon="4.28443">
        <ele>589.90625</ele>
        <time>2015-03-26T10:06:40Z</time>
      </trkpt>
      <trkpt lat="44.1297" lon="4.28447">
        <ele>590.867432</ele>
        <time>2015-03-26T10:06:51Z</time>
      </trkpt>
      <trkpt lat="44.12974" lon="4.2845">
        <ele>591.348145</ele>
        <time>2015-03-26T10:06:58Z</time>
      </trkpt>
      <trkpt lat="44.12982" lon="4.28451">
        <ele>592.30957</ele>
        <time>2015-03-26T10:07:06Z</time>
      </trkpt>
      <trkpt lat="44.12989" lon="4.28453">
        <ele>593.270752</ele>
        <time>2015-03-26T10:07:16Z</time>
      </trkpt>
      <trkpt lat="44.12997" lon="4.28454">
        <ele>594.232178</ele>
        <time>2015-03-26T10:07:26Z</time>
      </trkpt>
      <trkpt lat="44.13001" lon="4.28456">
        <ele>595.193359</ele>
        <time>2015-03-26T10:07:33Z</time>
      </trkpt>
      <trkpt lat="44.13007" lon="4.28457">
        <ele>595.674072</ele>
        <time>2015-03-26T10:07:41Z</time>
      </trkpt>
      <trkpt lat="44.13014" lon="4.28456">
        <ele>596.635498</ele>
        <time>2015-03-26T10:07:52Z</time>
      </trkpt>
      <trkpt lat="44.1302" lon="4.28456">
        <ele>597.115967</ele>
        <time>2015-03-26T10:07:58Z</time>
      </trkpt>
      <trkpt lat="44.13027" lon="4.28459">
        <ele>598.557861</ele>
        <time>2015-03-26T10:08:09Z</time>
      </trkpt>
      <trkpt lat="44.13033" lon="4.28462">
        <ele>599.519287</ele>
        <time>2015-03-26T10:08:16Z</time>
      </trkpt>
      <trkpt lat="44.1304" lon="4.28467">
        <ele>600.480713</ele>
        <time>2015-03-26T10:08:24Z</time>
      </trkpt>
      <trkpt lat="44.13046" lon="4.28472">
        <ele>600.961182</ele>
        <time>2015-03-26T10:08:33Z</time>
      </trkpt>
      <trkpt lat="44.13053" lon="4.28475">
        <ele>601.441895</ele>
        <time>2015-03-26T10:08:42Z</time>
      </trkpt>
      <trkpt lat="44.13057" lon="4.28478">
        <ele>601.922607</ele>
        <time>2015-03-26T10:08:47Z</time>
      </trkpt>
      <trkpt lat="44.13063" lon="4.2848">
        <ele>601.441895</ele>
        <time>2015-03-26T10:08:53Z</time>
      </trkpt>
      <trkpt lat="44.1307" lon="4.28482">
        <ele>602.403076</ele>
        <time>2015-03-26T10:09:01Z</time>
      </trkpt>
      <trkpt lat="44.13082" lon="4.28485">
        <ele>603.364502</ele>
        <time>2015-03-26T10:09:15Z</time>
      </trkpt>
      <trkpt lat="44.13091" lon="4.28487">
        <ele>603.845215</ele>
        <time>2015-03-26T10:09:26Z</time>
      </trkpt>
      <trkpt lat="44.13102" lon="4.28488">
        <ele>605.287354</ele>
        <time>2015-03-26T10:09:37Z</time>
      </trkpt>
      <trkpt lat="44.13113" lon="4.28491">
        <ele>604.806641</ele>
        <time>2015-03-26T10:09:48Z</time>
      </trkpt>
      <trkpt lat="44.13123" lon="4.28494">
        <ele>605.287354</ele>
        <time>2015-03-26T10:09:58Z</time>
      </trkpt>
      <trkpt lat="44.13135" lon="4.28496">
        <ele>606.729248</ele>
        <time>2015-03-26T10:10:11Z</time>
      </trkpt>
      <trkpt lat="44.1314" lon="4.28497">
        <ele>606.248535</ele>
        <time>2015-03-26T10:10:16Z</time>
      </trkpt>
      <trkpt lat="44.13148" lon="4.28498">
        <ele>605.287354</ele>
        <time>2015-03-26T10:10:23Z</time>
      </trkpt>
      <trkpt lat="44.13162" lon="4.28502">
        <ele>605.768066</ele>
        <time>2015-03-26T10:10:35Z</time>
      </trkpt>
      <trkpt lat="44.13164" lon="4.28502">
        <ele>607.690674</ele>
        <time>2015-03-26T10:10:37Z</time>
      </trkpt>
      <trkpt lat="44.13174" lon="4.28503">
        <ele>608.171387</ele>
        <time>2015-03-26T10:10:45Z</time>
      </trkpt>
      <trkpt lat="44.13181" lon="4.28509">
        <ele>609.613281</ele>
        <time>2015-03-26T10:10:54Z</time>
      </trkpt>
      <trkpt lat="44.13188" lon="4.28518">
        <ele>611.055176</ele>
        <time>2015-03-26T10:11:05Z</time>
      </trkpt>
      <trkpt lat="44.1319" lon="4.2852">
        <ele>611.535889</ele>
        <time>2015-03-26T10:11:08Z</time>
      </trkpt>
      <trkpt lat="44.1319" lon="4.28528">
        <ele>612.49707</ele>
        <time>2015-03-26T10:11:14Z</time>
      </trkpt>
      <trkpt lat="44.13191" lon="4.28536">
        <ele>613.458496</ele>
        <time>2015-03-26T10:11:22Z</time>
      </trkpt>
      <trkpt lat="44.13195" lon="4.28538">
        <ele>613.938965</ele>
        <time>2015-03-26T10:11:26Z</time>
      </trkpt>
      <trkpt lat="44.13203" lon="4.28541">
        <ele>613.938965</ele>
        <time>2015-03-26T10:11:34Z</time>
      </trkpt>
      <trkpt lat="44.13207" lon="4.28542">
        <ele>613.458496</ele>
        <time>2015-03-26T10:11:42Z</time>
      </trkpt>
      <trkpt lat="44.13211" lon="4.28544">
        <ele>613.938965</ele>
        <time>2015-03-26T10:11:48Z</time>
      </trkpt>
      <trkpt lat="44.13214" lon="4.28545">
        <ele>613.938965</ele>
        <time>2015-03-26T10:11:54Z</time>
      </trkpt>
      <trkpt lat="44.13217" lon="4.28552">
        <ele>613.938965</ele>
        <time>2015-03-26T10:12:01Z</time>
      </trkpt>
      <trkpt lat="44.13218" lon="4.28555">
        <ele>614.419678</ele>
        <time>2015-03-26T10:12:09Z</time>
      </trkpt>
      <trkpt lat="44.13218" lon="4.28556">
        <ele>613.938965</ele>
        <time>2015-03-26T10:12:19Z</time>
      </trkpt>
      <trkpt lat="44.13215" lon="4.28555">
        <ele>613.938965</ele>
        <time>2015-03-26T10:12:29Z</time>
      </trkpt>
      <trkpt lat="44.13216" lon="4.28556">
        <ele>613.938965</ele>
        <time>2015-03-26T10:12:38Z</time>
      </trkpt>
      <trkpt lat="44.13216" lon="4.28553">
        <ele>613.938965</ele>
        <time>2015-03-26T10:12:51Z</time>
      </trkpt>
      <trkpt lat="44.13216" lon="4.28554">
        <ele>613.938965</ele>
        <time>2015-03-26T10:13:21Z</time>
      </trkpt>
      <trkpt lat="44.13216" lon="4.28554">
        <ele>613.458496</ele>
        <time>2015-03-26T10:13:59Z</time>
      </trkpt>
      <trkpt lat="44.13217" lon="4.28551">
        <ele>613.938965</ele>
        <time>2015-03-26T10:14:06Z</time>
      </trkpt>
      <trkpt lat="44.13226" lon="4.28546">
        <ele>614.419678</ele>
        <time>2015-03-26T10:14:17Z</time>
      </trkpt>
      <trkpt lat="44.1323" lon="4.28543">
        <ele>614.900391</ele>
        <time>2015-03-26T10:14:26Z</time>
      </trkpt>
      <trkpt lat="44.1323" lon="4.28542">
        <ele>614.900391</ele>
        <time>2015-03-26T10:14:56Z</time>
      </trkpt>
      <trkpt lat="44.13227" lon="4.28544">
        <ele>614.419678</ele>
        <time>2015-03-26T10:15:10Z</time>
      </trkpt>
      <trkpt lat="44.13224" lon="4.2855">
        <ele>613.938965</ele>
        <time>2015-03-26T10:15:17Z</time>
      </trkpt>
      <trkpt lat="44.13226" lon="4.28552">
        <ele>613.938965</ele>
        <time>2015-03-26T10:15:24Z</time>
      </trkpt>
      <trkpt lat="44.13227" lon="4.28553">
        <ele>613.938965</ele>
        <time>2015-03-26T10:15:25Z</time>
      </trkpt>
      <trkpt lat="44.13233" lon="4.28554">
        <ele>614.900391</ele>
        <time>2015-03-26T10:15:33Z</time>
      </trkpt>
      <trkpt lat="44.13232" lon="4.28553">
        <ele>614.419678</ele>
        <time>2015-03-26T10:15:43Z</time>
      </trkpt>
      <trkpt lat="44.13233" lon="4.28548">
        <ele>614.419678</ele>
        <time>2015-03-26T10:15:56Z</time>
      </trkpt>
      <trkpt lat="44.13234" lon="4.28542">
        <ele>614.419678</ele>
        <time>2015-03-26T10:16:06Z</time>
      </trkpt>
      <trkpt lat="44.13235" lon="4.28542">
        <ele>613.938965</ele>
        <time>2015-03-26T10:18:04Z</time>
      </trkpt>
      <trkpt lat="44.13235" lon="4.28543">
        <ele>616.342285</ele>
        <time>2015-03-26T10:23:07Z</time>
      </trkpt>
      <trkpt lat="44.13234" lon="4.2855">
        <ele>616.342285</ele>
        <time>2015-03-26T10:29:05Z</time>
      </trkpt>
      <trkpt lat="44.13235" lon="4.2855">
        <ele>616.342285</ele>
        <time>2015-03-26T10:29:13Z</time>
      </trkpt>
      <trkpt lat="44.13236" lon="4.28546">
        <ele>615.861816</ele>
        <time>2015-03-26T10:29:20Z</time>
      </trkpt>
      <trkpt lat="44.13236" lon="4.28546">
        <ele>616.342285</ele>
        <time>2015-03-26T10:29:39Z</time>
      </trkpt>
      <trkpt lat="44.13237" lon="4.28552">
        <ele>616.822998</ele>
        <time>2015-03-26T10:29:48Z</time>
      </trkpt>
      <trkpt lat="44.1324" lon="4.28559">
        <ele>617.78418</ele>
        <time>2015-03-26T10:30:01Z</time>
      </trkpt>
      <trkpt lat="44.13246" lon="4.28564">
        <ele>619.226318</ele>
        <time>2015-03-26T10:30:13Z</time>
      </trkpt>
      <trkpt lat="44.1325" lon="4.28566">
        <ele>619.226318</ele>
        <time>2015-03-26T10:30:23Z</time>
      </trkpt>
      <trkpt lat="44.13255" lon="4.28572">
        <ele>619.707031</ele>
        <time>2015-03-26T10:30:30Z</time>
      </trkpt>
      <trkpt lat="44.13258" lon="4.28574">
        <ele>620.187744</ele>
        <time>2015-03-26T10:30:33Z</time>
      </trkpt>
      <trkpt lat="44.13267" lon="4.28578">
        <ele>620.668457</ele>
        <time>2015-03-26T10:30:41Z</time>
      </trkpt>
      <trkpt lat="44.13271" lon="4.28582">
        <ele>621.629639</ele>
        <time>2015-03-26T10:30:48Z</time>
      </trkpt>
      <trkpt lat="44.13275" lon="4.28586">
        <ele>621.14917</ele>
        <time>2015-03-26T10:31:31Z</time>
      </trkpt>
      <trkpt lat="44.13277" lon="4.2859">
        <ele>621.629639</ele>
        <time>2015-03-26T10:31:39Z</time>
      </trkpt>
      <trkpt lat="44.13277" lon="4.2859">
        <ele>620.668457</ele>
        <time>2015-03-26T10:32:04Z</time>
      </trkpt>
      <trkpt lat="44.13282" lon="4.28589">
        <ele>620.668457</ele>
        <time>2015-03-26T10:32:12Z</time>
      </trkpt>
      <trkpt lat="44.13283" lon="4.2859">
        <ele>621.629639</ele>
        <time>2015-03-26T10:32:22Z</time>
      </trkpt>
      <trkpt lat="44.13286" lon="4.28585">
        <ele>620.668457</ele>
        <time>2015-03-26T10:32:33Z</time>
      </trkpt>
      <trkpt lat="44.1329" lon="4.28581">
        <ele>619.707031</ele>
        <time>2015-03-26T10:32:46Z</time>
      </trkpt>
      <trkpt lat="44.1329" lon="4.28582">
        <ele>619.707031</ele>
        <time>2015-03-26T10:32:54Z</time>
      </trkpt>
      <trkpt lat="44.13291" lon="4.28588">
        <ele>619.707031</ele>
        <time>2015-03-26T10:33:26Z</time>
      </trkpt>
      <trkpt lat="44.13293" lon="4.28586">
        <ele>619.226318</ele>
        <time>2015-03-26T10:33:40Z</time>
      </trkpt>
      <trkpt lat="44.13305" lon="4.28585">
        <ele>617.78418</ele>
        <time>2015-03-26T10:33:56Z</time>
      </trkpt>
      <trkpt lat="44.1331" lon="4.28578">
        <ele>617.303711</ele>
        <time>2015-03-26T10:34:06Z</time>
      </trkpt>
      <trkpt lat="44.1331" lon="4.2857">
        <ele>616.342285</ele>
        <time>2015-03-26T10:34:13Z</time>
      </trkpt>
      <trkpt lat="44.1331" lon="4.28563">
        <ele>616.342285</ele>
        <time>2015-03-26T10:34:18Z</time>
      </trkpt>
      <trkpt lat="44.1331" lon="4.28561">
        <ele>615.861816</ele>
        <time>2015-03-26T10:34:20Z</time>
      </trkpt>
      <trkpt lat="44.13308" lon="4.28548">
        <ele>613.938965</ele>
        <time>2015-03-26T10:34:31Z</time>
      </trkpt>
      <trkpt lat="44.13309" lon="4.28548">
        <ele>613.458496</ele>
        <time>2015-03-26T10:34:43Z</time>
      </trkpt>
      <trkpt lat="44.13308" lon="4.28549">
        <ele>613.938965</ele>
        <time>2015-03-26T10:35:42Z</time>
      </trkpt>
      <trkpt lat="44.13308" lon="4.28551">
        <ele>613.938965</ele>
        <time>2015-03-26T10:35:52Z</time>
      </trkpt>
      <trkpt lat="44.13308" lon="4.28551">
        <ele>614.419678</ele>
        <time>2015-03-26T10:36:02Z</time>
      </trkpt>
      <trkpt lat="44.1331" lon="4.28548">
        <ele>613.938965</ele>
        <time>2015-03-26T10:36:12Z</time>
      </trkpt>
      <trkpt lat="44.13307" lon="4.28547">
        <ele>613.938965</ele>
        <time>2015-03-26T10:36:19Z</time>
      </trkpt>
      <trkpt lat="44.13306" lon="4.2854">
        <ele>611.535889</ele>
        <time>2015-03-26T10:36:30Z</time>
      </trkpt>
      <trkpt lat="44.13309" lon="4.28533">
        <ele>610.574463</ele>
        <time>2015-03-26T10:36:39Z</time>
      </trkpt>
      <trkpt lat="44.13318" lon="4.28532">
        <ele>611.055176</ele>
        <time>2015-03-26T10:36:49Z</time>
      </trkpt>
      <trkpt lat="44.13328" lon="4.28537">
        <ele>609.132568</ele>
        <time>2015-03-26T10:37:01Z</time>
      </trkpt>
      <trkpt lat="44.1334" lon="4.28541">
        <ele>608.171387</ele>
        <time>2015-03-26T10:37:14Z</time>
      </trkpt>
      <trkpt lat="44.13356" lon="4.28548">
        <ele>608.651855</ele>
        <time>2015-03-26T10:37:31Z</time>
      </trkpt>
      <trkpt lat="44.13357" lon="4.28548">
        <ele>608.651855</ele>
        <time>2015-03-26T10:37:33Z</time>
      </trkpt>
      <trkpt lat="44.13366" lon="4.28545">
        <ele>607.690674</ele>
        <time>2015-03-26T10:37:42Z</time>
      </trkpt>
      <trkpt lat="44.13367" lon="4.28544">
        <ele>607.209961</ele>
        <time>2015-03-26T10:37:43Z</time>
      </trkpt>
      <trkpt lat="44.13368" lon="4.28543">
        <ele>606.729248</ele>
        <time>2015-03-26T10:37:44Z</time>
      </trkpt>
      <trkpt lat="44.13367" lon="4.28532">
        <ele>606.729248</ele>
        <time>2015-03-26T10:37:52Z</time>
      </trkpt>
      <trkpt lat="44.13359" lon="4.28522">
        <ele>605.768066</ele>
        <time>2015-03-26T10:38:04Z</time>
      </trkpt>
      <trkpt lat="44.13357" lon="4.28522">
        <ele>605.287354</ele>
        <time>2015-03-26T10:38:15Z</time>
      </trkpt>
      <trkpt lat="44.13358" lon="4.28523">
        <ele>606.248535</ele>
        <time>2015-03-26T10:38:28Z</time>
      </trkpt>
      <trkpt lat="44.13365" lon="4.28533">
        <ele>606.248535</ele>
        <time>2015-03-26T10:38:40Z</time>
      </trkpt>
      <trkpt lat="44.13374" lon="4.28543">
        <ele>608.171387</ele>
        <time>2015-03-26T10:38:54Z</time>
      </trkpt>
      <trkpt lat="44.13374" lon="4.28552">
        <ele>607.690674</ele>
        <time>2015-03-26T10:39:04Z</time>
      </trkpt>
      <trkpt lat="44.13379" lon="4.28556">
        <ele>606.248535</ele>
        <time>2015-03-26T10:39:18Z</time>
      </trkpt>
      <trkpt lat="44.13383" lon="4.28552">
        <ele>605.768066</ele>
        <time>2015-03-26T10:39:25Z</time>
      </trkpt>
      <trkpt lat="44.13382" lon="4.28551">
        <ele>605.287354</ele>
        <time>2015-03-26T10:39:26Z</time>
      </trkpt>
      <trkpt lat="44.13386" lon="4.28548">
        <ele>605.287354</ele>
        <time>2015-03-26T10:39:33Z</time>
      </trkpt>
      <trkpt lat="44.13393" lon="4.28544">
        <ele>604.326172</ele>
        <time>2015-03-26T10:39:44Z</time>
      </trkpt>
      <trkpt lat="44.134" lon="4.28546">
        <ele>602.403076</ele>
        <time>2015-03-26T10:39:51Z</time>
      </trkpt>
      <trkpt lat="44.13409" lon="4.28542">
        <ele>598.557861</ele>
        <time>2015-03-26T10:40:06Z</time>
      </trkpt>
      <trkpt lat="44.13418" lon="4.28539">
        <ele>598.077393</ele>
        <time>2015-03-26T10:40:18Z</time>
      </trkpt>
      <trkpt lat="44.13428" lon="4.28537">
        <ele>596.635498</ele>
        <time>2015-03-26T10:40:30Z</time>
      </trkpt>
      <trkpt lat="44.13435" lon="4.2853">
        <ele>595.193359</ele>
        <time>2015-03-26T10:40:42Z</time>
      </trkpt>
      <trkpt lat="44.13447" lon="4.28527">
        <ele>593.270752</ele>
        <time>2015-03-26T10:40:56Z</time>
      </trkpt>
      <trkpt lat="44.13455" lon="4.28527">
        <ele>591.828857</ele>
        <time>2015-03-26T10:41:05Z</time>
      </trkpt>
      <trkpt lat="44.13461" lon="4.28523">
        <ele>590.386963</ele>
        <time>2015-03-26T10:41:14Z</time>
      </trkpt>
      <trkpt lat="44.13468" lon="4.28516">
        <ele>588.945068</ele>
        <time>2015-03-26T10:41:25Z</time>
      </trkpt>
      <trkpt lat="44.13475" lon="4.28506">
        <ele>587.502686</ele>
        <time>2015-03-26T10:41:36Z</time>
      </trkpt>
      <trkpt lat="44.13485" lon="4.28491">
        <ele>584.618896</ele>
        <time>2015-03-26T10:41:50Z</time>
      </trkpt>
      <trkpt lat="44.13491" lon="4.28482">
        <ele>583.176758</ele>
        <time>2015-03-26T10:42:02Z</time>
      </trkpt>
      <trkpt lat="44.13497" lon="4.28473">
        <ele>581.734863</ele>
        <time>2015-03-26T10:42:11Z</time>
      </trkpt>
      <trkpt lat="44.13502" lon="4.28462">
        <ele>581.254395</ele>
        <time>2015-03-26T10:42:19Z</time>
      </trkpt>
      <trkpt lat="44.13504" lon="4.28461">
        <ele>580.773682</ele>
        <time>2015-03-26T10:42:21Z</time>
      </trkpt>
      <trkpt lat="44.13509" lon="4.28454">
        <ele>578.851074</ele>
        <time>2015-03-26T10:42:29Z</time>
      </trkpt>
      <trkpt lat="44.1351" lon="4.28445">
        <ele>578.370361</ele>
        <time>2015-03-26T10:42:35Z</time>
      </trkpt>
      <trkpt lat="44.13514" lon="4.28438">
        <ele>576.928467</ele>
        <time>2015-03-26T10:42:44Z</time>
      </trkpt>
      <trkpt lat="44.13516" lon="4.28433">
        <ele>575.486328</ele>
        <time>2015-03-26T10:42:53Z</time>
      </trkpt>
      <trkpt lat="44.13519" lon="4.28429">
        <ele>574.525146</ele>
        <time>2015-03-26T10:42:57Z</time>
      </trkpt>
      <trkpt lat="44.13521" lon="4.28424">
        <ele>573.083252</ele>
        <time>2015-03-26T10:43:05Z</time>
      </trkpt>
      <trkpt lat="44.13524" lon="4.2842">
        <ele>572.121826</ele>
        <time>2015-03-26T10:43:12Z</time>
      </trkpt>
      <trkpt lat="44.13529" lon="4.28415">
        <ele>571.640869</ele>
        <time>2015-03-26T10:43:18Z</time>
      </trkpt>
      <trkpt lat="44.13534" lon="4.28404">
        <ele>569.237793</ele>
        <time>2015-03-26T10:43:30Z</time>
      </trkpt>
      <trkpt lat="44.13535" lon="4.28399">
        <ele>568.276367</ele>
        <time>2015-03-26T10:43:37Z</time>
      </trkpt>
      <trkpt lat="44.13535" lon="4.28394">
        <ele>567.315186</ele>
        <time>2015-03-26T10:43:40Z</time>
      </trkpt>
      <trkpt lat="44.13537" lon="4.28392">
        <ele>567.795654</ele>
        <time>2015-03-26T10:43:42Z</time>
      </trkpt>
      <trkpt lat="44.13537" lon="4.28394">
        <ele>568.276367</ele>
        <time>2015-03-26T10:43:49Z</time>
      </trkpt>
      <trkpt lat="44.13534" lon="4.28401">
        <ele>569.237793</ele>
        <time>2015-03-26T10:43:58Z</time>
      </trkpt>
      <trkpt lat="44.13534" lon="4.2841">
        <ele>571.1604</ele>
        <time>2015-03-26T10:44:06Z</time>
      </trkpt>
      <trkpt lat="44.13532" lon="4.28418">
        <ele>571.640869</ele>
        <time>2015-03-26T10:44:16Z</time>
      </trkpt>
      <trkpt lat="44.1353" lon="4.28423">
        <ele>572.602539</ele>
        <time>2015-03-26T10:44:25Z</time>
      </trkpt>
      <trkpt lat="44.13527" lon="4.28426">
        <ele>574.044434</ele>
        <time>2015-03-26T10:44:32Z</time>
      </trkpt>
      <trkpt lat="44.13524" lon="4.28429">
        <ele>575.005859</ele>
        <time>2015-03-26T10:44:41Z</time>
      </trkpt>
      <trkpt lat="44.13524" lon="4.28435">
        <ele>575.486328</ele>
        <time>2015-03-26T10:44:47Z</time>
      </trkpt>
      <trkpt lat="44.13525" lon="4.28437">
        <ele>575.967041</ele>
        <time>2015-03-26T10:44:49Z</time>
      </trkpt>
      <trkpt lat="44.13524" lon="4.28441">
        <ele>576.928467</ele>
        <time>2015-03-26T10:44:52Z</time>
      </trkpt>
      <trkpt lat="44.1352" lon="4.28448">
        <ele>577.40918</ele>
        <time>2015-03-26T10:44:57Z</time>
      </trkpt>
      <trkpt lat="44.1352" lon="4.28455">
        <ele>577.40918</ele>
        <time>2015-03-26T10:45:03Z</time>
      </trkpt>
      <trkpt lat="44.13518" lon="4.28469">
        <ele>579.812256</ele>
        <time>2015-03-26T10:45:14Z</time>
      </trkpt>
      <trkpt lat="44.13516" lon="4.28484">
        <ele>581.254395</ele>
        <time>2015-03-26T10:45:24Z</time>
      </trkpt>
      <trkpt lat="44.13515" lon="4.28499">
        <ele>581.254395</ele>
        <time>2015-03-26T10:45:35Z</time>
      </trkpt>
      <trkpt lat="44.13518" lon="4.28503">
        <ele>582.215576</ele>
        <time>2015-03-26T10:45:38Z</time>
      </trkpt>
      <trkpt lat="44.13517" lon="4.28515">
        <ele>582.215576</ele>
        <time>2015-03-26T10:45:45Z</time>
      </trkpt>
      <trkpt lat="44.13517" lon="4.28524">
        <ele>582.696289</ele>
        <time>2015-03-26T10:45:52Z</time>
      </trkpt>
      <trkpt lat="44.13519" lon="4.28525">
        <ele>581.254395</ele>
        <time>2015-03-26T10:45:59Z</time>
      </trkpt>
      <trkpt lat="44.13523" lon="4.28528">
        <ele>580.292969</ele>
        <time>2015-03-26T10:46:06Z</time>
      </trkpt>
      <trkpt lat="44.13526" lon="4.28531">
        <ele>578.851074</ele>
        <time>2015-03-26T10:46:19Z</time>
      </trkpt>
      <trkpt lat="44.13534" lon="4.28537">
        <ele>577.40918</ele>
        <time>2015-03-26T10:46:29Z</time>
      </trkpt>
      <trkpt lat="44.13538" lon="4.28537">
        <ele>575.967041</ele>
        <time>2015-03-26T10:46:40Z</time>
      </trkpt>
      <trkpt lat="44.13543" lon="4.28537">
        <ele>575.005859</ele>
        <time>2015-03-26T10:46:49Z</time>
      </trkpt>
      <trkpt lat="44.13551" lon="4.28533">
        <ele>572.602539</ele>
        <time>2015-03-26T10:47:01Z</time>
      </trkpt>
      <trkpt lat="44.13553" lon="4.28531">
        <ele>572.602539</ele>
        <time>2015-03-26T10:47:03Z</time>
      </trkpt>
      <trkpt lat="44.13559" lon="4.28527">
        <ele>571.640869</ele>
        <time>2015-03-26T10:47:08Z</time>
      </trkpt>
      <trkpt lat="44.13562" lon="4.28521">
        <ele>570.198975</ele>
        <time>2015-03-26T10:47:16Z</time>
      </trkpt>
      <trkpt lat="44.13565" lon="4.2852">
        <ele>569.237793</ele>
        <time>2015-03-26T10:47:21Z</time>
      </trkpt>
      <trkpt lat="44.13568" lon="4.28519">
        <ele>569.237793</ele>
        <time>2015-03-26T10:47:24Z</time>
      </trkpt>
      <trkpt lat="44.13572" lon="4.28513">
        <ele>567.795654</ele>
        <time>2015-03-26T10:47:31Z</time>
      </trkpt>
      <trkpt lat="44.13581" lon="4.28509">
        <ele>566.834473</ele>
        <time>2015-03-26T10:47:38Z</time>
      </trkpt>
      <trkpt lat="44.13585" lon="4.28506">
        <ele>565.392578</ele>
        <time>2015-03-26T10:47:43Z</time>
      </trkpt>
      <trkpt lat="44.13591" lon="4.28505">
        <ele>564.911865</ele>
        <time>2015-03-26T10:47:48Z</time>
      </trkpt>
      <trkpt lat="44.13591" lon="4.28505">
        <ele>564.911865</ele>
        <time>2015-03-26T10:47:49Z</time>
      </trkpt>
      <trkpt lat="44.13594" lon="4.28507">
        <ele>564.431152</ele>
        <time>2015-03-26T10:47:52Z</time>
      </trkpt>
      <trkpt lat="44.13598" lon="4.28503">
        <ele>562.989258</ele>
        <time>2015-03-26T10:48:00Z</time>
      </trkpt>
      <trkpt lat="44.13604" lon="4.28498">
        <ele>562.028076</ele>
        <time>2015-03-26T10:48:05Z</time>
      </trkpt>
      <trkpt lat="44.13604" lon="4.28496">
        <ele>561.547363</ele>
        <time>2015-03-26T10:48:06Z</time>
      </trkpt>
      <trkpt lat="44.13607" lon="4.2849">
        <ele>560.585938</ele>
        <time>2015-03-26T10:48:12Z</time>
      </trkpt>
      <trkpt lat="44.13611" lon="4.28489">
        <ele>560.105225</ele>
        <time>2015-03-26T10:48:17Z</time>
      </trkpt>
      <trkpt lat="44.13617" lon="4.28491">
        <ele>558.66333</ele>
        <time>2015-03-26T10:48:25Z</time>
      </trkpt>
      <trkpt lat="44.13622" lon="4.28494">
        <ele>556.740723</ele>
        <time>2015-03-26T10:48:30Z</time>
      </trkpt>
      <trkpt lat="44.13626" lon="4.28496">
        <ele>554.817871</ele>
        <time>2015-03-26T10:48:37Z</time>
      </trkpt>
      <trkpt lat="44.1363" lon="4.28497">
        <ele>553.375977</ele>
        <time>2015-03-26T10:48:43Z</time>
      </trkpt>
      <trkpt lat="44.13634" lon="4.28497">
        <ele>553.375977</ele>
        <time>2015-03-26T10:48:48Z</time>
      </trkpt>
      <trkpt lat="44.13635" lon="4.28495">
        <ele>553.856689</ele>
        <time>2015-03-26T10:48:53Z</time>
      </trkpt>
      <trkpt lat="44.13638" lon="4.28491">
        <ele>552.895264</ele>
        <time>2015-03-26T10:49:01Z</time>
      </trkpt>
      <trkpt lat="44.13639" lon="4.28489">
        <ele>552.895264</ele>
        <time>2015-03-26T10:49:03Z</time>
      </trkpt>
      <trkpt lat="44.13643" lon="4.28482">
        <ele>551.934082</ele>
        <time>2015-03-26T10:49:10Z</time>
      </trkpt>
      <trkpt lat="44.13647" lon="4.28478">
        <ele>550.972656</ele>
        <time>2015-03-26T10:49:16Z</time>
      </trkpt>
      <trkpt lat="44.13653" lon="4.28474">
        <ele>550.011475</ele>
        <time>2015-03-26T10:49:23Z</time>
      </trkpt>
      <trkpt lat="44.13657" lon="4.28474">
        <ele>549.050049</ele>
        <time>2015-03-26T10:49:29Z</time>
      </trkpt>
      <trkpt lat="44.13663" lon="4.28475">
        <ele>548.088867</ele>
        <time>2015-03-26T10:49:37Z</time>
      </trkpt>
      <trkpt lat="44.13667" lon="4.28469">
        <ele>546.646851</ele>
        <time>2015-03-26T10:49:45Z</time>
      </trkpt>
      <trkpt lat="44.13674" lon="4.28465">
        <ele>545.685547</ele>
        <time>2015-03-26T10:49:54Z</time>
      </trkpt>
      <trkpt lat="44.13682" lon="4.28461">
        <ele>543.282104</ele>
        <time>2015-03-26T10:50:04Z</time>
      </trkpt>
      <trkpt lat="44.13685" lon="4.28455">
        <ele>542.801514</ele>
        <time>2015-03-26T10:50:12Z</time>
      </trkpt>
      <trkpt lat="44.13689" lon="4.28457">
        <ele>541.84021</ele>
        <time>2015-03-26T10:50:19Z</time>
      </trkpt>
      <trkpt lat="44.13691" lon="4.28458">
        <ele>541.359497</ele>
        <time>2015-03-26T10:50:21Z</time>
      </trkpt>
      <trkpt lat="44.13693" lon="4.28455">
        <ele>539.917603</ele>
        <time>2015-03-26T10:50:27Z</time>
      </trkpt>
      <trkpt lat="44.13698" lon="4.28452">
        <ele>538.956299</ele>
        <time>2015-03-26T10:50:35Z</time>
      </trkpt>
      <trkpt lat="44.13702" lon="4.28451">
        <ele>539.43689</ele>
        <time>2015-03-26T10:50:40Z</time>
      </trkpt>
      <trkpt lat="44.13709" lon="4.28454">
        <ele>537.994995</ele>
        <time>2015-03-26T10:50:48Z</time>
      </trkpt>
      <trkpt lat="44.13709" lon="4.28455">
        <ele>537.994995</ele>
        <time>2015-03-26T10:50:49Z</time>
      </trkpt>
      <trkpt lat="44.13711" lon="4.28457">
        <ele>537.994995</ele>
        <time>2015-03-26T10:50:51Z</time>
      </trkpt>
      <trkpt lat="44.13713" lon="4.2846">
        <ele>537.514282</ele>
        <time>2015-03-26T10:50:54Z</time>
      </trkpt>
      <trkpt lat="44.13716" lon="4.2846">
        <ele>537.033691</ele>
        <time>2015-03-26T10:51:02Z</time>
      </trkpt>
      <trkpt lat="44.1372" lon="4.28463">
        <ele>537.033691</ele>
        <time>2015-03-26T10:51:31Z</time>
      </trkpt>
      <trkpt lat="44.13721" lon="4.28465">
        <ele>536.072388</ele>
        <time>2015-03-26T10:51:35Z</time>
      </trkpt>
      <trkpt lat="44.13726" lon="4.28471">
        <ele>535.591553</ele>
        <time>2015-03-26T10:51:42Z</time>
      </trkpt>
      <trkpt lat="44.13726" lon="4.28479">
        <ele>534.149658</ele>
        <time>2015-03-26T10:51:51Z</time>
      </trkpt>
      <trkpt lat="44.13728" lon="4.28487">
        <ele>533.188354</ele>
        <time>2015-03-26T10:51:59Z</time>
      </trkpt>
      <trkpt lat="44.13731" lon="4.28497">
        <ele>532.227051</ele>
        <time>2015-03-26T10:52:09Z</time>
      </trkpt>
      <trkpt lat="44.13731" lon="4.28506">
        <ele>531.265747</ele>
        <time>2015-03-26T10:52:14Z</time>
      </trkpt>
      <trkpt lat="44.13731" lon="4.28517">
        <ele>530.304443</ele>
        <time>2015-03-26T10:52:22Z</time>
      </trkpt>
      <trkpt lat="44.13731" lon="4.28522">
        <ele>529.82373</ele>
        <time>2015-03-26T10:52:25Z</time>
      </trkpt>
      <trkpt lat="44.13731" lon="4.28529">
        <ele>529.34314</ele>
        <time>2015-03-26T10:52:28Z</time>
      </trkpt>
      <trkpt lat="44.13729" lon="4.28535">
        <ele>529.34314</ele>
        <time>2015-03-26T10:52:33Z</time>
      </trkpt>
      <trkpt lat="44.1373" lon="4.28537">
        <ele>528.862549</ele>
        <time>2015-03-26T10:52:36Z</time>
      </trkpt>
      <trkpt lat="44.1373" lon="4.2854">
        <ele>528.381836</ele>
        <time>2015-03-26T10:52:38Z</time>
      </trkpt>
      <trkpt lat="44.1373" lon="4.28557">
        <ele>526.459106</ele>
        <time>2015-03-26T10:52:47Z</time>
      </trkpt>
      <trkpt lat="44.13731" lon="4.28562">
        <ele>525.978394</ele>
        <time>2015-03-26T10:52:50Z</time>
      </trkpt>
      <trkpt lat="44.13736" lon="4.28568">
        <ele>525.017212</ele>
        <time>2015-03-26T10:52:56Z</time>
      </trkpt>
      <trkpt lat="44.13735" lon="4.28566">
        <ele>525.017212</ele>
        <time>2015-03-26T10:53:04Z</time>
      </trkpt>
      <trkpt lat="44.13739" lon="4.2857">
        <ele>524.536499</ele>
        <time>2015-03-26T10:53:11Z</time>
      </trkpt>
      <trkpt lat="44.13745" lon="4.28578">
        <ele>522.613892</ele>
        <time>2015-03-26T10:53:20Z</time>
      </trkpt>
      <trkpt lat="44.13745" lon="4.28591">
        <ele>522.133179</ele>
        <time>2015-03-26T10:53:28Z</time>
      </trkpt>
      <trkpt lat="44.13747" lon="4.28594">
        <ele>521.171997</ele>
        <time>2015-03-26T10:53:33Z</time>
      </trkpt>
      <trkpt lat="44.1375" lon="4.28597">
        <ele>520.691284</ele>
        <time>2015-03-26T10:53:36Z</time>
      </trkpt>
      <trkpt lat="44.13752" lon="4.28601">
        <ele>520.691284</ele>
        <time>2015-03-26T10:53:38Z</time>
      </trkpt>
      <trkpt lat="44.13756" lon="4.28608">
        <ele>520.210571</ele>
        <time>2015-03-26T10:53:43Z</time>
      </trkpt>
      <trkpt lat="44.13756" lon="4.28611">
        <ele>519.729858</ele>
        <time>2015-03-26T10:53:45Z</time>
      </trkpt>
      <trkpt lat="44.13761" lon="4.28615">
        <ele>519.249268</ele>
        <time>2015-03-26T10:53:51Z</time>
      </trkpt>
      <trkpt lat="44.13767" lon="4.28624">
        <ele>518.768555</ele>
        <time>2015-03-26T10:53:56Z</time>
      </trkpt>
      <trkpt lat="44.13772" lon="4.28634">
        <ele>518.287842</ele>
        <time>2015-03-26T10:54:04Z</time>
      </trkpt>
      <trkpt lat="44.13776" lon="4.28636">
        <ele>517.32666</ele>
        <time>2015-03-26T10:54:09Z</time>
      </trkpt>
      <trkpt lat="44.13781" lon="4.28638">
        <ele>515.884644</ele>
        <time>2015-03-26T10:54:13Z</time>
      </trkpt>
      <trkpt lat="44.13786" lon="4.28643">
        <ele>515.884644</ele>
        <time>2015-03-26T10:54:18Z</time>
      </trkpt>
      <trkpt lat="44.13788" lon="4.28643">
        <ele>515.404053</ele>
        <time>2015-03-26T10:54:20Z</time>
      </trkpt>
      <trkpt lat="44.13791" lon="4.28642">
        <ele>514.92334</ele>
        <time>2015-03-26T10:54:23Z</time>
      </trkpt>
      <trkpt lat="44.13794" lon="4.28643">
        <ele>514.92334</ele>
        <time>2015-03-26T10:54:26Z</time>
      </trkpt>
      <trkpt lat="44.13796" lon="4.28645">
        <ele>514.92334</ele>
        <time>2015-03-26T10:54:29Z</time>
      </trkpt>
      <trkpt lat="44.13805" lon="4.28648">
        <ele>514.92334</ele>
        <time>2015-03-26T10:54:37Z</time>
      </trkpt>
      <trkpt lat="44.13814" lon="4.28648">
        <ele>514.442627</ele>
        <time>2015-03-26T10:54:43Z</time>
      </trkpt>
      <trkpt lat="44.13817" lon="4.28649">
        <ele>514.442627</ele>
        <time>2015-03-26T10:54:46Z</time>
      </trkpt>
      <trkpt lat="44.13823" lon="4.2865">
        <ele>514.92334</ele>
        <time>2015-03-26T10:54:53Z</time>
      </trkpt>
      <trkpt lat="44.13827" lon="4.28652">
        <ele>514.92334</ele>
        <time>2015-03-26T10:54:56Z</time>
      </trkpt>
      <trkpt lat="44.13833" lon="4.28654">
        <ele>515.404053</ele>
        <time>2015-03-26T10:55:02Z</time>
      </trkpt>
      <trkpt lat="44.13839" lon="4.28654">
        <ele>514.92334</ele>
        <time>2015-03-26T10:55:09Z</time>
      </trkpt>
      <trkpt lat="44.13843" lon="4.28653">
        <ele>514.92334</ele>
        <time>2015-03-26T10:55:13Z</time>
      </trkpt>
      <trkpt lat="44.13846" lon="4.28652">
        <ele>514.92334</ele>
        <time>2015-03-26T10:55:15Z</time>
      </trkpt>
      <trkpt lat="44.13852" lon="4.28646">
        <ele>514.92334</ele>
        <time>2015-03-26T10:55:21Z</time>
      </trkpt>
      <trkpt lat="44.13863" lon="4.28638">
        <ele>514.442627</ele>
        <time>2015-03-26T10:55:34Z</time>
      </trkpt>
      <trkpt lat="44.13867" lon="4.28632">
        <ele>513.962036</ele>
        <time>2015-03-26T10:55:38Z</time>
      </trkpt>
      <trkpt lat="44.13871" lon="4.28627">
        <ele>513.481445</ele>
        <time>2015-03-26T10:55:44Z</time>
      </trkpt>
      <trkpt lat="44.13878" lon="4.28622">
        <ele>513.962036</ele>
        <time>2015-03-26T10:55:51Z</time>
      </trkpt>
      <trkpt lat="44.13883" lon="4.28617">
        <ele>514.442627</ele>
        <time>2015-03-26T10:55:56Z</time>
      </trkpt>
      <trkpt lat="44.13885" lon="4.28616">
        <ele>514.442627</ele>
        <time>2015-03-26T10:55:58Z</time>
      </trkpt>
      <trkpt lat="44.13891" lon="4.28612">
        <ele>514.442627</ele>
        <time>2015-03-26T10:56:03Z</time>
      </trkpt>
      <trkpt lat="44.13893" lon="4.2861">
        <ele>513.962036</ele>
        <time>2015-03-26T10:56:06Z</time>
      </trkpt>
      <trkpt lat="44.13896" lon="4.2861">
        <ele>514.442627</ele>
        <time>2015-03-26T10:56:09Z</time>
      </trkpt>
      <trkpt lat="44.13899" lon="4.2861">
        <ele>513.962036</ele>
        <time>2015-03-26T10:56:12Z</time>
      </trkpt>
      <trkpt lat="44.13905" lon="4.28604">
        <ele>513.962036</ele>
        <time>2015-03-26T10:56:18Z</time>
      </trkpt>
      <trkpt lat="44.13912" lon="4.28598">
        <ele>513.962036</ele>
        <time>2015-03-26T10:56:24Z</time>
      </trkpt>
      <trkpt lat="44.13919" lon="4.28598">
        <ele>513.000732</ele>
        <time>2015-03-26T10:56:30Z</time>
      </trkpt>
      <trkpt lat="44.13925" lon="4.28596">
        <ele>512.52002</ele>
        <time>2015-03-26T10:56:37Z</time>
      </trkpt>
      <trkpt lat="44.13933" lon="4.28595">
        <ele>513.481445</ele>
        <time>2015-03-26T10:56:42Z</time>
      </trkpt>
      <trkpt lat="44.13939" lon="4.28594">
        <ele>514.442627</ele>
        <time>2015-03-26T10:56:48Z</time>
      </trkpt>
      <trkpt lat="44.13948" lon="4.28591">
        <ele>513.962036</ele>
        <time>2015-03-26T10:56:57Z</time>
      </trkpt>
      <trkpt lat="44.13951" lon="4.28585">
        <ele>513.481445</ele>
        <time>2015-03-26T10:57:03Z</time>
      </trkpt>
      <trkpt lat="44.13955" lon="4.28581">
        <ele>513.962036</ele>
        <time>2015-03-26T10:57:07Z</time>
      </trkpt>
      <trkpt lat="44.13958" lon="4.28579">
        <ele>513.962036</ele>
        <time>2015-03-26T10:57:13Z</time>
      </trkpt>
      <trkpt lat="44.13958" lon="4.28577">
        <ele>513.962036</ele>
        <time>2015-03-26T10:57:16Z</time>
      </trkpt>
      <trkpt lat="44.13965" lon="4.28567">
        <ele>513.481445</ele>
        <time>2015-03-26T10:57:24Z</time>
      </trkpt>
      <trkpt lat="44.13966" lon="4.28564">
        <ele>514.442627</ele>
        <time>2015-03-26T10:57:28Z</time>
      </trkpt>
      <trkpt lat="44.1397" lon="4.28559">
        <ele>514.442627</ele>
        <time>2015-03-26T10:57:35Z</time>
      </trkpt>
      <trkpt lat="44.13973" lon="4.28555">
        <ele>513.481445</ele>
        <time>2015-03-26T10:57:40Z</time>
      </trkpt>
      <trkpt lat="44.13977" lon="4.28551">
        <ele>514.442627</ele>
        <time>2015-03-26T10:57:45Z</time>
      </trkpt>
      <trkpt lat="44.13981" lon="4.28543">
        <ele>513.962036</ele>
        <time>2015-03-26T10:57:51Z</time>
      </trkpt>
      <trkpt lat="44.13988" lon="4.28535">
        <ele>514.442627</ele>
        <time>2015-03-26T10:57:58Z</time>
      </trkpt>
      <trkpt lat="44.13993" lon="4.28526">
        <ele>513.962036</ele>
        <time>2015-03-26T10:58:05Z</time>
      </trkpt>
      <trkpt lat="44.13998" lon="4.28519">
        <ele>513.962036</ele>
        <time>2015-03-26T10:58:12Z</time>
      </trkpt>
      <trkpt lat="44.14001" lon="4.28513">
        <ele>513.962036</ele>
        <time>2015-03-26T10:58:15Z</time>
      </trkpt>
      <trkpt lat="44.14006" lon="4.28508">
        <ele>513.481445</ele>
        <time>2015-03-26T10:58:19Z</time>
      </trkpt>
      <trkpt lat="44.14006" lon="4.285">
        <ele>513.481445</ele>
        <time>2015-03-26T10:58:25Z</time>
      </trkpt>
      <trkpt lat="44.14012" lon="4.2849">
        <ele>513.000732</ele>
        <time>2015-03-26T10:58:30Z</time>
      </trkpt>
      <trkpt lat="44.14015" lon="4.28485">
        <ele>513.000732</ele>
        <time>2015-03-26T10:58:36Z</time>
      </trkpt>
      <trkpt lat="44.14018" lon="4.2848">
        <ele>513.000732</ele>
        <time>2015-03-26T10:58:40Z</time>
      </trkpt>
      <trkpt lat="44.14025" lon="4.28476">
        <ele>513.000732</ele>
        <time>2015-03-26T10:58:44Z</time>
      </trkpt>
      <trkpt lat="44.14026" lon="4.28475">
        <ele>512.52002</ele>
        <time>2015-03-26T10:58:48Z</time>
      </trkpt>
      <trkpt lat="44.14031" lon="4.28466">
        <ele>512.52002</ele>
        <time>2015-03-26T10:58:53Z</time>
      </trkpt>
      <trkpt lat="44.14035" lon="4.28464">
        <ele>512.52002</ele>
        <time>2015-03-26T10:58:59Z</time>
      </trkpt>
      <trkpt lat="44.14038" lon="4.28459">
        <ele>512.52002</ele>
        <time>2015-03-26T10:59:04Z</time>
      </trkpt>
      <trkpt lat="44.1404" lon="4.28455">
        <ele>512.039429</ele>
        <time>2015-03-26T10:59:09Z</time>
      </trkpt>
      <trkpt lat="44.14048" lon="4.2845">
        <ele>511.558716</ele>
        <time>2015-03-26T10:59:16Z</time>
      </trkpt>
      <trkpt lat="44.14051" lon="4.28446">
        <ele>512.039429</ele>
        <time>2015-03-26T10:59:21Z</time>
      </trkpt>
      <trkpt lat="44.14057" lon="4.28448">
        <ele>512.039429</ele>
        <time>2015-03-26T10:59:27Z</time>
      </trkpt>
      <trkpt lat="44.14064" lon="4.28445">
        <ele>512.039429</ele>
        <time>2015-03-26T10:59:32Z</time>
      </trkpt>
      <trkpt lat="44.1407" lon="4.28444">
        <ele>511.558716</ele>
        <time>2015-03-26T10:59:38Z</time>
      </trkpt>
      <trkpt lat="44.14071" lon="4.28444">
        <ele>511.558716</ele>
        <time>2015-03-26T10:59:39Z</time>
      </trkpt>
      <trkpt lat="44.14075" lon="4.28444">
        <ele>512.039429</ele>
        <time>2015-03-26T10:59:45Z</time>
      </trkpt>
      <trkpt lat="44.14082" lon="4.28443">
        <ele>511.078003</ele>
        <time>2015-03-26T10:59:50Z</time>
      </trkpt>
      <trkpt lat="44.14086" lon="4.28444">
        <ele>510.116699</ele>
        <time>2015-03-26T10:59:56Z</time>
      </trkpt>
      <trkpt lat="44.14099" lon="4.28446">
        <ele>510.59729</ele>
        <time>2015-03-26T11:00:03Z</time>
      </trkpt>
      <trkpt lat="44.14101" lon="4.28445">
        <ele>510.59729</ele>
        <time>2015-03-26T11:00:08Z</time>
      </trkpt>
      <trkpt lat="44.14107" lon="4.28446">
        <ele>510.59729</ele>
        <time>2015-03-26T11:00:12Z</time>
      </trkpt>
      <trkpt lat="44.14116" lon="4.28445">
        <ele>510.59729</ele>
        <time>2015-03-26T11:00:19Z</time>
      </trkpt>
      <trkpt lat="44.14124" lon="4.28446">
        <ele>510.59729</ele>
        <time>2015-03-26T11:00:26Z</time>
      </trkpt>
      <trkpt lat="44.1413" lon="4.28446">
        <ele>509.636108</ele>
        <time>2015-03-26T11:00:33Z</time>
      </trkpt>
      <trkpt lat="44.14141" lon="4.28446">
        <ele>508.674683</ele>
        <time>2015-03-26T11:00:43Z</time>
      </trkpt>
      <trkpt lat="44.1415" lon="4.28449">
        <ele>508.194092</ele>
        <time>2015-03-26T11:00:50Z</time>
      </trkpt>
      <trkpt lat="44.14151" lon="4.28454">
        <ele>508.194092</ele>
        <time>2015-03-26T11:00:53Z</time>
      </trkpt>
      <trkpt lat="44.14159" lon="4.28453">
        <ele>506.752075</ele>
        <time>2015-03-26T11:01:00Z</time>
      </trkpt>
      <trkpt lat="44.14171" lon="4.28456">
        <ele>506.271484</ele>
        <time>2015-03-26T11:01:11Z</time>
      </trkpt>
      <trkpt lat="44.14178" lon="4.28461">
        <ele>506.752075</ele>
        <time>2015-03-26T11:01:19Z</time>
      </trkpt>
      <trkpt lat="44.14188" lon="4.28465">
        <ele>505.790894</ele>
        <time>2015-03-26T11:01:30Z</time>
      </trkpt>
      <trkpt lat="44.14196" lon="4.28469">
        <ele>502.426147</ele>
        <time>2015-03-26T11:01:38Z</time>
      </trkpt>
      <trkpt lat="44.14196" lon="4.28469">
        <ele>502.906738</ele>
        <time>2015-03-26T11:01:39Z</time>
      </trkpt>
      <trkpt lat="44.14199" lon="4.2847">
        <ele>501.464844</ele>
        <time>2015-03-26T11:01:42Z</time>
      </trkpt>
      <trkpt lat="44.14202" lon="4.28471">
        <ele>503.387451</ele>
        <time>2015-03-26T11:01:45Z</time>
      </trkpt>
      <trkpt lat="44.14208" lon="4.28474">
        <ele>504.829468</ele>
        <time>2015-03-26T11:01:51Z</time>
      </trkpt>
      <trkpt lat="44.14215" lon="4.28476">
        <ele>504.829468</ele>
        <time>2015-03-26T11:01:58Z</time>
      </trkpt>
      <trkpt lat="44.14221" lon="4.28478">
        <ele>503.868164</ele>
        <time>2015-03-26T11:02:07Z</time>
      </trkpt>
      <trkpt lat="44.14229" lon="4.2848">
        <ele>503.387451</ele>
        <time>2015-03-26T11:02:17Z</time>
      </trkpt>
      <trkpt lat="44.14235" lon="4.28481">
        <ele>502.906738</ele>
        <time>2015-03-26T11:02:27Z</time>
      </trkpt>
      <trkpt lat="44.14241" lon="4.28482">
        <ele>502.906738</ele>
        <time>2015-03-26T11:02:33Z</time>
      </trkpt>
      <trkpt lat="44.14251" lon="4.28482">
        <ele>502.906738</ele>
        <time>2015-03-26T11:02:42Z</time>
      </trkpt>
      <trkpt lat="44.14259" lon="4.28483">
        <ele>503.387451</ele>
        <time>2015-03-26T11:02:51Z</time>
      </trkpt>
      <trkpt lat="44.14271" lon="4.28487">
        <ele>502.426147</ele>
        <time>2015-03-26T11:03:01Z</time>
      </trkpt>
      <trkpt lat="44.14277" lon="4.28489">
        <ele>501.464844</ele>
        <time>2015-03-26T11:03:08Z</time>
      </trkpt>
      <trkpt lat="44.14289" lon="4.28493">
        <ele>500.984131</ele>
        <time>2015-03-26T11:03:18Z</time>
      </trkpt>
      <trkpt lat="44.14299" lon="4.28499">
        <ele>500.50354</ele>
        <time>2015-03-26T11:03:27Z</time>
      </trkpt>
      <trkpt lat="44.14305" lon="4.28502">
        <ele>500.022949</ele>
        <time>2015-03-26T11:03:34Z</time>
      </trkpt>
      <trkpt lat="44.1431" lon="4.28506">
        <ele>500.022949</ele>
        <time>2015-03-26T11:03:39Z</time>
      </trkpt>
      <trkpt lat="44.14317" lon="4.28509">
        <ele>500.022949</ele>
        <time>2015-03-26T11:03:46Z</time>
      </trkpt>
      <trkpt lat="44.14329" lon="4.28511">
        <ele>500.022949</ele>
        <time>2015-03-26T11:03:54Z</time>
      </trkpt>
      <trkpt lat="44.14331" lon="4.2851">
        <ele>500.022949</ele>
        <time>2015-03-26T11:03:56Z</time>
      </trkpt>
      <trkpt lat="44.14336" lon="4.28499">
        <ele>499.542236</ele>
        <time>2015-03-26T11:04:05Z</time>
      </trkpt>
      <trkpt lat="44.14336" lon="4.28497">
        <ele>499.542236</ele>
        <time>2015-03-26T11:04:07Z</time>
      </trkpt>
      <trkpt lat="44.14334" lon="4.28475">
        <ele>498.580933</ele>
        <time>2015-03-26T11:04:18Z</time>
      </trkpt>
      <trkpt lat="44.14332" lon="4.28461">
        <ele>498.100342</ele>
        <time>2015-03-26T11:04:28Z</time>
      </trkpt>
      <trkpt lat="44.14328" lon="4.28446">
        <ele>497.619629</ele>
        <time>2015-03-26T11:04:38Z</time>
      </trkpt>
      <trkpt lat="44.14323" lon="4.28428">
        <ele>497.138916</ele>
        <time>2015-03-26T11:04:50Z</time>
      </trkpt>
      <trkpt lat="44.14318" lon="4.28408">
        <ele>496.658325</ele>
        <time>2015-03-26T11:05:03Z</time>
      </trkpt>
      <trkpt lat="44.14312" lon="4.28393">
        <ele>495.696899</ele>
        <time>2015-03-26T11:05:16Z</time>
      </trkpt>
      <trkpt lat="44.14305" lon="4.28379">
        <ele>495.216187</ele>
        <time>2015-03-26T11:05:28Z</time>
      </trkpt>
      <trkpt lat="44.143" lon="4.28369">
        <ele>494.735596</ele>
        <time>2015-03-26T11:05:36Z</time>
      </trkpt>
      <trkpt lat="44.14292" lon="4.28354">
        <ele>494.255005</ele>
        <time>2015-03-26T11:05:49Z</time>
      </trkpt>
      <trkpt lat="44.14285" lon="4.28342">
        <ele>493.774292</ele>
        <time>2015-03-26T11:06:00Z</time>
      </trkpt>
      <trkpt lat="44.14279" lon="4.28329">
        <ele>494.255005</ele>
        <time>2015-03-26T11:06:10Z</time>
      </trkpt>
      <trkpt lat="44.14278" lon="4.28325">
        <ele>493.293579</ele>
        <time>2015-03-26T11:06:13Z</time>
      </trkpt>
      <trkpt lat="44.14273" lon="4.28305">
        <ele>492.812988</ele>
        <time>2015-03-26T11:06:26Z</time>
      </trkpt>
      <trkpt lat="44.14277" lon="4.28288">
        <ele>491.851685</ele>
        <time>2015-03-26T11:06:37Z</time>
      </trkpt>
      <trkpt lat="44.14283" lon="4.28273">
        <ele>490.890381</ele>
        <time>2015-03-26T11:06:49Z</time>
      </trkpt>
      <trkpt lat="44.14294" lon="4.28258">
        <ele>489.448364</ele>
        <time>2015-03-26T11:07:03Z</time>
      </trkpt>
      <trkpt lat="44.14301" lon="4.28249">
        <ele>488.487183</ele>
        <time>2015-03-26T11:07:12Z</time>
      </trkpt>
      <trkpt lat="44.14307" lon="4.28242">
        <ele>488.487183</ele>
        <time>2015-03-26T11:07:19Z</time>
      </trkpt>
      <trkpt lat="44.14318" lon="4.2823">
        <ele>488.00647</ele>
        <time>2015-03-26T11:07:32Z</time>
      </trkpt>
      <trkpt lat="44.14328" lon="4.28218">
        <ele>487.525635</ele>
        <time>2015-03-26T11:07:43Z</time>
      </trkpt>
      <trkpt lat="44.14329" lon="4.28217">
        <ele>487.045044</ele>
        <time>2015-03-26T11:07:44Z</time>
      </trkpt>
      <trkpt lat="44.14338" lon="4.28206">
        <ele>487.045044</ele>
        <time>2015-03-26T11:07:54Z</time>
      </trkpt>
      <trkpt lat="44.14346" lon="4.28192">
        <ele>487.045044</ele>
        <time>2015-03-26T11:08:04Z</time>
      </trkpt>
      <trkpt lat="44.14354" lon="4.28178">
        <ele>486.08374</ele>
        <time>2015-03-26T11:08:17Z</time>
      </trkpt>
      <trkpt lat="44.14359" lon="4.28167">
        <ele>485.603027</ele>
        <time>2015-03-26T11:08:25Z</time>
      </trkpt>
      <trkpt lat="44.14367" lon="4.28154">
        <ele>484.641846</ele>
        <time>2015-03-26T11:08:36Z</time>
      </trkpt>
      <trkpt lat="44.14375" lon="4.28144">
        <ele>485.122437</ele>
        <time>2015-03-26T11:08:47Z</time>
      </trkpt>
      <trkpt lat="44.14386" lon="4.28139">
        <ele>483.199829</ele>
        <time>2015-03-26T11:08:57Z</time>
      </trkpt>
      <trkpt lat="44.14392" lon="4.28133">
        <ele>483.199829</ele>
        <time>2015-03-26T11:09:04Z</time>
      </trkpt>
      <trkpt lat="44.14401" lon="4.28126">
        <ele>482.719238</ele>
        <time>2015-03-26T11:09:15Z</time>
      </trkpt>
      <trkpt lat="44.14408" lon="4.28121">
        <ele>482.238525</ele>
        <time>2015-03-26T11:09:21Z</time>
      </trkpt>
      <trkpt lat="44.14418" lon="4.28107">
        <ele>481.757813</ele>
        <time>2015-03-26T11:09:34Z</time>
      </trkpt>
      <trkpt lat="44.14429" lon="4.28093">
        <ele>480.796631</ele>
        <time>2015-03-26T11:09:48Z</time>
      </trkpt>
      <trkpt lat="44.14441" lon="4.28069">
        <ele>479.835083</ele>
        <time>2015-03-26T11:10:07Z</time>
      </trkpt>
      <trkpt lat="44.14454" lon="4.28054">
        <ele>478.873901</ele>
        <time>2015-03-26T11:10:23Z</time>
      </trkpt>
      <trkpt lat="44.14458" lon="4.28052">
        <ele>478.393188</ele>
        <time>2015-03-26T11:10:27Z</time>
      </trkpt>
      <trkpt lat="44.14471" lon="4.2804">
        <ele>478.393188</ele>
        <time>2015-03-26T11:10:40Z</time>
      </trkpt>
      <trkpt lat="44.14483" lon="4.28034">
        <ele>478.393188</ele>
        <time>2015-03-26T11:10:51Z</time>
      </trkpt>
      <trkpt lat="44.14493" lon="4.28026">
        <ele>477.431885</ele>
        <time>2015-03-26T11:11:00Z</time>
      </trkpt>
      <trkpt lat="44.14507" lon="4.28015">
        <ele>477.912476</ele>
        <time>2015-03-26T11:11:16Z</time>
      </trkpt>
      <trkpt lat="44.14514" lon="4.28009">
        <ele>476.951294</ele>
        <time>2015-03-26T11:11:24Z</time>
      </trkpt>
      <trkpt lat="44.14527" lon="4.27999">
        <ele>476.470581</ele>
        <time>2015-03-26T11:11:38Z</time>
      </trkpt>
      <trkpt lat="44.14536" lon="4.27996">
        <ele>475.509277</ele>
        <time>2015-03-26T11:11:48Z</time>
      </trkpt>
      <trkpt lat="44.14548" lon="4.27995">
        <ele>473.58667</ele>
        <time>2015-03-26T11:12:01Z</time>
      </trkpt>
      <trkpt lat="44.14556" lon="4.27996">
        <ele>473.106079</ele>
        <time>2015-03-26T11:12:08Z</time>
      </trkpt>
      <trkpt lat="44.14564" lon="4.27998">
        <ele>471.66394</ele>
        <time>2015-03-26T11:12:15Z</time>
      </trkpt>
      <trkpt lat="44.14573" lon="4.28003">
        <ele>470.221924</ele>
        <time>2015-03-26T11:12:26Z</time>
      </trkpt>
      <trkpt lat="44.14581" lon="4.28009">
        <ele>470.221924</ele>
        <time>2015-03-26T11:12:35Z</time>
      </trkpt>
      <trkpt lat="44.14585" lon="4.28018">
        <ele>468.780029</ele>
        <time>2015-03-26T11:12:45Z</time>
      </trkpt>
      <trkpt lat="44.14596" lon="4.28026">
        <ele>466.857422</ele>
        <time>2015-03-26T11:13:00Z</time>
      </trkpt>
      <trkpt lat="44.14605" lon="4.28028">
        <ele>465.896118</ele>
        <time>2015-03-26T11:13:07Z</time>
      </trkpt>
      <trkpt lat="44.14611" lon="4.28026">
        <ele>464.934814</ele>
        <time>2015-03-26T11:13:14Z</time>
      </trkpt>
      <trkpt lat="44.14619" lon="4.28021">
        <ele>463.492798</ele>
        <time>2015-03-26T11:13:25Z</time>
      </trkpt>
      <trkpt lat="44.14622" lon="4.28015">
        <ele>462.531372</ele>
        <time>2015-03-26T11:13:31Z</time>
      </trkpt>
      <trkpt lat="44.14629" lon="4.28002">
        <ele>461.089478</ele>
        <time>2015-03-26T11:13:42Z</time>
      </trkpt>
      <trkpt lat="44.14634" lon="4.27993">
        <ele>460.128174</ele>
        <time>2015-03-26T11:13:51Z</time>
      </trkpt>
      <trkpt lat="44.1464" lon="4.27979">
        <ele>459.647583</ele>
        <time>2015-03-26T11:14:03Z</time>
      </trkpt>
      <trkpt lat="44.14645" lon="4.27971">
        <ele>459.16687</ele>
        <time>2015-03-26T11:14:12Z</time>
      </trkpt>
      <trkpt lat="44.1465" lon="4.27961">
        <ele>458.205566</ele>
        <time>2015-03-26T11:14:23Z</time>
      </trkpt>
      <trkpt lat="44.14654" lon="4.27952">
        <ele>457.244263</ele>
        <time>2015-03-26T11:14:33Z</time>
      </trkpt>
      <trkpt lat="44.14658" lon="4.2794">
        <ele>455.802246</ele>
        <time>2015-03-26T11:14:44Z</time>
      </trkpt>
      <trkpt lat="44.14663" lon="4.27932">
        <ele>454.84082</ele>
        <time>2015-03-26T11:14:53Z</time>
      </trkpt>
      <trkpt lat="44.14672" lon="4.27924">
        <ele>455.321533</ele>
        <time>2015-03-26T11:15:03Z</time>
      </trkpt>
      <trkpt lat="44.14676" lon="4.27923">
        <ele>455.321533</ele>
        <time>2015-03-26T11:15:07Z</time>
      </trkpt>
      <trkpt lat="44.14683" lon="4.27919">
        <ele>455.802246</ele>
        <time>2015-03-26T11:15:15Z</time>
      </trkpt>
      <trkpt lat="44.14691" lon="4.27906">
        <ele>455.802246</ele>
        <time>2015-03-26T11:15:28Z</time>
      </trkpt>
      <trkpt lat="44.14699" lon="4.279">
        <ele>455.802246</ele>
        <time>2015-03-26T11:15:37Z</time>
      </trkpt>
      <trkpt lat="44.14704" lon="4.27895">
        <ele>455.321533</ele>
        <time>2015-03-26T11:15:42Z</time>
      </trkpt>
      <trkpt lat="44.14715" lon="4.2789">
        <ele>454.360229</ele>
        <time>2015-03-26T11:15:53Z</time>
      </trkpt>
      <trkpt lat="44.14726" lon="4.27878">
        <ele>453.879639</ele>
        <time>2015-03-26T11:16:07Z</time>
      </trkpt>
      <trkpt lat="44.14737" lon="4.27864">
        <ele>453.398926</ele>
        <time>2015-03-26T11:16:20Z</time>
      </trkpt>
      <trkpt lat="44.14746" lon="4.27856">
        <ele>452.918213</ele>
        <time>2015-03-26T11:16:30Z</time>
      </trkpt>
      <trkpt lat="44.14758" lon="4.27846">
        <ele>452.437622</ele>
        <time>2015-03-26T11:16:44Z</time>
      </trkpt>
      <trkpt lat="44.14769" lon="4.27837">
        <ele>451.957031</ele>
        <time>2015-03-26T11:16:53Z</time>
      </trkpt>
      <trkpt lat="44.14778" lon="4.2783">
        <ele>450.034424</ele>
        <time>2015-03-26T11:17:03Z</time>
      </trkpt>
      <trkpt lat="44.14787" lon="4.27826">
        <ele>449.553711</ele>
        <time>2015-03-26T11:17:12Z</time>
      </trkpt>
      <trkpt lat="44.14797" lon="4.27822">
        <ele>449.072998</ele>
        <time>2015-03-26T11:17:23Z</time>
      </trkpt>
      <trkpt lat="44.14808" lon="4.27821">
        <ele>448.592407</ele>
        <time>2015-03-26T11:17:33Z</time>
      </trkpt>
      <trkpt lat="44.14821" lon="4.27811">
        <ele>448.111816</ele>
        <time>2015-03-26T11:17:47Z</time>
      </trkpt>
      <trkpt lat="44.14828" lon="4.27808">
        <ele>447.630981</ele>
        <time>2015-03-26T11:17:56Z</time>
      </trkpt>
      <trkpt lat="44.14835" lon="4.27798">
        <ele>448.111816</ele>
        <time>2015-03-26T11:18:04Z</time>
      </trkpt>
      <trkpt lat="44.1484" lon="4.27794">
        <ele>447.630981</ele>
        <time>2015-03-26T11:18:11Z</time>
      </trkpt>
      <trkpt lat="44.14848" lon="4.27779">
        <ele>445.708374</ele>
        <time>2015-03-26T11:18:24Z</time>
      </trkpt>
      <trkpt lat="44.14851" lon="4.27771">
        <ele>446.189087</ele>
        <time>2015-03-26T11:18:35Z</time>
      </trkpt>
      <trkpt lat="44.1485" lon="4.2777">
        <ele>446.189087</ele>
        <time>2015-03-26T11:18:43Z</time>
      </trkpt>
      <trkpt lat="44.14853" lon="4.27763">
        <ele>445.227661</ele>
        <time>2015-03-26T11:18:54Z</time>
      </trkpt>
      <trkpt lat="44.14851" lon="4.27753">
        <ele>444.74707</ele>
        <time>2015-03-26T11:19:04Z</time>
      </trkpt>
      <trkpt lat="44.14856" lon="4.2774">
        <ele>445.227661</ele>
        <time>2015-03-26T11:19:14Z</time>
      </trkpt>
      <trkpt lat="44.14861" lon="4.27732">
        <ele>446.189087</ele>
        <time>2015-03-26T11:19:25Z</time>
      </trkpt>
      <trkpt lat="44.14865" lon="4.27731">
        <ele>447.150269</ele>
        <time>2015-03-26T11:19:43Z</time>
      </trkpt>
      <trkpt lat="44.14872" lon="4.27723">
        <ele>448.111816</ele>
        <time>2015-03-26T11:19:54Z</time>
      </trkpt>
      <trkpt lat="44.14878" lon="4.27718">
        <ele>448.592407</ele>
        <time>2015-03-26T11:20:01Z</time>
      </trkpt>
      <trkpt lat="44.14882" lon="4.27715">
        <ele>449.072998</ele>
        <time>2015-03-26T11:20:09Z</time>
      </trkpt>
      <trkpt lat="44.14886" lon="4.27712">
        <ele>449.553711</ele>
        <time>2015-03-26T11:20:16Z</time>
      </trkpt>
      <trkpt lat="44.14888" lon="4.27709">
        <ele>449.553711</ele>
        <time>2015-03-26T11:20:19Z</time>
      </trkpt>
      <trkpt lat="44.14894" lon="4.27707">
        <ele>450.034424</ele>
        <time>2015-03-26T11:20:28Z</time>
      </trkpt>
      <trkpt lat="44.14898" lon="4.27705">
        <ele>450.515015</ele>
        <time>2015-03-26T11:20:36Z</time>
      </trkpt>
      <trkpt lat="44.14903" lon="4.27695">
        <ele>452.437622</ele>
        <time>2015-03-26T11:20:48Z</time>
      </trkpt>
      <trkpt lat="44.14907" lon="4.27683">
        <ele>454.360229</ele>
        <time>2015-03-26T11:20:59Z</time>
      </trkpt>
      <trkpt lat="44.14911" lon="4.27681">
        <ele>455.802246</ele>
        <time>2015-03-26T11:21:06Z</time>
      </trkpt>
      <trkpt lat="44.14916" lon="4.27681">
        <ele>457.244263</ele>
        <time>2015-03-26T11:21:13Z</time>
      </trkpt>
      <trkpt lat="44.14919" lon="4.27687">
        <ele>458.205566</ele>
        <time>2015-03-26T11:21:22Z</time>
      </trkpt>
      <trkpt lat="44.14923" lon="4.27686">
        <ele>457.724976</ele>
        <time>2015-03-26T11:21:30Z</time>
      </trkpt>
      <trkpt lat="44.14925" lon="4.27686">
        <ele>458.205566</ele>
        <time>2015-03-26T11:21:38Z</time>
      </trkpt>
      <trkpt lat="44.14926" lon="4.27684">
        <ele>457.244263</ele>
        <time>2015-03-26T11:21:48Z</time>
      </trkpt>
      <trkpt lat="44.14929" lon="4.27677">
        <ele>456.76355</ele>
        <time>2015-03-26T11:21:58Z</time>
      </trkpt>
      <trkpt lat="44.14931" lon="4.27669">
        <ele>456.282959</ele>
        <time>2015-03-26T11:22:07Z</time>
      </trkpt>
      <trkpt lat="44.14928" lon="4.27667">
        <ele>455.321533</ele>
        <time>2015-03-26T11:22:13Z</time>
      </trkpt>
      <trkpt lat="44.14928" lon="4.27665">
        <ele>456.76355</ele>
        <time>2015-03-26T11:22:23Z</time>
      </trkpt>
      <trkpt lat="44.14926" lon="4.27662">
        <ele>457.244263</ele>
        <time>2015-03-26T11:22:46Z</time>
      </trkpt>
      <trkpt lat="44.14925" lon="4.27662">
        <ele>456.76355</ele>
        <time>2015-03-26T11:22:52Z</time>
      </trkpt>
      <trkpt lat="44.14922" lon="4.27664">
        <ele>455.802246</ele>
        <time>2015-03-26T11:23:00Z</time>
      </trkpt>
      <trkpt lat="44.14921" lon="4.27667">
        <ele>455.321533</ele>
        <time>2015-03-26T11:23:09Z</time>
      </trkpt>
      <trkpt lat="44.1492" lon="4.27664">
        <ele>453.879639</ele>
        <time>2015-03-26T11:23:17Z</time>
      </trkpt>
      <trkpt lat="44.1492" lon="4.27659">
        <ele>453.879639</ele>
        <time>2015-03-26T11:23:24Z</time>
      </trkpt>
      <trkpt lat="44.14922" lon="4.27656">
        <ele>452.918213</ele>
        <time>2015-03-26T11:23:26Z</time>
      </trkpt>
      <trkpt lat="44.14927" lon="4.27655">
        <ele>452.918213</ele>
        <time>2015-03-26T11:23:30Z</time>
      </trkpt>
      <trkpt lat="44.14931" lon="4.27646">
        <ele>451.476318</ele>
        <time>2015-03-26T11:23:37Z</time>
      </trkpt>
      <trkpt lat="44.1493" lon="4.27642">
        <ele>450.515015</ele>
        <time>2015-03-26T11:23:45Z</time>
      </trkpt>
      <trkpt lat="44.1493" lon="4.27639">
        <ele>449.072998</ele>
        <time>2015-03-26T11:23:49Z</time>
      </trkpt>
      <trkpt lat="44.1493" lon="4.27636">
        <ele>448.592407</ele>
        <time>2015-03-26T11:23:51Z</time>
      </trkpt>
      <trkpt lat="44.14931" lon="4.27629">
        <ele>448.111816</ele>
        <time>2015-03-26T11:23:58Z</time>
      </trkpt>
      <trkpt lat="44.14932" lon="4.27627">
        <ele>447.150269</ele>
        <time>2015-03-26T11:24:00Z</time>
      </trkpt>
      <trkpt lat="44.14937" lon="4.27622">
        <ele>446.669678</ele>
        <time>2015-03-26T11:24:05Z</time>
      </trkpt>
      <trkpt lat="44.14937" lon="4.27621">
        <ele>446.669678</ele>
        <time>2015-03-26T11:24:06Z</time>
      </trkpt>
      <trkpt lat="44.14942" lon="4.2762">
        <ele>448.592407</ele>
        <time>2015-03-26T11:24:12Z</time>
      </trkpt>
      <trkpt lat="44.14948" lon="4.27618">
        <ele>449.072998</ele>
        <time>2015-03-26T11:24:21Z</time>
      </trkpt>
      <trkpt lat="44.14946" lon="4.27621">
        <ele>449.072998</ele>
        <time>2015-03-26T11:24:27Z</time>
      </trkpt>
      <trkpt lat="44.14948" lon="4.27627">
        <ele>449.553711</ele>
        <time>2015-03-26T11:24:34Z</time>
      </trkpt>
      <trkpt lat="44.14955" lon="4.27627">
        <ele>450.515015</ele>
        <time>2015-03-26T11:24:49Z</time>
      </trkpt>
      <trkpt lat="44.14955" lon="4.27621">
        <ele>450.515015</ele>
        <time>2015-03-26T11:24:56Z</time>
      </trkpt>
      <trkpt lat="44.14955" lon="4.27623">
        <ele>450.515015</ele>
        <time>2015-03-26T11:25:07Z</time>
      </trkpt>
      <trkpt lat="44.14949" lon="4.27626">
        <ele>449.553711</ele>
        <time>2015-03-26T11:25:13Z</time>
      </trkpt>
      <trkpt lat="44.14945" lon="4.27621">
        <ele>449.553711</ele>
        <time>2015-03-26T11:25:21Z</time>
      </trkpt>
      <trkpt lat="44.14945" lon="4.27617">
        <ele>449.072998</ele>
        <time>2015-03-26T11:25:28Z</time>
      </trkpt>
      <trkpt lat="44.14941" lon="4.27615">
        <ele>448.592407</ele>
        <time>2015-03-26T11:25:36Z</time>
      </trkpt>
      <trkpt lat="44.14941" lon="4.27617">
        <ele>447.630981</ele>
        <time>2015-03-26T11:25:47Z</time>
      </trkpt>
      <trkpt lat="44.14936" lon="4.27621">
        <ele>447.630981</ele>
        <time>2015-03-26T11:25:58Z</time>
      </trkpt>
      <trkpt lat="44.14929" lon="4.27622">
        <ele>447.150269</ele>
        <time>2015-03-26T11:26:09Z</time>
      </trkpt>
      <trkpt lat="44.14922" lon="4.27622">
        <ele>445.708374</ele>
        <time>2015-03-26T11:26:18Z</time>
      </trkpt>
      <trkpt lat="44.14918" lon="4.2762">
        <ele>445.227661</ele>
        <time>2015-03-26T11:26:23Z</time>
      </trkpt>
      <trkpt lat="44.14917" lon="4.27616">
        <ele>444.74707</ele>
        <time>2015-03-26T11:26:32Z</time>
      </trkpt>
      <trkpt lat="44.14916" lon="4.27623">
        <ele>445.227661</ele>
        <time>2015-03-26T11:26:49Z</time>
      </trkpt>
      <trkpt lat="44.14914" lon="4.27628">
        <ele>445.708374</ele>
        <time>2015-03-26T11:26:53Z</time>
      </trkpt>
      <trkpt lat="44.14913" lon="4.27633">
        <ele>446.189087</ele>
        <time>2015-03-26T11:26:57Z</time>
      </trkpt>
      <trkpt lat="44.14913" lon="4.27642">
        <ele>448.111816</ele>
        <time>2015-03-26T11:27:05Z</time>
      </trkpt>
      <trkpt lat="44.14908" lon="4.27649">
        <ele>449.072998</ele>
        <time>2015-03-26T11:27:13Z</time>
      </trkpt>
      <trkpt lat="44.14905" lon="4.27659">
        <ele>452.437622</ele>
        <time>2015-03-26T11:27:25Z</time>
      </trkpt>
      <trkpt lat="44.14904" lon="4.27662">
        <ele>453.398926</ele>
        <time>2015-03-26T11:27:31Z</time>
      </trkpt>
      <trkpt lat="44.1491" lon="4.27666">
        <ele>455.321533</ele>
        <time>2015-03-26T11:27:38Z</time>
      </trkpt>
      <trkpt lat="44.1491" lon="4.27667">
        <ele>455.802246</ele>
        <time>2015-03-26T11:27:40Z</time>
      </trkpt>
      <trkpt lat="44.14913" lon="4.27675">
        <ele>454.84082</ele>
        <time>2015-03-26T11:27:48Z</time>
      </trkpt>
      <trkpt lat="44.14912" lon="4.27682">
        <ele>455.321533</ele>
        <time>2015-03-26T11:27:53Z</time>
      </trkpt>
      <trkpt lat="44.14908" lon="4.27698">
        <ele>452.918213</ele>
        <time>2015-03-26T11:28:04Z</time>
      </trkpt>
      <trkpt lat="44.14901" lon="4.27706">
        <ele>450.995605</ele>
        <time>2015-03-26T11:28:12Z</time>
      </trkpt>
      <trkpt lat="44.14896" lon="4.27707">
        <ele>450.034424</ele>
        <time>2015-03-26T11:28:15Z</time>
      </trkpt>
      <trkpt lat="44.14887" lon="4.27709">
        <ele>449.072998</ele>
        <time>2015-03-26T11:28:23Z</time>
      </trkpt>
      <trkpt lat="44.14884" lon="4.27709">
        <ele>449.553711</ele>
        <time>2015-03-26T11:28:26Z</time>
      </trkpt>
      <trkpt lat="44.14871" lon="4.27714">
        <ele>449.553711</ele>
        <time>2015-03-26T11:28:36Z</time>
      </trkpt>
      <trkpt lat="44.14869" lon="4.27721">
        <ele>449.072998</ele>
        <time>2015-03-26T11:28:41Z</time>
      </trkpt>
      <trkpt lat="44.14862" lon="4.27736">
        <ele>446.669678</ele>
        <time>2015-03-26T11:28:52Z</time>
      </trkpt>
      <trkpt lat="44.14855" lon="4.27745">
        <ele>445.708374</ele>
        <time>2015-03-26T11:29:00Z</time>
      </trkpt>
      <trkpt lat="44.14858" lon="4.27753">
        <ele>445.708374</ele>
        <time>2015-03-26T11:29:06Z</time>
      </trkpt>
      <trkpt lat="44.14852" lon="4.27768">
        <ele>446.669678</ele>
        <time>2015-03-26T11:29:16Z</time>
      </trkpt>
      <trkpt lat="44.14853" lon="4.27778">
        <ele>447.630981</ele>
        <time>2015-03-26T11:29:24Z</time>
      </trkpt>
      <trkpt lat="44.14857" lon="4.27783">
        <ele>446.189087</ele>
        <time>2015-03-26T11:29:33Z</time>
      </trkpt>
      <trkpt lat="44.14859" lon="4.27785">
        <ele>445.708374</ele>
        <time>2015-03-26T11:29:35Z</time>
      </trkpt>
      <trkpt lat="44.14862" lon="4.27784">
        <ele>445.708374</ele>
        <time>2015-03-26T11:29:42Z</time>
      </trkpt>
      <trkpt lat="44.14862" lon="4.27782">
        <ele>446.189087</ele>
        <time>2015-03-26T11:30:04Z</time>
      </trkpt>
      <trkpt lat="44.14868" lon="4.27783">
        <ele>444.74707</ele>
        <time>2015-03-26T11:30:27Z</time>
      </trkpt>
      <trkpt lat="44.14868" lon="4.27781">
        <ele>443.785767</ele>
        <time>2015-03-26T11:30:38Z</time>
      </trkpt>
      <trkpt lat="44.14871" lon="4.27775">
        <ele>442.343872</ele>
        <time>2015-03-26T11:30:49Z</time>
      </trkpt>
      <trkpt lat="44.14873" lon="4.27766">
        <ele>440.901855</ele>
        <time>2015-03-26T11:30:57Z</time>
      </trkpt>
      <trkpt lat="44.14875" lon="4.27763">
        <ele>440.421265</ele>
        <time>2015-03-26T11:31:00Z</time>
      </trkpt>
      <trkpt lat="44.14886" lon="4.27759">
        <ele>439.94043</ele>
        <time>2015-03-26T11:31:08Z</time>
      </trkpt>
      <trkpt lat="44.1489" lon="4.27763">
        <ele>440.421265</ele>
        <time>2015-03-26T11:31:13Z</time>
      </trkpt>
      <trkpt lat="44.14892" lon="4.2777">
        <ele>439.459717</ele>
        <time>2015-03-26T11:31:24Z</time>
      </trkpt>
      <trkpt lat="44.14889" lon="4.27781">
        <ele>437.537109</ele>
        <time>2015-03-26T11:31:36Z</time>
      </trkpt>
      <trkpt lat="44.1489" lon="4.27787">
        <ele>436.575928</ele>
        <time>2015-03-26T11:31:47Z</time>
      </trkpt>
      <trkpt lat="44.14892" lon="4.27784">
        <ele>436.575928</ele>
        <time>2015-03-26T11:31:49Z</time>
      </trkpt>
      <trkpt lat="44.14893" lon="4.27778">
        <ele>437.537109</ele>
        <time>2015-03-26T11:31:54Z</time>
      </trkpt>
      <trkpt lat="44.14894" lon="4.27773">
        <ele>437.537109</ele>
        <time>2015-03-26T11:31:58Z</time>
      </trkpt>
      <trkpt lat="44.14892" lon="4.27769">
        <ele>438.498535</ele>
        <time>2015-03-26T11:32:01Z</time>
      </trkpt>
      <trkpt lat="44.14892" lon="4.27759">
        <ele>439.459717</ele>
        <time>2015-03-26T11:32:08Z</time>
      </trkpt>
      <trkpt lat="44.14893" lon="4.27748">
        <ele>441.382446</ele>
        <time>2015-03-26T11:32:16Z</time>
      </trkpt>
      <trkpt lat="44.14895" lon="4.27741">
        <ele>442.343872</ele>
        <time>2015-03-26T11:32:23Z</time>
      </trkpt>
      <trkpt lat="44.14897" lon="4.27739">
        <ele>442.824463</ele>
        <time>2015-03-26T11:32:34Z</time>
      </trkpt>
      <trkpt lat="44.14895" lon="4.27743">
        <ele>441.863159</ele>
        <time>2015-03-26T11:32:40Z</time>
      </trkpt>
      <trkpt lat="44.14893" lon="4.27747">
        <ele>440.901855</ele>
        <time>2015-03-26T11:32:46Z</time>
      </trkpt>
      <trkpt lat="44.14894" lon="4.27751">
        <ele>440.901855</ele>
        <time>2015-03-26T11:32:48Z</time>
      </trkpt>
      <trkpt lat="44.14893" lon="4.27756">
        <ele>439.459717</ele>
        <time>2015-03-26T11:32:56Z</time>
      </trkpt>
      <trkpt lat="44.14896" lon="4.27757">
        <ele>440.421265</ele>
        <time>2015-03-26T11:33:01Z</time>
      </trkpt>
      <trkpt lat="44.14896" lon="4.27761">
        <ele>439.459717</ele>
        <time>2015-03-26T11:33:08Z</time>
      </trkpt>
      <trkpt lat="44.14894" lon="4.27767">
        <ele>438.498535</ele>
        <time>2015-03-26T11:33:15Z</time>
      </trkpt>
      <trkpt lat="44.14894" lon="4.27773">
        <ele>438.498535</ele>
        <time>2015-03-26T11:33:18Z</time>
      </trkpt>
      <trkpt lat="44.14892" lon="4.27777">
        <ele>438.017822</ele>
        <time>2015-03-26T11:33:23Z</time>
      </trkpt>
      <trkpt lat="44.14891" lon="4.27783">
        <ele>438.017822</ele>
        <time>2015-03-26T11:33:27Z</time>
      </trkpt>
      <trkpt lat="44.14888" lon="4.27805">
        <ele>434.65332</ele>
        <time>2015-03-26T11:33:42Z</time>
      </trkpt>
      <trkpt lat="44.1489" lon="4.27811">
        <ele>434.172607</ele>
        <time>2015-03-26T11:33:50Z</time>
      </trkpt>
      <trkpt lat="44.14893" lon="4.27808">
        <ele>432.25</ele>
        <time>2015-03-26T11:33:58Z</time>
      </trkpt>
      <trkpt lat="44.14893" lon="4.27805">
        <ele>432.25</ele>
        <time>2015-03-26T11:34:00Z</time>
      </trkpt>
      <trkpt lat="44.14896" lon="4.27799">
        <ele>430.807983</ele>
        <time>2015-03-26T11:34:05Z</time>
      </trkpt>
      <trkpt lat="44.14903" lon="4.2779">
        <ele>429.846558</ele>
        <time>2015-03-26T11:34:11Z</time>
      </trkpt>
      <trkpt lat="44.14906" lon="4.27788">
        <ele>427.443359</ele>
        <time>2015-03-26T11:34:17Z</time>
      </trkpt>
      <trkpt lat="44.14906" lon="4.27784">
        <ele>426.001343</ele>
        <time>2015-03-26T11:34:24Z</time>
      </trkpt>
      <trkpt lat="44.14911" lon="4.27777">
        <ele>424.078735</ele>
        <time>2015-03-26T11:34:33Z</time>
      </trkpt>
      <trkpt lat="44.14916" lon="4.2777">
        <ele>422.156006</ele>
        <time>2015-03-26T11:34:43Z</time>
      </trkpt>
      <trkpt lat="44.14916" lon="4.27766">
        <ele>421.675415</ele>
        <time>2015-03-26T11:34:47Z</time>
      </trkpt>
      <trkpt lat="44.14923" lon="4.27766">
        <ele>420.714111</ele>
        <time>2015-03-26T11:34:49Z</time>
      </trkpt>
      <trkpt lat="44.14926" lon="4.2776">
        <ele>420.233398</ele>
        <time>2015-03-26T11:34:56Z</time>
      </trkpt>
      <trkpt lat="44.14929" lon="4.27757">
        <ele>419.272217</ele>
        <time>2015-03-26T11:34:59Z</time>
      </trkpt>
      <trkpt lat="44.1493" lon="4.27756">
        <ele>418.310791</ele>
        <time>2015-03-26T11:35:02Z</time>
      </trkpt>
      <trkpt lat="44.1494" lon="4.27754">
        <ele>417.349609</ele>
        <time>2015-03-26T11:35:09Z</time>
      </trkpt>
      <trkpt lat="44.14946" lon="4.27743">
        <ele>415.42688</ele>
        <time>2015-03-26T11:35:18Z</time>
      </trkpt>
      <trkpt lat="44.14954" lon="4.27733">
        <ele>413.984863</ele>
        <time>2015-03-26T11:35:28Z</time>
      </trkpt>
      <trkpt lat="44.14955" lon="4.27729">
        <ele>412.542847</ele>
        <time>2015-03-26T11:35:35Z</time>
      </trkpt>
      <trkpt lat="44.14965" lon="4.27723">
        <ele>411.581665</ele>
        <time>2015-03-26T11:35:45Z</time>
      </trkpt>
      <trkpt lat="44.14967" lon="4.27722">
        <ele>411.100952</ele>
        <time>2015-03-26T11:35:47Z</time>
      </trkpt>
      <trkpt lat="44.14973" lon="4.2772">
        <ele>410.139648</ele>
        <time>2015-03-26T11:35:52Z</time>
      </trkpt>
      <trkpt lat="44.1498" lon="4.27715">
        <ele>409.178345</ele>
        <time>2015-03-26T11:36:01Z</time>
      </trkpt>
      <trkpt lat="44.14985" lon="4.2771">
        <ele>407.736328</ele>
        <time>2015-03-26T11:36:10Z</time>
      </trkpt>
      <trkpt lat="44.14991" lon="4.27712">
        <ele>405.333008</ele>
        <time>2015-03-26T11:36:19Z</time>
      </trkpt>
      <trkpt lat="44.14996" lon="4.27711">
        <ele>403.4104</ele>
        <time>2015-03-26T11:36:27Z</time>
      </trkpt>
      <trkpt lat="44.15004" lon="4.27707">
        <ele>401.487793</ele>
        <time>2015-03-26T11:36:34Z</time>
      </trkpt>
      <trkpt lat="44.15008" lon="4.277">
        <ele>399.565063</ele>
        <time>2015-03-26T11:36:43Z</time>
      </trkpt>
      <trkpt lat="44.15013" lon="4.27698">
        <ele>398.60376</ele>
        <time>2015-03-26T11:36:46Z</time>
      </trkpt>
      <trkpt lat="44.15019" lon="4.27691">
        <ele>398.123169</ele>
        <time>2015-03-26T11:36:51Z</time>
      </trkpt>
      <trkpt lat="44.15023" lon="4.2769">
        <ele>397.161743</ele>
        <time>2015-03-26T11:36:55Z</time>
      </trkpt>
      <trkpt lat="44.15022" lon="4.27685">
        <ele>396.681152</ele>
        <time>2015-03-26T11:37:00Z</time>
      </trkpt>
      <trkpt lat="44.15025" lon="4.27684">
        <ele>396.681152</ele>
        <time>2015-03-26T11:37:08Z</time>
      </trkpt>
      <trkpt lat="44.15027" lon="4.27682">
        <ele>395.719849</ele>
        <time>2015-03-26T11:37:15Z</time>
      </trkpt>
      <trkpt lat="44.15029" lon="4.27682">
        <ele>395.239136</ele>
        <time>2015-03-26T11:37:18Z</time>
      </trkpt>
      <trkpt lat="44.15031" lon="4.27681">
        <ele>395.239136</ele>
        <time>2015-03-26T11:37:20Z</time>
      </trkpt>
      <trkpt lat="44.15033" lon="4.27676">
        <ele>393.797241</ele>
        <time>2015-03-26T11:37:27Z</time>
      </trkpt>
      <trkpt lat="44.15037" lon="4.27673">
        <ele>392.835938</ele>
        <time>2015-03-26T11:37:36Z</time>
      </trkpt>
      <trkpt lat="44.15045" lon="4.27667">
        <ele>391.393799</ele>
        <time>2015-03-26T11:37:49Z</time>
      </trkpt>
      <trkpt lat="44.15051" lon="4.27659">
        <ele>389.951904</ele>
        <time>2015-03-26T11:38:00Z</time>
      </trkpt>
      <trkpt lat="44.15054" lon="4.27652">
        <ele>388.51001</ele>
        <time>2015-03-26T11:38:09Z</time>
      </trkpt>
      <trkpt lat="44.15062" lon="4.27649">
        <ele>386.587402</ele>
        <time>2015-03-26T11:38:15Z</time>
      </trkpt>
      <trkpt lat="44.15063" lon="4.27646">
        <ele>386.106689</ele>
        <time>2015-03-26T11:38:18Z</time>
      </trkpt>
      <trkpt lat="44.15067" lon="4.27645">
        <ele>385.625977</ele>
        <time>2015-03-26T11:38:24Z</time>
      </trkpt>
      <trkpt lat="44.15069" lon="4.27646">
        <ele>386.106689</ele>
        <time>2015-03-26T11:38:30Z</time>
      </trkpt>
      <trkpt lat="44.15069" lon="4.27646">
        <ele>386.106689</ele>
        <time>2015-03-26T11:38:45Z</time>
      </trkpt>
      <trkpt lat="44.15071" lon="4.27646">
        <ele>386.106689</ele>
        <time>2015-03-26T11:38:59Z</time>
      </trkpt>
      <trkpt lat="44.15071" lon="4.27646">
        <ele>385.625977</ele>
        <time>2015-03-26T11:39:16Z</time>
      </trkpt>
      <trkpt lat="44.15074" lon="4.27647">
        <ele>384.184082</ele>
        <time>2015-03-26T11:39:59Z</time>
      </trkpt>
      <trkpt lat="44.15078" lon="4.27646">
        <ele>382.742065</ele>
        <time>2015-03-26T11:40:05Z</time>
      </trkpt>
      <trkpt lat="44.15084" lon="4.27638">
        <ele>381.300049</ele>
        <time>2015-03-26T11:40:14Z</time>
      </trkpt>
      <trkpt lat="44.15087" lon="4.27634">
        <ele>380.338745</ele>
        <time>2015-03-26T11:40:19Z</time>
      </trkpt>
      <trkpt lat="44.15088" lon="4.27629">
        <ele>380.338745</ele>
        <time>2015-03-26T11:40:25Z</time>
      </trkpt>
      <trkpt lat="44.15092" lon="4.27628">
        <ele>380.338745</ele>
        <time>2015-03-26T11:40:30Z</time>
      </trkpt>
      <trkpt lat="44.15097" lon="4.27624">
        <ele>378.416138</ele>
        <time>2015-03-26T11:40:37Z</time>
      </trkpt>
      <trkpt lat="44.151" lon="4.2762">
        <ele>377.935425</ele>
        <time>2015-03-26T11:40:44Z</time>
      </trkpt>
      <trkpt lat="44.15104" lon="4.27619">
        <ele>376.974243</ele>
        <time>2015-03-26T11:40:49Z</time>
      </trkpt>
      <trkpt lat="44.1511" lon="4.27619">
        <ele>375.532104</ele>
        <time>2015-03-26T11:40:56Z</time>
      </trkpt>
      <trkpt lat="44.15119" lon="4.27615">
        <ele>373.609497</ele>
        <time>2015-03-26T11:41:04Z</time>
      </trkpt>
      <trkpt lat="44.15124" lon="4.27612">
        <ele>372.648193</ele>
        <time>2015-03-26T11:41:12Z</time>
      </trkpt>
      <trkpt lat="44.1513" lon="4.27605">
        <ele>371.206299</ele>
        <time>2015-03-26T11:41:18Z</time>
      </trkpt>
      <trkpt lat="44.15133" lon="4.27603">
        <ele>370.725586</ele>
        <time>2015-03-26T11:41:22Z</time>
      </trkpt>
      <trkpt lat="44.15137" lon="4.27601">
        <ele>370.244873</ele>
        <time>2015-03-26T11:41:26Z</time>
      </trkpt>
      <trkpt lat="44.1514" lon="4.27597">
        <ele>369.764282</ele>
        <time>2015-03-26T11:41:32Z</time>
      </trkpt>
      <trkpt lat="44.15142" lon="4.27587">
        <ele>368.802979</ele>
        <time>2015-03-26T11:41:39Z</time>
      </trkpt>
      <trkpt lat="44.15146" lon="4.2758">
        <ele>368.802979</ele>
        <time>2015-03-26T11:41:45Z</time>
      </trkpt>
      <trkpt lat="44.1515" lon="4.27576">
        <ele>368.802979</ele>
        <time>2015-03-26T11:41:50Z</time>
      </trkpt>
      <trkpt lat="44.1515" lon="4.27568">
        <ele>366.399536</ele>
        <time>2015-03-26T11:41:57Z</time>
      </trkpt>
      <trkpt lat="44.15153" lon="4.27565">
        <ele>365.918945</ele>
        <time>2015-03-26T11:42:01Z</time>
      </trkpt>
      <trkpt lat="44.1516" lon="4.27556">
        <ele>365.438354</ele>
        <time>2015-03-26T11:42:07Z</time>
      </trkpt>
      <trkpt lat="44.15164" lon="4.27554">
        <ele>364.476929</ele>
        <time>2015-03-26T11:42:13Z</time>
      </trkpt>
      <trkpt lat="44.15169" lon="4.27554">
        <ele>362.554321</ele>
        <time>2015-03-26T11:42:20Z</time>
      </trkpt>
      <trkpt lat="44.1517" lon="4.27554">
        <ele>362.554321</ele>
        <time>2015-03-26T11:42:21Z</time>
      </trkpt>
      <trkpt lat="44.15176" lon="4.27556">
        <ele>361.112427</ele>
        <time>2015-03-26T11:42:27Z</time>
      </trkpt>
      <trkpt lat="44.15178" lon="4.27556">
        <ele>361.112427</ele>
        <time>2015-03-26T11:42:28Z</time>
      </trkpt>
      <trkpt lat="44.15184" lon="4.27555">
        <ele>360.151123</ele>
        <time>2015-03-26T11:42:35Z</time>
      </trkpt>
      <trkpt lat="44.1519" lon="4.27549">
        <ele>359.189697</ele>
        <time>2015-03-26T11:42:43Z</time>
      </trkpt>
      <trkpt lat="44.15193" lon="4.27542">
        <ele>358.228394</ele>
        <time>2015-03-26T11:42:50Z</time>
      </trkpt>
      <trkpt lat="44.15196" lon="4.27539">
        <ele>357.26709</ele>
        <time>2015-03-26T11:42:54Z</time>
      </trkpt>
      <trkpt lat="44.15201" lon="4.27535">
        <ele>355.825195</ele>
        <time>2015-03-26T11:43:01Z</time>
      </trkpt>
      <trkpt lat="44.15202" lon="4.27535">
        <ele>355.825195</ele>
        <time>2015-03-26T11:43:02Z</time>
      </trkpt>
      <trkpt lat="44.15209" lon="4.27527">
        <ele>354.86377</ele>
        <time>2015-03-26T11:43:08Z</time>
      </trkpt>
      <trkpt lat="44.15211" lon="4.27522">
        <ele>354.383179</ele>
        <time>2015-03-26T11:43:13Z</time>
      </trkpt>
      <trkpt lat="44.15214" lon="4.27517">
        <ele>354.86377</ele>
        <time>2015-03-26T11:43:20Z</time>
      </trkpt>
      <trkpt lat="44.15217" lon="4.27514">
        <ele>353.902588</ele>
        <time>2015-03-26T11:43:28Z</time>
      </trkpt>
      <trkpt lat="44.15219" lon="4.27511">
        <ele>353.421875</ele>
        <time>2015-03-26T11:43:39Z</time>
      </trkpt>
      <trkpt lat="44.15221" lon="4.27509">
        <ele>352.941162</ele>
        <time>2015-03-26T11:43:42Z</time>
      </trkpt>
      <trkpt lat="44.15227" lon="4.27501">
        <ele>352.460571</ele>
        <time>2015-03-26T11:43:49Z</time>
      </trkpt>
      <trkpt lat="44.15231" lon="4.27493">
        <ele>352.460571</ele>
        <time>2015-03-26T11:43:57Z</time>
      </trkpt>
      <trkpt lat="44.15233" lon="4.27483">
        <ele>349.095825</ele>
        <time>2015-03-26T11:44:07Z</time>
      </trkpt>
      <trkpt lat="44.15233" lon="4.27482">
        <ele>349.095825</ele>
        <time>2015-03-26T11:44:08Z</time>
      </trkpt>
      <trkpt lat="44.15238" lon="4.27475">
        <ele>348.615234</ele>
        <time>2015-03-26T11:44:17Z</time>
      </trkpt>
      <trkpt lat="44.15244" lon="4.27472">
        <ele>347.653931</ele>
        <time>2015-03-26T11:44:26Z</time>
      </trkpt>
      <trkpt lat="44.15247" lon="4.27474">
        <ele>347.173218</ele>
        <time>2015-03-26T11:44:29Z</time>
      </trkpt>
      <trkpt lat="44.15252" lon="4.27473">
        <ele>345.731323</ele>
        <time>2015-03-26T11:44:37Z</time>
      </trkpt>
      <trkpt lat="44.15255" lon="4.27472">
        <ele>345.731323</ele>
        <time>2015-03-26T11:44:40Z</time>
      </trkpt>
      <trkpt lat="44.15259" lon="4.27468">
        <ele>345.731323</ele>
        <time>2015-03-26T11:44:47Z</time>
      </trkpt>
      <trkpt lat="44.15263" lon="4.27467">
        <ele>343.808594</ele>
        <time>2015-03-26T11:44:52Z</time>
      </trkpt>
      <trkpt lat="44.15269" lon="4.27465">
        <ele>343.327881</ele>
        <time>2015-03-26T11:44:58Z</time>
      </trkpt>
      <trkpt lat="44.15273" lon="4.27462">
        <ele>343.808594</ele>
        <time>2015-03-26T11:45:04Z</time>
      </trkpt>
      <trkpt lat="44.15273" lon="4.27461">
        <ele>342.84729</ele>
        <time>2015-03-26T11:45:05Z</time>
      </trkpt>
      <trkpt lat="44.15276" lon="4.27459">
        <ele>342.84729</ele>
        <time>2015-03-26T11:45:07Z</time>
      </trkpt>
      <trkpt lat="44.1528" lon="4.27459">
        <ele>342.366699</ele>
        <time>2015-03-26T11:45:11Z</time>
      </trkpt>
      <trkpt lat="44.15284" lon="4.27457">
        <ele>341.885986</ele>
        <time>2015-03-26T11:45:15Z</time>
      </trkpt>
      <trkpt lat="44.15286" lon="4.27456">
        <ele>341.885986</ele>
        <time>2015-03-26T11:45:17Z</time>
      </trkpt>
      <trkpt lat="44.15292" lon="4.27452">
        <ele>340.924683</ele>
        <time>2015-03-26T11:45:24Z</time>
      </trkpt>
      <trkpt lat="44.15294" lon="4.27449">
        <ele>339.482666</ele>
        <time>2015-03-26T11:45:27Z</time>
      </trkpt>
      <trkpt lat="44.15297" lon="4.27446">
        <ele>339.002075</ele>
        <time>2015-03-26T11:45:32Z</time>
      </trkpt>
      <trkpt lat="44.15301" lon="4.27443">
        <ele>338.521484</ele>
        <time>2015-03-26T11:45:36Z</time>
      </trkpt>
      <trkpt lat="44.15307" lon="4.27439">
        <ele>337.560059</ele>
        <time>2015-03-26T11:45:42Z</time>
      </trkpt>
      <trkpt lat="44.15308" lon="4.27434">
        <ele>336.598877</ele>
        <time>2015-03-26T11:45:46Z</time>
      </trkpt>
      <trkpt lat="44.15314" lon="4.27429">
        <ele>335.637329</ele>
        <time>2015-03-26T11:45:53Z</time>
      </trkpt>
      <trkpt lat="44.15318" lon="4.27424">
        <ele>334.195435</ele>
        <time>2015-03-26T11:45:59Z</time>
      </trkpt>
      <trkpt lat="44.15318" lon="4.27422">
        <ele>335.156738</ele>
        <time>2015-03-26T11:46:01Z</time>
      </trkpt>
      <trkpt lat="44.15322" lon="4.27418">
        <ele>334.195435</ele>
        <time>2015-03-26T11:46:07Z</time>
      </trkpt>
      <trkpt lat="44.15326" lon="4.2741">
        <ele>333.714722</ele>
        <time>2015-03-26T11:46:18Z</time>
      </trkpt>
      <trkpt lat="44.15332" lon="4.27403">
        <ele>332.75354</ele>
        <time>2015-03-26T11:46:30Z</time>
      </trkpt>
      <trkpt lat="44.15336" lon="4.27396">
        <ele>331.311523</ele>
        <time>2015-03-26T11:46:38Z</time>
      </trkpt>
      <trkpt lat="44.15341" lon="4.27388">
        <ele>330.830933</ele>
        <time>2015-03-26T11:46:47Z</time>
      </trkpt>
      <trkpt lat="44.15342" lon="4.27387">
        <ele>330.830933</ele>
        <time>2015-03-26T11:46:48Z</time>
      </trkpt>
      <trkpt lat="44.15346" lon="4.27377">
        <ele>329.869507</ele>
        <time>2015-03-26T11:46:58Z</time>
      </trkpt>
      <trkpt lat="44.15346" lon="4.27375">
        <ele>329.388916</ele>
        <time>2015-03-26T11:47:00Z</time>
      </trkpt>
      <trkpt lat="44.15348" lon="4.27362">
        <ele>328.908325</ele>
        <time>2015-03-26T11:47:06Z</time>
      </trkpt>
      <trkpt lat="44.1535" lon="4.27359">
        <ele>328.427612</ele>
        <time>2015-03-26T11:47:11Z</time>
      </trkpt>
      <trkpt lat="44.15354" lon="4.27349">
        <ele>327.946777</ele>
        <time>2015-03-26T11:47:19Z</time>
      </trkpt>
      <trkpt lat="44.15357" lon="4.27343">
        <ele>327.466187</ele>
        <time>2015-03-26T11:47:26Z</time>
      </trkpt>
      <trkpt lat="44.15359" lon="4.27331">
        <ele>326.985596</ele>
        <time>2015-03-26T11:47:32Z</time>
      </trkpt>
      <trkpt lat="44.15363" lon="4.27325">
        <ele>326.504883</ele>
        <time>2015-03-26T11:47:35Z</time>
      </trkpt>
      <trkpt lat="44.15362" lon="4.27319">
        <ele>325.062988</ele>
        <time>2015-03-26T11:47:43Z</time>
      </trkpt>
      <trkpt lat="44.15363" lon="4.27318">
        <ele>324.582275</ele>
        <time>2015-03-26T11:47:44Z</time>
      </trkpt>
      <trkpt lat="44.15366" lon="4.27309">
        <ele>324.101563</ele>
        <time>2015-03-26T11:47:50Z</time>
      </trkpt>
      <trkpt lat="44.1537" lon="4.27302">
        <ele>322.659668</ele>
        <time>2015-03-26T11:47:54Z</time>
      </trkpt>
      <trkpt lat="44.15371" lon="4.27301">
        <ele>322.659668</ele>
        <time>2015-03-26T11:47:55Z</time>
      </trkpt>
      <trkpt lat="44.15372" lon="4.27298">
        <ele>322.659668</ele>
        <time>2015-03-26T11:47:58Z</time>
      </trkpt>
      <trkpt lat="44.15376" lon="4.27292">
        <ele>322.659668</ele>
        <time>2015-03-26T11:48:03Z</time>
      </trkpt>
      <trkpt lat="44.15376" lon="4.27289">
        <ele>322.659668</ele>
        <time>2015-03-26T11:48:05Z</time>
      </trkpt>
      <trkpt lat="44.15379" lon="4.27281">
        <ele>321.217773</ele>
        <time>2015-03-26T11:48:12Z</time>
      </trkpt>
      <trkpt lat="44.15381" lon="4.27276">
        <ele>319.775635</ele>
        <time>2015-03-26T11:48:17Z</time>
      </trkpt>
      <trkpt lat="44.15386" lon="4.27273">
        <ele>320.256348</ele>
        <time>2015-03-26T11:48:24Z</time>
      </trkpt>
      <trkpt lat="44.15393" lon="4.27269">
        <ele>319.295044</ele>
        <time>2015-03-26T11:48:30Z</time>
      </trkpt>
      <trkpt lat="44.15398" lon="4.27269">
        <ele>318.814331</ele>
        <time>2015-03-26T11:48:35Z</time>
      </trkpt>
      <trkpt lat="44.15399" lon="4.27269">
        <ele>318.814331</ele>
        <time>2015-03-26T11:48:36Z</time>
      </trkpt>
      <trkpt lat="44.15404" lon="4.27272">
        <ele>318.333618</ele>
        <time>2015-03-26T11:48:40Z</time>
      </trkpt>
      <trkpt lat="44.15409" lon="4.27273">
        <ele>316.891724</ele>
        <time>2015-03-26T11:48:45Z</time>
      </trkpt>
      <trkpt lat="44.1541" lon="4.27273">
        <ele>316.891724</ele>
        <time>2015-03-26T11:48:46Z</time>
      </trkpt>
      <trkpt lat="44.15415" lon="4.27275">
        <ele>316.891724</ele>
        <time>2015-03-26T11:48:54Z</time>
      </trkpt>
      <trkpt lat="44.15422" lon="4.2728">
        <ele>314.488403</ele>
        <time>2015-03-26T11:49:03Z</time>
      </trkpt>
      <trkpt lat="44.15424" lon="4.27281">
        <ele>313.527222</ele>
        <time>2015-03-26T11:49:05Z</time>
      </trkpt>
      <trkpt lat="44.1543" lon="4.27286">
        <ele>313.527222</ele>
        <time>2015-03-26T11:49:11Z</time>
      </trkpt>
      <trkpt lat="44.15437" lon="4.27289">
        <ele>312.565796</ele>
        <time>2015-03-26T11:49:18Z</time>
      </trkpt>
      <trkpt lat="44.15443" lon="4.27293">
        <ele>312.085205</ele>
        <time>2015-03-26T11:49:25Z</time>
      </trkpt>
      <trkpt lat="44.15447" lon="4.27299">
        <ele>311.123779</ele>
        <time>2015-03-26T11:49:31Z</time>
      </trkpt>
      <trkpt lat="44.15454" lon="4.27302">
        <ele>311.123779</ele>
        <time>2015-03-26T11:49:39Z</time>
      </trkpt>
      <trkpt lat="44.15461" lon="4.2731">
        <ele>309.681885</ele>
        <time>2015-03-26T11:49:51Z</time>
      </trkpt>
      <trkpt lat="44.15457" lon="4.27306">
        <ele>310.162476</ele>
        <time>2015-03-26T11:49:59Z</time>
      </trkpt>
      <trkpt lat="44.15455" lon="4.273">
        <ele>311.604492</ele>
        <time>2015-03-26T11:50:07Z</time>
      </trkpt>
      <trkpt lat="44.15457" lon="4.27298">
        <ele>310.643066</ele>
        <time>2015-03-26T11:50:12Z</time>
      </trkpt>
      <trkpt lat="44.15465" lon="4.27295">
        <ele>310.162476</ele>
        <time>2015-03-26T11:50:24Z</time>
      </trkpt>
      <trkpt lat="44.15474" lon="4.27294">
        <ele>309.201172</ele>
        <time>2015-03-26T11:50:36Z</time>
      </trkpt>
      <trkpt lat="44.1548" lon="4.27296">
        <ele>308.239868</ele>
        <time>2015-03-26T11:50:46Z</time>
      </trkpt>
      <trkpt lat="44.15481" lon="4.27298">
        <ele>307.278564</ele>
        <time>2015-03-26T11:50:49Z</time>
      </trkpt>
      <trkpt lat="44.15487" lon="4.27299">
        <ele>307.759277</ele>
        <time>2015-03-26T11:50:56Z</time>
      </trkpt>
      <trkpt lat="44.1549" lon="4.27299">
        <ele>307.278564</ele>
        <time>2015-03-26T11:50:59Z</time>
      </trkpt>
      <trkpt lat="44.15495" lon="4.27299">
        <ele>307.278564</ele>
        <time>2015-03-26T11:51:04Z</time>
      </trkpt>
      <trkpt lat="44.15501" lon="4.27299">
        <ele>306.797852</ele>
        <time>2015-03-26T11:51:11Z</time>
      </trkpt>
      <trkpt lat="44.15504" lon="4.27299">
        <ele>306.317261</ele>
        <time>2015-03-26T11:51:15Z</time>
      </trkpt>
      <trkpt lat="44.15512" lon="4.27298">
        <ele>306.317261</ele>
        <time>2015-03-26T11:51:21Z</time>
      </trkpt>
      <trkpt lat="44.15518" lon="4.27297">
        <ele>306.317261</ele>
        <time>2015-03-26T11:51:26Z</time>
      </trkpt>
      <trkpt lat="44.1552" lon="4.27291">
        <ele>307.278564</ele>
        <time>2015-03-26T11:51:31Z</time>
      </trkpt>
      <trkpt lat="44.15523" lon="4.27291">
        <ele>307.759277</ele>
        <time>2015-03-26T11:51:39Z</time>
      </trkpt>
      <trkpt lat="44.15528" lon="4.27292">
        <ele>307.278564</ele>
        <time>2015-03-26T11:51:47Z</time>
      </trkpt>
      <trkpt lat="44.15526" lon="4.27299">
        <ele>307.278564</ele>
        <time>2015-03-26T11:51:58Z</time>
      </trkpt>
      <trkpt lat="44.15526" lon="4.273">
        <ele>307.278564</ele>
        <time>2015-03-26T11:51:59Z</time>
      </trkpt>
      <trkpt lat="44.15521" lon="4.27308">
        <ele>306.317261</ele>
        <time>2015-03-26T11:52:05Z</time>
      </trkpt>
      <trkpt lat="44.15518" lon="4.2732">
        <ele>305.83667</ele>
        <time>2015-03-26T11:52:11Z</time>
      </trkpt>
      <trkpt lat="44.15517" lon="4.27321">
        <ele>306.317261</ele>
        <time>2015-03-26T11:52:12Z</time>
      </trkpt>
      <trkpt lat="44.15513" lon="4.27335">
        <ele>305.355957</ele>
        <time>2015-03-26T11:52:22Z</time>
      </trkpt>
      <trkpt lat="44.15511" lon="4.27349">
        <ele>304.394653</ele>
        <time>2015-03-26T11:52:32Z</time>
      </trkpt>
      <trkpt lat="44.15507" lon="4.27362">
        <ele>302.471924</ele>
        <time>2015-03-26T11:52:41Z</time>
      </trkpt>
      <trkpt lat="44.15506" lon="4.27379">
        <ele>303.433228</ele>
        <time>2015-03-26T11:52:48Z</time>
      </trkpt>
      <trkpt lat="44.15507" lon="4.27382">
        <ele>302.952515</ele>
        <time>2015-03-26T11:52:49Z</time>
      </trkpt>
      <trkpt lat="44.15503" lon="4.27392">
        <ele>303.433228</ele>
        <time>2015-03-26T11:52:56Z</time>
      </trkpt>
      <trkpt lat="44.15502" lon="4.27408">
        <ele>302.471924</ele>
        <time>2015-03-26T11:53:07Z</time>
      </trkpt>
      <trkpt lat="44.15503" lon="4.27411">
        <ele>301.991333</ele>
        <time>2015-03-26T11:53:09Z</time>
      </trkpt>
      <trkpt lat="44.15507" lon="4.27416">
        <ele>301.51062</ele>
        <time>2015-03-26T11:53:14Z</time>
      </trkpt>
      <trkpt lat="44.15513" lon="4.27423">
        <ele>301.51062</ele>
        <time>2015-03-26T11:53:20Z</time>
      </trkpt>
      <trkpt lat="44.15519" lon="4.27436">
        <ele>300.549316</ele>
        <time>2015-03-26T11:53:29Z</time>
      </trkpt>
      <trkpt lat="44.15526" lon="4.27447">
        <ele>300.068726</ele>
        <time>2015-03-26T11:53:36Z</time>
      </trkpt>
      <trkpt lat="44.15529" lon="4.2745">
        <ele>299.1073</ele>
        <time>2015-03-26T11:53:40Z</time>
      </trkpt>
      <trkpt lat="44.15536" lon="4.27457">
        <ele>298.146118</ele>
        <time>2015-03-26T11:53:49Z</time>
      </trkpt>
      <trkpt lat="44.15538" lon="4.2746">
        <ele>297.184692</ele>
        <time>2015-03-26T11:53:54Z</time>
      </trkpt>
      <trkpt lat="44.15543" lon="4.27459">
        <ele>297.184692</ele>
        <time>2015-03-26T11:54:00Z</time>
      </trkpt>
      <trkpt lat="44.15544" lon="4.27463">
        <ele>297.184692</ele>
        <time>2015-03-26T11:54:02Z</time>
      </trkpt>
      <trkpt lat="44.15547" lon="4.27469">
        <ele>297.184692</ele>
        <time>2015-03-26T11:54:07Z</time>
      </trkpt>
      <trkpt lat="44.15551" lon="4.27473">
        <ele>296.704102</ele>
        <time>2015-03-26T11:54:12Z</time>
      </trkpt>
      <trkpt lat="44.15553" lon="4.27479">
        <ele>296.223511</ele>
        <time>2015-03-26T11:54:17Z</time>
      </trkpt>
      <trkpt lat="44.15557" lon="4.27489">
        <ele>295.742676</ele>
        <time>2015-03-26T11:54:23Z</time>
      </trkpt>
      <trkpt lat="44.15557" lon="4.27498">
        <ele>295.742676</ele>
        <time>2015-03-26T11:54:27Z</time>
      </trkpt>
      <trkpt lat="44.15555" lon="4.27505">
        <ele>294.781372</ele>
        <time>2015-03-26T11:54:34Z</time>
      </trkpt>
      <trkpt lat="44.15555" lon="4.2751">
        <ele>294.781372</ele>
        <time>2015-03-26T11:54:37Z</time>
      </trkpt>
      <trkpt lat="44.15553" lon="4.27517">
        <ele>294.781372</ele>
        <time>2015-03-26T11:54:45Z</time>
      </trkpt>
      <trkpt lat="44.15552" lon="4.2752">
        <ele>294.300781</ele>
        <time>2015-03-26T11:54:51Z</time>
      </trkpt>
      <trkpt lat="44.15553" lon="4.27518">
        <ele>294.300781</ele>
        <time>2015-03-26T11:54:58Z</time>
      </trkpt>
      <trkpt lat="44.15553" lon="4.27508">
        <ele>295.261963</ele>
        <time>2015-03-26T11:55:07Z</time>
      </trkpt>
      <trkpt lat="44.15553" lon="4.27509">
        <ele>295.261963</ele>
        <time>2015-03-26T11:55:09Z</time>
      </trkpt>
      <trkpt lat="44.15554" lon="4.27514">
        <ele>293.820068</ele>
        <time>2015-03-26T11:55:14Z</time>
      </trkpt>
      <trkpt lat="44.15554" lon="4.27519">
        <ele>293.820068</ele>
        <time>2015-03-26T11:55:17Z</time>
      </trkpt>
      <trkpt lat="44.15554" lon="4.27529">
        <ele>293.339355</ele>
        <time>2015-03-26T11:55:22Z</time>
      </trkpt>
      <trkpt lat="44.15552" lon="4.27535">
        <ele>293.339355</ele>
        <time>2015-03-26T11:55:25Z</time>
      </trkpt>
      <trkpt lat="44.15549" lon="4.27546">
        <ele>292.858765</ele>
        <time>2015-03-26T11:55:32Z</time>
      </trkpt>
      <trkpt lat="44.15549" lon="4.27548">
        <ele>292.378174</ele>
        <time>2015-03-26T11:55:33Z</time>
      </trkpt>
      <trkpt lat="44.1555" lon="4.27555">
        <ele>291.897461</ele>
        <time>2015-03-26T11:55:36Z</time>
      </trkpt>
      <trkpt lat="44.15554" lon="4.27567">
        <ele>291.416748</ele>
        <time>2015-03-26T11:55:42Z</time>
      </trkpt>
      <trkpt lat="44.15554" lon="4.27575">
        <ele>290.936157</ele>
        <time>2015-03-26T11:55:49Z</time>
      </trkpt>
      <trkpt lat="44.15554" lon="4.27577">
        <ele>290.455566</ele>
        <time>2015-03-26T11:55:51Z</time>
      </trkpt>
      <trkpt lat="44.15555" lon="4.2758">
        <ele>290.936157</ele>
        <time>2015-03-26T11:55:53Z</time>
      </trkpt>
      <trkpt lat="44.15559" lon="4.27591">
        <ele>289.974854</ele>
        <time>2015-03-26T11:56:01Z</time>
      </trkpt>
      <trkpt lat="44.1556" lon="4.27604">
        <ele>289.974854</ele>
        <time>2015-03-26T11:56:09Z</time>
      </trkpt>
      <trkpt lat="44.15562" lon="4.2761">
        <ele>289.494141</ele>
        <time>2015-03-26T11:56:14Z</time>
      </trkpt>
      <trkpt lat="44.15563" lon="4.27612">
        <ele>289.494141</ele>
        <time>2015-03-26T11:56:15Z</time>
      </trkpt>
      <trkpt lat="44.15566" lon="4.27623">
        <ele>289.494141</ele>
        <time>2015-03-26T11:56:20Z</time>
      </trkpt>
      <trkpt lat="44.15567" lon="4.27629">
        <ele>289.974854</ele>
        <time>2015-03-26T11:56:25Z</time>
      </trkpt>
      <trkpt lat="44.15565" lon="4.27624">
        <ele>289.494141</ele>
        <time>2015-03-26T11:56:30Z</time>
      </trkpt>
      <trkpt lat="44.15564" lon="4.27623">
        <ele>289.974854</ele>
        <time>2015-03-26T11:56:31Z</time>
      </trkpt>
      <trkpt lat="44.15561" lon="4.27614">
        <ele>290.455566</ele>
        <time>2015-03-26T11:56:37Z</time>
      </trkpt>
      <trkpt lat="44.15561" lon="4.27613">
        <ele>290.455566</ele>
        <time>2015-03-26T11:56:38Z</time>
      </trkpt>
      <trkpt lat="44.1556" lon="4.27609">
        <ele>289.974854</ele>
        <time>2015-03-26T11:56:41Z</time>
      </trkpt>
      <trkpt lat="44.15559" lon="4.27606">
        <ele>289.974854</ele>
        <time>2015-03-26T11:56:43Z</time>
      </trkpt>
      <trkpt lat="44.15556" lon="4.27598">
        <ele>289.974854</ele>
        <time>2015-03-26T11:56:50Z</time>
      </trkpt>
      <trkpt lat="44.15555" lon="4.27592">
        <ele>290.455566</ele>
        <time>2015-03-26T11:56:52Z</time>
      </trkpt>
      <trkpt lat="44.15553" lon="4.27584">
        <ele>290.455566</ele>
        <time>2015-03-26T11:56:58Z</time>
      </trkpt>
      <trkpt lat="44.15552" lon="4.27581">
        <ele>291.416748</ele>
        <time>2015-03-26T11:57:00Z</time>
      </trkpt>
      <trkpt lat="44.15552" lon="4.27574">
        <ele>291.416748</ele>
        <time>2015-03-26T11:57:05Z</time>
      </trkpt>
      <trkpt lat="44.15553" lon="4.2757">
        <ele>291.416748</ele>
        <time>2015-03-26T11:57:08Z</time>
      </trkpt>
      <trkpt lat="44.15551" lon="4.2756">
        <ele>291.897461</ele>
        <time>2015-03-26T11:57:16Z</time>
      </trkpt>
      <trkpt lat="44.15551" lon="4.27548">
        <ele>292.858765</ele>
        <time>2015-03-26T11:57:23Z</time>
      </trkpt>
      <trkpt lat="44.1555" lon="4.2754">
        <ele>293.339355</ele>
        <time>2015-03-26T11:57:29Z</time>
      </trkpt>
      <trkpt lat="44.15552" lon="4.27528">
        <ele>294.300781</ele>
        <time>2015-03-26T11:57:36Z</time>
      </trkpt>
      <trkpt lat="44.15554" lon="4.27519">
        <ele>294.781372</ele>
        <time>2015-03-26T11:57:42Z</time>
      </trkpt>
      <trkpt lat="44.15555" lon="4.2751">
        <ele>295.261963</ele>
        <time>2015-03-26T11:57:48Z</time>
      </trkpt>
      <trkpt lat="44.15556" lon="4.27505">
        <ele>295.261963</ele>
        <time>2015-03-26T11:57:51Z</time>
      </trkpt>
      <trkpt lat="44.15553" lon="4.27498">
        <ele>295.742676</ele>
        <time>2015-03-26T11:57:57Z</time>
      </trkpt>
      <trkpt lat="44.15553" lon="4.27491">
        <ele>296.223511</ele>
        <time>2015-03-26T11:58:03Z</time>
      </trkpt>
      <trkpt lat="44.15553" lon="4.27484">
        <ele>296.704102</ele>
        <time>2015-03-26T11:58:10Z</time>
      </trkpt>
      <trkpt lat="44.15551" lon="4.27475">
        <ele>297.184692</ele>
        <time>2015-03-26T11:58:18Z</time>
      </trkpt>
      <trkpt lat="44.15549" lon="4.2747">
        <ele>297.184692</ele>
        <time>2015-03-26T11:58:28Z</time>
      </trkpt>
      <trkpt lat="44.15546" lon="4.27465">
        <ele>297.184692</ele>
        <time>2015-03-26T11:58:36Z</time>
      </trkpt>
      <trkpt lat="44.15541" lon="4.27461">
        <ele>297.184692</ele>
        <time>2015-03-26T11:58:44Z</time>
      </trkpt>
      <trkpt lat="44.15533" lon="4.27455">
        <ele>298.146118</ele>
        <time>2015-03-26T11:58:55Z</time>
      </trkpt>
      <trkpt lat="44.15531" lon="4.27454">
        <ele>298.626709</ele>
        <time>2015-03-26T11:59:08Z</time>
      </trkpt>
      <trkpt lat="44.1553" lon="4.27454">
        <ele>298.146118</ele>
        <time>2015-03-26T11:59:10Z</time>
      </trkpt>
      <trkpt lat="44.15524" lon="4.27448">
        <ele>299.1073</ele>
        <time>2015-03-26T11:59:19Z</time>
      </trkpt>
      <trkpt lat="44.15522" lon="4.27442">
        <ele>299.588013</ele>
        <time>2015-03-26T11:59:30Z</time>
      </trkpt>
      <trkpt lat="44.15523" lon="4.27437">
        <ele>299.588013</ele>
        <time>2015-03-26T11:59:39Z</time>
      </trkpt>
      <trkpt lat="44.15522" lon="4.27426">
        <ele>300.549316</ele>
        <time>2015-03-26T11:59:49Z</time>
      </trkpt>
      <trkpt lat="44.15524" lon="4.27421">
        <ele>301.51062</ele>
        <time>2015-03-26T11:59:56Z</time>
      </trkpt>
      <trkpt lat="44.15525" lon="4.27416">
        <ele>301.029907</ele>
        <time>2015-03-26T12:00:03Z</time>
      </trkpt>
      <trkpt lat="44.15527" lon="4.27404">
        <ele>301.51062</ele>
        <time>2015-03-26T12:00:13Z</time>
      </trkpt>
      <trkpt lat="44.15532" lon="4.2739">
        <ele>302.471924</ele>
        <time>2015-03-26T12:00:26Z</time>
      </trkpt>
      <trkpt lat="44.15533" lon="4.27381">
        <ele>303.433228</ele>
        <time>2015-03-26T12:00:35Z</time>
      </trkpt>
      <trkpt lat="44.15534" lon="4.27378">
        <ele>304.394653</ele>
        <time>2015-03-26T12:00:42Z</time>
      </trkpt>
      <trkpt lat="44.15531" lon="4.27379">
        <ele>303.91394</ele>
        <time>2015-03-26T12:00:52Z</time>
      </trkpt>
      <trkpt lat="44.15527" lon="4.27381">
        <ele>303.91394</ele>
        <time>2015-03-26T12:01:01Z</time>
      </trkpt>
      <trkpt lat="44.15527" lon="4.27376">
        <ele>303.433228</ele>
        <time>2015-03-26T12:01:08Z</time>
      </trkpt>
      <trkpt lat="44.15527" lon="4.27373">
        <ele>303.91394</ele>
        <time>2015-03-26T12:01:15Z</time>
      </trkpt>
      <trkpt lat="44.15527" lon="4.2737">
        <ele>303.91394</ele>
        <time>2015-03-26T12:01:32Z</time>
      </trkpt>
      <trkpt lat="44.15527" lon="4.27365">
        <ele>303.91394</ele>
        <time>2015-03-26T12:01:37Z</time>
      </trkpt>
      <trkpt lat="44.15522" lon="4.27355">
        <ele>303.91394</ele>
        <time>2015-03-26T12:01:49Z</time>
      </trkpt>
      <trkpt lat="44.15522" lon="4.27349">
        <ele>304.394653</ele>
        <time>2015-03-26T12:01:59Z</time>
      </trkpt>
      <trkpt lat="44.1552" lon="4.27341">
        <ele>305.355957</ele>
        <time>2015-03-26T12:02:08Z</time>
      </trkpt>
      <trkpt lat="44.15519" lon="4.27335">
        <ele>305.355957</ele>
        <time>2015-03-26T12:02:16Z</time>
      </trkpt>
      <trkpt lat="44.1552" lon="4.27329">
        <ele>305.83667</ele>
        <time>2015-03-26T12:02:24Z</time>
      </trkpt>
      <trkpt lat="44.15521" lon="4.27328">
        <ele>305.83667</ele>
        <time>2015-03-26T12:02:27Z</time>
      </trkpt>
      <trkpt lat="44.15527" lon="4.2733">
        <ele>305.83667</ele>
        <time>2015-03-26T12:02:35Z</time>
      </trkpt>
      <trkpt lat="44.15529" lon="4.2733">
        <ele>305.355957</ele>
        <time>2015-03-26T12:02:42Z</time>
      </trkpt>
      <trkpt lat="44.15529" lon="4.2733">
        <ele>305.355957</ele>
        <time>2015-03-26T12:02:51Z</time>
      </trkpt>
      <trkpt lat="44.15529" lon="4.27329">
        <ele>305.355957</ele>
        <time>2015-03-26T12:04:28Z</time>
      </trkpt>
      <trkpt lat="44.15529" lon="4.2733">
        <ele>305.355957</ele>
        <time>2015-03-26T12:04:54Z</time>
      </trkpt>
      <trkpt lat="44.1553" lon="4.27331">
        <ele>305.355957</ele>
        <time>2015-03-26T12:05:05Z</time>
      </trkpt>
      <trkpt lat="44.15531" lon="4.27331">
        <ele>304.875244</ele>
        <time>2015-03-26T12:39:38Z</time>
      </trkpt>
      <trkpt lat="44.15531" lon="4.27331">
        <ele>304.875244</ele>
        <time>2015-03-26T12:39:48Z</time>
      </trkpt>
      <trkpt lat="44.15532" lon="4.2733">
        <ele>304.875244</ele>
        <time>2015-03-26T12:39:58Z</time>
      </trkpt>
      <trkpt lat="44.1553" lon="4.2733">
        <ele>304.875244</ele>
        <time>2015-03-26T12:43:32Z</time>
      </trkpt>
      <trkpt lat="44.15531" lon="4.27329">
        <ele>304.875244</ele>
        <time>2015-03-26T12:44:24Z</time>
      </trkpt>
      <trkpt lat="44.15532" lon="4.27331">
        <ele>304.394653</ele>
        <time>2015-03-26T12:44:41Z</time>
      </trkpt>
      <trkpt lat="44.15531" lon="4.27331">
        <ele>304.394653</ele>
        <time>2015-03-26T12:44:55Z</time>
      </trkpt>
      <trkpt lat="44.15529" lon="4.27332">
        <ele>305.355957</ele>
        <time>2015-03-26T12:59:51Z</time>
      </trkpt>
      <trkpt lat="44.15529" lon="4.27332">
        <ele>304.394653</ele>
        <time>2015-03-26T13:00:18Z</time>
      </trkpt>
      <trkpt lat="44.15529" lon="4.2733">
        <ele>304.394653</ele>
        <time>2015-03-26T13:00:30Z</time>
      </trkpt>
      <trkpt lat="44.15529" lon="4.27325">
        <ele>305.355957</ele>
        <time>2015-03-26T13:00:37Z</time>
      </trkpt>
      <trkpt lat="44.1553" lon="4.2732">
        <ele>305.83667</ele>
        <time>2015-03-26T13:00:46Z</time>
      </trkpt>
      <trkpt lat="44.1553" lon="4.27316">
        <ele>305.83667</ele>
        <time>2015-03-26T13:00:51Z</time>
      </trkpt>
      <trkpt lat="44.15527" lon="4.27309">
        <ele>304.875244</ele>
        <time>2015-03-26T13:00:59Z</time>
      </trkpt>
      <trkpt lat="44.15527" lon="4.27308">
        <ele>304.875244</ele>
        <time>2015-03-26T13:01:00Z</time>
      </trkpt>
      <trkpt lat="44.15525" lon="4.27304">
        <ele>304.875244</ele>
        <time>2015-03-26T13:01:06Z</time>
      </trkpt>
      <trkpt lat="44.15525" lon="4.27303">
        <ele>304.875244</ele>
        <time>2015-03-26T13:01:07Z</time>
      </trkpt>
      <trkpt lat="44.15526" lon="4.273">
        <ele>304.875244</ele>
        <time>2015-03-26T13:01:09Z</time>
      </trkpt>
      <trkpt lat="44.15527" lon="4.27294">
        <ele>305.355957</ele>
        <time>2015-03-26T13:01:16Z</time>
      </trkpt>
      <trkpt lat="44.15529" lon="4.27287">
        <ele>305.83667</ele>
        <time>2015-03-26T13:01:24Z</time>
      </trkpt>
      <trkpt lat="44.15532" lon="4.27282">
        <ele>305.355957</ele>
        <time>2015-03-26T13:01:31Z</time>
      </trkpt>
      <trkpt lat="44.15537" lon="4.27274">
        <ele>305.355957</ele>
        <time>2015-03-26T13:01:39Z</time>
      </trkpt>
      <trkpt lat="44.15538" lon="4.27271">
        <ele>305.355957</ele>
        <time>2015-03-26T13:01:42Z</time>
      </trkpt>
      <trkpt lat="44.1554" lon="4.27263">
        <ele>304.394653</ele>
        <time>2015-03-26T13:01:49Z</time>
      </trkpt>
      <trkpt lat="44.15542" lon="4.27256">
        <ele>304.875244</ele>
        <time>2015-03-26T13:01:57Z</time>
      </trkpt>
      <trkpt lat="44.15542" lon="4.27254">
        <ele>304.875244</ele>
        <time>2015-03-26T13:01:58Z</time>
      </trkpt>
      <trkpt lat="44.15543" lon="4.27246">
        <ele>304.394653</ele>
        <time>2015-03-26T13:02:10Z</time>
      </trkpt>
      <trkpt lat="44.15545" lon="4.27239">
        <ele>303.433228</ele>
        <time>2015-03-26T13:02:22Z</time>
      </trkpt>
      <trkpt lat="44.15548" lon="4.27226">
        <ele>302.471924</ele>
        <time>2015-03-26T13:02:31Z</time>
      </trkpt>
      <trkpt lat="44.1555" lon="4.27206">
        <ele>301.51062</ele>
        <time>2015-03-26T13:02:43Z</time>
      </trkpt>
      <trkpt lat="44.15551" lon="4.27196">
        <ele>301.029907</ele>
        <time>2015-03-26T13:02:50Z</time>
      </trkpt>
      <trkpt lat="44.15549" lon="4.27182">
        <ele>300.068726</ele>
        <time>2015-03-26T13:02:56Z</time>
      </trkpt>
      <trkpt lat="44.15552" lon="4.27176">
        <ele>299.1073</ele>
        <time>2015-03-26T13:03:00Z</time>
      </trkpt>
      <trkpt lat="44.15552" lon="4.2717">
        <ele>298.626709</ele>
        <time>2015-03-26T13:03:04Z</time>
      </trkpt>
      <trkpt lat="44.15551" lon="4.27167">
        <ele>298.626709</ele>
        <time>2015-03-26T13:03:06Z</time>
      </trkpt>
      <trkpt lat="44.15551" lon="4.27159">
        <ele>297.665405</ele>
        <time>2015-03-26T13:03:14Z</time>
      </trkpt>
      <trkpt lat="44.15553" lon="4.27145">
        <ele>298.146118</ele>
        <time>2015-03-26T13:03:21Z</time>
      </trkpt>
      <trkpt lat="44.15557" lon="4.27134">
        <ele>297.665405</ele>
        <time>2015-03-26T13:03:27Z</time>
      </trkpt>
      <trkpt lat="44.15557" lon="4.27117">
        <ele>296.223511</ele>
        <time>2015-03-26T13:03:38Z</time>
      </trkpt>
      <trkpt lat="44.15555" lon="4.27111">
        <ele>296.223511</ele>
        <time>2015-03-26T13:03:44Z</time>
      </trkpt>
      <trkpt lat="44.15557" lon="4.27102">
        <ele>295.742676</ele>
        <time>2015-03-26T13:03:49Z</time>
      </trkpt>
      <trkpt lat="44.1557" lon="4.27074">
        <ele>294.300781</ele>
        <time>2015-03-26T13:04:07Z</time>
      </trkpt>
      <trkpt lat="44.15571" lon="4.2707">
        <ele>293.339355</ele>
        <time>2015-03-26T13:04:09Z</time>
      </trkpt>
      <trkpt lat="44.15573" lon="4.27051">
        <ele>291.897461</ele>
        <time>2015-03-26T13:04:20Z</time>
      </trkpt>
      <trkpt lat="44.15574" lon="4.27042">
        <ele>291.416748</ele>
        <time>2015-03-26T13:04:26Z</time>
      </trkpt>
      <trkpt lat="44.15571" lon="4.2703">
        <ele>291.416748</ele>
        <time>2015-03-26T13:04:32Z</time>
      </trkpt>
      <trkpt lat="44.15569" lon="4.27012">
        <ele>290.936157</ele>
        <time>2015-03-26T13:04:43Z</time>
      </trkpt>
      <trkpt lat="44.1557" lon="4.27011">
        <ele>290.936157</ele>
        <time>2015-03-26T13:04:44Z</time>
      </trkpt>
      <trkpt lat="44.15574" lon="4.27001">
        <ele>291.416748</ele>
        <time>2015-03-26T13:04:52Z</time>
      </trkpt>
      <trkpt lat="44.15575" lon="4.27">
        <ele>290.936157</ele>
        <time>2015-03-26T13:04:54Z</time>
      </trkpt>
      <trkpt lat="44.15581" lon="4.27001">
        <ele>274.113037</ele>
        <time>2015-03-26T13:04:59Z</time>
      </trkpt>
      <trkpt lat="44.15581" lon="4.27002">
        <ele>282.765015</ele>
        <time>2015-03-26T13:05:01Z</time>
      </trkpt>
      <trkpt lat="44.1558" lon="4.27002">
        <ele>288.052246</ele>
        <time>2015-03-26T13:05:02Z</time>
      </trkpt>
      <trkpt lat="44.15579" lon="4.27003">
        <ele>290.936157</ele>
        <time>2015-03-26T13:05:04Z</time>
      </trkpt>
      <trkpt lat="44.15575" lon="4.27005">
        <ele>288.532959</ele>
        <time>2015-03-26T13:05:09Z</time>
      </trkpt>
      <trkpt lat="44.15574" lon="4.27009">
        <ele>289.974854</ele>
        <time>2015-03-26T13:05:20Z</time>
      </trkpt>
      <trkpt lat="44.15571" lon="4.27009">
        <ele>290.936157</ele>
        <time>2015-03-26T13:05:37Z</time>
      </trkpt>
      <trkpt lat="44.15572" lon="4.27006">
        <ele>290.936157</ele>
        <time>2015-03-26T13:05:49Z</time>
      </trkpt>
      <trkpt lat="44.15576" lon="4.26997">
        <ele>291.416748</ele>
        <time>2015-03-26T13:05:59Z</time>
      </trkpt>
      <trkpt lat="44.1558" lon="4.26995">
        <ele>291.416748</ele>
        <time>2015-03-26T13:06:11Z</time>
      </trkpt>
      <trkpt lat="44.1558" lon="4.26995">
        <ele>290.936157</ele>
        <time>2015-03-26T13:06:20Z</time>
      </trkpt>
      <trkpt lat="44.15575" lon="4.26989">
        <ele>290.455566</ele>
        <time>2015-03-26T13:06:42Z</time>
      </trkpt>
      <trkpt lat="44.15576" lon="4.26991">
        <ele>290.936157</ele>
        <time>2015-03-26T13:09:44Z</time>
      </trkpt>
      <trkpt lat="44.15576" lon="4.26991">
        <ele>291.416748</ele>
        <time>2015-03-26T13:09:53Z</time>
      </trkpt>
      <trkpt lat="44.15576" lon="4.26991">
        <ele>291.416748</ele>
        <time>2015-03-26T13:10:38Z</time>
      </trkpt>
      <trkpt lat="44.15577" lon="4.26991">
        <ele>291.897461</ele>
        <time>2015-03-26T13:11:24Z</time>
      </trkpt>
      <trkpt lat="44.15577" lon="4.26991">
        <ele>291.416748</ele>
        <time>2015-03-26T13:11:35Z</time>
      </trkpt>
      <trkpt lat="44.1558" lon="4.26989">
        <ele>291.897461</ele>
        <time>2015-03-26T13:11:56Z</time>
      </trkpt>
      <trkpt lat="44.15582" lon="4.26988">
        <ele>290.455566</ele>
        <time>2015-03-26T13:11:58Z</time>
      </trkpt>
      <trkpt lat="44.15582" lon="4.26984">
        <ele>291.416748</ele>
        <time>2015-03-26T13:12:07Z</time>
      </trkpt>
      <trkpt lat="44.15583" lon="4.26982">
        <ele>291.897461</ele>
        <time>2015-03-26T13:12:15Z</time>
      </trkpt>
      <trkpt lat="44.15581" lon="4.26983">
        <ele>291.416748</ele>
        <time>2015-03-26T13:12:20Z</time>
      </trkpt>
      <trkpt lat="44.15585" lon="4.2698">
        <ele>291.897461</ele>
        <time>2015-03-26T13:12:24Z</time>
      </trkpt>
      <trkpt lat="44.1559" lon="4.2697">
        <ele>293.339355</ele>
        <time>2015-03-26T13:12:34Z</time>
      </trkpt>
      <trkpt lat="44.15595" lon="4.26958">
        <ele>294.300781</ele>
        <time>2015-03-26T13:12:45Z</time>
      </trkpt>
      <trkpt lat="44.15602" lon="4.26946">
        <ele>296.223511</ele>
        <time>2015-03-26T13:12:56Z</time>
      </trkpt>
      <trkpt lat="44.15605" lon="4.26936">
        <ele>297.184692</ele>
        <time>2015-03-26T13:13:05Z</time>
      </trkpt>
      <trkpt lat="44.15611" lon="4.26926">
        <ele>298.626709</ele>
        <time>2015-03-26T13:13:13Z</time>
      </trkpt>
      <trkpt lat="44.15615" lon="4.26921">
        <ele>298.626709</ele>
        <time>2015-03-26T13:13:19Z</time>
      </trkpt>
      <trkpt lat="44.15616" lon="4.26914">
        <ele>300.068726</ele>
        <time>2015-03-26T13:13:25Z</time>
      </trkpt>
      <trkpt lat="44.15618" lon="4.26905">
        <ele>301.51062</ele>
        <time>2015-03-26T13:13:33Z</time>
      </trkpt>
      <trkpt lat="44.15625" lon="4.26898">
        <ele>302.471924</ele>
        <time>2015-03-26T13:13:40Z</time>
      </trkpt>
      <trkpt lat="44.15629" lon="4.26891">
        <ele>303.91394</ele>
        <time>2015-03-26T13:13:48Z</time>
      </trkpt>
      <trkpt lat="44.15635" lon="4.26878">
        <ele>305.355957</ele>
        <time>2015-03-26T13:14:02Z</time>
      </trkpt>
      <trkpt lat="44.15638" lon="4.2687">
        <ele>305.83667</ele>
        <time>2015-03-26T13:14:10Z</time>
      </trkpt>
      <trkpt lat="44.1564" lon="4.26865">
        <ele>306.797852</ele>
        <time>2015-03-26T13:14:15Z</time>
      </trkpt>
      <trkpt lat="44.15641" lon="4.26862">
        <ele>307.278564</ele>
        <time>2015-03-26T13:14:18Z</time>
      </trkpt>
      <trkpt lat="44.1565" lon="4.26851">
        <ele>308.239868</ele>
        <time>2015-03-26T13:14:28Z</time>
      </trkpt>
      <trkpt lat="44.15651" lon="4.26845">
        <ele>308.720459</ele>
        <time>2015-03-26T13:14:36Z</time>
      </trkpt>
      <trkpt lat="44.15657" lon="4.26835">
        <ele>310.162476</ele>
        <time>2015-03-26T13:14:47Z</time>
      </trkpt>
      <trkpt lat="44.15665" lon="4.26824">
        <ele>310.643066</ele>
        <time>2015-03-26T13:14:56Z</time>
      </trkpt>
      <trkpt lat="44.15672" lon="4.26819">
        <ele>311.604492</ele>
        <time>2015-03-26T13:15:05Z</time>
      </trkpt>
      <trkpt lat="44.15674" lon="4.26815">
        <ele>312.085205</ele>
        <time>2015-03-26T13:15:10Z</time>
      </trkpt>
      <trkpt lat="44.15679" lon="4.26805">
        <ele>313.046509</ele>
        <time>2015-03-26T13:15:19Z</time>
      </trkpt>
      <trkpt lat="44.15683" lon="4.26796">
        <ele>313.527222</ele>
        <time>2015-03-26T13:15:28Z</time>
      </trkpt>
      <trkpt lat="44.1569" lon="4.26786">
        <ele>314.007813</ele>
        <time>2015-03-26T13:15:36Z</time>
      </trkpt>
      <trkpt lat="44.15693" lon="4.26781">
        <ele>314.007813</ele>
        <time>2015-03-26T13:15:40Z</time>
      </trkpt>
      <trkpt lat="44.15696" lon="4.26774">
        <ele>314.488403</ele>
        <time>2015-03-26T13:15:48Z</time>
      </trkpt>
      <trkpt lat="44.15699" lon="4.26767">
        <ele>314.007813</ele>
        <time>2015-03-26T13:15:57Z</time>
      </trkpt>
      <trkpt lat="44.157" lon="4.26763">
        <ele>314.488403</ele>
        <time>2015-03-26T13:16:04Z</time>
      </trkpt>
      <trkpt lat="44.15704" lon="4.26757">
        <ele>314.007813</ele>
        <time>2015-03-26T13:16:12Z</time>
      </trkpt>
      <trkpt lat="44.15706" lon="4.26752">
        <ele>313.527222</ele>
        <time>2015-03-26T13:16:17Z</time>
      </trkpt>
      <trkpt lat="44.15706" lon="4.26741">
        <ele>312.565796</ele>
        <time>2015-03-26T13:16:27Z</time>
      </trkpt>
      <trkpt lat="44.15707" lon="4.26733">
        <ele>311.604492</ele>
        <time>2015-03-26T13:16:37Z</time>
      </trkpt>
      <trkpt lat="44.1571" lon="4.26726">
        <ele>311.123779</ele>
        <time>2015-03-26T13:16:46Z</time>
      </trkpt>
      <trkpt lat="44.15714" lon="4.26717">
        <ele>309.681885</ele>
        <time>2015-03-26T13:16:54Z</time>
      </trkpt>
      <trkpt lat="44.15718" lon="4.26713">
        <ele>309.201172</ele>
        <time>2015-03-26T13:17:01Z</time>
      </trkpt>
      <trkpt lat="44.15722" lon="4.26703">
        <ele>309.201172</ele>
        <time>2015-03-26T13:17:08Z</time>
      </trkpt>
      <trkpt lat="44.15722" lon="4.26698">
        <ele>308.720459</ele>
        <time>2015-03-26T13:17:11Z</time>
      </trkpt>
      <trkpt lat="44.15725" lon="4.26682">
        <ele>307.278564</ele>
        <time>2015-03-26T13:17:22Z</time>
      </trkpt>
      <trkpt lat="44.15726" lon="4.26679">
        <ele>307.278564</ele>
        <time>2015-03-26T13:17:24Z</time>
      </trkpt>
      <trkpt lat="44.15734" lon="4.26669">
        <ele>306.317261</ele>
        <time>2015-03-26T13:17:33Z</time>
      </trkpt>
      <trkpt lat="44.1574" lon="4.26656">
        <ele>305.83667</ele>
        <time>2015-03-26T13:17:43Z</time>
      </trkpt>
      <trkpt lat="44.15745" lon="4.26647">
        <ele>305.355957</ele>
        <time>2015-03-26T13:17:50Z</time>
      </trkpt>
      <trkpt lat="44.15746" lon="4.26643">
        <ele>305.355957</ele>
        <time>2015-03-26T13:17:54Z</time>
      </trkpt>
      <trkpt lat="44.15747" lon="4.2664">
        <ele>305.355957</ele>
        <time>2015-03-26T13:17:56Z</time>
      </trkpt>
      <trkpt lat="44.15753" lon="4.26626">
        <ele>305.355957</ele>
        <time>2015-03-26T13:18:06Z</time>
      </trkpt>
      <trkpt lat="44.15755" lon="4.26619">
        <ele>304.875244</ele>
        <time>2015-03-26T13:18:11Z</time>
      </trkpt>
      <trkpt lat="44.15757" lon="4.26615">
        <ele>304.875244</ele>
        <time>2015-03-26T13:18:14Z</time>
      </trkpt>
      <trkpt lat="44.15763" lon="4.26606">
        <ele>304.875244</ele>
        <time>2015-03-26T13:18:23Z</time>
      </trkpt>
      <trkpt lat="44.15763" lon="4.26601">
        <ele>304.394653</ele>
        <time>2015-03-26T13:18:26Z</time>
      </trkpt>
      <trkpt lat="44.15763" lon="4.26597">
        <ele>304.394653</ele>
        <time>2015-03-26T13:18:29Z</time>
      </trkpt>
      <trkpt lat="44.15765" lon="4.26593">
        <ele>303.91394</ele>
        <time>2015-03-26T13:18:32Z</time>
      </trkpt>
      <trkpt lat="44.15772" lon="4.26582">
        <ele>302.952515</ele>
        <time>2015-03-26T13:18:40Z</time>
      </trkpt>
      <trkpt lat="44.15774" lon="4.26577">
        <ele>302.952515</ele>
        <time>2015-03-26T13:18:45Z</time>
      </trkpt>
      <trkpt lat="44.15774" lon="4.26575">
        <ele>302.471924</ele>
        <time>2015-03-26T13:18:47Z</time>
      </trkpt>
      <trkpt lat="44.15775" lon="4.26571">
        <ele>301.991333</ele>
        <time>2015-03-26T13:18:50Z</time>
      </trkpt>
      <trkpt lat="44.15777" lon="4.26567">
        <ele>301.991333</ele>
        <time>2015-03-26T13:18:53Z</time>
      </trkpt>
      <trkpt lat="44.15777" lon="4.26563">
        <ele>301.991333</ele>
        <time>2015-03-26T13:18:56Z</time>
      </trkpt>
      <trkpt lat="44.15778" lon="4.26559">
        <ele>301.51062</ele>
        <time>2015-03-26T13:18:59Z</time>
      </trkpt>
      <trkpt lat="44.15778" lon="4.26553">
        <ele>301.029907</ele>
        <time>2015-03-26T13:19:03Z</time>
      </trkpt>
      <trkpt lat="44.15781" lon="4.26541">
        <ele>299.1073</ele>
        <time>2015-03-26T13:19:12Z</time>
      </trkpt>
      <trkpt lat="44.15781" lon="4.26541">
        <ele>299.588013</ele>
        <time>2015-03-26T13:19:13Z</time>
      </trkpt>
      <trkpt lat="44.1578" lon="4.26537">
        <ele>299.588013</ele>
        <time>2015-03-26T13:19:16Z</time>
      </trkpt>
      <trkpt lat="44.15782" lon="4.26525">
        <ele>297.665405</ele>
        <time>2015-03-26T13:19:26Z</time>
      </trkpt>
      <trkpt lat="44.15785" lon="4.26514">
        <ele>296.223511</ele>
        <time>2015-03-26T13:19:35Z</time>
      </trkpt>
      <trkpt lat="44.15787" lon="4.26511">
        <ele>296.223511</ele>
        <time>2015-03-26T13:19:38Z</time>
      </trkpt>
      <trkpt lat="44.15796" lon="4.26506">
        <ele>295.742676</ele>
        <time>2015-03-26T13:19:43Z</time>
      </trkpt>
      <trkpt lat="44.158" lon="4.26502">
        <ele>295.261963</ele>
        <time>2015-03-26T13:19:47Z</time>
      </trkpt>
      <trkpt lat="44.15802" lon="4.26498">
        <ele>294.781372</ele>
        <time>2015-03-26T13:19:50Z</time>
      </trkpt>
      <trkpt lat="44.1581" lon="4.26489">
        <ele>294.300781</ele>
        <time>2015-03-26T13:19:58Z</time>
      </trkpt>
      <trkpt lat="44.15816" lon="4.26477">
        <ele>292.858765</ele>
        <time>2015-03-26T13:20:09Z</time>
      </trkpt>
      <trkpt lat="44.15817" lon="4.26473">
        <ele>293.339355</ele>
        <time>2015-03-26T13:20:16Z</time>
      </trkpt>
      <trkpt lat="44.15822" lon="4.26465">
        <ele>291.897461</ele>
        <time>2015-03-26T13:20:24Z</time>
      </trkpt>
      <trkpt lat="44.15828" lon="4.26458">
        <ele>289.974854</ele>
        <time>2015-03-26T13:20:31Z</time>
      </trkpt>
      <trkpt lat="44.1583" lon="4.26455">
        <ele>289.974854</ele>
        <time>2015-03-26T13:20:34Z</time>
      </trkpt>
      <trkpt lat="44.15831" lon="4.26452">
        <ele>290.455566</ele>
        <time>2015-03-26T13:20:36Z</time>
      </trkpt>
      <trkpt lat="44.15834" lon="4.26448">
        <ele>289.974854</ele>
        <time>2015-03-26T13:20:43Z</time>
      </trkpt>
      <trkpt lat="44.15835" lon="4.26445">
        <ele>289.974854</ele>
        <time>2015-03-26T13:20:44Z</time>
      </trkpt>
      <trkpt lat="44.15841" lon="4.26431">
        <ele>289.494141</ele>
        <time>2015-03-26T13:20:53Z</time>
      </trkpt>
      <trkpt lat="44.15841" lon="4.26425">
        <ele>288.052246</ele>
        <time>2015-03-26T13:20:59Z</time>
      </trkpt>
      <trkpt lat="44.15845" lon="4.26419">
        <ele>288.532959</ele>
        <time>2015-03-26T13:21:05Z</time>
      </trkpt>
      <trkpt lat="44.15852" lon="4.26416">
        <ele>288.052246</ele>
        <time>2015-03-26T13:21:09Z</time>
      </trkpt>
      <trkpt lat="44.1586" lon="4.2641">
        <ele>288.052246</ele>
        <time>2015-03-26T13:21:16Z</time>
      </trkpt>
      <trkpt lat="44.15865" lon="4.26404">
        <ele>288.052246</ele>
        <time>2015-03-26T13:21:22Z</time>
      </trkpt>
      <trkpt lat="44.15873" lon="4.264">
        <ele>287.571411</ele>
        <time>2015-03-26T13:21:29Z</time>
      </trkpt>
      <trkpt lat="44.15877" lon="4.26396">
        <ele>288.052246</ele>
        <time>2015-03-26T13:21:36Z</time>
      </trkpt>
      <trkpt lat="44.15883" lon="4.2639">
        <ele>287.571411</ele>
        <time>2015-03-26T13:21:43Z</time>
      </trkpt>
      <trkpt lat="44.15886" lon="4.26382">
        <ele>287.09082</ele>
        <time>2015-03-26T13:21:49Z</time>
      </trkpt>
      <trkpt lat="44.15891" lon="4.26377">
        <ele>286.610229</ele>
        <time>2015-03-26T13:21:55Z</time>
      </trkpt>
      <trkpt lat="44.15895" lon="4.2637">
        <ele>286.129517</ele>
        <time>2015-03-26T13:22:00Z</time>
      </trkpt>
      <trkpt lat="44.15897" lon="4.26366">
        <ele>285.648804</ele>
        <time>2015-03-26T13:22:03Z</time>
      </trkpt>
      <trkpt lat="44.159" lon="4.26359">
        <ele>285.648804</ele>
        <time>2015-03-26T13:22:08Z</time>
      </trkpt>
      <trkpt lat="44.15907" lon="4.2635">
        <ele>284.687622</ele>
        <time>2015-03-26T13:22:16Z</time>
      </trkpt>
      <trkpt lat="44.15907" lon="4.26349">
        <ele>284.206909</ele>
        <time>2015-03-26T13:22:17Z</time>
      </trkpt>
      <trkpt lat="44.15911" lon="4.26338">
        <ele>283.245605</ele>
        <time>2015-03-26T13:22:27Z</time>
      </trkpt>
      <trkpt lat="44.15913" lon="4.26333">
        <ele>282.765015</ele>
        <time>2015-03-26T13:22:30Z</time>
      </trkpt>
      <trkpt lat="44.15917" lon="4.26328">
        <ele>283.245605</ele>
        <time>2015-03-26T13:22:34Z</time>
      </trkpt>
      <trkpt lat="44.15918" lon="4.26326">
        <ele>282.765015</ele>
        <time>2015-03-26T13:22:36Z</time>
      </trkpt>
      <trkpt lat="44.15919" lon="4.26323">
        <ele>282.284302</ele>
        <time>2015-03-26T13:22:38Z</time>
      </trkpt>
      <trkpt lat="44.15925" lon="4.26308">
        <ele>281.803589</ele>
        <time>2015-03-26T13:22:49Z</time>
      </trkpt>
      <trkpt lat="44.15926" lon="4.26304">
        <ele>281.803589</ele>
        <time>2015-03-26T13:22:52Z</time>
      </trkpt>
      <trkpt lat="44.15932" lon="4.26293">
        <ele>281.322998</ele>
        <time>2015-03-26T13:23:00Z</time>
      </trkpt>
      <trkpt lat="44.15935" lon="4.26286">
        <ele>281.322998</ele>
        <time>2015-03-26T13:23:05Z</time>
      </trkpt>
      <trkpt lat="44.15939" lon="4.26279">
        <ele>280.842407</ele>
        <time>2015-03-26T13:23:10Z</time>
      </trkpt>
      <trkpt lat="44.15944" lon="4.26261">
        <ele>280.361694</ele>
        <time>2015-03-26T13:23:22Z</time>
      </trkpt>
      <trkpt lat="44.15946" lon="4.26251">
        <ele>280.361694</ele>
        <time>2015-03-26T13:23:29Z</time>
      </trkpt>
      <trkpt lat="44.15947" lon="4.2625">
        <ele>280.361694</ele>
        <time>2015-03-26T13:23:36Z</time>
      </trkpt>
      <trkpt lat="44.15945" lon="4.2625">
        <ele>280.361694</ele>
        <time>2015-03-26T13:23:50Z</time>
      </trkpt>
      <trkpt lat="44.15954" lon="4.26244">
        <ele>280.361694</ele>
        <time>2015-03-26T13:23:58Z</time>
      </trkpt>
      <trkpt lat="44.15962" lon="4.26237">
        <ele>280.361694</ele>
        <time>2015-03-26T13:24:04Z</time>
      </trkpt>
      <trkpt lat="44.15964" lon="4.26233">
        <ele>280.361694</ele>
        <time>2015-03-26T13:24:09Z</time>
      </trkpt>
      <trkpt lat="44.15966" lon="4.26231">
        <ele>280.361694</ele>
        <time>2015-03-26T13:24:11Z</time>
      </trkpt>
      <trkpt lat="44.15975" lon="4.26227">
        <ele>280.842407</ele>
        <time>2015-03-26T13:24:16Z</time>
      </trkpt>
      <trkpt lat="44.15979" lon="4.26223">
        <ele>280.842407</ele>
        <time>2015-03-26T13:24:21Z</time>
      </trkpt>
      <trkpt lat="44.15979" lon="4.2622">
        <ele>280.842407</ele>
        <time>2015-03-26T13:24:25Z</time>
      </trkpt>
      <trkpt lat="44.15983" lon="4.26216">
        <ele>281.322998</ele>
        <time>2015-03-26T13:24:30Z</time>
      </trkpt>
      <trkpt lat="44.15989" lon="4.26213">
        <ele>281.322998</ele>
        <time>2015-03-26T13:24:36Z</time>
      </trkpt>
      <trkpt lat="44.15995" lon="4.26211">
        <ele>281.322998</ele>
        <time>2015-03-26T13:24:42Z</time>
      </trkpt>
      <trkpt lat="44.15998" lon="4.26206">
        <ele>281.803589</ele>
        <time>2015-03-26T13:24:50Z</time>
      </trkpt>
      <trkpt lat="44.15996" lon="4.26205">
        <ele>282.284302</ele>
        <time>2015-03-26T13:24:56Z</time>
      </trkpt>
      <trkpt lat="44.16002" lon="4.26199">
        <ele>281.803589</ele>
        <time>2015-03-26T13:25:07Z</time>
      </trkpt>
      <trkpt lat="44.16007" lon="4.26186">
        <ele>283.245605</ele>
        <time>2015-03-26T13:25:22Z</time>
      </trkpt>
      <trkpt lat="44.16009" lon="4.26182">
        <ele>282.765015</ele>
        <time>2015-03-26T13:25:27Z</time>
      </trkpt>
      <trkpt lat="44.16014" lon="4.26169">
        <ele>283.726196</ele>
        <time>2015-03-26T13:25:37Z</time>
      </trkpt>
      <trkpt lat="44.16022" lon="4.26155">
        <ele>283.245605</ele>
        <time>2015-03-26T13:25:48Z</time>
      </trkpt>
      <trkpt lat="44.16024" lon="4.26151">
        <ele>283.245605</ele>
        <time>2015-03-26T13:25:51Z</time>
      </trkpt>
      <trkpt lat="44.1603" lon="4.26145">
        <ele>283.726196</ele>
        <time>2015-03-26T13:25:57Z</time>
      </trkpt>
      <trkpt lat="44.16034" lon="4.26136">
        <ele>284.206909</ele>
        <time>2015-03-26T13:26:05Z</time>
      </trkpt>
      <trkpt lat="44.16038" lon="4.26122">
        <ele>284.687622</ele>
        <time>2015-03-26T13:26:16Z</time>
      </trkpt>
      <trkpt lat="44.16044" lon="4.26114">
        <ele>285.648804</ele>
        <time>2015-03-26T13:26:24Z</time>
      </trkpt>
      <trkpt lat="44.1605" lon="4.26106">
        <ele>286.129517</ele>
        <time>2015-03-26T13:26:31Z</time>
      </trkpt>
      <trkpt lat="44.16057" lon="4.26096">
        <ele>286.129517</ele>
        <time>2015-03-26T13:26:39Z</time>
      </trkpt>
      <trkpt lat="44.1606" lon="4.2609">
        <ele>286.610229</ele>
        <time>2015-03-26T13:26:43Z</time>
      </trkpt>
      <trkpt lat="44.16061" lon="4.26088">
        <ele>286.610229</ele>
        <time>2015-03-26T13:26:45Z</time>
      </trkpt>
      <trkpt lat="44.16065" lon="4.26076">
        <ele>287.09082</ele>
        <time>2015-03-26T13:26:54Z</time>
      </trkpt>
      <trkpt lat="44.1607" lon="4.26066">
        <ele>287.571411</ele>
        <time>2015-03-26T13:27:02Z</time>
      </trkpt>
      <trkpt lat="44.16074" lon="4.26062">
        <ele>287.571411</ele>
        <time>2015-03-26T13:27:06Z</time>
      </trkpt>
      <trkpt lat="44.16078" lon="4.26048">
        <ele>287.571411</ele>
        <time>2015-03-26T13:27:16Z</time>
      </trkpt>
      <trkpt lat="44.16082" lon="4.26036">
        <ele>287.09082</ele>
        <time>2015-03-26T13:27:23Z</time>
      </trkpt>
      <trkpt lat="44.16084" lon="4.2603">
        <ele>287.09082</ele>
        <time>2015-03-26T13:27:27Z</time>
      </trkpt>
      <trkpt lat="44.16086" lon="4.26027">
        <ele>287.09082</ele>
        <time>2015-03-26T13:27:30Z</time>
      </trkpt>
      <trkpt lat="44.16087" lon="4.26019">
        <ele>287.09082</ele>
        <time>2015-03-26T13:27:38Z</time>
      </trkpt>
      <trkpt lat="44.16087" lon="4.26015">
        <ele>287.09082</ele>
        <time>2015-03-26T13:27:47Z</time>
      </trkpt>
      <trkpt lat="44.16086" lon="4.26015">
        <ele>286.129517</ele>
        <time>2015-03-26T13:28:09Z</time>
      </trkpt>
      <trkpt lat="44.16089" lon="4.2601">
        <ele>285.648804</ele>
        <time>2015-03-26T13:28:13Z</time>
      </trkpt>
      <trkpt lat="44.16094" lon="4.25997">
        <ele>285.648804</ele>
        <time>2015-03-26T13:28:22Z</time>
      </trkpt>
      <trkpt lat="44.16095" lon="4.25992">
        <ele>285.168213</ele>
        <time>2015-03-26T13:28:25Z</time>
      </trkpt>
      <trkpt lat="44.16097" lon="4.25983">
        <ele>285.168213</ele>
        <time>2015-03-26T13:28:31Z</time>
      </trkpt>
      <trkpt lat="44.161" lon="4.25978">
        <ele>285.168213</ele>
        <time>2015-03-26T13:28:35Z</time>
      </trkpt>
      <trkpt lat="44.16106" lon="4.25966">
        <ele>283.726196</ele>
        <time>2015-03-26T13:28:45Z</time>
      </trkpt>
      <trkpt lat="44.1611" lon="4.25951">
        <ele>283.726196</ele>
        <time>2015-03-26T13:28:56Z</time>
      </trkpt>
      <trkpt lat="44.16115" lon="4.25931">
        <ele>282.284302</ele>
        <time>2015-03-26T13:29:09Z</time>
      </trkpt>
      <trkpt lat="44.16117" lon="4.25923">
        <ele>282.284302</ele>
        <time>2015-03-26T13:29:15Z</time>
      </trkpt>
      <trkpt lat="44.16118" lon="4.25913">
        <ele>281.803589</ele>
        <time>2015-03-26T13:29:23Z</time>
      </trkpt>
      <trkpt lat="44.16119" lon="4.25909">
        <ele>281.322998</ele>
        <time>2015-03-26T13:29:29Z</time>
      </trkpt>
      <trkpt lat="44.16121" lon="4.25899">
        <ele>281.322998</ele>
        <time>2015-03-26T13:29:38Z</time>
      </trkpt>
      <trkpt lat="44.16121" lon="4.25894">
        <ele>281.803589</ele>
        <time>2015-03-26T13:29:47Z</time>
      </trkpt>
      <trkpt lat="44.16118" lon="4.25878">
        <ele>283.245605</ele>
        <time>2015-03-26T13:30:01Z</time>
      </trkpt>
      <trkpt lat="44.16115" lon="4.25867">
        <ele>284.206909</ele>
        <time>2015-03-26T13:30:12Z</time>
      </trkpt>
      <trkpt lat="44.16114" lon="4.25864">
        <ele>284.687622</ele>
        <time>2015-03-26T13:30:14Z</time>
      </trkpt>
      <trkpt lat="44.16114" lon="4.2585">
        <ele>284.687622</ele>
        <time>2015-03-26T13:30:24Z</time>
      </trkpt>
      <trkpt lat="44.16113" lon="4.25843">
        <ele>284.687622</ele>
        <time>2015-03-26T13:30:29Z</time>
      </trkpt>
      <trkpt lat="44.16112" lon="4.25832">
        <ele>285.648804</ele>
        <time>2015-03-26T13:30:37Z</time>
      </trkpt>
      <trkpt lat="44.16112" lon="4.25831">
        <ele>286.129517</ele>
        <time>2015-03-26T13:30:38Z</time>
      </trkpt>
      <trkpt lat="44.16109" lon="4.2582">
        <ele>286.610229</ele>
        <time>2015-03-26T13:30:48Z</time>
      </trkpt>
      <trkpt lat="44.16103" lon="4.25807">
        <ele>288.052246</ele>
        <time>2015-03-26T13:31:00Z</time>
      </trkpt>
      <trkpt lat="44.16097" lon="4.25794">
        <ele>289.01355</ele>
        <time>2015-03-26T13:31:11Z</time>
      </trkpt>
      <trkpt lat="44.16091" lon="4.25783">
        <ele>290.936157</ele>
        <time>2015-03-26T13:31:21Z</time>
      </trkpt>
      <trkpt lat="44.16086" lon="4.25773">
        <ele>292.858765</ele>
        <time>2015-03-26T13:31:31Z</time>
      </trkpt>
      <trkpt lat="44.16083" lon="4.25761">
        <ele>293.339355</ele>
        <time>2015-03-26T13:31:40Z</time>
      </trkpt>
      <trkpt lat="44.16078" lon="4.25752">
        <ele>293.820068</ele>
        <time>2015-03-26T13:31:47Z</time>
      </trkpt>
      <trkpt lat="44.16075" lon="4.25742">
        <ele>294.781372</ele>
        <time>2015-03-26T13:31:54Z</time>
      </trkpt>
      <trkpt lat="44.16072" lon="4.25728">
        <ele>295.742676</ele>
        <time>2015-03-26T13:32:05Z</time>
      </trkpt>
      <trkpt lat="44.16069" lon="4.2572">
        <ele>295.261963</ele>
        <time>2015-03-26T13:32:11Z</time>
      </trkpt>
      <trkpt lat="44.16065" lon="4.25708">
        <ele>294.781372</ele>
        <time>2015-03-26T13:32:19Z</time>
      </trkpt>
      <trkpt lat="44.16063" lon="4.25699">
        <ele>294.300781</ele>
        <time>2015-03-26T13:32:25Z</time>
      </trkpt>
      <trkpt lat="44.16056" lon="4.25684">
        <ele>293.339355</ele>
        <time>2015-03-26T13:32:36Z</time>
      </trkpt>
      <trkpt lat="44.16052" lon="4.25675">
        <ele>292.858765</ele>
        <time>2015-03-26T13:32:44Z</time>
      </trkpt>
      <trkpt lat="44.16052" lon="4.2566">
        <ele>292.378174</ele>
        <time>2015-03-26T13:32:54Z</time>
      </trkpt>
      <trkpt lat="44.16053" lon="4.25647">
        <ele>290.936157</ele>
        <time>2015-03-26T13:33:04Z</time>
      </trkpt>
      <trkpt lat="44.16057" lon="4.25641">
        <ele>289.494141</ele>
        <time>2015-03-26T13:33:11Z</time>
      </trkpt>
      <trkpt lat="44.16058" lon="4.2564">
        <ele>289.494141</ele>
        <time>2015-03-26T13:33:12Z</time>
      </trkpt>
      <trkpt lat="44.16066" lon="4.25628">
        <ele>288.532959</ele>
        <time>2015-03-26T13:33:16Z</time>
      </trkpt>
      <trkpt lat="44.16068" lon="4.25625">
        <ele>287.09082</ele>
        <time>2015-03-26T13:33:22Z</time>
      </trkpt>
      <trkpt lat="44.16068" lon="4.25625">
        <ele>287.09082</ele>
        <time>2015-03-26T13:33:24Z</time>
      </trkpt>
      <trkpt lat="44.16076" lon="4.25611">
        <ele>286.610229</ele>
        <time>2015-03-26T13:33:29Z</time>
      </trkpt>
      <trkpt lat="44.16076" lon="4.25611">
        <ele>285.648804</ele>
        <time>2015-03-26T13:33:34Z</time>
      </trkpt>
      <trkpt lat="44.16084" lon="4.25596">
        <ele>285.168213</ele>
        <time>2015-03-26T13:33:41Z</time>
      </trkpt>
      <trkpt lat="44.16085" lon="4.25594">
        <ele>284.687622</ele>
        <time>2015-03-26T13:33:45Z</time>
      </trkpt>
      <trkpt lat="44.1609" lon="4.25582">
        <ele>284.687622</ele>
        <time>2015-03-26T13:33:50Z</time>
      </trkpt>
      <trkpt lat="44.16093" lon="4.25577">
        <ele>284.687622</ele>
        <time>2015-03-26T13:33:56Z</time>
      </trkpt>
      <trkpt lat="44.16093" lon="4.25577">
        <ele>284.206909</ele>
        <time>2015-03-26T13:33:59Z</time>
      </trkpt>
      <trkpt lat="44.16095" lon="4.25573">
        <ele>284.206909</ele>
        <time>2015-03-26T13:34:01Z</time>
      </trkpt>
      <trkpt lat="44.16101" lon="4.25569">
        <ele>283.726196</ele>
        <time>2015-03-26T13:34:08Z</time>
      </trkpt>
      <trkpt lat="44.16101" lon="4.25569">
        <ele>283.245605</ele>
        <time>2015-03-26T13:34:15Z</time>
      </trkpt>
      <trkpt lat="44.1611" lon="4.25565">
        <ele>282.284302</ele>
        <time>2015-03-26T13:34:22Z</time>
      </trkpt>
      <trkpt lat="44.1611" lon="4.25565">
        <ele>281.803589</ele>
        <time>2015-03-26T13:34:28Z</time>
      </trkpt>
      <trkpt lat="44.1611" lon="4.25565">
        <ele>281.322998</ele>
        <time>2015-03-26T13:34:31Z</time>
      </trkpt>
      <trkpt lat="44.16121" lon="4.25565">
        <ele>279.880859</ele>
        <time>2015-03-26T13:34:38Z</time>
      </trkpt>
      <trkpt lat="44.16131" lon="4.25564">
        <ele>278.919678</ele>
        <time>2015-03-26T13:34:42Z</time>
      </trkpt>
      <trkpt lat="44.16132" lon="4.25564">
        <ele>277.958252</ele>
        <time>2015-03-26T13:34:48Z</time>
      </trkpt>
      <trkpt lat="44.16132" lon="4.25564">
        <ele>277.958252</ele>
        <time>2015-03-26T13:34:49Z</time>
      </trkpt>
      <trkpt lat="44.16183" lon="4.25597">
        <ele>277.477661</ele>
        <time>2015-03-26T13:34:55Z</time>
      </trkpt>
      <trkpt lat="44.16183" lon="4.25597">
        <ele>276.516357</ele>
        <time>2015-03-26T13:35:00Z</time>
      </trkpt>
      <trkpt lat="44.16155" lon="4.25561">
        <ele>275.555054</ele>
        <time>2015-03-26T13:35:06Z</time>
      </trkpt>
      <trkpt lat="44.16162" lon="4.25562">
        <ele>274.59375</ele>
        <time>2015-03-26T13:35:13Z</time>
      </trkpt>
      <trkpt lat="44.16164" lon="4.25563">
        <ele>274.113037</ele>
        <time>2015-03-26T13:35:14Z</time>
      </trkpt>
      <trkpt lat="44.16169" lon="4.25563">
        <ele>273.151855</ele>
        <time>2015-03-26T13:35:21Z</time>
      </trkpt>
      <trkpt lat="44.16171" lon="4.25564">
        <ele>272.671143</ele>
        <time>2015-03-26T13:35:23Z</time>
      </trkpt>
      <trkpt lat="44.1618" lon="4.25562">
        <ele>270.748413</ele>
        <time>2015-03-26T13:35:30Z</time>
      </trkpt>
      <trkpt lat="44.16185" lon="4.25556">
        <ele>270.2677</ele>
        <time>2015-03-26T13:35:38Z</time>
      </trkpt>
      <trkpt lat="44.16191" lon="4.25553">
        <ele>269.306519</ele>
        <time>2015-03-26T13:35:43Z</time>
      </trkpt>
      <trkpt lat="44.16195" lon="4.25553">
        <ele>268.345093</ele>
        <time>2015-03-26T13:35:52Z</time>
      </trkpt>
      <trkpt lat="44.16202" lon="4.2555">
        <ele>266.903198</ele>
        <time>2015-03-26T13:35:59Z</time>
      </trkpt>
      <trkpt lat="44.16205" lon="4.25548">
        <ele>265.941895</ele>
        <time>2015-03-26T13:36:02Z</time>
      </trkpt>
      <trkpt lat="44.16217" lon="4.25539">
        <ele>264.499878</ele>
        <time>2015-03-26T13:36:09Z</time>
      </trkpt>
      <trkpt lat="44.16218" lon="4.25538">
        <ele>264.980591</ele>
        <time>2015-03-26T13:36:14Z</time>
      </trkpt>
      <trkpt lat="44.16222" lon="4.25532">
        <ele>264.499878</ele>
        <time>2015-03-26T13:36:19Z</time>
      </trkpt>
      <trkpt lat="44.16224" lon="4.25531">
        <ele>264.499878</ele>
        <time>2015-03-26T13:36:33Z</time>
      </trkpt>
      <trkpt lat="44.16225" lon="4.25533">
        <ele>264.980591</ele>
        <time>2015-03-26T13:36:57Z</time>
      </trkpt>
      <trkpt lat="44.16226" lon="4.25534">
        <ele>264.980591</ele>
        <time>2015-03-26T13:37:23Z</time>
      </trkpt>
      <trkpt lat="44.16226" lon="4.25531">
        <ele>263.538574</ele>
        <time>2015-03-26T13:37:40Z</time>
      </trkpt>
      <trkpt lat="44.16232" lon="4.25521">
        <ele>263.538574</ele>
        <time>2015-03-26T13:37:50Z</time>
      </trkpt>
      <trkpt lat="44.16238" lon="4.25513">
        <ele>262.577148</ele>
        <time>2015-03-26T13:37:55Z</time>
      </trkpt>
      <trkpt lat="44.16242" lon="4.25508">
        <ele>263.538574</ele>
        <time>2015-03-26T13:38:00Z</time>
      </trkpt>
      <trkpt lat="44.16246" lon="4.25501">
        <ele>262.577148</ele>
        <time>2015-03-26T13:38:07Z</time>
      </trkpt>
      <trkpt lat="44.16252" lon="4.2549">
        <ele>263.057861</ele>
        <time>2015-03-26T13:38:12Z</time>
      </trkpt>
      <trkpt lat="44.16257" lon="4.25482">
        <ele>263.538574</ele>
        <time>2015-03-26T13:38:17Z</time>
      </trkpt>
      <trkpt lat="44.16259" lon="4.25476">
        <ele>263.057861</ele>
        <time>2015-03-26T13:38:23Z</time>
      </trkpt>
      <trkpt lat="44.16262" lon="4.25471">
        <ele>262.577148</ele>
        <time>2015-03-26T13:38:28Z</time>
      </trkpt>
      <trkpt lat="44.16267" lon="4.2546">
        <ele>263.057861</ele>
        <time>2015-03-26T13:38:34Z</time>
      </trkpt>
      <trkpt lat="44.16273" lon="4.2545">
        <ele>262.577148</ele>
        <time>2015-03-26T13:38:41Z</time>
      </trkpt>
      <trkpt lat="44.16274" lon="4.25448">
        <ele>262.577148</ele>
        <time>2015-03-26T13:38:43Z</time>
      </trkpt>
      <trkpt lat="44.16278" lon="4.25439">
        <ele>261.615967</ele>
        <time>2015-03-26T13:38:51Z</time>
      </trkpt>
      <trkpt lat="44.16279" lon="4.25439">
        <ele>261.615967</ele>
        <time>2015-03-26T13:38:52Z</time>
      </trkpt>
      <trkpt lat="44.16281" lon="4.25432">
        <ele>261.615967</ele>
        <time>2015-03-26T13:38:55Z</time>
      </trkpt>
      <trkpt lat="44.16284" lon="4.25421">
        <ele>261.615967</ele>
        <time>2015-03-26T13:39:01Z</time>
      </trkpt>
      <trkpt lat="44.16285" lon="4.25415">
        <ele>261.615967</ele>
        <time>2015-03-26T13:39:06Z</time>
      </trkpt>
      <trkpt lat="44.16292" lon="4.25402">
        <ele>261.615967</ele>
        <time>2015-03-26T13:39:12Z</time>
      </trkpt>
      <trkpt lat="44.16291" lon="4.25399">
        <ele>261.615967</ele>
        <time>2015-03-26T13:39:14Z</time>
      </trkpt>
      <trkpt lat="44.16297" lon="4.25389">
        <ele>261.615967</ele>
        <time>2015-03-26T13:39:21Z</time>
      </trkpt>
      <trkpt lat="44.16305" lon="4.25379">
        <ele>260.654541</ele>
        <time>2015-03-26T13:39:29Z</time>
      </trkpt>
      <trkpt lat="44.16309" lon="4.25369">
        <ele>260.654541</ele>
        <time>2015-03-26T13:39:35Z</time>
      </trkpt>
      <trkpt lat="44.16316" lon="4.25361">
        <ele>261.135254</ele>
        <time>2015-03-26T13:39:41Z</time>
      </trkpt>
      <trkpt lat="44.1632" lon="4.2535">
        <ele>260.654541</ele>
        <time>2015-03-26T13:39:48Z</time>
      </trkpt>
      <trkpt lat="44.16323" lon="4.25344">
        <ele>260.654541</ele>
        <time>2015-03-26T13:39:53Z</time>
      </trkpt>
      <trkpt lat="44.16323" lon="4.25335">
        <ele>260.17395</ele>
        <time>2015-03-26T13:40:02Z</time>
      </trkpt>
      <trkpt lat="44.16328" lon="4.25328">
        <ele>259.212646</ele>
        <time>2015-03-26T13:40:06Z</time>
      </trkpt>
      <trkpt lat="44.16328" lon="4.25318">
        <ele>259.212646</ele>
        <time>2015-03-26T13:40:12Z</time>
      </trkpt>
      <trkpt lat="44.16331" lon="4.25307">
        <ele>258.731934</ele>
        <time>2015-03-26T13:40:17Z</time>
      </trkpt>
      <trkpt lat="44.16329" lon="4.25301">
        <ele>258.731934</ele>
        <time>2015-03-26T13:40:20Z</time>
      </trkpt>
      <trkpt lat="44.16337" lon="4.25291">
        <ele>259.212646</ele>
        <time>2015-03-26T13:40:26Z</time>
      </trkpt>
      <trkpt lat="44.16338" lon="4.25289">
        <ele>258.731934</ele>
        <time>2015-03-26T13:40:28Z</time>
      </trkpt>
      <trkpt lat="44.16337" lon="4.25285">
        <ele>258.731934</ele>
        <time>2015-03-26T13:40:31Z</time>
      </trkpt>
      <trkpt lat="44.16342" lon="4.25269">
        <ele>257.290039</ele>
        <time>2015-03-26T13:40:40Z</time>
      </trkpt>
      <trkpt lat="44.16343" lon="4.25265">
        <ele>256.809326</ele>
        <time>2015-03-26T13:40:45Z</time>
      </trkpt>
      <trkpt lat="44.16342" lon="4.25263">
        <ele>256.809326</ele>
        <time>2015-03-26T13:40:55Z</time>
      </trkpt>
      <trkpt lat="44.16346" lon="4.25244">
        <ele>256.328735</ele>
        <time>2015-03-26T13:41:03Z</time>
      </trkpt>
      <trkpt lat="44.16344" lon="4.25241">
        <ele>255.848022</ele>
        <time>2015-03-26T13:41:08Z</time>
      </trkpt>
      <trkpt lat="44.1635" lon="4.25231">
        <ele>255.848022</ele>
        <time>2015-03-26T13:41:13Z</time>
      </trkpt>
      <trkpt lat="44.16348" lon="4.25225">
        <ele>255.848022</ele>
        <time>2015-03-26T13:41:20Z</time>
      </trkpt>
      <trkpt lat="44.16349" lon="4.25222">
        <ele>255.848022</ele>
        <time>2015-03-26T13:41:21Z</time>
      </trkpt>
      <trkpt lat="44.16352" lon="4.25212">
        <ele>254.886597</ele>
        <time>2015-03-26T13:41:27Z</time>
      </trkpt>
      <trkpt lat="44.16354" lon="4.25203">
        <ele>255.36731</ele>
        <time>2015-03-26T13:41:31Z</time>
      </trkpt>
      <trkpt lat="44.16357" lon="4.25192">
        <ele>254.886597</ele>
        <time>2015-03-26T13:41:38Z</time>
      </trkpt>
      <trkpt lat="44.16359" lon="4.25178">
        <ele>254.406006</ele>
        <time>2015-03-26T13:41:45Z</time>
      </trkpt>
      <trkpt lat="44.16354" lon="4.25163">
        <ele>253.925415</ele>
        <time>2015-03-26T13:41:54Z</time>
      </trkpt>
      <trkpt lat="44.16359" lon="4.25149">
        <ele>253.925415</ele>
        <time>2015-03-26T13:42:00Z</time>
      </trkpt>
      <trkpt lat="44.16363" lon="4.25141">
        <ele>253.444702</ele>
        <time>2015-03-26T13:42:05Z</time>
      </trkpt>
      <trkpt lat="44.16358" lon="4.25135">
        <ele>253.444702</ele>
        <time>2015-03-26T13:42:11Z</time>
      </trkpt>
      <trkpt lat="44.16362" lon="4.25126">
        <ele>253.444702</ele>
        <time>2015-03-26T13:42:16Z</time>
      </trkpt>
      <trkpt lat="44.16365" lon="4.25115">
        <ele>253.444702</ele>
        <time>2015-03-26T13:42:22Z</time>
      </trkpt>
      <trkpt lat="44.16364" lon="4.25114">
        <ele>253.925415</ele>
        <time>2015-03-26T13:42:24Z</time>
      </trkpt>
      <trkpt lat="44.16364" lon="4.2511">
        <ele>253.925415</ele>
        <time>2015-03-26T13:42:26Z</time>
      </trkpt>
      <trkpt lat="44.16369" lon="4.25097">
        <ele>253.444702</ele>
        <time>2015-03-26T13:42:32Z</time>
      </trkpt>
      <trkpt lat="44.1637" lon="4.25088">
        <ele>253.444702</ele>
        <time>2015-03-26T13:42:39Z</time>
      </trkpt>
      <trkpt lat="44.16374" lon="4.25078">
        <ele>253.925415</ele>
        <time>2015-03-26T13:42:43Z</time>
      </trkpt>
      <trkpt lat="44.16376" lon="4.25071">
        <ele>253.925415</ele>
        <time>2015-03-26T13:42:48Z</time>
      </trkpt>
      <trkpt lat="44.16375" lon="4.25069">
        <ele>253.925415</ele>
        <time>2015-03-26T13:42:50Z</time>
      </trkpt>
      <trkpt lat="44.16376" lon="4.25064">
        <ele>254.886597</ele>
        <time>2015-03-26T13:42:57Z</time>
      </trkpt>
      <trkpt lat="44.16376" lon="4.25062">
        <ele>254.886597</ele>
        <time>2015-03-26T13:43:05Z</time>
      </trkpt>
      <trkpt lat="44.16376" lon="4.2506">
        <ele>255.36731</ele>
        <time>2015-03-26T13:43:17Z</time>
      </trkpt>
      <trkpt lat="44.16374" lon="4.25053">
        <ele>253.444702</ele>
        <time>2015-03-26T13:43:29Z</time>
      </trkpt>
      <trkpt lat="44.16368" lon="4.25055">
        <ele>253.925415</ele>
        <time>2015-03-26T13:43:36Z</time>
      </trkpt>
      <trkpt lat="44.16364" lon="4.25055">
        <ele>254.886597</ele>
        <time>2015-03-26T13:43:43Z</time>
      </trkpt>
      <trkpt lat="44.16361" lon="4.25059">
        <ele>256.328735</ele>
        <time>2015-03-26T13:43:53Z</time>
      </trkpt>
      <trkpt lat="44.16352" lon="4.25066">
        <ele>256.328735</ele>
        <time>2015-03-26T13:44:12Z</time>
      </trkpt>
      <trkpt lat="44.16353" lon="4.25062">
        <ele>255.848022</ele>
        <time>2015-03-26T13:44:43Z</time>
      </trkpt>
      <trkpt lat="44.16358" lon="4.25058">
        <ele>254.886597</ele>
        <time>2015-03-26T13:44:51Z</time>
      </trkpt>
      <trkpt lat="44.16363" lon="4.25054">
        <ele>254.406006</ele>
        <time>2015-03-26T13:45:02Z</time>
      </trkpt>
      <trkpt lat="44.16367" lon="4.25055">
        <ele>253.925415</ele>
        <time>2015-03-26T13:45:05Z</time>
      </trkpt>
      <trkpt lat="44.16373" lon="4.25054">
        <ele>253.444702</ele>
        <time>2015-03-26T13:45:11Z</time>
      </trkpt>
      <trkpt lat="44.16374" lon="4.25051">
        <ele>253.444702</ele>
        <time>2015-03-26T13:45:19Z</time>
      </trkpt>
      <trkpt lat="44.16374" lon="4.25048">
        <ele>252.963989</ele>
        <time>2015-03-26T13:45:24Z</time>
      </trkpt>
      <trkpt lat="44.16373" lon="4.25041">
        <ele>252.483398</ele>
        <time>2015-03-26T13:45:28Z</time>
      </trkpt>
      <trkpt lat="44.16369" lon="4.25036">
        <ele>252.002808</ele>
        <time>2015-03-26T13:45:31Z</time>
      </trkpt>
      <trkpt lat="44.16369" lon="4.25026">
        <ele>251.522095</ele>
        <time>2015-03-26T13:45:38Z</time>
      </trkpt>
      <trkpt lat="44.16363" lon="4.25014">
        <ele>251.522095</ele>
        <time>2015-03-26T13:45:47Z</time>
      </trkpt>
      <trkpt lat="44.16362" lon="4.25013">
        <ele>251.522095</ele>
        <time>2015-03-26T13:45:48Z</time>
      </trkpt>
      <trkpt lat="44.16361" lon="4.25004">
        <ele>251.041382</ele>
        <time>2015-03-26T13:45:54Z</time>
      </trkpt>
      <trkpt lat="44.1636" lon="4.24991">
        <ele>250.0802</ele>
        <time>2015-03-26T13:46:02Z</time>
      </trkpt>
      <trkpt lat="44.16359" lon="4.2498">
        <ele>250.0802</ele>
        <time>2015-03-26T13:46:10Z</time>
      </trkpt>
      <trkpt lat="44.16361" lon="4.24968">
        <ele>249.118774</ele>
        <time>2015-03-26T13:46:16Z</time>
      </trkpt>
      <trkpt lat="44.16357" lon="4.24962">
        <ele>249.118774</ele>
        <time>2015-03-26T13:46:24Z</time>
      </trkpt>
      <trkpt lat="44.16354" lon="4.24964">
        <ele>249.118774</ele>
        <time>2015-03-26T13:46:32Z</time>
      </trkpt>
      <trkpt lat="44.16351" lon="4.24968">
        <ele>250.0802</ele>
        <time>2015-03-26T13:46:38Z</time>
      </trkpt>
      <trkpt lat="44.16344" lon="4.24981">
        <ele>251.041382</ele>
        <time>2015-03-26T13:46:48Z</time>
      </trkpt>
      <trkpt lat="44.16332" lon="4.24996">
        <ele>252.963989</ele>
        <time>2015-03-26T13:47:03Z</time>
      </trkpt>
      <trkpt lat="44.16323" lon="4.25006">
        <ele>255.36731</ele>
        <time>2015-03-26T13:47:16Z</time>
      </trkpt>
      <trkpt lat="44.16314" lon="4.25017">
        <ele>257.290039</ele>
        <time>2015-03-26T13:47:31Z</time>
      </trkpt>
      <trkpt lat="44.16309" lon="4.25024">
        <ele>259.693359</ele>
        <time>2015-03-26T13:47:41Z</time>
      </trkpt>
      <trkpt lat="44.16298" lon="4.25032">
        <ele>261.135254</ele>
        <time>2015-03-26T13:47:53Z</time>
      </trkpt>
      <trkpt lat="44.16291" lon="4.25042">
        <ele>263.538574</ele>
        <time>2015-03-26T13:48:06Z</time>
      </trkpt>
      <trkpt lat="44.16283" lon="4.2505">
        <ele>265.941895</ele>
        <time>2015-03-26T13:48:19Z</time>
      </trkpt>
      <trkpt lat="44.16278" lon="4.25058">
        <ele>268.345093</ele>
        <time>2015-03-26T13:48:31Z</time>
      </trkpt>
      <trkpt lat="44.16274" lon="4.25066">
        <ele>270.2677</ele>
        <time>2015-03-26T13:48:41Z</time>
      </trkpt>
      <trkpt lat="44.16269" lon="4.25071">
        <ele>271.229126</ele>
        <time>2015-03-26T13:48:49Z</time>
      </trkpt>
      <trkpt lat="44.16264" lon="4.25079">
        <ele>273.632446</ele>
        <time>2015-03-26T13:49:03Z</time>
      </trkpt>
      <trkpt lat="44.16257" lon="4.25086">
        <ele>274.59375</ele>
        <time>2015-03-26T13:49:15Z</time>
      </trkpt>
      <trkpt lat="44.16254" lon="4.25095">
        <ele>276.516357</ele>
        <time>2015-03-26T13:49:24Z</time>
      </trkpt>
      <trkpt lat="44.16255" lon="4.251">
        <ele>276.99707</ele>
        <time>2015-03-26T13:49:32Z</time>
      </trkpt>
      <trkpt lat="44.16247" lon="4.25108">
        <ele>278.438965</ele>
        <time>2015-03-26T13:49:44Z</time>
      </trkpt>
      <trkpt lat="44.16243" lon="4.25113">
        <ele>278.919678</ele>
        <time>2015-03-26T13:49:53Z</time>
      </trkpt>
      <trkpt lat="44.16242" lon="4.25115">
        <ele>279.400269</ele>
        <time>2015-03-26T13:50:04Z</time>
      </trkpt>
      <trkpt lat="44.16237" lon="4.25121">
        <ele>279.880859</ele>
        <time>2015-03-26T13:50:12Z</time>
      </trkpt>
      <trkpt lat="44.16229" lon="4.2513">
        <ele>280.842407</ele>
        <time>2015-03-26T13:50:24Z</time>
      </trkpt>
      <trkpt lat="44.16224" lon="4.2514">
        <ele>283.245605</ele>
        <time>2015-03-26T13:50:37Z</time>
      </trkpt>
      <trkpt lat="44.16216" lon="4.25149">
        <ele>284.687622</ele>
        <time>2015-03-26T13:50:50Z</time>
      </trkpt>
      <trkpt lat="44.16209" lon="4.25156">
        <ele>286.129517</ele>
        <time>2015-03-26T13:51:00Z</time>
      </trkpt>
      <trkpt lat="44.16205" lon="4.25164">
        <ele>287.09082</ele>
        <time>2015-03-26T13:51:10Z</time>
      </trkpt>
      <trkpt lat="44.16201" lon="4.25169">
        <ele>287.571411</ele>
        <time>2015-03-26T13:51:18Z</time>
      </trkpt>
      <trkpt lat="44.16193" lon="4.25178">
        <ele>289.494141</ele>
        <time>2015-03-26T13:51:31Z</time>
      </trkpt>
      <trkpt lat="44.16191" lon="4.2518">
        <ele>289.494141</ele>
        <time>2015-03-26T13:51:39Z</time>
      </trkpt>
      <trkpt lat="44.16185" lon="4.25186">
        <ele>290.455566</ele>
        <time>2015-03-26T13:51:50Z</time>
      </trkpt>
      <trkpt lat="44.16177" lon="4.25196">
        <ele>291.897461</ele>
        <time>2015-03-26T13:52:03Z</time>
      </trkpt>
      <trkpt lat="44.16171" lon="4.25204">
        <ele>293.339355</ele>
        <time>2015-03-26T13:52:15Z</time>
      </trkpt>
      <trkpt lat="44.16167" lon="4.25211">
        <ele>294.300781</ele>
        <time>2015-03-26T13:52:24Z</time>
      </trkpt>
      <trkpt lat="44.16164" lon="4.25216">
        <ele>294.781372</ele>
        <time>2015-03-26T13:52:31Z</time>
      </trkpt>
      <trkpt lat="44.16162" lon="4.25218">
        <ele>295.261963</ele>
        <time>2015-03-26T13:52:38Z</time>
      </trkpt>
      <trkpt lat="44.16164" lon="4.25215">
        <ele>295.261963</ele>
        <time>2015-03-26T13:53:09Z</time>
      </trkpt>
      <trkpt lat="44.16166" lon="4.25211">
        <ele>294.300781</ele>
        <time>2015-03-26T13:53:14Z</time>
      </trkpt>
      <trkpt lat="44.16171" lon="4.25206">
        <ele>293.820068</ele>
        <time>2015-03-26T13:53:18Z</time>
      </trkpt>
      <trkpt lat="44.16176" lon="4.25202">
        <ele>292.858765</ele>
        <time>2015-03-26T13:53:25Z</time>
      </trkpt>
      <trkpt lat="44.16182" lon="4.25193">
        <ele>291.897461</ele>
        <time>2015-03-26T13:53:32Z</time>
      </trkpt>
      <trkpt lat="44.16183" lon="4.25192">
        <ele>291.897461</ele>
        <time>2015-03-26T13:53:33Z</time>
      </trkpt>
      <trkpt lat="44.16185" lon="4.25191">
        <ele>291.416748</ele>
        <time>2015-03-26T13:53:35Z</time>
      </trkpt>
      <trkpt lat="44.16187" lon="4.25184">
        <ele>290.936157</ele>
        <time>2015-03-26T13:53:40Z</time>
      </trkpt>
      <trkpt lat="44.16194" lon="4.25177">
        <ele>290.455566</ele>
        <time>2015-03-26T13:53:47Z</time>
      </trkpt>
      <trkpt lat="44.162" lon="4.25169">
        <ele>289.494141</ele>
        <time>2015-03-26T13:53:54Z</time>
      </trkpt>
      <trkpt lat="44.162" lon="4.25168">
        <ele>289.01355</ele>
        <time>2015-03-26T13:53:57Z</time>
      </trkpt>
      <trkpt lat="44.16205" lon="4.25161">
        <ele>287.571411</ele>
        <time>2015-03-26T13:54:04Z</time>
      </trkpt>
      <trkpt lat="44.16209" lon="4.25155">
        <ele>287.09082</ele>
        <time>2015-03-26T13:54:09Z</time>
      </trkpt>
      <trkpt lat="44.16215" lon="4.25149">
        <ele>285.648804</ele>
        <time>2015-03-26T13:54:17Z</time>
      </trkpt>
      <trkpt lat="44.16222" lon="4.25144">
        <ele>284.687622</ele>
        <time>2015-03-26T13:54:24Z</time>
      </trkpt>
      <trkpt lat="44.1623" lon="4.25135">
        <ele>282.765015</ele>
        <time>2015-03-26T13:54:33Z</time>
      </trkpt>
      <trkpt lat="44.16236" lon="4.25129">
        <ele>282.765015</ele>
        <time>2015-03-26T13:54:41Z</time>
      </trkpt>
      <trkpt lat="44.16242" lon="4.25124">
        <ele>282.284302</ele>
        <time>2015-03-26T13:54:49Z</time>
      </trkpt>
      <trkpt lat="44.16244" lon="4.2512">
        <ele>281.803589</ele>
        <time>2015-03-26T13:54:57Z</time>
      </trkpt>
      <trkpt lat="44.16246" lon="4.25119">
        <ele>281.803589</ele>
        <time>2015-03-26T13:55:05Z</time>
      </trkpt>
      <trkpt lat="44.1625" lon="4.25115">
        <ele>281.322998</ele>
        <time>2015-03-26T13:55:14Z</time>
      </trkpt>
      <trkpt lat="44.16256" lon="4.25108">
        <ele>279.880859</ele>
        <time>2015-03-26T13:55:22Z</time>
      </trkpt>
      <trkpt lat="44.16261" lon="4.25098">
        <ele>278.438965</ele>
        <time>2015-03-26T13:55:32Z</time>
      </trkpt>
      <trkpt lat="44.16264" lon="4.25091">
        <ele>276.99707</ele>
        <time>2015-03-26T13:55:41Z</time>
      </trkpt>
      <trkpt lat="44.16267" lon="4.25083">
        <ele>275.555054</ele>
        <time>2015-03-26T13:55:53Z</time>
      </trkpt>
      <trkpt lat="44.16272" lon="4.25079">
        <ele>273.632446</ele>
        <time>2015-03-26T13:56:04Z</time>
      </trkpt>
      <trkpt lat="44.16275" lon="4.25074">
        <ele>272.671143</ele>
        <time>2015-03-26T13:56:11Z</time>
      </trkpt>
      <trkpt lat="44.16282" lon="4.25066">
        <ele>270.748413</ele>
        <time>2015-03-26T13:56:19Z</time>
      </trkpt>
      <trkpt lat="44.16285" lon="4.25061">
        <ele>269.306519</ele>
        <time>2015-03-26T13:56:26Z</time>
      </trkpt>
      <trkpt lat="44.16289" lon="4.25056">
        <ele>267.864502</ele>
        <time>2015-03-26T13:56:34Z</time>
      </trkpt>
      <trkpt lat="44.16289" lon="4.25056">
        <ele>268.345093</ele>
        <time>2015-03-26T13:56:51Z</time>
      </trkpt>
      <trkpt lat="44.16291" lon="4.2505">
        <ele>266.422485</ele>
        <time>2015-03-26T13:57:02Z</time>
      </trkpt>
      <trkpt lat="44.16294" lon="4.25043">
        <ele>265.941895</ele>
        <time>2015-03-26T13:57:12Z</time>
      </trkpt>
      <trkpt lat="44.16298" lon="4.2504">
        <ele>264.019287</ele>
        <time>2015-03-26T13:57:24Z</time>
      </trkpt>
      <trkpt lat="44.16305" lon="4.25033">
        <ele>262.577148</ele>
        <time>2015-03-26T13:57:33Z</time>
      </trkpt>
      <trkpt lat="44.16312" lon="4.25025">
        <ele>261.135254</ele>
        <time>2015-03-26T13:57:42Z</time>
      </trkpt>
      <trkpt lat="44.16322" lon="4.25016">
        <ele>258.731934</ele>
        <time>2015-03-26T13:57:55Z</time>
      </trkpt>
      <trkpt lat="44.16329" lon="4.25006">
        <ele>256.809326</ele>
        <time>2015-03-26T13:58:05Z</time>
      </trkpt>
      <trkpt lat="44.16337" lon="4.24998">
        <ele>255.848022</ele>
        <time>2015-03-26T13:58:13Z</time>
      </trkpt>
      <trkpt lat="44.1634" lon="4.24992">
        <ele>255.36731</ele>
        <time>2015-03-26T13:58:19Z</time>
      </trkpt>
      <trkpt lat="44.16344" lon="4.24982">
        <ele>253.925415</ele>
        <time>2015-03-26T13:58:27Z</time>
      </trkpt>
      <trkpt lat="44.16348" lon="4.24973">
        <ele>253.925415</ele>
        <time>2015-03-26T13:58:33Z</time>
      </trkpt>
      <trkpt lat="44.16348" lon="4.24972">
        <ele>253.925415</ele>
        <time>2015-03-26T13:58:34Z</time>
      </trkpt>
      <trkpt lat="44.16352" lon="4.24964">
        <ele>252.963989</ele>
        <time>2015-03-26T13:58:43Z</time>
      </trkpt>
      <trkpt lat="44.16356" lon="4.24956">
        <ele>252.483398</ele>
        <time>2015-03-26T13:58:52Z</time>
      </trkpt>
      <trkpt lat="44.16357" lon="4.24958">
        <ele>252.963989</ele>
        <time>2015-03-26T13:59:01Z</time>
      </trkpt>
      <trkpt lat="44.16353" lon="4.24947">
        <ele>251.522095</ele>
        <time>2015-03-26T13:59:14Z</time>
      </trkpt>
      <trkpt lat="44.16347" lon="4.24941">
        <ele>251.041382</ele>
        <time>2015-03-26T13:59:26Z</time>
      </trkpt>
      <trkpt lat="44.16343" lon="4.24934">
        <ele>250.560791</ele>
        <time>2015-03-26T13:59:36Z</time>
      </trkpt>
      <trkpt lat="44.16342" lon="4.24933">
        <ele>250.560791</ele>
        <time>2015-03-26T13:59:38Z</time>
      </trkpt>
      <trkpt lat="44.16336" lon="4.24923">
        <ele>249.599487</ele>
        <time>2015-03-26T13:59:48Z</time>
      </trkpt>
      <trkpt lat="44.16331" lon="4.24915">
        <ele>249.118774</ele>
        <time>2015-03-26T13:59:57Z</time>
      </trkpt>
      <trkpt lat="44.16325" lon="4.24908">
        <ele>248.638184</ele>
        <time>2015-03-26T14:00:05Z</time>
      </trkpt>
      <trkpt lat="44.16321" lon="4.249">
        <ele>247.676758</ele>
        <time>2015-03-26T14:00:15Z</time>
      </trkpt>
      <trkpt lat="44.16315" lon="4.24896">
        <ele>247.676758</ele>
        <time>2015-03-26T14:00:23Z</time>
      </trkpt>
      <trkpt lat="44.16315" lon="4.24892">
        <ele>247.676758</ele>
        <time>2015-03-26T14:00:39Z</time>
      </trkpt>
      <trkpt lat="44.16313" lon="4.24891">
        <ele>248.157593</ele>
        <time>2015-03-26T14:00:47Z</time>
      </trkpt>
      <trkpt lat="44.16314" lon="4.24889">
        <ele>248.157593</ele>
        <time>2015-03-26T14:00:53Z</time>
      </trkpt>
      <trkpt lat="44.16314" lon="4.2489">
        <ele>248.157593</ele>
        <time>2015-03-26T14:01:00Z</time>
      </trkpt>
      <trkpt lat="44.16311" lon="4.24889">
        <ele>247.676758</ele>
        <time>2015-03-26T14:01:14Z</time>
      </trkpt>
      <trkpt lat="44.16306" lon="4.2489">
        <ele>248.157593</ele>
        <time>2015-03-26T14:01:18Z</time>
      </trkpt>
      <trkpt lat="44.16292" lon="4.24891">
        <ele>248.638184</ele>
        <time>2015-03-26T14:01:29Z</time>
      </trkpt>
      <trkpt lat="44.16283" lon="4.24893">
        <ele>248.638184</ele>
        <time>2015-03-26T14:01:37Z</time>
      </trkpt>
      <trkpt lat="44.16276" lon="4.24895">
        <ele>249.599487</ele>
        <time>2015-03-26T14:01:44Z</time>
      </trkpt>
      <trkpt lat="44.16271" lon="4.24895">
        <ele>250.0802</ele>
        <time>2015-03-26T14:01:48Z</time>
      </trkpt>
      <trkpt lat="44.16262" lon="4.24896">
        <ele>251.041382</ele>
        <time>2015-03-26T14:01:57Z</time>
      </trkpt>
      <trkpt lat="44.16256" lon="4.249">
        <ele>252.002808</ele>
        <time>2015-03-26T14:02:04Z</time>
      </trkpt>
      <trkpt lat="44.16247" lon="4.24908">
        <ele>254.886597</ele>
        <time>2015-03-26T14:02:15Z</time>
      </trkpt>
      <trkpt lat="44.16238" lon="4.24919">
        <ele>254.886597</ele>
        <time>2015-03-26T14:02:27Z</time>
      </trkpt>
      <trkpt lat="44.16238" lon="4.24921">
        <ele>255.36731</ele>
        <time>2015-03-26T14:02:29Z</time>
      </trkpt>
      <trkpt lat="44.16229" lon="4.24927">
        <ele>256.328735</ele>
        <time>2015-03-26T14:02:38Z</time>
      </trkpt>
      <trkpt lat="44.16217" lon="4.24932">
        <ele>257.290039</ele>
        <time>2015-03-26T14:02:49Z</time>
      </trkpt>
      <trkpt lat="44.16203" lon="4.24943">
        <ele>258.731934</ele>
        <time>2015-03-26T14:03:03Z</time>
      </trkpt>
      <trkpt lat="44.16201" lon="4.24945">
        <ele>258.731934</ele>
        <time>2015-03-26T14:03:05Z</time>
      </trkpt>
      <trkpt lat="44.16196" lon="4.24951">
        <ele>259.693359</ele>
        <time>2015-03-26T14:03:14Z</time>
      </trkpt>
      <trkpt lat="44.16188" lon="4.24956">
        <ele>258.251343</ele>
        <time>2015-03-26T14:03:24Z</time>
      </trkpt>
      <trkpt lat="44.16185" lon="4.24959">
        <ele>258.251343</ele>
        <time>2015-03-26T14:03:27Z</time>
      </trkpt>
      <trkpt lat="44.16181" lon="4.24961">
        <ele>258.251343</ele>
        <time>2015-03-26T14:03:30Z</time>
      </trkpt>
      <trkpt lat="44.16177" lon="4.24967">
        <ele>258.731934</ele>
        <time>2015-03-26T14:03:35Z</time>
      </trkpt>
      <trkpt lat="44.16169" lon="4.2497">
        <ele>257.770752</ele>
        <time>2015-03-26T14:03:41Z</time>
      </trkpt>
      <trkpt lat="44.16161" lon="4.24974">
        <ele>258.251343</ele>
        <time>2015-03-26T14:03:48Z</time>
      </trkpt>
      <trkpt lat="44.16156" lon="4.24983">
        <ele>258.251343</ele>
        <time>2015-03-26T14:03:55Z</time>
      </trkpt>
      <trkpt lat="44.16154" lon="4.24984">
        <ele>258.251343</ele>
        <time>2015-03-26T14:03:57Z</time>
      </trkpt>
      <trkpt lat="44.16145" lon="4.24993">
        <ele>257.770752</ele>
        <time>2015-03-26T14:04:08Z</time>
      </trkpt>
      <trkpt lat="44.16138" lon="4.24997">
        <ele>257.770752</ele>
        <time>2015-03-26T14:04:16Z</time>
      </trkpt>
      <trkpt lat="44.16132" lon="4.25002">
        <ele>257.290039</ele>
        <time>2015-03-26T14:04:23Z</time>
      </trkpt>
      <trkpt lat="44.16121" lon="4.25003">
        <ele>257.290039</ele>
        <time>2015-03-26T14:04:33Z</time>
      </trkpt>
      <trkpt lat="44.16115" lon="4.25005">
        <ele>256.809326</ele>
        <time>2015-03-26T14:04:37Z</time>
      </trkpt>
      <trkpt lat="44.16109" lon="4.25003">
        <ele>256.328735</ele>
        <time>2015-03-26T14:04:43Z</time>
      </trkpt>
      <trkpt lat="44.16101" lon="4.25008">
        <ele>256.328735</ele>
        <time>2015-03-26T14:04:48Z</time>
      </trkpt>
      <trkpt lat="44.16093" lon="4.25006">
        <ele>256.328735</ele>
        <time>2015-03-26T14:04:56Z</time>
      </trkpt>
      <trkpt lat="44.16087" lon="4.25009">
        <ele>256.328735</ele>
        <time>2015-03-26T14:05:00Z</time>
      </trkpt>
      <trkpt lat="44.16078" lon="4.25005">
        <ele>256.809326</ele>
        <time>2015-03-26T14:05:08Z</time>
      </trkpt>
      <trkpt lat="44.16064" lon="4.24995">
        <ele>257.290039</ele>
        <time>2015-03-26T14:05:19Z</time>
      </trkpt>
      <trkpt lat="44.16061" lon="4.24995">
        <ele>257.290039</ele>
        <time>2015-03-26T14:05:23Z</time>
      </trkpt>
      <trkpt lat="44.16046" lon="4.24988">
        <ele>258.251343</ele>
        <time>2015-03-26T14:05:34Z</time>
      </trkpt>
      <trkpt lat="44.16036" lon="4.24985">
        <ele>256.809326</ele>
        <time>2015-03-26T14:05:43Z</time>
      </trkpt>
      <trkpt lat="44.1603" lon="4.24984">
        <ele>256.328735</ele>
        <time>2015-03-26T14:05:51Z</time>
      </trkpt>
      <trkpt lat="44.16013" lon="4.24979">
        <ele>255.848022</ele>
        <time>2015-03-26T14:06:04Z</time>
      </trkpt>
      <trkpt lat="44.16003" lon="4.24976">
        <ele>254.886597</ele>
        <time>2015-03-26T14:06:11Z</time>
      </trkpt>
      <trkpt lat="44.15998" lon="4.24983">
        <ele>253.925415</ele>
        <time>2015-03-26T14:06:17Z</time>
      </trkpt>
      <trkpt lat="44.15998" lon="4.24992">
        <ele>253.444702</ele>
        <time>2015-03-26T14:06:25Z</time>
      </trkpt>
      <trkpt lat="44.16001" lon="4.25006">
        <ele>252.483398</ele>
        <time>2015-03-26T14:06:37Z</time>
      </trkpt>
      <trkpt lat="44.16003" lon="4.25018">
        <ele>251.522095</ele>
        <time>2015-03-26T14:06:45Z</time>
      </trkpt>
      <trkpt lat="44.16003" lon="4.25022">
        <ele>251.522095</ele>
        <time>2015-03-26T14:06:48Z</time>
      </trkpt>
      <trkpt lat="44.16005" lon="4.25032">
        <ele>251.041382</ele>
        <time>2015-03-26T14:06:54Z</time>
      </trkpt>
      <trkpt lat="44.16006" lon="4.25037">
        <ele>250.560791</ele>
        <time>2015-03-26T14:06:56Z</time>
      </trkpt>
      <trkpt lat="44.16007" lon="4.25042">
        <ele>250.560791</ele>
        <time>2015-03-26T14:06:58Z</time>
      </trkpt>
      <trkpt lat="44.16007" lon="4.2505">
        <ele>250.0802</ele>
        <time>2015-03-26T14:07:01Z</time>
      </trkpt>
      <trkpt lat="44.16007" lon="4.25061">
        <ele>249.599487</ele>
        <time>2015-03-26T14:07:08Z</time>
      </trkpt>
      <trkpt lat="44.16007" lon="4.25073">
        <ele>250.0802</ele>
        <time>2015-03-26T14:07:14Z</time>
      </trkpt>
      <trkpt lat="44.16002" lon="4.25081">
        <ele>249.599487</ele>
        <time>2015-03-26T14:07:24Z</time>
      </trkpt>
      <trkpt lat="44.16001" lon="4.2508">
        <ele>250.0802</ele>
        <time>2015-03-26T14:07:25Z</time>
      </trkpt>
      <trkpt lat="44.15986" lon="4.2507">
        <ele>250.560791</ele>
        <time>2015-03-26T14:07:36Z</time>
      </trkpt>
      <trkpt lat="44.15984" lon="4.25068">
        <ele>250.560791</ele>
        <time>2015-03-26T14:07:38Z</time>
      </trkpt>
      <trkpt lat="44.15976" lon="4.25061">
        <ele>251.522095</ele>
        <time>2015-03-26T14:07:43Z</time>
      </trkpt>
      <trkpt lat="44.15974" lon="4.25059">
        <ele>251.522095</ele>
        <time>2015-03-26T14:07:47Z</time>
      </trkpt>
      <trkpt lat="44.15965" lon="4.25052">
        <ele>252.002808</ele>
        <time>2015-03-26T14:07:55Z</time>
      </trkpt>
      <trkpt lat="44.1596" lon="4.25047">
        <ele>252.963989</ele>
        <time>2015-03-26T14:08:00Z</time>
      </trkpt>
      <trkpt lat="44.15951" lon="4.25042">
        <ele>253.444702</ele>
        <time>2015-03-26T14:08:07Z</time>
      </trkpt>
      <trkpt lat="44.15946" lon="4.25041">
        <ele>253.444702</ele>
        <time>2015-03-26T14:08:10Z</time>
      </trkpt>
      <trkpt lat="44.15942" lon="4.25034">
        <ele>254.406006</ele>
        <time>2015-03-26T14:08:16Z</time>
      </trkpt>
      <trkpt lat="44.15933" lon="4.25028">
        <ele>254.886597</ele>
        <time>2015-03-26T14:08:22Z</time>
      </trkpt>
      <trkpt lat="44.15927" lon="4.25024">
        <ele>255.36731</ele>
        <time>2015-03-26T14:08:28Z</time>
      </trkpt>
      <trkpt lat="44.15921" lon="4.25021">
        <ele>255.848022</ele>
        <time>2015-03-26T14:08:34Z</time>
      </trkpt>
      <trkpt lat="44.15912" lon="4.25016">
        <ele>255.848022</ele>
        <time>2015-03-26T14:08:39Z</time>
      </trkpt>
      <trkpt lat="44.15908" lon="4.25018">
        <ele>256.328735</ele>
        <time>2015-03-26T14:08:46Z</time>
      </trkpt>
      <trkpt lat="44.15905" lon="4.25021">
        <ele>256.809326</ele>
        <time>2015-03-26T14:08:49Z</time>
      </trkpt>
      <trkpt lat="44.15902" lon="4.25029">
        <ele>257.290039</ele>
        <time>2015-03-26T14:08:55Z</time>
      </trkpt>
      <trkpt lat="44.15894" lon="4.2504">
        <ele>257.770752</ele>
        <time>2015-03-26T14:09:04Z</time>
      </trkpt>
      <trkpt lat="44.15893" lon="4.25042">
        <ele>258.251343</ele>
        <time>2015-03-26T14:09:05Z</time>
      </trkpt>
      <trkpt lat="44.1589" lon="4.25053">
        <ele>258.251343</ele>
        <time>2015-03-26T14:09:12Z</time>
      </trkpt>
      <trkpt lat="44.15886" lon="4.25059">
        <ele>258.251343</ele>
        <time>2015-03-26T14:09:16Z</time>
      </trkpt>
      <trkpt lat="44.15883" lon="4.25072">
        <ele>258.731934</ele>
        <time>2015-03-26T14:09:21Z</time>
      </trkpt>
      <trkpt lat="44.15879" lon="4.2508">
        <ele>258.731934</ele>
        <time>2015-03-26T14:09:27Z</time>
      </trkpt>
      <trkpt lat="44.15877" lon="4.25086">
        <ele>258.731934</ele>
        <time>2015-03-26T14:09:30Z</time>
      </trkpt>
      <trkpt lat="44.1587" lon="4.25095">
        <ele>259.212646</ele>
        <time>2015-03-26T14:09:36Z</time>
      </trkpt>
      <trkpt lat="44.15865" lon="4.25105">
        <ele>259.212646</ele>
        <time>2015-03-26T14:09:44Z</time>
      </trkpt>
      <trkpt lat="44.15863" lon="4.25107">
        <ele>259.212646</ele>
        <time>2015-03-26T14:09:46Z</time>
      </trkpt>
      <trkpt lat="44.15859" lon="4.25116">
        <ele>259.212646</ele>
        <time>2015-03-26T14:09:53Z</time>
      </trkpt>
      <trkpt lat="44.15859" lon="4.25117">
        <ele>259.212646</ele>
        <time>2015-03-26T14:09:54Z</time>
      </trkpt>
      <trkpt lat="44.15857" lon="4.25126">
        <ele>259.693359</ele>
        <time>2015-03-26T14:10:00Z</time>
      </trkpt>
      <trkpt lat="44.15854" lon="4.25129">
        <ele>260.17395</ele>
        <time>2015-03-26T14:10:05Z</time>
      </trkpt>
      <trkpt lat="44.15846" lon="4.25136">
        <ele>260.17395</ele>
        <time>2015-03-26T14:10:13Z</time>
      </trkpt>
      <trkpt lat="44.15838" lon="4.25143">
        <ele>260.654541</ele>
        <time>2015-03-26T14:10:20Z</time>
      </trkpt>
      <trkpt lat="44.15827" lon="4.25142">
        <ele>260.654541</ele>
        <time>2015-03-26T14:10:28Z</time>
      </trkpt>
      <trkpt lat="44.15824" lon="4.2514">
        <ele>260.654541</ele>
        <time>2015-03-26T14:10:32Z</time>
      </trkpt>
      <trkpt lat="44.15821" lon="4.25137">
        <ele>260.654541</ele>
        <time>2015-03-26T14:10:34Z</time>
      </trkpt>
      <trkpt lat="44.15818" lon="4.25135">
        <ele>261.135254</ele>
        <time>2015-03-26T14:10:37Z</time>
      </trkpt>
      <trkpt lat="44.15809" lon="4.25131">
        <ele>261.615967</ele>
        <time>2015-03-26T14:10:48Z</time>
      </trkpt>
      <trkpt lat="44.15806" lon="4.2513">
        <ele>262.096558</ele>
        <time>2015-03-26T14:10:51Z</time>
      </trkpt>
      <trkpt lat="44.15798" lon="4.25128">
        <ele>262.577148</ele>
        <time>2015-03-26T14:10:59Z</time>
      </trkpt>
      <trkpt lat="44.15797" lon="4.25131">
        <ele>262.577148</ele>
        <time>2015-03-26T14:11:13Z</time>
      </trkpt>
      <trkpt lat="44.15797" lon="4.25131">
        <ele>262.577148</ele>
        <time>2015-03-26T14:11:34Z</time>
      </trkpt>
      <trkpt lat="44.15797" lon="4.25131">
        <ele>262.096558</ele>
        <time>2015-03-26T14:12:34Z</time>
      </trkpt>
      <trkpt lat="44.15796" lon="4.25131">
        <ele>262.096558</ele>
        <time>2015-03-26T14:14:13Z</time>
      </trkpt>
      <trkpt lat="44.15793" lon="4.2513">
        <ele>262.577148</ele>
        <time>2015-03-26T14:14:42Z</time>
      </trkpt>
      <trkpt lat="44.15793" lon="4.2513">
        <ele>262.577148</ele>
        <time>2015-03-26T14:14:59Z</time>
      </trkpt>
      <trkpt lat="44.1579" lon="4.2513">
        <ele>262.096558</ele>
        <time>2015-03-26T14:15:39Z</time>
      </trkpt>
      <trkpt lat="44.15777" lon="4.25133">
        <ele>262.577148</ele>
        <time>2015-03-26T14:15:49Z</time>
      </trkpt>
      <trkpt lat="44.15764" lon="4.25139">
        <ele>262.096558</ele>
        <time>2015-03-26T14:16:00Z</time>
      </trkpt>
      <trkpt lat="44.15752" lon="4.25148">
        <ele>262.577148</ele>
        <time>2015-03-26T14:16:11Z</time>
      </trkpt>
      <trkpt lat="44.15741" lon="4.25157">
        <ele>263.057861</ele>
        <time>2015-03-26T14:16:22Z</time>
      </trkpt>
      <trkpt lat="44.15728" lon="4.2517">
        <ele>262.577148</ele>
        <time>2015-03-26T14:16:35Z</time>
      </trkpt>
      <trkpt lat="44.15716" lon="4.25179">
        <ele>263.057861</ele>
        <time>2015-03-26T14:16:47Z</time>
      </trkpt>
      <trkpt lat="44.15701" lon="4.25187">
        <ele>262.577148</ele>
        <time>2015-03-26T14:17:00Z</time>
      </trkpt>
      <trkpt lat="44.15694" lon="4.2519">
        <ele>262.096558</ele>
        <time>2015-03-26T14:17:07Z</time>
      </trkpt>
      <trkpt lat="44.15684" lon="4.25191">
        <ele>261.615967</ele>
        <time>2015-03-26T14:17:18Z</time>
      </trkpt>
      <trkpt lat="44.15676" lon="4.25191">
        <ele>260.654541</ele>
        <time>2015-03-26T14:17:28Z</time>
      </trkpt>
      <trkpt lat="44.15674" lon="4.25188">
        <ele>260.17395</ele>
        <time>2015-03-26T14:17:31Z</time>
      </trkpt>
      <trkpt lat="44.15668" lon="4.25187">
        <ele>259.693359</ele>
        <time>2015-03-26T14:17:37Z</time>
      </trkpt>
      <trkpt lat="44.15664" lon="4.25186">
        <ele>259.212646</ele>
        <time>2015-03-26T14:17:43Z</time>
      </trkpt>
      <trkpt lat="44.1565" lon="4.25179">
        <ele>258.251343</ele>
        <time>2015-03-26T14:17:55Z</time>
      </trkpt>
      <trkpt lat="44.15634" lon="4.25172">
        <ele>257.290039</ele>
        <time>2015-03-26T14:18:06Z</time>
      </trkpt>
      <trkpt lat="44.15629" lon="4.25166">
        <ele>256.328735</ele>
        <time>2015-03-26T14:18:11Z</time>
      </trkpt>
      <trkpt lat="44.1562" lon="4.25159">
        <ele>256.328735</ele>
        <time>2015-03-26T14:18:16Z</time>
      </trkpt>
      <trkpt lat="44.15616" lon="4.25156">
        <ele>255.848022</ele>
        <time>2015-03-26T14:18:21Z</time>
      </trkpt>
      <trkpt lat="44.15614" lon="4.25154">
        <ele>255.36731</ele>
        <time>2015-03-26T14:18:24Z</time>
      </trkpt>
      <trkpt lat="44.15611" lon="4.25148">
        <ele>254.406006</ele>
        <time>2015-03-26T14:18:30Z</time>
      </trkpt>
      <trkpt lat="44.15607" lon="4.25144">
        <ele>253.925415</ele>
        <time>2015-03-26T14:18:34Z</time>
      </trkpt>
      <trkpt lat="44.15605" lon="4.25137">
        <ele>252.963989</ele>
        <time>2015-03-26T14:18:40Z</time>
      </trkpt>
      <trkpt lat="44.15603" lon="4.25126">
        <ele>252.002808</ele>
        <time>2015-03-26T14:18:49Z</time>
      </trkpt>
      <trkpt lat="44.15601" lon="4.25124">
        <ele>252.002808</ele>
        <time>2015-03-26T14:18:51Z</time>
      </trkpt>
      <trkpt lat="44.15595" lon="4.25118">
        <ele>252.002808</ele>
        <time>2015-03-26T14:18:55Z</time>
      </trkpt>
      <trkpt lat="44.15588" lon="4.25108">
        <ele>251.041382</ele>
        <time>2015-03-26T14:19:02Z</time>
      </trkpt>
      <trkpt lat="44.15578" lon="4.25098">
        <ele>249.599487</ele>
        <time>2015-03-26T14:19:11Z</time>
      </trkpt>
      <trkpt lat="44.15575" lon="4.25098">
        <ele>248.638184</ele>
        <time>2015-03-26T14:19:17Z</time>
      </trkpt>
      <trkpt lat="44.15564" lon="4.25091">
        <ele>248.157593</ele>
        <time>2015-03-26T14:19:25Z</time>
      </trkpt>
      <trkpt lat="44.15558" lon="4.25088">
        <ele>247.676758</ele>
        <time>2015-03-26T14:19:33Z</time>
      </trkpt>
      <trkpt lat="44.15554" lon="4.25082">
        <ele>246.234863</ele>
        <time>2015-03-26T14:19:39Z</time>
      </trkpt>
      <trkpt lat="44.15554" lon="4.25079">
        <ele>246.715454</ele>
        <time>2015-03-26T14:19:41Z</time>
      </trkpt>
      <trkpt lat="44.15552" lon="4.25065">
        <ele>244.792847</ele>
        <time>2015-03-26T14:19:51Z</time>
      </trkpt>
      <trkpt lat="44.1555" lon="4.25055">
        <ele>244.312256</ele>
        <time>2015-03-26T14:19:57Z</time>
      </trkpt>
      <trkpt lat="44.15552" lon="4.25047">
        <ele>243.831543</ele>
        <time>2015-03-26T14:20:02Z</time>
      </trkpt>
      <trkpt lat="44.15552" lon="4.25044">
        <ele>242.870239</ele>
        <time>2015-03-26T14:20:04Z</time>
      </trkpt>
      <trkpt lat="44.15555" lon="4.25038">
        <ele>242.870239</ele>
        <time>2015-03-26T14:20:07Z</time>
      </trkpt>
      <trkpt lat="44.15553" lon="4.25032">
        <ele>241.428223</ele>
        <time>2015-03-26T14:20:14Z</time>
      </trkpt>
      <trkpt lat="44.15553" lon="4.25029">
        <ele>241.428223</ele>
        <time>2015-03-26T14:20:17Z</time>
      </trkpt>
      <trkpt lat="44.15558" lon="4.2502">
        <ele>240.467041</ele>
        <time>2015-03-26T14:20:25Z</time>
      </trkpt>
      <trkpt lat="44.15561" lon="4.25009">
        <ele>239.505493</ele>
        <time>2015-03-26T14:20:30Z</time>
      </trkpt>
      <trkpt lat="44.15561" lon="4.25005">
        <ele>239.505493</ele>
        <time>2015-03-26T14:20:37Z</time>
      </trkpt>
      <trkpt lat="44.15561" lon="4.24999">
        <ele>238.544312</ele>
        <time>2015-03-26T14:20:43Z</time>
      </trkpt>
      <trkpt lat="44.15563" lon="4.24992">
        <ele>237.582886</ele>
        <time>2015-03-26T14:20:50Z</time>
      </trkpt>
      <trkpt lat="44.15566" lon="4.24989">
        <ele>237.102295</ele>
        <time>2015-03-26T14:20:59Z</time>
      </trkpt>
      <trkpt lat="44.15563" lon="4.24988">
        <ele>237.102295</ele>
        <time>2015-03-26T14:21:13Z</time>
      </trkpt>
      <trkpt lat="44.1556" lon="4.24983">
        <ele>236.140991</ele>
        <time>2015-03-26T14:21:28Z</time>
      </trkpt>
      <trkpt lat="44.15557" lon="4.24979">
        <ele>236.140991</ele>
        <time>2015-03-26T14:21:38Z</time>
      </trkpt>
      <trkpt lat="44.15554" lon="4.24972">
        <ele>234.699097</ele>
        <time>2015-03-26T14:21:48Z</time>
      </trkpt>
      <trkpt lat="44.15551" lon="4.24968">
        <ele>234.218384</ele>
        <time>2015-03-26T14:21:58Z</time>
      </trkpt>
      <trkpt lat="44.15551" lon="4.24966">
        <ele>233.737671</ele>
        <time>2015-03-26T14:22:08Z</time>
      </trkpt>
      <trkpt lat="44.15548" lon="4.24965">
        <ele>233.25708</ele>
        <time>2015-03-26T14:22:24Z</time>
      </trkpt>
      <trkpt lat="44.15543" lon="4.24962">
        <ele>232.776489</ele>
        <time>2015-03-26T14:22:34Z</time>
      </trkpt>
      <trkpt lat="44.15538" lon="4.24956">
        <ele>232.295776</ele>
        <time>2015-03-26T14:22:42Z</time>
      </trkpt>
      <trkpt lat="44.15531" lon="4.24953">
        <ele>230.85376</ele>
        <time>2015-03-26T14:22:52Z</time>
      </trkpt>
      <trkpt lat="44.15531" lon="4.24948">
        <ele>230.85376</ele>
        <time>2015-03-26T14:23:00Z</time>
      </trkpt>
      <trkpt lat="44.15529" lon="4.24943">
        <ele>229.892334</ele>
        <time>2015-03-26T14:23:08Z</time>
      </trkpt>
      <trkpt lat="44.15527" lon="4.24937">
        <ele>229.411743</ele>
        <time>2015-03-26T14:23:16Z</time>
      </trkpt>
      <trkpt lat="44.15526" lon="4.24929">
        <ele>227.969727</ele>
        <time>2015-03-26T14:23:22Z</time>
      </trkpt>
      <trkpt lat="44.15529" lon="4.24924">
        <ele>227.008545</ele>
        <time>2015-03-26T14:23:31Z</time>
      </trkpt>
      <trkpt lat="44.15529" lon="4.24917">
        <ele>226.527832</ele>
        <time>2015-03-26T14:23:37Z</time>
      </trkpt>
      <trkpt lat="44.15533" lon="4.24907">
        <ele>224.605225</ele>
        <time>2015-03-26T14:23:46Z</time>
      </trkpt>
      <trkpt lat="44.15535" lon="4.249">
        <ele>223.643799</ele>
        <time>2015-03-26T14:23:53Z</time>
      </trkpt>
      <trkpt lat="44.15537" lon="4.24893">
        <ele>222.201782</ele>
        <time>2015-03-26T14:24:00Z</time>
      </trkpt>
      <trkpt lat="44.15539" lon="4.2489">
        <ele>221.721191</ele>
        <time>2015-03-26T14:24:04Z</time>
      </trkpt>
      <trkpt lat="44.15543" lon="4.24886">
        <ele>220.759888</ele>
        <time>2015-03-26T14:24:11Z</time>
      </trkpt>
      <trkpt lat="44.15542" lon="4.24885">
        <ele>220.759888</ele>
        <time>2015-03-26T14:24:18Z</time>
      </trkpt>
      <trkpt lat="44.15542" lon="4.2488">
        <ele>219.798584</ele>
        <time>2015-03-26T14:24:27Z</time>
      </trkpt>
      <trkpt lat="44.15544" lon="4.24873">
        <ele>218.356567</ele>
        <time>2015-03-26T14:24:33Z</time>
      </trkpt>
      <trkpt lat="44.15545" lon="4.24869">
        <ele>217.875977</ele>
        <time>2015-03-26T14:24:40Z</time>
      </trkpt>
      <trkpt lat="44.15544" lon="4.24865">
        <ele>217.875977</ele>
        <time>2015-03-26T14:24:48Z</time>
      </trkpt>
      <trkpt lat="44.15543" lon="4.24858">
        <ele>216.43396</ele>
        <time>2015-03-26T14:24:55Z</time>
      </trkpt>
      <trkpt lat="44.15546" lon="4.24853">
        <ele>215.472656</ele>
        <time>2015-03-26T14:25:04Z</time>
      </trkpt>
      <trkpt lat="44.15546" lon="4.24851">
        <ele>215.472656</ele>
        <time>2015-03-26T14:25:05Z</time>
      </trkpt>
      <trkpt lat="44.15549" lon="4.24842">
        <ele>213.550049</ele>
        <time>2015-03-26T14:25:13Z</time>
      </trkpt>
      <trkpt lat="44.15551" lon="4.24836">
        <ele>212.108032</ele>
        <time>2015-03-26T14:25:19Z</time>
      </trkpt>
      <trkpt lat="44.15554" lon="4.24825">
        <ele>212.108032</ele>
        <time>2015-03-26T14:25:26Z</time>
      </trkpt>
      <trkpt lat="44.15553" lon="4.2482">
        <ele>211.146729</ele>
        <time>2015-03-26T14:25:35Z</time>
      </trkpt>
      <trkpt lat="44.15551" lon="4.24822">
        <ele>211.146729</ele>
        <time>2015-03-26T14:26:02Z</time>
      </trkpt>
      <trkpt lat="44.15551" lon="4.24821">
        <ele>211.146729</ele>
        <time>2015-03-26T14:26:12Z</time>
      </trkpt>
      <trkpt lat="44.15549" lon="4.24816">
        <ele>208.743408</ele>
        <time>2015-03-26T14:27:06Z</time>
      </trkpt>
      <trkpt lat="44.15543" lon="4.24807">
        <ele>207.301392</ele>
        <time>2015-03-26T14:27:16Z</time>
      </trkpt>
      <trkpt lat="44.15537" lon="4.24796">
        <ele>204.41748</ele>
        <time>2015-03-26T14:27:27Z</time>
      </trkpt>
      <trkpt lat="44.15534" lon="4.2479">
        <ele>202.975464</ele>
        <time>2015-03-26T14:27:36Z</time>
      </trkpt>
      <trkpt lat="44.15534" lon="4.24784">
        <ele>202.014282</ele>
        <time>2015-03-26T14:27:43Z</time>
      </trkpt>
      <trkpt lat="44.15532" lon="4.24774">
        <ele>201.052856</ele>
        <time>2015-03-26T14:27:51Z</time>
      </trkpt>
      <trkpt lat="44.1553" lon="4.24769">
        <ele>199.61084</ele>
        <time>2015-03-26T14:27:58Z</time>
      </trkpt>
      <trkpt lat="44.15525" lon="4.24763">
        <ele>198.168945</ele>
        <time>2015-03-26T14:28:05Z</time>
      </trkpt>
      <trkpt lat="44.15525" lon="4.24763">
        <ele>198.168945</ele>
        <time>2015-03-26T14:28:06Z</time>
      </trkpt>
      <trkpt lat="44.15523" lon="4.24758">
        <ele>198.168945</ele>
        <time>2015-03-26T14:28:13Z</time>
      </trkpt>
      <trkpt lat="44.15521" lon="4.24752">
        <ele>197.688232</ele>
        <time>2015-03-26T14:28:21Z</time>
      </trkpt>
      <trkpt lat="44.15518" lon="4.24756">
        <ele>197.688232</ele>
        <time>2015-03-26T14:28:30Z</time>
      </trkpt>
      <trkpt lat="44.15518" lon="4.24757">
        <ele>198.168945</ele>
        <time>2015-03-26T14:28:39Z</time>
      </trkpt>
      <trkpt lat="44.15515" lon="4.24764">
        <ele>198.649536</ele>
        <time>2015-03-26T14:28:49Z</time>
      </trkpt>
      <trkpt lat="44.1551" lon="4.24774">
        <ele>199.61084</ele>
        <time>2015-03-26T14:28:58Z</time>
      </trkpt>
      <trkpt lat="44.15508" lon="4.24784">
        <ele>201.052856</ele>
        <time>2015-03-26T14:29:09Z</time>
      </trkpt>
      <trkpt lat="44.15509" lon="4.24788">
        <ele>201.533569</ele>
        <time>2015-03-26T14:29:19Z</time>
      </trkpt>
      <trkpt lat="44.15506" lon="4.24784">
        <ele>200.572266</ele>
        <time>2015-03-26T14:29:29Z</time>
      </trkpt>
      <trkpt lat="44.15502" lon="4.24792">
        <ele>200.572266</ele>
        <time>2015-03-26T14:29:38Z</time>
      </trkpt>
      <trkpt lat="44.15497" lon="4.24797">
        <ele>200.572266</ele>
        <time>2015-03-26T14:29:46Z</time>
      </trkpt>
      <trkpt lat="44.15493" lon="4.24806">
        <ele>201.533569</ele>
        <time>2015-03-26T14:29:56Z</time>
      </trkpt>
      <trkpt lat="44.15489" lon="4.24815">
        <ele>202.014282</ele>
        <time>2015-03-26T14:30:03Z</time>
      </trkpt>
      <trkpt lat="44.1549" lon="4.24813">
        <ele>202.014282</ele>
        <time>2015-03-26T14:30:09Z</time>
      </trkpt>
      <trkpt lat="44.15489" lon="4.24815">
        <ele>202.014282</ele>
        <time>2015-03-26T14:30:17Z</time>
      </trkpt>
      <trkpt lat="44.15487" lon="4.2482">
        <ele>202.975464</ele>
        <time>2015-03-26T14:30:24Z</time>
      </trkpt>
      <trkpt lat="44.15484" lon="4.24825">
        <ele>203.456177</ele>
        <time>2015-03-26T14:30:35Z</time>
      </trkpt>
      <trkpt lat="44.15483" lon="4.24825">
        <ele>203.456177</ele>
        <time>2015-03-26T14:30:46Z</time>
      </trkpt>
      <trkpt lat="44.15486" lon="4.2482">
        <ele>202.975464</ele>
        <time>2015-03-26T14:30:55Z</time>
      </trkpt>
      <trkpt lat="44.15486" lon="4.24816">
        <ele>202.494873</ele>
        <time>2015-03-26T14:31:07Z</time>
      </trkpt>
      <trkpt lat="44.15486" lon="4.24816">
        <ele>203.456177</ele>
        <time>2015-03-26T14:32:06Z</time>
      </trkpt>
      <trkpt lat="44.15482" lon="4.24824">
        <ele>204.41748</ele>
        <time>2015-03-26T14:32:32Z</time>
      </trkpt>
      <trkpt lat="44.15476" lon="4.24831">
        <ele>204.41748</ele>
        <time>2015-03-26T14:32:42Z</time>
      </trkpt>
      <trkpt lat="44.15469" lon="4.24834">
        <ele>204.898071</ele>
        <time>2015-03-26T14:32:51Z</time>
      </trkpt>
      <trkpt lat="44.15463" lon="4.24836">
        <ele>205.378784</ele>
        <time>2015-03-26T14:32:58Z</time>
      </trkpt>
      <trkpt lat="44.15454" lon="4.24839">
        <ele>204.898071</ele>
        <time>2015-03-26T14:33:08Z</time>
      </trkpt>
      <trkpt lat="44.15443" lon="4.24839">
        <ele>203.93689</ele>
        <time>2015-03-26T14:33:20Z</time>
      </trkpt>
      <trkpt lat="44.15437" lon="4.24838">
        <ele>203.456177</ele>
        <time>2015-03-26T14:33:29Z</time>
      </trkpt>
      <trkpt lat="44.15435" lon="4.24836">
        <ele>202.494873</ele>
        <time>2015-03-26T14:33:33Z</time>
      </trkpt>
      <trkpt lat="44.15429" lon="4.24828">
        <ele>201.052856</ele>
        <time>2015-03-26T14:33:42Z</time>
      </trkpt>
      <trkpt lat="44.1542" lon="4.24822">
        <ele>199.130127</ele>
        <time>2015-03-26T14:33:53Z</time>
      </trkpt>
      <trkpt lat="44.15416" lon="4.24821">
        <ele>198.168945</ele>
        <time>2015-03-26T14:33:59Z</time>
      </trkpt>
      <trkpt lat="44.15412" lon="4.2482">
        <ele>197.688232</ele>
        <time>2015-03-26T14:34:08Z</time>
      </trkpt>
      <trkpt lat="44.15411" lon="4.24819">
        <ele>197.20752</ele>
        <time>2015-03-26T14:34:16Z</time>
      </trkpt>
      <trkpt lat="44.15409" lon="4.24813">
        <ele>196.726929</ele>
        <time>2015-03-26T14:34:25Z</time>
      </trkpt>
      <trkpt lat="44.15409" lon="4.24811">
        <ele>196.726929</ele>
        <time>2015-03-26T14:34:34Z</time>
      </trkpt>
      <trkpt lat="44.15409" lon="4.2481">
        <ele>196.726929</ele>
        <time>2015-03-26T14:34:43Z</time>
      </trkpt>
      <trkpt lat="44.15408" lon="4.24808">
        <ele>196.246338</ele>
        <time>2015-03-26T14:34:53Z</time>
      </trkpt>
      <trkpt lat="44.15407" lon="4.24806">
        <ele>196.246338</ele>
        <time>2015-03-26T14:35:01Z</time>
      </trkpt>
      <trkpt lat="44.15407" lon="4.24808">
        <ele>196.246338</ele>
        <time>2015-03-26T14:35:16Z</time>
      </trkpt>
      <trkpt lat="44.15408" lon="4.24809">
        <ele>196.726929</ele>
        <time>2015-03-26T14:35:26Z</time>
      </trkpt>
      <trkpt lat="44.15408" lon="4.24813">
        <ele>196.726929</ele>
        <time>2015-03-26T14:35:36Z</time>
      </trkpt>
      <trkpt lat="44.15404" lon="4.24819">
        <ele>196.246338</ele>
        <time>2015-03-26T14:35:50Z</time>
      </trkpt>
      <trkpt lat="44.15402" lon="4.24821">
        <ele>195.765625</ele>
        <time>2015-03-26T14:36:15Z</time>
      </trkpt>
      <trkpt lat="44.154" lon="4.24822">
        <ele>195.284912</ele>
        <time>2015-03-26T14:36:25Z</time>
      </trkpt>
      <trkpt lat="44.15398" lon="4.24824">
        <ele>195.284912</ele>
        <time>2015-03-26T14:36:47Z</time>
      </trkpt>
      <trkpt lat="44.15398" lon="4.24832">
        <ele>196.246338</ele>
        <time>2015-03-26T14:36:57Z</time>
      </trkpt>
      <trkpt lat="44.15397" lon="4.24831">
        <ele>196.246338</ele>
        <time>2015-03-26T14:37:12Z</time>
      </trkpt>
      <trkpt lat="44.15398" lon="4.24824">
        <ele>195.765625</ele>
        <time>2015-03-26T14:37:18Z</time>
      </trkpt>
      <trkpt lat="44.15401" lon="4.24817">
        <ele>195.284912</ele>
        <time>2015-03-26T14:37:25Z</time>
      </trkpt>
      <trkpt lat="44.15402" lon="4.24813">
        <ele>195.284912</ele>
        <time>2015-03-26T14:37:30Z</time>
      </trkpt>
      <trkpt lat="44.15399" lon="4.2481">
        <ele>195.284912</ele>
        <time>2015-03-26T14:37:38Z</time>
      </trkpt>
      <trkpt lat="44.15399" lon="4.24813">
        <ele>195.284912</ele>
        <time>2015-03-26T14:37:45Z</time>
      </trkpt>
      <trkpt lat="44.15397" lon="4.24824">
        <ele>195.765625</ele>
        <time>2015-03-26T14:37:56Z</time>
      </trkpt>
      <trkpt lat="44.15396" lon="4.24831">
        <ele>196.246338</ele>
        <time>2015-03-26T14:38:03Z</time>
      </trkpt>
      <trkpt lat="44.15398" lon="4.24834">
        <ele>197.20752</ele>
        <time>2015-03-26T14:38:10Z</time>
      </trkpt>
      <trkpt lat="44.15399" lon="4.24838">
        <ele>197.688232</ele>
        <time>2015-03-26T14:38:18Z</time>
      </trkpt>
      <trkpt lat="44.15397" lon="4.24845">
        <ele>198.168945</ele>
        <time>2015-03-26T14:38:25Z</time>
      </trkpt>
      <trkpt lat="44.15398" lon="4.24845">
        <ele>198.168945</ele>
        <time>2015-03-26T14:38:31Z</time>
      </trkpt>
      <trkpt lat="44.15399" lon="4.24837">
        <ele>197.688232</ele>
        <time>2015-03-26T14:38:38Z</time>
      </trkpt>
      <trkpt lat="44.15399" lon="4.24833">
        <ele>197.20752</ele>
        <time>2015-03-26T14:38:41Z</time>
      </trkpt>
      <trkpt lat="44.154" lon="4.24823">
        <ele>195.765625</ele>
        <time>2015-03-26T14:38:50Z</time>
      </trkpt>
      <trkpt lat="44.154" lon="4.24816">
        <ele>195.284912</ele>
        <time>2015-03-26T14:38:58Z</time>
      </trkpt>
      <trkpt lat="44.15399" lon="4.24817">
        <ele>195.284912</ele>
        <time>2015-03-26T14:39:17Z</time>
      </trkpt>
      <trkpt lat="44.154" lon="4.24817">
        <ele>195.284912</ele>
        <time>2015-03-26T14:39:23Z</time>
      </trkpt>
      <trkpt lat="44.154" lon="4.24816">
        <ele>195.284912</ele>
        <time>2015-03-26T14:39:33Z</time>
      </trkpt>
      <trkpt lat="44.154" lon="4.24816">
        <ele>195.765625</ele>
        <time>2015-03-26T14:39:57Z</time>
      </trkpt>
      <trkpt lat="44.154" lon="4.24815">
        <ele>195.284912</ele>
        <time>2015-03-26T14:40:24Z</time>
      </trkpt>
      <trkpt lat="44.154" lon="4.24817">
        <ele>195.765625</ele>
        <time>2015-03-26T14:40:35Z</time>
      </trkpt>
      <trkpt lat="44.154" lon="4.24817">
        <ele>195.284912</ele>
        <time>2015-03-26T14:40:50Z</time>
      </trkpt>
      <trkpt lat="44.15396" lon="4.24811">
        <ele>195.284912</ele>
        <time>2015-03-26T14:41:04Z</time>
      </trkpt>
      <trkpt lat="44.15395" lon="4.24807">
        <ele>195.284912</ele>
        <time>2015-03-26T14:41:15Z</time>
      </trkpt>
      <trkpt lat="44.15392" lon="4.24801">
        <ele>193.843018</ele>
        <time>2015-03-26T14:43:19Z</time>
      </trkpt>
      <trkpt lat="44.1539" lon="4.24793">
        <ele>192.401123</ele>
        <time>2015-03-26T14:43:49Z</time>
      </trkpt>
      <trkpt lat="44.15388" lon="4.24775">
        <ele>192.401123</ele>
        <time>2015-03-26T14:44:01Z</time>
      </trkpt>
      <trkpt lat="44.15385" lon="4.2477">
        <ele>192.401123</ele>
        <time>2015-03-26T14:44:05Z</time>
      </trkpt>
      <trkpt lat="44.1537" lon="4.24763">
        <ele>192.881714</ele>
        <time>2015-03-26T14:44:17Z</time>
      </trkpt>
      <trkpt lat="44.1536" lon="4.24762">
        <ele>192.881714</ele>
        <time>2015-03-26T14:44:25Z</time>
      </trkpt>
      <trkpt lat="44.15348" lon="4.24757">
        <ele>192.401123</ele>
        <time>2015-03-26T14:44:33Z</time>
      </trkpt>
      <trkpt lat="44.15344" lon="4.24757">
        <ele>191.920288</ele>
        <time>2015-03-26T14:44:35Z</time>
      </trkpt>
      <trkpt lat="44.15342" lon="4.24756">
        <ele>191.920288</ele>
        <time>2015-03-26T14:44:37Z</time>
      </trkpt>
      <trkpt lat="44.15335" lon="4.24755">
        <ele>191.439575</ele>
        <time>2015-03-26T14:44:45Z</time>
      </trkpt>
      <trkpt lat="44.15328" lon="4.24752">
        <ele>190.958984</ele>
        <time>2015-03-26T14:44:54Z</time>
      </trkpt>
      <trkpt lat="44.15318" lon="4.24745">
        <ele>189.997681</ele>
        <time>2015-03-26T14:45:03Z</time>
      </trkpt>
      <trkpt lat="44.15308" lon="4.24737">
        <ele>189.997681</ele>
        <time>2015-03-26T14:45:12Z</time>
      </trkpt>
      <trkpt lat="44.15302" lon="4.24736">
        <ele>190.478394</ele>
        <time>2015-03-26T14:45:15Z</time>
      </trkpt>
      <trkpt lat="44.15288" lon="4.2473">
        <ele>189.997681</ele>
        <time>2015-03-26T14:45:24Z</time>
      </trkpt>
      <trkpt lat="44.15283" lon="4.24724">
        <ele>189.997681</ele>
        <time>2015-03-26T14:45:28Z</time>
      </trkpt>
      <trkpt lat="44.15279" lon="4.24717">
        <ele>190.478394</ele>
        <time>2015-03-26T14:45:32Z</time>
      </trkpt>
      <trkpt lat="44.15278" lon="4.24706">
        <ele>190.478394</ele>
        <time>2015-03-26T14:45:39Z</time>
      </trkpt>
      <trkpt lat="44.15282" lon="4.24692">
        <ele>190.478394</ele>
        <time>2015-03-26T14:45:50Z</time>
      </trkpt>
      <trkpt lat="44.15283" lon="4.24691">
        <ele>189.997681</ele>
        <time>2015-03-26T14:45:56Z</time>
      </trkpt>
      <trkpt lat="44.15282" lon="4.24692">
        <ele>189.516968</ele>
        <time>2015-03-26T14:46:03Z</time>
      </trkpt>
      <trkpt lat="44.15282" lon="4.24692">
        <ele>190.478394</ele>
        <time>2015-03-26T14:46:11Z</time>
      </trkpt>
      <trkpt lat="44.15282" lon="4.2469">
        <ele>189.997681</ele>
        <time>2015-03-26T14:46:21Z</time>
      </trkpt>
      <trkpt lat="44.1528" lon="4.2468">
        <ele>189.997681</ele>
        <time>2015-03-26T14:46:30Z</time>
      </trkpt>
      <trkpt lat="44.15273" lon="4.2468">
        <ele>190.478394</ele>
        <time>2015-03-26T14:46:39Z</time>
      </trkpt>
      <trkpt lat="44.15271" lon="4.24684">
        <ele>190.478394</ele>
        <time>2015-03-26T14:46:45Z</time>
      </trkpt>
      <trkpt lat="44.15273" lon="4.24686">
        <ele>190.958984</ele>
        <time>2015-03-26T14:46:53Z</time>
      </trkpt>
      <trkpt lat="44.15272" lon="4.24686">
        <ele>190.478394</ele>
        <time>2015-03-26T14:51:03Z</time>
      </trkpt>
      <trkpt lat="44.15272" lon="4.24684">
        <ele>190.478394</ele>
        <time>2015-03-26T14:51:37Z</time>
      </trkpt>
      <trkpt lat="44.15275" lon="4.24681">
        <ele>189.997681</ele>
        <time>2015-03-26T14:51:44Z</time>
      </trkpt>
      <trkpt lat="44.15281" lon="4.24676">
        <ele>189.516968</ele>
        <time>2015-03-26T14:51:55Z</time>
      </trkpt>
      <trkpt lat="44.15285" lon="4.24675">
        <ele>189.516968</ele>
        <time>2015-03-26T14:52:00Z</time>
      </trkpt>
      <trkpt lat="44.15288" lon="4.24664">
        <ele>188.555786</ele>
        <time>2015-03-26T14:52:07Z</time>
      </trkpt>
      <trkpt lat="44.15286" lon="4.24657">
        <ele>188.555786</ele>
        <time>2015-03-26T14:52:15Z</time>
      </trkpt>
      <trkpt lat="44.15286" lon="4.24658">
        <ele>188.555786</ele>
        <time>2015-03-26T14:52:17Z</time>
      </trkpt>
      <trkpt lat="44.15294" lon="4.24653">
        <ele>188.075073</ele>
        <time>2015-03-26T14:52:23Z</time>
      </trkpt>
      <trkpt lat="44.15291" lon="4.24642">
        <ele>188.075073</ele>
        <time>2015-03-26T14:52:30Z</time>
      </trkpt>
      <trkpt lat="44.15291" lon="4.24621">
        <ele>188.075073</ele>
        <time>2015-03-26T14:52:41Z</time>
      </trkpt>
      <trkpt lat="44.15297" lon="4.24604">
        <ele>188.555786</ele>
        <time>2015-03-26T14:52:50Z</time>
      </trkpt>
      <trkpt lat="44.15306" lon="4.24585">
        <ele>187.11377</ele>
        <time>2015-03-26T14:53:02Z</time>
      </trkpt>
      <trkpt lat="44.15307" lon="4.24581">
        <ele>186.633179</ele>
        <time>2015-03-26T14:53:06Z</time>
      </trkpt>
      <trkpt lat="44.15311" lon="4.24576">
        <ele>186.152466</ele>
        <time>2015-03-26T14:53:10Z</time>
      </trkpt>
      <trkpt lat="44.15317" lon="4.24564">
        <ele>185.191162</ele>
        <time>2015-03-26T14:53:20Z</time>
      </trkpt>
      <trkpt lat="44.15319" lon="4.24554">
        <ele>184.229858</ele>
        <time>2015-03-26T14:53:26Z</time>
      </trkpt>
      <trkpt lat="44.1532" lon="4.24552">
        <ele>184.229858</ele>
        <time>2015-03-26T14:53:27Z</time>
      </trkpt>
      <trkpt lat="44.1532" lon="4.24539">
        <ele>183.749023</ele>
        <time>2015-03-26T14:53:37Z</time>
      </trkpt>
      <trkpt lat="44.15319" lon="4.24535">
        <ele>183.749023</ele>
        <time>2015-03-26T14:53:45Z</time>
      </trkpt>
      <trkpt lat="44.15317" lon="4.24527">
        <ele>183.268433</ele>
        <time>2015-03-26T14:54:01Z</time>
      </trkpt>
      <trkpt lat="44.15312" lon="4.24519">
        <ele>183.749023</ele>
        <time>2015-03-26T14:54:09Z</time>
      </trkpt>
      <trkpt lat="44.1531" lon="4.24514">
        <ele>183.749023</ele>
        <time>2015-03-26T14:54:13Z</time>
      </trkpt>
      <trkpt lat="44.15295" lon="4.24505">
        <ele>183.268433</ele>
        <time>2015-03-26T14:54:25Z</time>
      </trkpt>
      <trkpt lat="44.15293" lon="4.24505">
        <ele>182.787842</ele>
        <time>2015-03-26T14:54:31Z</time>
      </trkpt>
      <trkpt lat="44.1529" lon="4.24501">
        <ele>182.787842</ele>
        <time>2015-03-26T14:54:40Z</time>
      </trkpt>
      <trkpt lat="44.15289" lon="4.24499">
        <ele>183.268433</ele>
        <time>2015-03-26T14:54:58Z</time>
      </trkpt>
      <trkpt lat="44.15289" lon="4.24499">
        <ele>182.787842</ele>
        <time>2015-03-26T14:55:26Z</time>
      </trkpt>
      <trkpt lat="44.15288" lon="4.245">
        <ele>182.307129</ele>
        <time>2015-03-26T14:55:31Z</time>
      </trkpt>
      <trkpt lat="44.15283" lon="4.24502">
        <ele>182.307129</ele>
        <time>2015-03-26T14:55:36Z</time>
      </trkpt>
      <trkpt lat="44.15266" lon="4.24491">
        <ele>181.826416</ele>
        <time>2015-03-26T14:55:52Z</time>
      </trkpt>
      <trkpt lat="44.15264" lon="4.24489">
        <ele>182.307129</ele>
        <time>2015-03-26T14:55:59Z</time>
      </trkpt>
      <trkpt lat="44.1526" lon="4.24488">
        <ele>181.826416</ele>
        <time>2015-03-26T14:56:09Z</time>
      </trkpt>
      <trkpt lat="44.15242" lon="4.24477">
        <ele>181.345825</ele>
        <time>2015-03-26T14:56:25Z</time>
      </trkpt>
      <trkpt lat="44.15226" lon="4.24466">
        <ele>181.826416</ele>
        <time>2015-03-26T14:56:40Z</time>
      </trkpt>
      <trkpt lat="44.15214" lon="4.24459">
        <ele>181.345825</ele>
        <time>2015-03-26T14:56:51Z</time>
      </trkpt>
      <trkpt lat="44.15198" lon="4.24453">
        <ele>180.865234</ele>
        <time>2015-03-26T14:57:03Z</time>
      </trkpt>
      <trkpt lat="44.15184" lon="4.2445">
        <ele>181.345825</ele>
        <time>2015-03-26T14:57:14Z</time>
      </trkpt>
      <trkpt lat="44.15171" lon="4.24449">
        <ele>181.826416</ele>
        <time>2015-03-26T14:57:24Z</time>
      </trkpt>
      <trkpt lat="44.15158" lon="4.2445">
        <ele>182.307129</ele>
        <time>2015-03-26T14:57:36Z</time>
      </trkpt>
      <trkpt lat="44.15149" lon="4.24452">
        <ele>182.787842</ele>
        <time>2015-03-26T14:57:44Z</time>
      </trkpt>
      <trkpt lat="44.15138" lon="4.24455">
        <ele>182.787842</ele>
        <time>2015-03-26T14:57:53Z</time>
      </trkpt>
      <trkpt lat="44.15122" lon="4.24461">
        <ele>183.749023</ele>
        <time>2015-03-26T14:58:05Z</time>
      </trkpt>
      <trkpt lat="44.15103" lon="4.24471">
        <ele>183.749023</ele>
        <time>2015-03-26T14:58:22Z</time>
      </trkpt>
      <trkpt lat="44.15095" lon="4.24474">
        <ele>184.229858</ele>
        <time>2015-03-26T14:58:29Z</time>
      </trkpt>
      <trkpt lat="44.15081" lon="4.24481">
        <ele>184.710571</ele>
        <time>2015-03-26T14:58:40Z</time>
      </trkpt>
      <trkpt lat="44.15067" lon="4.24488">
        <ele>185.191162</ele>
        <time>2015-03-26T14:58:51Z</time>
      </trkpt>
      <trkpt lat="44.15053" lon="4.24493">
        <ele>185.671753</ele>
        <time>2015-03-26T14:59:02Z</time>
      </trkpt>
      <trkpt lat="44.1503" lon="4.24502">
        <ele>186.152466</ele>
        <time>2015-03-26T14:59:19Z</time>
      </trkpt>
      <trkpt lat="44.15015" lon="4.24507">
        <ele>187.59436</ele>
        <time>2015-03-26T14:59:31Z</time>
      </trkpt>
      <trkpt lat="44.14992" lon="4.24511">
        <ele>187.11377</ele>
        <time>2015-03-26T14:59:50Z</time>
      </trkpt>
      <trkpt lat="44.14987" lon="4.24513">
        <ele>187.59436</ele>
        <time>2015-03-26T14:59:59Z</time>
      </trkpt>
      <trkpt lat="44.14977" lon="4.24515">
        <ele>187.59436</ele>
        <time>2015-03-26T15:00:10Z</time>
      </trkpt>
      <trkpt lat="44.14961" lon="4.2452">
        <ele>188.075073</ele>
        <time>2015-03-26T15:00:24Z</time>
      </trkpt>
      <trkpt lat="44.14951" lon="4.24522">
        <ele>189.036377</ele>
        <time>2015-03-26T15:00:34Z</time>
      </trkpt>
      <trkpt lat="44.14936" lon="4.24526">
        <ele>189.516968</ele>
        <time>2015-03-26T15:00:45Z</time>
      </trkpt>
      <trkpt lat="44.14918" lon="4.2453">
        <ele>190.478394</ele>
        <time>2015-03-26T15:00:58Z</time>
      </trkpt>
      <trkpt lat="44.14895" lon="4.24536">
        <ele>190.478394</ele>
        <time>2015-03-26T15:01:17Z</time>
      </trkpt>
      <trkpt lat="44.14892" lon="4.24537">
        <ele>191.439575</ele>
        <time>2015-03-26T15:01:20Z</time>
      </trkpt>
      <trkpt lat="44.1489" lon="4.24538">
        <ele>190.958984</ele>
        <time>2015-03-26T15:01:22Z</time>
      </trkpt>
      <trkpt lat="44.14881" lon="4.24539">
        <ele>190.958984</ele>
        <time>2015-03-26T15:01:30Z</time>
      </trkpt>
      <trkpt lat="44.14868" lon="4.24543">
        <ele>192.401123</ele>
        <time>2015-03-26T15:01:41Z</time>
      </trkpt>
      <trkpt lat="44.14857" lon="4.24545">
        <ele>192.401123</ele>
        <time>2015-03-26T15:01:49Z</time>
      </trkpt>
      <trkpt lat="44.14855" lon="4.24546">
        <ele>192.401123</ele>
        <time>2015-03-26T15:01:51Z</time>
      </trkpt>
      <trkpt lat="44.14849" lon="4.24548">
        <ele>193.362305</ele>
        <time>2015-03-26T15:01:56Z</time>
      </trkpt>
      <trkpt lat="44.14829" lon="4.24552">
        <ele>194.32373</ele>
        <time>2015-03-26T15:02:11Z</time>
      </trkpt>
      <trkpt lat="44.14823" lon="4.24553">
        <ele>194.804321</ele>
        <time>2015-03-26T15:02:16Z</time>
      </trkpt>
      <trkpt lat="44.1482" lon="4.24554">
        <ele>194.32373</ele>
        <time>2015-03-26T15:02:19Z</time>
      </trkpt>
      <trkpt lat="44.14815" lon="4.24555">
        <ele>195.284912</ele>
        <time>2015-03-26T15:02:23Z</time>
      </trkpt>
      <trkpt lat="44.14813" lon="4.24556">
        <ele>195.284912</ele>
        <time>2015-03-26T15:02:25Z</time>
      </trkpt>
      <trkpt lat="44.14803" lon="4.24557">
        <ele>196.246338</ele>
        <time>2015-03-26T15:02:32Z</time>
      </trkpt>
      <trkpt lat="44.14801" lon="4.24557">
        <ele>195.765625</ele>
        <time>2015-03-26T15:02:34Z</time>
      </trkpt>
      <trkpt lat="44.14798" lon="4.24559">
        <ele>196.246338</ele>
        <time>2015-03-26T15:02:37Z</time>
      </trkpt>
      <trkpt lat="44.14792" lon="4.2456">
        <ele>196.726929</ele>
        <time>2015-03-26T15:02:44Z</time>
      </trkpt>
      <trkpt lat="44.14786" lon="4.24562">
        <ele>196.726929</ele>
        <time>2015-03-26T15:02:49Z</time>
      </trkpt>
      <trkpt lat="44.14785" lon="4.24561">
        <ele>197.20752</ele>
        <time>2015-03-26T15:02:59Z</time>
      </trkpt>
      <trkpt lat="44.14783" lon="4.24559">
        <ele>197.20752</ele>
        <time>2015-03-26T15:03:02Z</time>
      </trkpt>
      <trkpt lat="44.14776" lon="4.2456">
        <ele>198.168945</ele>
        <time>2015-03-26T15:03:10Z</time>
      </trkpt>
      <trkpt lat="44.1476" lon="4.24562">
        <ele>198.649536</ele>
        <time>2015-03-26T15:03:23Z</time>
      </trkpt>
      <trkpt lat="44.14751" lon="4.24563">
        <ele>199.61084</ele>
        <time>2015-03-26T15:03:30Z</time>
      </trkpt>
      <trkpt lat="44.14741" lon="4.24566">
        <ele>200.091675</ele>
        <time>2015-03-26T15:03:40Z</time>
      </trkpt>
      <trkpt lat="44.14726" lon="4.24568">
        <ele>200.091675</ele>
        <time>2015-03-26T15:03:50Z</time>
      </trkpt>
      <trkpt lat="44.14725" lon="4.24568">
        <ele>200.091675</ele>
        <time>2015-03-26T15:03:51Z</time>
      </trkpt>
      <trkpt lat="44.14719" lon="4.24569">
        <ele>200.091675</ele>
        <time>2015-03-26T15:03:56Z</time>
      </trkpt>
      <trkpt lat="44.14708" lon="4.24572">
        <ele>200.572266</ele>
        <time>2015-03-26T15:04:05Z</time>
      </trkpt>
      <trkpt lat="44.14693" lon="4.24575">
        <ele>199.61084</ele>
        <time>2015-03-26T15:04:17Z</time>
      </trkpt>
      <trkpt lat="44.14688" lon="4.24579">
        <ele>199.61084</ele>
        <time>2015-03-26T15:04:22Z</time>
      </trkpt>
      <trkpt lat="44.14677" lon="4.24581">
        <ele>199.61084</ele>
        <time>2015-03-26T15:04:30Z</time>
      </trkpt>
      <trkpt lat="44.14666" lon="4.24583">
        <ele>199.130127</ele>
        <time>2015-03-26T15:04:38Z</time>
      </trkpt>
      <trkpt lat="44.1465" lon="4.24589">
        <ele>199.61084</ele>
        <time>2015-03-26T15:04:49Z</time>
      </trkpt>
      <trkpt lat="44.14633" lon="4.24594">
        <ele>199.61084</ele>
        <time>2015-03-26T15:05:03Z</time>
      </trkpt>
      <trkpt lat="44.14625" lon="4.24595">
        <ele>198.649536</ele>
        <time>2015-03-26T15:05:09Z</time>
      </trkpt>
      <trkpt lat="44.1462" lon="4.24595">
        <ele>198.649536</ele>
        <time>2015-03-26T15:05:12Z</time>
      </trkpt>
      <trkpt lat="44.14614" lon="4.24592">
        <ele>198.649536</ele>
        <time>2015-03-26T15:05:17Z</time>
      </trkpt>
      <trkpt lat="44.14609" lon="4.24594">
        <ele>198.168945</ele>
        <time>2015-03-26T15:05:21Z</time>
      </trkpt>
      <trkpt lat="44.14605" lon="4.24594">
        <ele>197.688232</ele>
        <time>2015-03-26T15:05:29Z</time>
      </trkpt>
      <trkpt lat="44.14592" lon="4.24595">
        <ele>197.20752</ele>
        <time>2015-03-26T15:05:40Z</time>
      </trkpt>
      <trkpt lat="44.14579" lon="4.24593">
        <ele>197.20752</ele>
        <time>2015-03-26T15:05:49Z</time>
      </trkpt>
      <trkpt lat="44.14566" lon="4.2459">
        <ele>197.20752</ele>
        <time>2015-03-26T15:05:57Z</time>
      </trkpt>
      <trkpt lat="44.14561" lon="4.24587">
        <ele>197.20752</ele>
        <time>2015-03-26T15:06:00Z</time>
      </trkpt>
      <trkpt lat="44.14553" lon="4.24586">
        <ele>196.726929</ele>
        <time>2015-03-26T15:06:06Z</time>
      </trkpt>
      <trkpt lat="44.14547" lon="4.24587">
        <ele>196.726929</ele>
        <time>2015-03-26T15:06:11Z</time>
      </trkpt>
      <trkpt lat="44.14541" lon="4.2459">
        <ele>197.20752</ele>
        <time>2015-03-26T15:06:16Z</time>
      </trkpt>
      <trkpt lat="44.14533" lon="4.24587">
        <ele>197.20752</ele>
        <time>2015-03-26T15:06:22Z</time>
      </trkpt>
      <trkpt lat="44.14529" lon="4.24586">
        <ele>197.688232</ele>
        <time>2015-03-26T15:06:26Z</time>
      </trkpt>
      <trkpt lat="44.14527" lon="4.24585">
        <ele>197.20752</ele>
        <time>2015-03-26T15:06:28Z</time>
      </trkpt>
      <trkpt lat="44.14521" lon="4.24584">
        <ele>197.20752</ele>
        <time>2015-03-26T15:06:33Z</time>
      </trkpt>
      <trkpt lat="44.14518" lon="4.24583">
        <ele>197.20752</ele>
        <time>2015-03-26T15:06:35Z</time>
      </trkpt>
      <trkpt lat="44.14513" lon="4.24582">
        <ele>197.20752</ele>
        <time>2015-03-26T15:06:39Z</time>
      </trkpt>
      <trkpt lat="44.14506" lon="4.24582">
        <ele>197.688232</ele>
        <time>2015-03-26T15:06:43Z</time>
      </trkpt>
      <trkpt lat="44.14488" lon="4.24578">
        <ele>197.20752</ele>
        <time>2015-03-26T15:06:54Z</time>
      </trkpt>
      <trkpt lat="44.1448" lon="4.24574">
        <ele>197.688232</ele>
        <time>2015-03-26T15:07:00Z</time>
      </trkpt>
      <trkpt lat="44.14479" lon="4.24573">
        <ele>197.688232</ele>
        <time>2015-03-26T15:07:01Z</time>
      </trkpt>
      <trkpt lat="44.14467" lon="4.24569">
        <ele>197.20752</ele>
        <time>2015-03-26T15:07:10Z</time>
      </trkpt>
      <trkpt lat="44.14461" lon="4.24571">
        <ele>197.20752</ele>
        <time>2015-03-26T15:07:17Z</time>
      </trkpt>
      <trkpt lat="44.14444" lon="4.24575">
        <ele>197.20752</ele>
        <time>2015-03-26T15:07:27Z</time>
      </trkpt>
      <trkpt lat="44.14437" lon="4.24573">
        <ele>197.688232</ele>
        <time>2015-03-26T15:07:34Z</time>
      </trkpt>
      <trkpt lat="44.14431" lon="4.24571">
        <ele>197.20752</ele>
        <time>2015-03-26T15:07:38Z</time>
      </trkpt>
      <trkpt lat="44.14426" lon="4.24573">
        <ele>197.20752</ele>
        <time>2015-03-26T15:07:42Z</time>
      </trkpt>
      <trkpt lat="44.14419" lon="4.24572">
        <ele>197.20752</ele>
        <time>2015-03-26T15:07:47Z</time>
      </trkpt>
      <trkpt lat="44.14414" lon="4.24572">
        <ele>198.168945</ele>
        <time>2015-03-26T15:07:51Z</time>
      </trkpt>
      <trkpt lat="44.14405" lon="4.24572">
        <ele>197.20752</ele>
        <time>2015-03-26T15:07:58Z</time>
      </trkpt>
      <trkpt lat="44.14395" lon="4.2457">
        <ele>197.20752</ele>
        <time>2015-03-26T15:08:06Z</time>
      </trkpt>
      <trkpt lat="44.1439" lon="4.24567">
        <ele>196.726929</ele>
        <time>2015-03-26T15:08:10Z</time>
      </trkpt>
      <trkpt lat="44.14382" lon="4.24565">
        <ele>197.20752</ele>
        <time>2015-03-26T15:08:18Z</time>
      </trkpt>
      <trkpt lat="44.14378" lon="4.24566">
        <ele>197.20752</ele>
        <time>2015-03-26T15:08:20Z</time>
      </trkpt>
      <trkpt lat="44.14375" lon="4.24564">
        <ele>197.20752</ele>
        <time>2015-03-26T15:08:24Z</time>
      </trkpt>
      <trkpt lat="44.14365" lon="4.24565">
        <ele>197.688232</ele>
        <time>2015-03-26T15:08:30Z</time>
      </trkpt>
      <trkpt lat="44.14363" lon="4.24564">
        <ele>197.688232</ele>
        <time>2015-03-26T15:08:31Z</time>
      </trkpt>
      <trkpt lat="44.14354" lon="4.24562">
        <ele>197.20752</ele>
        <time>2015-03-26T15:08:37Z</time>
      </trkpt>
      <trkpt lat="44.1435" lon="4.24561">
        <ele>196.726929</ele>
        <time>2015-03-26T15:08:39Z</time>
      </trkpt>
      <trkpt lat="44.14337" lon="4.24562">
        <ele>197.20752</ele>
        <time>2015-03-26T15:08:47Z</time>
      </trkpt>
      <trkpt lat="44.14326" lon="4.24561">
        <ele>197.20752</ele>
        <time>2015-03-26T15:08:53Z</time>
      </trkpt>
      <trkpt lat="44.14316" lon="4.24561">
        <ele>197.688232</ele>
        <time>2015-03-26T15:08:58Z</time>
      </trkpt>
      <trkpt lat="44.1431" lon="4.24559">
        <ele>197.688232</ele>
        <time>2015-03-26T15:09:03Z</time>
      </trkpt>
      <trkpt lat="44.14301" lon="4.24565">
        <ele>198.168945</ele>
        <time>2015-03-26T15:09:10Z</time>
      </trkpt>
      <trkpt lat="44.14295" lon="4.24568">
        <ele>197.688232</ele>
        <time>2015-03-26T15:09:16Z</time>
      </trkpt>
      <trkpt lat="44.14293" lon="4.24568">
        <ele>197.688232</ele>
        <time>2015-03-26T15:09:18Z</time>
      </trkpt>
      <trkpt lat="44.14289" lon="4.24569">
        <ele>197.688232</ele>
        <time>2015-03-26T15:09:23Z</time>
      </trkpt>
      <trkpt lat="44.14286" lon="4.24571">
        <ele>198.649536</ele>
        <time>2015-03-26T15:09:26Z</time>
      </trkpt>
      <trkpt lat="44.14281" lon="4.24572">
        <ele>198.168945</ele>
        <time>2015-03-26T15:09:30Z</time>
      </trkpt>
      <trkpt lat="44.14268" lon="4.2458">
        <ele>198.649536</ele>
        <time>2015-03-26T15:09:39Z</time>
      </trkpt>
      <trkpt lat="44.14257" lon="4.24589">
        <ele>198.649536</ele>
        <time>2015-03-26T15:09:46Z</time>
      </trkpt>
      <trkpt lat="44.1425" lon="4.24595">
        <ele>198.649536</ele>
        <time>2015-03-26T15:09:52Z</time>
      </trkpt>
      <trkpt lat="44.14243" lon="4.24598">
        <ele>198.649536</ele>
        <time>2015-03-26T15:09:58Z</time>
      </trkpt>
      <trkpt lat="44.14238" lon="4.246">
        <ele>198.649536</ele>
        <time>2015-03-26T15:10:02Z</time>
      </trkpt>
      <trkpt lat="44.14229" lon="4.24603">
        <ele>199.130127</ele>
        <time>2015-03-26T15:10:10Z</time>
      </trkpt>
      <trkpt lat="44.14223" lon="4.24607">
        <ele>198.168945</ele>
        <time>2015-03-26T15:10:16Z</time>
      </trkpt>
      <trkpt lat="44.14219" lon="4.24609">
        <ele>198.168945</ele>
        <time>2015-03-26T15:10:20Z</time>
      </trkpt>
      <trkpt lat="44.14217" lon="4.24612">
        <ele>197.688232</ele>
        <time>2015-03-26T15:10:23Z</time>
      </trkpt>
      <trkpt lat="44.14208" lon="4.24619">
        <ele>197.688232</ele>
        <time>2015-03-26T15:10:31Z</time>
      </trkpt>
      <trkpt lat="44.14199" lon="4.24622">
        <ele>197.688232</ele>
        <time>2015-03-26T15:10:38Z</time>
      </trkpt>
      <trkpt lat="44.14178" lon="4.24624">
        <ele>197.20752</ele>
        <time>2015-03-26T15:10:53Z</time>
      </trkpt>
      <trkpt lat="44.1416" lon="4.24623">
        <ele>196.246338</ele>
        <time>2015-03-26T15:11:06Z</time>
      </trkpt>
      <trkpt lat="44.14146" lon="4.24621">
        <ele>196.246338</ele>
        <time>2015-03-26T15:11:18Z</time>
      </trkpt>
      <trkpt lat="44.14131" lon="4.24621">
        <ele>195.284912</ele>
        <time>2015-03-26T15:11:31Z</time>
      </trkpt>
      <trkpt lat="44.14128" lon="4.24621">
        <ele>195.284912</ele>
        <time>2015-03-26T15:11:33Z</time>
      </trkpt>
      <trkpt lat="44.14119" lon="4.24623">
        <ele>195.284912</ele>
        <time>2015-03-26T15:11:42Z</time>
      </trkpt>
      <trkpt lat="44.14106" lon="4.24621">
        <ele>194.32373</ele>
        <time>2015-03-26T15:11:52Z</time>
      </trkpt>
      <trkpt lat="44.14102" lon="4.2462">
        <ele>194.804321</ele>
        <time>2015-03-26T15:11:55Z</time>
      </trkpt>
      <trkpt lat="44.14099" lon="4.24619">
        <ele>195.284912</ele>
        <time>2015-03-26T15:11:57Z</time>
      </trkpt>
      <trkpt lat="44.14082" lon="4.24619">
        <ele>194.804321</ele>
        <time>2015-03-26T15:12:10Z</time>
      </trkpt>
      <trkpt lat="44.14074" lon="4.2462">
        <ele>194.32373</ele>
        <time>2015-03-26T15:12:19Z</time>
      </trkpt>
      <trkpt lat="44.1406" lon="4.2462">
        <ele>193.362305</ele>
        <time>2015-03-26T15:12:30Z</time>
      </trkpt>
      <trkpt lat="44.14045" lon="4.24618">
        <ele>193.843018</ele>
        <time>2015-03-26T15:12:42Z</time>
      </trkpt>
      <trkpt lat="44.14034" lon="4.24617">
        <ele>193.362305</ele>
        <time>2015-03-26T15:12:51Z</time>
      </trkpt>
      <trkpt lat="44.14023" lon="4.24613">
        <ele>193.362305</ele>
        <time>2015-03-26T15:13:00Z</time>
      </trkpt>
      <trkpt lat="44.14009" lon="4.2461">
        <ele>193.362305</ele>
        <time>2015-03-26T15:13:11Z</time>
      </trkpt>
      <trkpt lat="44.13998" lon="4.24608">
        <ele>192.401123</ele>
        <time>2015-03-26T15:13:20Z</time>
      </trkpt>
      <trkpt lat="44.13988" lon="4.24604">
        <ele>192.401123</ele>
        <time>2015-03-26T15:13:29Z</time>
      </trkpt>
      <trkpt lat="44.13983" lon="4.24603">
        <ele>193.362305</ele>
        <time>2015-03-26T15:13:33Z</time>
      </trkpt>
      <trkpt lat="44.13978" lon="4.24601">
        <ele>192.881714</ele>
        <time>2015-03-26T15:13:37Z</time>
      </trkpt>
      <trkpt lat="44.1396" lon="4.24605">
        <ele>191.439575</ele>
        <time>2015-03-26T15:13:48Z</time>
      </trkpt>
      <trkpt lat="44.13956" lon="4.24605">
        <ele>191.439575</ele>
        <time>2015-03-26T15:13:51Z</time>
      </trkpt>
      <trkpt lat="44.13954" lon="4.24606">
        <ele>190.958984</ele>
        <time>2015-03-26T15:13:53Z</time>
      </trkpt>
      <trkpt lat="44.13945" lon="4.24607">
        <ele>191.920288</ele>
        <time>2015-03-26T15:13:59Z</time>
      </trkpt>
      <trkpt lat="44.13931" lon="4.24608">
        <ele>191.920288</ele>
        <time>2015-03-26T15:14:10Z</time>
      </trkpt>
      <trkpt lat="44.13922" lon="4.2461">
        <ele>191.920288</ele>
        <time>2015-03-26T15:14:19Z</time>
      </trkpt>
      <trkpt lat="44.1391" lon="4.2461">
        <ele>191.920288</ele>
        <time>2015-03-26T15:14:29Z</time>
      </trkpt>
      <trkpt lat="44.13892" lon="4.24611">
        <ele>192.401123</ele>
        <time>2015-03-26T15:14:44Z</time>
      </trkpt>
      <trkpt lat="44.13875" lon="4.24611">
        <ele>193.362305</ele>
        <time>2015-03-26T15:14:57Z</time>
      </trkpt>
      <trkpt lat="44.13868" lon="4.24615">
        <ele>193.843018</ele>
        <time>2015-03-26T15:15:04Z</time>
      </trkpt>
      <trkpt lat="44.13865" lon="4.24616">
        <ele>193.843018</ele>
        <time>2015-03-26T15:15:07Z</time>
      </trkpt>
      <trkpt lat="44.13845" lon="4.24624">
        <ele>195.284912</ele>
        <time>2015-03-26T15:15:26Z</time>
      </trkpt>
      <trkpt lat="44.13843" lon="4.24624">
        <ele>195.284912</ele>
        <time>2015-03-26T15:15:36Z</time>
      </trkpt>
      <trkpt lat="44.13843" lon="4.24625">
        <ele>195.765625</ele>
        <time>2015-03-26T15:15:46Z</time>
      </trkpt>
      <trkpt lat="44.13848" lon="4.24622">
        <ele>193.843018</ele>
        <time>2015-03-26T15:15:51Z</time>
      </trkpt>
      <trkpt lat="44.1386" lon="4.24614">
        <ele>193.362305</ele>
        <time>2015-03-26T15:16:00Z</time>
      </trkpt>
      <trkpt lat="44.13863" lon="4.2461">
        <ele>192.881714</ele>
        <time>2015-03-26T15:16:04Z</time>
      </trkpt>
      <trkpt lat="44.13863" lon="4.24606">
        <ele>192.401123</ele>
        <time>2015-03-26T15:16:08Z</time>
      </trkpt>
      <trkpt lat="44.13856" lon="4.24605">
        <ele>191.920288</ele>
        <time>2015-03-26T15:16:15Z</time>
      </trkpt>
      <trkpt lat="44.13845" lon="4.24599">
        <ele>191.920288</ele>
        <time>2015-03-26T15:16:26Z</time>
      </trkpt>
      <trkpt lat="44.13836" lon="4.24593">
        <ele>191.439575</ele>
        <time>2015-03-26T15:16:36Z</time>
      </trkpt>
      <trkpt lat="44.13825" lon="4.24587">
        <ele>191.439575</ele>
        <time>2015-03-26T15:16:46Z</time>
      </trkpt>
      <trkpt lat="44.1381" lon="4.24584">
        <ele>191.920288</ele>
        <time>2015-03-26T15:16:59Z</time>
      </trkpt>
      <trkpt lat="44.13809" lon="4.24584">
        <ele>191.920288</ele>
        <time>2015-03-26T15:17:00Z</time>
      </trkpt>
      <trkpt lat="44.13803" lon="4.24579">
        <ele>191.439575</ele>
        <time>2015-03-26T15:17:05Z</time>
      </trkpt>
      <trkpt lat="44.13787" lon="4.24576">
        <ele>191.439575</ele>
        <time>2015-03-26T15:17:19Z</time>
      </trkpt>
      <trkpt lat="44.13776" lon="4.24568">
        <ele>191.439575</ele>
        <time>2015-03-26T15:17:31Z</time>
      </trkpt>
      <trkpt lat="44.13759" lon="4.24554">
        <ele>192.401123</ele>
        <time>2015-03-26T15:17:46Z</time>
      </trkpt>
      <trkpt lat="44.13746" lon="4.24551">
        <ele>192.401123</ele>
        <time>2015-03-26T15:17:59Z</time>
      </trkpt>
      <trkpt lat="44.13727" lon="4.2455">
        <ele>192.881714</ele>
        <time>2015-03-26T15:18:13Z</time>
      </trkpt>
      <trkpt lat="44.13712" lon="4.24542">
        <ele>193.362305</ele>
        <time>2015-03-26T15:18:25Z</time>
      </trkpt>
      <trkpt lat="44.13698" lon="4.24536">
        <ele>194.32373</ele>
        <time>2015-03-26T15:18:37Z</time>
      </trkpt>
      <trkpt lat="44.13684" lon="4.24532">
        <ele>194.804321</ele>
        <time>2015-03-26T15:18:49Z</time>
      </trkpt>
      <trkpt lat="44.13676" lon="4.24527">
        <ele>195.284912</ele>
        <time>2015-03-26T15:18:55Z</time>
      </trkpt>
      <trkpt lat="44.13669" lon="4.24529">
        <ele>195.765625</ele>
        <time>2015-03-26T15:19:02Z</time>
      </trkpt>
      <trkpt lat="44.13661" lon="4.24532">
        <ele>196.726929</ele>
        <time>2015-03-26T15:19:07Z</time>
      </trkpt>
      <trkpt lat="44.13652" lon="4.2453">
        <ele>196.726929</ele>
        <time>2015-03-26T15:19:13Z</time>
      </trkpt>
      <trkpt lat="44.13645" lon="4.24534">
        <ele>198.168945</ele>
        <time>2015-03-26T15:19:19Z</time>
      </trkpt>
      <trkpt lat="44.1364" lon="4.24537">
        <ele>197.688232</ele>
        <time>2015-03-26T15:19:23Z</time>
      </trkpt>
      <trkpt lat="44.1363" lon="4.24548">
        <ele>198.649536</ele>
        <time>2015-03-26T15:19:33Z</time>
      </trkpt>
      <trkpt lat="44.13617" lon="4.24553">
        <ele>199.61084</ele>
        <time>2015-03-26T15:19:44Z</time>
      </trkpt>
      <trkpt lat="44.13597" lon="4.2455">
        <ele>199.61084</ele>
        <time>2015-03-26T15:19:59Z</time>
      </trkpt>
      <trkpt lat="44.13583" lon="4.24543">
        <ele>198.649536</ele>
        <time>2015-03-26T15:20:13Z</time>
      </trkpt>
      <trkpt lat="44.13578" lon="4.24539">
        <ele>198.649536</ele>
        <time>2015-03-26T15:20:20Z</time>
      </trkpt>
      <trkpt lat="44.1356" lon="4.24531">
        <ele>198.649536</ele>
        <time>2015-03-26T15:20:35Z</time>
      </trkpt>
      <trkpt lat="44.13545" lon="4.24524">
        <ele>199.130127</ele>
        <time>2015-03-26T15:20:46Z</time>
      </trkpt>
      <trkpt lat="44.13531" lon="4.24516">
        <ele>198.649536</ele>
        <time>2015-03-26T15:20:59Z</time>
      </trkpt>
      <trkpt lat="44.13525" lon="4.24512">
        <ele>198.649536</ele>
        <time>2015-03-26T15:21:04Z</time>
      </trkpt>
      <trkpt lat="44.13516" lon="4.24508">
        <ele>199.130127</ele>
        <time>2015-03-26T15:21:12Z</time>
      </trkpt>
      <trkpt lat="44.13508" lon="4.24508">
        <ele>198.649536</ele>
        <time>2015-03-26T15:21:21Z</time>
      </trkpt>
      <trkpt lat="44.1349" lon="4.24503">
        <ele>198.168945</ele>
        <time>2015-03-26T15:21:33Z</time>
      </trkpt>
      <trkpt lat="44.13481" lon="4.245">
        <ele>197.688232</ele>
        <time>2015-03-26T15:21:42Z</time>
      </trkpt>
      <trkpt lat="44.13474" lon="4.24498">
        <ele>197.20752</ele>
        <time>2015-03-26T15:21:47Z</time>
      </trkpt>
      <trkpt lat="44.13463" lon="4.2449">
        <ele>197.688232</ele>
        <time>2015-03-26T15:21:56Z</time>
      </trkpt>
      <trkpt lat="44.13454" lon="4.24485">
        <ele>197.688232</ele>
        <time>2015-03-26T15:22:02Z</time>
      </trkpt>
      <trkpt lat="44.13449" lon="4.24485">
        <ele>197.688232</ele>
        <time>2015-03-26T15:22:06Z</time>
      </trkpt>
      <trkpt lat="44.13442" lon="4.2449">
        <ele>198.168945</ele>
        <time>2015-03-26T15:22:12Z</time>
      </trkpt>
      <trkpt lat="44.13436" lon="4.24488">
        <ele>198.168945</ele>
        <time>2015-03-26T15:22:19Z</time>
      </trkpt>
      <trkpt lat="44.13433" lon="4.2449">
        <ele>198.168945</ele>
        <time>2015-03-26T15:22:38Z</time>
      </trkpt>
      <trkpt lat="44.13434" lon="4.24487">
        <ele>198.168945</ele>
        <time>2015-03-26T15:22:54Z</time>
      </trkpt>
      <trkpt lat="44.13436" lon="4.24483">
        <ele>198.168945</ele>
        <time>2015-03-26T15:25:14Z</time>
      </trkpt>
      <trkpt lat="44.1344" lon="4.24483">
        <ele>198.168945</ele>
        <time>2015-03-26T15:25:25Z</time>
      </trkpt>
      <trkpt lat="44.13436" lon="4.24485">
        <ele>197.688232</ele>
        <time>2015-03-26T15:25:41Z</time>
      </trkpt>
      <trkpt lat="44.13436" lon="4.24487">
        <ele>197.688232</ele>
        <time>2015-03-26T15:27:27Z</time>
      </trkpt>
      <trkpt lat="44.13433" lon="4.24491">
        <ele>198.168945</ele>
        <time>2015-03-26T15:27:46Z</time>
      </trkpt>
      <trkpt lat="44.13434" lon="4.24491">
        <ele>198.168945</ele>
        <time>2015-03-26T15:28:05Z</time>
      </trkpt>
      <trkpt lat="44.13431" lon="4.24492">
        <ele>197.688232</ele>
        <time>2015-03-26T15:28:30Z</time>
      </trkpt>
      <trkpt lat="44.13425" lon="4.24497">
        <ele>198.168945</ele>
        <time>2015-03-26T15:28:57Z</time>
      </trkpt>
      <trkpt lat="44.13423" lon="4.24498">
        <ele>198.168945</ele>
        <time>2015-03-26T15:29:11Z</time>
      </trkpt>
      <trkpt lat="44.13423" lon="4.24499">
        <ele>198.168945</ele>
        <time>2015-03-26T15:29:46Z</time>
      </trkpt>
      <trkpt lat="44.13418" lon="4.245">
        <ele>198.168945</ele>
        <time>2015-03-26T15:30:18Z</time>
      </trkpt>
      <trkpt lat="44.1342" lon="4.24499">
        <ele>198.168945</ele>
        <time>2015-03-26T15:30:29Z</time>
      </trkpt>
      <trkpt lat="44.13421" lon="4.24499">
        <ele>198.168945</ele>
        <time>2015-03-26T15:30:46Z</time>
      </trkpt>
      <trkpt lat="44.13421" lon="4.24497">
        <ele>197.688232</ele>
        <time>2015-03-26T15:32:23Z</time>
      </trkpt>
      <trkpt lat="44.13416" lon="4.245">
        <ele>197.688232</ele>
        <time>2015-03-26T15:34:29Z</time>
      </trkpt>
      <trkpt lat="44.13408" lon="4.24503">
        <ele>197.688232</ele>
        <time>2015-03-26T15:34:37Z</time>
      </trkpt>
      <trkpt lat="44.134" lon="4.24507">
        <ele>198.168945</ele>
        <time>2015-03-26T15:34:47Z</time>
      </trkpt>
      <trkpt lat="44.13384" lon="4.24519">
        <ele>198.649536</ele>
        <time>2015-03-26T15:35:05Z</time>
      </trkpt>
      <trkpt lat="44.13362" lon="4.24532">
        <ele>200.091675</ele>
        <time>2015-03-26T15:35:28Z</time>
      </trkpt>
      <trkpt lat="44.13352" lon="4.24541">
        <ele>201.052856</ele>
        <time>2015-03-26T15:35:43Z</time>
      </trkpt>
      <trkpt lat="44.13347" lon="4.24552">
        <ele>201.052856</ele>
        <time>2015-03-26T15:35:51Z</time>
      </trkpt>
      <trkpt lat="44.13342" lon="4.24567">
        <ele>201.533569</ele>
        <time>2015-03-26T15:36:03Z</time>
      </trkpt>
      <trkpt lat="44.13338" lon="4.24591">
        <ele>202.494873</ele>
        <time>2015-03-26T15:36:21Z</time>
      </trkpt>
      <trkpt lat="44.13334" lon="4.24608">
        <ele>203.456177</ele>
        <time>2015-03-26T15:36:33Z</time>
      </trkpt>
      <trkpt lat="44.13331" lon="4.24633">
        <ele>203.456177</ele>
        <time>2015-03-26T15:36:46Z</time>
      </trkpt>
      <trkpt lat="44.13331" lon="4.24648">
        <ele>203.93689</ele>
        <time>2015-03-26T15:36:56Z</time>
      </trkpt>
      <trkpt lat="44.1333" lon="4.24666">
        <ele>204.41748</ele>
        <time>2015-03-26T15:37:08Z</time>
      </trkpt>
      <trkpt lat="44.13331" lon="4.24678">
        <ele>204.898071</ele>
        <time>2015-03-26T15:37:18Z</time>
      </trkpt>
      <trkpt lat="44.13333" lon="4.24694">
        <ele>205.859497</ele>
        <time>2015-03-26T15:37:29Z</time>
      </trkpt>
      <trkpt lat="44.13337" lon="4.24712">
        <ele>206.340088</ele>
        <time>2015-03-26T15:37:43Z</time>
      </trkpt>
      <trkpt lat="44.13336" lon="4.24728">
        <ele>206.820679</ele>
        <time>2015-03-26T15:37:57Z</time>
      </trkpt>
      <trkpt lat="44.13326" lon="4.24744">
        <ele>208.262817</ele>
        <time>2015-03-26T15:38:15Z</time>
      </trkpt>
      <trkpt lat="44.13321" lon="4.24753">
        <ele>208.262817</ele>
        <time>2015-03-26T15:38:27Z</time>
      </trkpt>
      <trkpt lat="44.1331" lon="4.24767">
        <ele>208.743408</ele>
        <time>2015-03-26T15:38:41Z</time>
      </trkpt>
      <trkpt lat="44.13295" lon="4.24778">
        <ele>210.185425</ele>
        <time>2015-03-26T15:38:56Z</time>
      </trkpt>
      <trkpt lat="44.13286" lon="4.2479">
        <ele>211.627441</ele>
        <time>2015-03-26T15:39:10Z</time>
      </trkpt>
      <trkpt lat="44.13274" lon="4.24796">
        <ele>212.588623</ele>
        <time>2015-03-26T15:39:27Z</time>
      </trkpt>
      <trkpt lat="44.13258" lon="4.24799">
        <ele>214.03064</ele>
        <time>2015-03-26T15:39:44Z</time>
      </trkpt>
      <trkpt lat="44.13253" lon="4.248">
        <ele>214.51123</ele>
        <time>2015-03-26T15:39:48Z</time>
      </trkpt>
      <trkpt lat="44.13247" lon="4.24813">
        <ele>215.472656</ele>
        <time>2015-03-26T15:39:59Z</time>
      </trkpt>
      <trkpt lat="44.13243" lon="4.24831">
        <ele>216.43396</ele>
        <time>2015-03-26T15:40:14Z</time>
      </trkpt>
      <trkpt lat="44.13235" lon="4.24841">
        <ele>217.395386</ele>
        <time>2015-03-26T15:40:27Z</time>
      </trkpt>
      <trkpt lat="44.13225" lon="4.24853">
        <ele>218.83728</ele>
        <time>2015-03-26T15:40:40Z</time>
      </trkpt>
      <trkpt lat="44.13219" lon="4.24862">
        <ele>219.798584</ele>
        <time>2015-03-26T15:40:52Z</time>
      </trkpt>
      <trkpt lat="44.13213" lon="4.24879">
        <ele>220.759888</ele>
        <time>2015-03-26T15:41:07Z</time>
      </trkpt>
      <trkpt lat="44.13209" lon="4.24895">
        <ele>222.201782</ele>
        <time>2015-03-26T15:41:23Z</time>
      </trkpt>
      <trkpt lat="44.132" lon="4.24898">
        <ele>222.682495</ele>
        <time>2015-03-26T15:41:33Z</time>
      </trkpt>
      <trkpt lat="44.13195" lon="4.2491">
        <ele>223.643799</ele>
        <time>2015-03-26T15:41:43Z</time>
      </trkpt>
      <trkpt lat="44.13194" lon="4.24923">
        <ele>224.605225</ele>
        <time>2015-03-26T15:41:54Z</time>
      </trkpt>
      <trkpt lat="44.13196" lon="4.24937">
        <ele>225.566528</ele>
        <time>2015-03-26T15:42:07Z</time>
      </trkpt>
      <trkpt lat="44.13192" lon="4.24952">
        <ele>225.566528</ele>
        <time>2015-03-26T15:42:19Z</time>
      </trkpt>
      <trkpt lat="44.13189" lon="4.24962">
        <ele>226.047119</ele>
        <time>2015-03-26T15:42:29Z</time>
      </trkpt>
      <trkpt lat="44.13182" lon="4.24976">
        <ele>227.008545</ele>
        <time>2015-03-26T15:42:42Z</time>
      </trkpt>
      <trkpt lat="44.13178" lon="4.24987">
        <ele>227.489136</ele>
        <time>2015-03-26T15:42:53Z</time>
      </trkpt>
      <trkpt lat="44.13174" lon="4.24998">
        <ele>227.969727</ele>
        <time>2015-03-26T15:43:03Z</time>
      </trkpt>
      <trkpt lat="44.13168" lon="4.25013">
        <ele>228.931152</ele>
        <time>2015-03-26T15:43:16Z</time>
      </trkpt>
      <trkpt lat="44.1316" lon="4.25022">
        <ele>229.411743</ele>
        <time>2015-03-26T15:43:27Z</time>
      </trkpt>
      <trkpt lat="44.13152" lon="4.25031">
        <ele>230.373047</ele>
        <time>2015-03-26T15:43:40Z</time>
      </trkpt>
      <trkpt lat="44.13147" lon="4.25035">
        <ele>230.373047</ele>
        <time>2015-03-26T15:43:47Z</time>
      </trkpt>
      <trkpt lat="44.13139" lon="4.25039">
        <ele>230.85376</ele>
        <time>2015-03-26T15:43:58Z</time>
      </trkpt>
      <trkpt lat="44.13132" lon="4.25046">
        <ele>231.814941</ele>
        <time>2015-03-26T15:44:08Z</time>
      </trkpt>
      <trkpt lat="44.13124" lon="4.25051">
        <ele>232.295776</ele>
        <time>2015-03-26T15:44:19Z</time>
      </trkpt>
      <trkpt lat="44.13114" lon="4.25056">
        <ele>232.776489</ele>
        <time>2015-03-26T15:44:28Z</time>
      </trkpt>
      <trkpt lat="44.13107" lon="4.25061">
        <ele>232.776489</ele>
        <time>2015-03-26T15:44:37Z</time>
      </trkpt>
      <trkpt lat="44.131" lon="4.25064">
        <ele>233.737671</ele>
        <time>2015-03-26T15:44:45Z</time>
      </trkpt>
      <trkpt lat="44.13097" lon="4.25065">
        <ele>234.699097</ele>
        <time>2015-03-26T15:44:57Z</time>
      </trkpt>
      <trkpt lat="44.13095" lon="4.25068">
        <ele>234.699097</ele>
        <time>2015-03-26T15:45:13Z</time>
      </trkpt>
      <trkpt lat="44.13091" lon="4.25083">
        <ele>235.179688</ele>
        <time>2015-03-26T15:45:27Z</time>
      </trkpt>
      <trkpt lat="44.13085" lon="4.25099">
        <ele>235.660278</ele>
        <time>2015-03-26T15:45:41Z</time>
      </trkpt>
      <trkpt lat="44.13084" lon="4.25101">
        <ele>236.140991</ele>
        <time>2015-03-26T15:45:53Z</time>
      </trkpt>
      <trkpt lat="44.13085" lon="4.25099">
        <ele>236.140991</ele>
        <time>2015-03-26T15:45:55Z</time>
      </trkpt>
      <trkpt lat="44.13089" lon="4.25091">
        <ele>235.660278</ele>
        <time>2015-03-26T15:46:02Z</time>
      </trkpt>
      <trkpt lat="44.1309" lon="4.25076">
        <ele>235.179688</ele>
        <time>2015-03-26T15:46:13Z</time>
      </trkpt>
      <trkpt lat="44.13085" lon="4.25066">
        <ele>235.179688</ele>
        <time>2015-03-26T15:46:22Z</time>
      </trkpt>
      <trkpt lat="44.13078" lon="4.25061">
        <ele>236.621704</ele>
        <time>2015-03-26T15:46:31Z</time>
      </trkpt>
      <trkpt lat="44.13066" lon="4.25061">
        <ele>237.582886</ele>
        <time>2015-03-26T15:46:44Z</time>
      </trkpt>
      <trkpt lat="44.13057" lon="4.2506">
        <ele>239.024902</ele>
        <time>2015-03-26T15:46:52Z</time>
      </trkpt>
      <trkpt lat="44.13048" lon="4.25063">
        <ele>239.986206</ele>
        <time>2015-03-26T15:47:04Z</time>
      </trkpt>
      <trkpt lat="44.13039" lon="4.25066">
        <ele>240.467041</ele>
        <time>2015-03-26T15:47:13Z</time>
      </trkpt>
      <trkpt lat="44.13025" lon="4.25074">
        <ele>241.908936</ele>
        <time>2015-03-26T15:47:26Z</time>
      </trkpt>
      <trkpt lat="44.13015" lon="4.25082">
        <ele>242.389648</ele>
        <time>2015-03-26T15:47:36Z</time>
      </trkpt>
      <trkpt lat="44.1301" lon="4.25091">
        <ele>242.870239</ele>
        <time>2015-03-26T15:47:45Z</time>
      </trkpt>
      <trkpt lat="44.13001" lon="4.25102">
        <ele>243.35083</ele>
        <time>2015-03-26T15:47:56Z</time>
      </trkpt>
      <trkpt lat="44.12994" lon="4.25112">
        <ele>244.312256</ele>
        <time>2015-03-26T15:48:06Z</time>
      </trkpt>
      <trkpt lat="44.12984" lon="4.25123">
        <ele>245.273438</ele>
        <time>2015-03-26T15:48:20Z</time>
      </trkpt>
      <trkpt lat="44.12973" lon="4.25134">
        <ele>245.75415</ele>
        <time>2015-03-26T15:48:34Z</time>
      </trkpt>
      <trkpt lat="44.12962" lon="4.25149">
        <ele>245.75415</ele>
        <time>2015-03-26T15:48:47Z</time>
      </trkpt>
      <trkpt lat="44.12957" lon="4.25156">
        <ele>245.75415</ele>
        <time>2015-03-26T15:48:55Z</time>
      </trkpt>
      <trkpt lat="44.12949" lon="4.25168">
        <ele>246.234863</ele>
        <time>2015-03-26T15:49:04Z</time>
      </trkpt>
      <trkpt lat="44.12942" lon="4.25177">
        <ele>246.234863</ele>
        <time>2015-03-26T15:49:12Z</time>
      </trkpt>
      <trkpt lat="44.12939" lon="4.25181">
        <ele>246.715454</ele>
        <time>2015-03-26T15:49:18Z</time>
      </trkpt>
      <trkpt lat="44.12937" lon="4.25182">
        <ele>246.715454</ele>
        <time>2015-03-26T15:49:20Z</time>
      </trkpt>
      <trkpt lat="44.12934" lon="4.25187">
        <ele>247.196045</ele>
        <time>2015-03-26T15:49:24Z</time>
      </trkpt>
      <trkpt lat="44.12925" lon="4.25196">
        <ele>248.157593</ele>
        <time>2015-03-26T15:49:35Z</time>
      </trkpt>
      <trkpt lat="44.12924" lon="4.25197">
        <ele>248.157593</ele>
        <time>2015-03-26T15:49:36Z</time>
      </trkpt>
      <trkpt lat="44.12918" lon="4.25204">
        <ele>248.638184</ele>
        <time>2015-03-26T15:49:45Z</time>
      </trkpt>
      <trkpt lat="44.12915" lon="4.25208">
        <ele>248.638184</ele>
        <time>2015-03-26T15:49:49Z</time>
      </trkpt>
      <trkpt lat="44.12905" lon="4.25218">
        <ele>250.0802</ele>
        <time>2015-03-26T15:49:59Z</time>
      </trkpt>
      <trkpt lat="44.12901" lon="4.25221">
        <ele>250.0802</ele>
        <time>2015-03-26T15:50:04Z</time>
      </trkpt>
      <trkpt lat="44.12893" lon="4.25229">
        <ele>250.0802</ele>
        <time>2015-03-26T15:50:13Z</time>
      </trkpt>
      <trkpt lat="44.12889" lon="4.25236">
        <ele>250.560791</ele>
        <time>2015-03-26T15:50:20Z</time>
      </trkpt>
      <trkpt lat="44.12885" lon="4.25245">
        <ele>251.041382</ele>
        <time>2015-03-26T15:50:29Z</time>
      </trkpt>
      <trkpt lat="44.12878" lon="4.25258">
        <ele>251.041382</ele>
        <time>2015-03-26T15:50:38Z</time>
      </trkpt>
      <trkpt lat="44.12874" lon="4.2527">
        <ele>251.522095</ele>
        <time>2015-03-26T15:50:48Z</time>
      </trkpt>
      <trkpt lat="44.12868" lon="4.25287">
        <ele>252.002808</ele>
        <time>2015-03-26T15:51:01Z</time>
      </trkpt>
      <trkpt lat="44.1286" lon="4.25309">
        <ele>252.963989</ele>
        <time>2015-03-26T15:51:15Z</time>
      </trkpt>
      <trkpt lat="44.12853" lon="4.25327">
        <ele>252.963989</ele>
        <time>2015-03-26T15:51:27Z</time>
      </trkpt>
      <trkpt lat="44.12849" lon="4.25338">
        <ele>253.444702</ele>
        <time>2015-03-26T15:51:35Z</time>
      </trkpt>
      <trkpt lat="44.12845" lon="4.25351">
        <ele>253.444702</ele>
        <time>2015-03-26T15:51:46Z</time>
      </trkpt>
      <trkpt lat="44.12841" lon="4.2536">
        <ele>253.444702</ele>
        <time>2015-03-26T15:51:53Z</time>
      </trkpt>
      <trkpt lat="44.12836" lon="4.2537">
        <ele>254.406006</ele>
        <time>2015-03-26T15:52:01Z</time>
      </trkpt>
      <trkpt lat="44.12832" lon="4.25382">
        <ele>254.886597</ele>
        <time>2015-03-26T15:52:10Z</time>
      </trkpt>
      <trkpt lat="44.12825" lon="4.25399">
        <ele>255.36731</ele>
        <time>2015-03-26T15:52:22Z</time>
      </trkpt>
      <trkpt lat="44.12819" lon="4.25411">
        <ele>255.848022</ele>
        <time>2015-03-26T15:52:32Z</time>
      </trkpt>
      <trkpt lat="44.12814" lon="4.2542">
        <ele>256.328735</ele>
        <time>2015-03-26T15:52:40Z</time>
      </trkpt>
      <trkpt lat="44.12802" lon="4.2543">
        <ele>256.328735</ele>
        <time>2015-03-26T15:52:52Z</time>
      </trkpt>
      <trkpt lat="44.12795" lon="4.25438">
        <ele>256.328735</ele>
        <time>2015-03-26T15:53:01Z</time>
      </trkpt>
      <trkpt lat="44.12788" lon="4.25446">
        <ele>256.328735</ele>
        <time>2015-03-26T15:53:10Z</time>
      </trkpt>
      <trkpt lat="44.12781" lon="4.25455">
        <ele>256.328735</ele>
        <time>2015-03-26T15:53:18Z</time>
      </trkpt>
      <trkpt lat="44.12772" lon="4.25466">
        <ele>255.36731</ele>
        <time>2015-03-26T15:53:29Z</time>
      </trkpt>
      <trkpt lat="44.12762" lon="4.25474">
        <ele>254.406006</ele>
        <time>2015-03-26T15:53:40Z</time>
      </trkpt>
      <trkpt lat="44.12755" lon="4.2548">
        <ele>253.444702</ele>
        <time>2015-03-26T15:53:49Z</time>
      </trkpt>
      <trkpt lat="44.12751" lon="4.25487">
        <ele>252.483398</ele>
        <time>2015-03-26T15:53:55Z</time>
      </trkpt>
      <trkpt lat="44.1275" lon="4.25489">
        <ele>252.483398</ele>
        <time>2015-03-26T15:53:57Z</time>
      </trkpt>
      <trkpt lat="44.12742" lon="4.2549">
        <ele>251.522095</ele>
        <time>2015-03-26T15:54:04Z</time>
      </trkpt>
      <trkpt lat="44.12737" lon="4.25496">
        <ele>250.0802</ele>
        <time>2015-03-26T15:54:12Z</time>
      </trkpt>
      <trkpt lat="44.12726" lon="4.25498">
        <ele>250.0802</ele>
        <time>2015-03-26T15:54:19Z</time>
      </trkpt>
      <trkpt lat="44.12721" lon="4.25502">
        <ele>249.118774</ele>
        <time>2015-03-26T15:54:25Z</time>
      </trkpt>
      <trkpt lat="44.12711" lon="4.25508">
        <ele>248.157593</ele>
        <time>2015-03-26T15:54:36Z</time>
      </trkpt>
      <trkpt lat="44.127" lon="4.25514">
        <ele>247.196045</ele>
        <time>2015-03-26T15:54:45Z</time>
      </trkpt>
      <trkpt lat="44.12696" lon="4.25516">
        <ele>246.715454</ele>
        <time>2015-03-26T15:54:48Z</time>
      </trkpt>
      <trkpt lat="44.12688" lon="4.25521">
        <ele>245.75415</ele>
        <time>2015-03-26T15:54:57Z</time>
      </trkpt>
      <trkpt lat="44.12682" lon="4.25521">
        <ele>245.273438</ele>
        <time>2015-03-26T15:55:06Z</time>
      </trkpt>
      <trkpt lat="44.12675" lon="4.2552">
        <ele>244.312256</ele>
        <time>2015-03-26T15:55:12Z</time>
      </trkpt>
      <trkpt lat="44.12661" lon="4.25519">
        <ele>243.35083</ele>
        <time>2015-03-26T15:55:19Z</time>
      </trkpt>
      <trkpt lat="44.12651" lon="4.25518">
        <ele>242.870239</ele>
        <time>2015-03-26T15:55:29Z</time>
      </trkpt>
      <trkpt lat="44.12645" lon="4.25513">
        <ele>242.389648</ele>
        <time>2015-03-26T15:55:38Z</time>
      </trkpt>
      <trkpt lat="44.12643" lon="4.25511">
        <ele>241.908936</ele>
        <time>2015-03-26T15:55:48Z</time>
      </trkpt>
      <trkpt lat="44.12644" lon="4.2551">
        <ele>241.908936</ele>
        <time>2015-03-26T15:56:20Z</time>
      </trkpt>
      <trkpt lat="44.12643" lon="4.25503">
        <ele>242.389648</ele>
        <time>2015-03-26T15:57:06Z</time>
      </trkpt>
      <trkpt lat="44.12644" lon="4.25495">
        <ele>242.389648</ele>
        <time>2015-03-26T15:57:15Z</time>
      </trkpt>
      <trkpt lat="44.12639" lon="4.25499">
        <ele>242.870239</ele>
        <time>2015-03-26T15:57:22Z</time>
      </trkpt>
      <trkpt lat="44.12635" lon="4.25507">
        <ele>243.831543</ele>
        <time>2015-03-26T15:57:30Z</time>
      </trkpt>
      <trkpt lat="44.12635" lon="4.25515">
        <ele>244.792847</ele>
        <time>2015-03-26T15:57:38Z</time>
      </trkpt>
      <trkpt lat="44.12635" lon="4.25517">
        <ele>244.792847</ele>
        <time>2015-03-26T15:57:40Z</time>
      </trkpt>
      <trkpt lat="44.12637" lon="4.25523">
        <ele>245.273438</ele>
        <time>2015-03-26T15:57:45Z</time>
      </trkpt>
      <trkpt lat="44.12638" lon="4.2553">
        <ele>246.234863</ele>
        <time>2015-03-26T15:57:52Z</time>
      </trkpt>
      <trkpt lat="44.12639" lon="4.25537">
        <ele>246.715454</ele>
        <time>2015-03-26T15:57:58Z</time>
      </trkpt>
      <trkpt lat="44.12641" lon="4.25537">
        <ele>246.715454</ele>
        <time>2015-03-26T15:57:59Z</time>
      </trkpt>
      <trkpt lat="44.12642" lon="4.25547">
        <ele>247.676758</ele>
        <time>2015-03-26T15:58:05Z</time>
      </trkpt>
      <trkpt lat="44.12641" lon="4.25553">
        <ele>248.157593</ele>
        <time>2015-03-26T15:58:09Z</time>
      </trkpt>
      <trkpt lat="44.12639" lon="4.25565">
        <ele>249.599487</ele>
        <time>2015-03-26T15:58:17Z</time>
      </trkpt>
      <trkpt lat="44.12638" lon="4.25568">
        <ele>250.560791</ele>
        <time>2015-03-26T15:58:21Z</time>
      </trkpt>
      <trkpt lat="44.12637" lon="4.25573">
        <ele>250.560791</ele>
        <time>2015-03-26T15:58:24Z</time>
      </trkpt>
      <trkpt lat="44.12635" lon="4.25584">
        <ele>251.522095</ele>
        <time>2015-03-26T15:58:34Z</time>
      </trkpt>
      <trkpt lat="44.12635" lon="4.25585">
        <ele>252.002808</ele>
        <time>2015-03-26T15:58:35Z</time>
      </trkpt>
      <trkpt lat="44.12632" lon="4.25593">
        <ele>252.483398</ele>
        <time>2015-03-26T15:58:42Z</time>
      </trkpt>
      <trkpt lat="44.12632" lon="4.256">
        <ele>252.963989</ele>
        <time>2015-03-26T15:58:47Z</time>
      </trkpt>
      <trkpt lat="44.1263" lon="4.25607">
        <ele>253.925415</ele>
        <time>2015-03-26T15:58:53Z</time>
      </trkpt>
      <trkpt lat="44.12629" lon="4.25613">
        <ele>254.406006</ele>
        <time>2015-03-26T15:58:57Z</time>
      </trkpt>
      <trkpt lat="44.12626" lon="4.25621">
        <ele>254.886597</ele>
        <time>2015-03-26T15:59:04Z</time>
      </trkpt>
      <trkpt lat="44.12623" lon="4.25636">
        <ele>256.328735</ele>
        <time>2015-03-26T15:59:16Z</time>
      </trkpt>
      <trkpt lat="44.12619" lon="4.25645">
        <ele>257.290039</ele>
        <time>2015-03-26T15:59:25Z</time>
      </trkpt>
      <trkpt lat="44.12617" lon="4.25649">
        <ele>257.290039</ele>
        <time>2015-03-26T15:59:28Z</time>
      </trkpt>
      <trkpt lat="44.12608" lon="4.25659">
        <ele>258.251343</ele>
        <time>2015-03-26T15:59:40Z</time>
      </trkpt>
      <trkpt lat="44.12601" lon="4.25664">
        <ele>259.212646</ele>
        <time>2015-03-26T15:59:50Z</time>
      </trkpt>
      <trkpt lat="44.12593" lon="4.25669">
        <ele>259.693359</ele>
        <time>2015-03-26T15:59:58Z</time>
      </trkpt>
      <trkpt lat="44.12592" lon="4.25669">
        <ele>260.17395</ele>
        <time>2015-03-26T15:59:59Z</time>
      </trkpt>
      <trkpt lat="44.1258" lon="4.25673">
        <ele>260.654541</ele>
        <time>2015-03-26T16:00:11Z</time>
      </trkpt>
      <trkpt lat="44.12571" lon="4.25677">
        <ele>261.615967</ele>
        <time>2015-03-26T16:00:20Z</time>
      </trkpt>
      <trkpt lat="44.12568" lon="4.25679">
        <ele>262.096558</ele>
        <time>2015-03-26T16:00:23Z</time>
      </trkpt>
      <trkpt lat="44.12559" lon="4.25689">
        <ele>262.577148</ele>
        <time>2015-03-26T16:00:34Z</time>
      </trkpt>
      <trkpt lat="44.12554" lon="4.25697">
        <ele>263.538574</ele>
        <time>2015-03-26T16:00:42Z</time>
      </trkpt>
      <trkpt lat="44.12544" lon="4.25706">
        <ele>264.019287</ele>
        <time>2015-03-26T16:00:53Z</time>
      </trkpt>
      <trkpt lat="44.12538" lon="4.25712">
        <ele>264.499878</ele>
        <time>2015-03-26T16:01:03Z</time>
      </trkpt>
      <trkpt lat="44.12531" lon="4.25717">
        <ele>265.461304</ele>
        <time>2015-03-26T16:01:11Z</time>
      </trkpt>
      <trkpt lat="44.12523" lon="4.25723">
        <ele>266.422485</ele>
        <time>2015-03-26T16:01:21Z</time>
      </trkpt>
      <trkpt lat="44.12517" lon="4.25726">
        <ele>267.383911</ele>
        <time>2015-03-26T16:01:29Z</time>
      </trkpt>
      <trkpt lat="44.12511" lon="4.25727">
        <ele>267.864502</ele>
        <time>2015-03-26T16:01:36Z</time>
      </trkpt>
      <trkpt lat="44.12501" lon="4.2573">
        <ele>268.825806</ele>
        <time>2015-03-26T16:01:46Z</time>
      </trkpt>
      <trkpt lat="44.12491" lon="4.25732">
        <ele>269.306519</ele>
        <time>2015-03-26T16:01:56Z</time>
      </trkpt>
      <trkpt lat="44.12484" lon="4.25734">
        <ele>270.2677</ele>
        <time>2015-03-26T16:02:04Z</time>
      </trkpt>
      <trkpt lat="44.12473" lon="4.25737">
        <ele>271.229126</ele>
        <time>2015-03-26T16:02:14Z</time>
      </trkpt>
      <trkpt lat="44.12461" lon="4.2574">
        <ele>272.19043</ele>
        <time>2015-03-26T16:02:26Z</time>
      </trkpt>
      <trkpt lat="44.12453" lon="4.25741">
        <ele>273.632446</ele>
        <time>2015-03-26T16:02:36Z</time>
      </trkpt>
      <trkpt lat="44.12446" lon="4.25743">
        <ele>273.632446</ele>
        <time>2015-03-26T16:02:43Z</time>
      </trkpt>
      <trkpt lat="44.12438" lon="4.25749">
        <ele>274.59375</ele>
        <time>2015-03-26T16:02:53Z</time>
      </trkpt>
      <trkpt lat="44.12435" lon="4.25752">
        <ele>275.074463</ele>
        <time>2015-03-26T16:02:57Z</time>
      </trkpt>
      <trkpt lat="44.12426" lon="4.25761">
        <ele>276.99707</ele>
        <time>2015-03-26T16:03:09Z</time>
      </trkpt>
      <trkpt lat="44.12419" lon="4.25768">
        <ele>277.477661</ele>
        <time>2015-03-26T16:03:19Z</time>
      </trkpt>
      <trkpt lat="44.12411" lon="4.25776">
        <ele>278.438965</ele>
        <time>2015-03-26T16:03:30Z</time>
      </trkpt>
      <trkpt lat="44.12405" lon="4.25785">
        <ele>279.880859</ele>
        <time>2015-03-26T16:03:40Z</time>
      </trkpt>
      <trkpt lat="44.12401" lon="4.25797">
        <ele>280.361694</ele>
        <time>2015-03-26T16:03:50Z</time>
      </trkpt>
      <trkpt lat="44.12399" lon="4.2581">
        <ele>281.322998</ele>
        <time>2015-03-26T16:04:01Z</time>
      </trkpt>
      <trkpt lat="44.12399" lon="4.2582">
        <ele>282.765015</ele>
        <time>2015-03-26T16:04:09Z</time>
      </trkpt>
      <trkpt lat="44.12398" lon="4.25833">
        <ele>283.726196</ele>
        <time>2015-03-26T16:04:19Z</time>
      </trkpt>
      <trkpt lat="44.12397" lon="4.25848">
        <ele>284.206909</ele>
        <time>2015-03-26T16:04:29Z</time>
      </trkpt>
      <trkpt lat="44.12396" lon="4.2585">
        <ele>284.687622</ele>
        <time>2015-03-26T16:04:31Z</time>
      </trkpt>
      <trkpt lat="44.12395" lon="4.25862">
        <ele>284.687622</ele>
        <time>2015-03-26T16:04:39Z</time>
      </trkpt>
      <trkpt lat="44.12395" lon="4.25864">
        <ele>285.168213</ele>
        <time>2015-03-26T16:04:40Z</time>
      </trkpt>
      <trkpt lat="44.1239" lon="4.25876">
        <ele>285.648804</ele>
        <time>2015-03-26T16:04:50Z</time>
      </trkpt>
      <trkpt lat="44.12387" lon="4.25889">
        <ele>286.610229</ele>
        <time>2015-03-26T16:04:59Z</time>
      </trkpt>
      <trkpt lat="44.12384" lon="4.259">
        <ele>287.09082</ele>
        <time>2015-03-26T16:05:08Z</time>
      </trkpt>
      <trkpt lat="44.12381" lon="4.25912">
        <ele>288.052246</ele>
        <time>2015-03-26T16:05:17Z</time>
      </trkpt>
      <trkpt lat="44.12377" lon="4.25926">
        <ele>288.532959</ele>
        <time>2015-03-26T16:05:26Z</time>
      </trkpt>
      <trkpt lat="44.12376" lon="4.25943">
        <ele>290.455566</ele>
        <time>2015-03-26T16:05:39Z</time>
      </trkpt>
      <trkpt lat="44.12374" lon="4.25958">
        <ele>291.897461</ele>
        <time>2015-03-26T16:05:49Z</time>
      </trkpt>
      <trkpt lat="44.1237" lon="4.25963">
        <ele>292.378174</ele>
        <time>2015-03-26T16:05:55Z</time>
      </trkpt>
      <trkpt lat="44.12366" lon="4.25955">
        <ele>292.858765</ele>
        <time>2015-03-26T16:06:03Z</time>
      </trkpt>
      <trkpt lat="44.12365" lon="4.25951">
        <ele>294.300781</ele>
        <time>2015-03-26T16:06:06Z</time>
      </trkpt>
      <trkpt lat="44.12363" lon="4.25931">
        <ele>294.300781</ele>
        <time>2015-03-26T16:06:19Z</time>
      </trkpt>
      <trkpt lat="44.12361" lon="4.25913">
        <ele>294.781372</ele>
        <time>2015-03-26T16:06:31Z</time>
      </trkpt>
      <trkpt lat="44.12355" lon="4.259">
        <ele>294.781372</ele>
        <time>2015-03-26T16:06:42Z</time>
      </trkpt>
      <trkpt lat="44.12349" lon="4.25886">
        <ele>295.742676</ele>
        <time>2015-03-26T16:06:53Z</time>
      </trkpt>
      <trkpt lat="44.1234" lon="4.25875">
        <ele>296.223511</ele>
        <time>2015-03-26T16:07:05Z</time>
      </trkpt>
      <trkpt lat="44.12334" lon="4.25871">
        <ele>296.704102</ele>
        <time>2015-03-26T16:07:12Z</time>
      </trkpt>
      <trkpt lat="44.12322" lon="4.25871">
        <ele>296.704102</ele>
        <time>2015-03-26T16:07:23Z</time>
      </trkpt>
      <trkpt lat="44.12309" lon="4.25885">
        <ele>297.665405</ele>
        <time>2015-03-26T16:07:39Z</time>
      </trkpt>
      <trkpt lat="44.12302" lon="4.25893">
        <ele>297.665405</ele>
        <time>2015-03-26T16:07:47Z</time>
      </trkpt>
      <trkpt lat="44.12296" lon="4.25904">
        <ele>299.1073</ele>
        <time>2015-03-26T16:07:59Z</time>
      </trkpt>
      <trkpt lat="44.12291" lon="4.25917">
        <ele>300.549316</ele>
        <time>2015-03-26T16:08:10Z</time>
      </trkpt>
      <trkpt lat="44.12285" lon="4.25932">
        <ele>301.029907</ele>
        <time>2015-03-26T16:08:21Z</time>
      </trkpt>
      <trkpt lat="44.12279" lon="4.25944">
        <ele>301.51062</ele>
        <time>2015-03-26T16:08:33Z</time>
      </trkpt>
      <trkpt lat="44.12275" lon="4.25956">
        <ele>302.471924</ele>
        <time>2015-03-26T16:08:43Z</time>
      </trkpt>
      <trkpt lat="44.12269" lon="4.25969">
        <ele>303.433228</ele>
        <time>2015-03-26T16:08:54Z</time>
      </trkpt>
      <trkpt lat="44.12264" lon="4.25976">
        <ele>303.91394</ele>
        <time>2015-03-26T16:09:04Z</time>
      </trkpt>
      <trkpt lat="44.12258" lon="4.25992">
        <ele>304.875244</ele>
        <time>2015-03-26T16:09:16Z</time>
      </trkpt>
      <trkpt lat="44.12252" lon="4.26005">
        <ele>305.355957</ele>
        <time>2015-03-26T16:09:25Z</time>
      </trkpt>
      <trkpt lat="44.12244" lon="4.26019">
        <ele>305.83667</ele>
        <time>2015-03-26T16:09:35Z</time>
      </trkpt>
      <trkpt lat="44.12236" lon="4.26026">
        <ele>305.355957</ele>
        <time>2015-03-26T16:09:45Z</time>
      </trkpt>
      <trkpt lat="44.12224" lon="4.2603">
        <ele>305.355957</ele>
        <time>2015-03-26T16:09:57Z</time>
      </trkpt>
      <trkpt lat="44.12213" lon="4.26032">
        <ele>304.394653</ele>
        <time>2015-03-26T16:10:06Z</time>
      </trkpt>
      <trkpt lat="44.12208" lon="4.26035">
        <ele>303.91394</ele>
        <time>2015-03-26T16:10:13Z</time>
      </trkpt>
      <trkpt lat="44.12202" lon="4.26035">
        <ele>303.91394</ele>
        <time>2015-03-26T16:10:18Z</time>
      </trkpt>
      <trkpt lat="44.12192" lon="4.26039">
        <ele>303.91394</ele>
        <time>2015-03-26T16:10:29Z</time>
      </trkpt>
      <trkpt lat="44.12191" lon="4.26039">
        <ele>303.91394</ele>
        <time>2015-03-26T16:10:31Z</time>
      </trkpt>
      <trkpt lat="44.12182" lon="4.26043">
        <ele>304.875244</ele>
        <time>2015-03-26T16:10:41Z</time>
      </trkpt>
      <trkpt lat="44.12172" lon="4.26043">
        <ele>305.355957</ele>
        <time>2015-03-26T16:10:51Z</time>
      </trkpt>
      <trkpt lat="44.12166" lon="4.26044">
        <ele>306.317261</ele>
        <time>2015-03-26T16:10:57Z</time>
      </trkpt>
      <trkpt lat="44.12159" lon="4.26047">
        <ele>306.797852</ele>
        <time>2015-03-26T16:11:04Z</time>
      </trkpt>
      <trkpt lat="44.12151" lon="4.26049">
        <ele>308.239868</ele>
        <time>2015-03-26T16:11:13Z</time>
      </trkpt>
      <trkpt lat="44.1214" lon="4.26052">
        <ele>309.201172</ele>
        <time>2015-03-26T16:11:24Z</time>
      </trkpt>
      <trkpt lat="44.12134" lon="4.26059">
        <ele>310.162476</ele>
        <time>2015-03-26T16:11:33Z</time>
      </trkpt>
      <trkpt lat="44.1213" lon="4.26061">
        <ele>310.643066</ele>
        <time>2015-03-26T16:11:38Z</time>
      </trkpt>
      <trkpt lat="44.1212" lon="4.26063">
        <ele>311.604492</ele>
        <time>2015-03-26T16:11:47Z</time>
      </trkpt>
      <trkpt lat="44.12114" lon="4.26066">
        <ele>312.565796</ele>
        <time>2015-03-26T16:11:56Z</time>
      </trkpt>
      <trkpt lat="44.12112" lon="4.26066">
        <ele>313.046509</ele>
        <time>2015-03-26T16:11:58Z</time>
      </trkpt>
      <trkpt lat="44.121" lon="4.26073">
        <ele>314.488403</ele>
        <time>2015-03-26T16:12:11Z</time>
      </trkpt>
      <trkpt lat="44.12095" lon="4.26074">
        <ele>314.488403</ele>
        <time>2015-03-26T16:12:15Z</time>
      </trkpt>
      <trkpt lat="44.12091" lon="4.2608">
        <ele>315.449829</ele>
        <time>2015-03-26T16:12:21Z</time>
      </trkpt>
      <trkpt lat="44.1209" lon="4.2608">
        <ele>315.449829</ele>
        <time>2015-03-26T16:12:23Z</time>
      </trkpt>
      <trkpt lat="44.12081" lon="4.26091">
        <ele>317.372437</ele>
        <time>2015-03-26T16:12:35Z</time>
      </trkpt>
      <trkpt lat="44.12081" lon="4.26092">
        <ele>317.372437</ele>
        <time>2015-03-26T16:12:36Z</time>
      </trkpt>
      <trkpt lat="44.12078" lon="4.26104">
        <ele>318.333618</ele>
        <time>2015-03-26T16:12:48Z</time>
      </trkpt>
      <trkpt lat="44.12077" lon="4.26116">
        <ele>318.814331</ele>
        <time>2015-03-26T16:12:57Z</time>
      </trkpt>
      <trkpt lat="44.12076" lon="4.26127">
        <ele>320.737061</ele>
        <time>2015-03-26T16:13:06Z</time>
      </trkpt>
      <trkpt lat="44.12073" lon="4.26133">
        <ele>321.698364</ele>
        <time>2015-03-26T16:13:13Z</time>
      </trkpt>
      <trkpt lat="44.12069" lon="4.26136">
        <ele>322.659668</ele>
        <time>2015-03-26T16:13:18Z</time>
      </trkpt>
      <trkpt lat="44.12055" lon="4.26141">
        <ele>323.620972</ele>
        <time>2015-03-26T16:13:31Z</time>
      </trkpt>
      <trkpt lat="44.12046" lon="4.26142">
        <ele>323.620972</ele>
        <time>2015-03-26T16:13:41Z</time>
      </trkpt>
      <trkpt lat="44.12043" lon="4.26143">
        <ele>323.620972</ele>
        <time>2015-03-26T16:13:44Z</time>
      </trkpt>
      <trkpt lat="44.12033" lon="4.26146">
        <ele>324.582275</ele>
        <time>2015-03-26T16:13:54Z</time>
      </trkpt>
      <trkpt lat="44.12027" lon="4.26149">
        <ele>325.062988</ele>
        <time>2015-03-26T16:14:01Z</time>
      </trkpt>
      <trkpt lat="44.12021" lon="4.26153">
        <ele>325.543579</ele>
        <time>2015-03-26T16:14:09Z</time>
      </trkpt>
      <trkpt lat="44.12015" lon="4.26154">
        <ele>326.504883</ele>
        <time>2015-03-26T16:14:16Z</time>
      </trkpt>
      <trkpt lat="44.12005" lon="4.26158">
        <ele>327.466187</ele>
        <time>2015-03-26T16:14:27Z</time>
      </trkpt>
      <trkpt lat="44.12004" lon="4.26158">
        <ele>327.466187</ele>
        <time>2015-03-26T16:14:28Z</time>
      </trkpt>
      <trkpt lat="44.12001" lon="4.2616">
        <ele>327.946777</ele>
        <time>2015-03-26T16:14:31Z</time>
      </trkpt>
      <trkpt lat="44.11994" lon="4.26164">
        <ele>327.946777</ele>
        <time>2015-03-26T16:14:38Z</time>
      </trkpt>
      <trkpt lat="44.11989" lon="4.2617">
        <ele>328.427612</ele>
        <time>2015-03-26T16:14:46Z</time>
      </trkpt>
      <trkpt lat="44.11984" lon="4.26175">
        <ele>329.388916</ele>
        <time>2015-03-26T16:14:53Z</time>
      </trkpt>
      <trkpt lat="44.11975" lon="4.26182">
        <ele>329.869507</ele>
        <time>2015-03-26T16:15:02Z</time>
      </trkpt>
      <trkpt lat="44.1197" lon="4.26184">
        <ele>330.35022</ele>
        <time>2015-03-26T16:15:07Z</time>
      </trkpt>
      <trkpt lat="44.11957" lon="4.26195">
        <ele>332.272827</ele>
        <time>2015-03-26T16:15:20Z</time>
      </trkpt>
      <trkpt lat="44.11949" lon="4.26199">
        <ele>333.234131</ele>
        <time>2015-03-26T16:15:30Z</time>
      </trkpt>
      <trkpt lat="44.11937" lon="4.26206">
        <ele>334.676147</ele>
        <time>2015-03-26T16:15:43Z</time>
      </trkpt>
      <trkpt lat="44.11934" lon="4.2621">
        <ele>334.676147</ele>
        <time>2015-03-26T16:15:47Z</time>
      </trkpt>
      <trkpt lat="44.11925" lon="4.26218">
        <ele>335.156738</ele>
        <time>2015-03-26T16:15:57Z</time>
      </trkpt>
      <trkpt lat="44.11923" lon="4.26221">
        <ele>335.637329</ele>
        <time>2015-03-26T16:16:01Z</time>
      </trkpt>
      <trkpt lat="44.11913" lon="4.26236">
        <ele>335.637329</ele>
        <time>2015-03-26T16:16:15Z</time>
      </trkpt>
      <trkpt lat="44.11908" lon="4.26247">
        <ele>336.118164</ele>
        <time>2015-03-26T16:16:25Z</time>
      </trkpt>
      <trkpt lat="44.11903" lon="4.2626">
        <ele>336.598877</ele>
        <time>2015-03-26T16:16:35Z</time>
      </trkpt>
      <trkpt lat="44.11897" lon="4.26273">
        <ele>336.598877</ele>
        <time>2015-03-26T16:16:46Z</time>
      </trkpt>
      <trkpt lat="44.11894" lon="4.2628">
        <ele>336.598877</ele>
        <time>2015-03-26T16:16:52Z</time>
      </trkpt>
      <trkpt lat="44.11889" lon="4.2629">
        <ele>336.598877</ele>
        <time>2015-03-26T16:17:02Z</time>
      </trkpt>
      <trkpt lat="44.11889" lon="4.26292">
        <ele>336.598877</ele>
        <time>2015-03-26T16:17:03Z</time>
      </trkpt>
      <trkpt lat="44.11886" lon="4.26297">
        <ele>336.118164</ele>
        <time>2015-03-26T16:17:08Z</time>
      </trkpt>
      <trkpt lat="44.11884" lon="4.26309">
        <ele>336.598877</ele>
        <time>2015-03-26T16:17:18Z</time>
      </trkpt>
      <trkpt lat="44.11884" lon="4.26318">
        <ele>336.598877</ele>
        <time>2015-03-26T16:17:26Z</time>
      </trkpt>
      <trkpt lat="44.11881" lon="4.26328">
        <ele>336.598877</ele>
        <time>2015-03-26T16:17:33Z</time>
      </trkpt>
      <trkpt lat="44.11877" lon="4.26343">
        <ele>336.598877</ele>
        <time>2015-03-26T16:17:42Z</time>
      </trkpt>
      <trkpt lat="44.11871" lon="4.26362">
        <ele>336.598877</ele>
        <time>2015-03-26T16:17:54Z</time>
      </trkpt>
      <trkpt lat="44.11869" lon="4.26376">
        <ele>336.118164</ele>
        <time>2015-03-26T16:18:05Z</time>
      </trkpt>
      <trkpt lat="44.11866" lon="4.26388">
        <ele>335.637329</ele>
        <time>2015-03-26T16:18:15Z</time>
      </trkpt>
      <trkpt lat="44.11861" lon="4.26399">
        <ele>335.637329</ele>
        <time>2015-03-26T16:18:24Z</time>
      </trkpt>
      <trkpt lat="44.11857" lon="4.26416">
        <ele>335.156738</ele>
        <time>2015-03-26T16:18:37Z</time>
      </trkpt>
      <trkpt lat="44.11854" lon="4.26429">
        <ele>335.156738</ele>
        <time>2015-03-26T16:18:45Z</time>
      </trkpt>
      <trkpt lat="44.11851" lon="4.2644">
        <ele>335.156738</ele>
        <time>2015-03-26T16:18:53Z</time>
      </trkpt>
      <trkpt lat="44.11848" lon="4.26454">
        <ele>334.676147</ele>
        <time>2015-03-26T16:19:04Z</time>
      </trkpt>
      <trkpt lat="44.11846" lon="4.26471">
        <ele>333.714722</ele>
        <time>2015-03-26T16:19:15Z</time>
      </trkpt>
      <trkpt lat="44.11848" lon="4.26486">
        <ele>333.234131</ele>
        <time>2015-03-26T16:19:25Z</time>
      </trkpt>
      <trkpt lat="44.11849" lon="4.26488">
        <ele>333.234131</ele>
        <time>2015-03-26T16:19:27Z</time>
      </trkpt>
      <trkpt lat="44.1185" lon="4.26491">
        <ele>332.75354</ele>
        <time>2015-03-26T16:19:29Z</time>
      </trkpt>
      <trkpt lat="44.11856" lon="4.26504">
        <ele>331.311523</ele>
        <time>2015-03-26T16:19:41Z</time>
      </trkpt>
      <trkpt lat="44.11862" lon="4.26528">
        <ele>331.311523</ele>
        <time>2015-03-26T16:19:55Z</time>
      </trkpt>
      <trkpt lat="44.11864" lon="4.26532">
        <ele>330.35022</ele>
        <time>2015-03-26T16:19:58Z</time>
      </trkpt>
      <trkpt lat="44.11866" lon="4.26534">
        <ele>329.869507</ele>
        <time>2015-03-26T16:20:00Z</time>
      </trkpt>
      <trkpt lat="44.11869" lon="4.26542">
        <ele>330.35022</ele>
        <time>2015-03-26T16:20:06Z</time>
      </trkpt>
      <trkpt lat="44.1187" lon="4.26553">
        <ele>329.388916</ele>
        <time>2015-03-26T16:20:14Z</time>
      </trkpt>
      <trkpt lat="44.11867" lon="4.2656">
        <ele>328.908325</ele>
        <time>2015-03-26T16:20:22Z</time>
      </trkpt>
      <trkpt lat="44.11863" lon="4.26566">
        <ele>328.908325</ele>
        <time>2015-03-26T16:20:26Z</time>
      </trkpt>
      <trkpt lat="44.11854" lon="4.26572">
        <ele>327.946777</ele>
        <time>2015-03-26T16:20:37Z</time>
      </trkpt>
      <trkpt lat="44.11848" lon="4.26576">
        <ele>326.985596</ele>
        <time>2015-03-26T16:20:46Z</time>
      </trkpt>
      <trkpt lat="44.11846" lon="4.26576">
        <ele>326.985596</ele>
        <time>2015-03-26T16:20:48Z</time>
      </trkpt>
      <trkpt lat="44.11839" lon="4.2658">
        <ele>325.062988</ele>
        <time>2015-03-26T16:20:55Z</time>
      </trkpt>
      <trkpt lat="44.11838" lon="4.26581">
        <ele>325.062988</ele>
        <time>2015-03-26T16:20:57Z</time>
      </trkpt>
      <trkpt lat="44.11825" lon="4.26585">
        <ele>323.620972</ele>
        <time>2015-03-26T16:21:08Z</time>
      </trkpt>
      <trkpt lat="44.1182" lon="4.26586">
        <ele>323.140381</ele>
        <time>2015-03-26T16:21:13Z</time>
      </trkpt>
      <trkpt lat="44.1181" lon="4.2659">
        <ele>322.659668</ele>
        <time>2015-03-26T16:21:23Z</time>
      </trkpt>
      <trkpt lat="44.118" lon="4.26596">
        <ele>321.698364</ele>
        <time>2015-03-26T16:21:34Z</time>
      </trkpt>
      <trkpt lat="44.1179" lon="4.266">
        <ele>320.737061</ele>
        <time>2015-03-26T16:21:45Z</time>
      </trkpt>
      <trkpt lat="44.11781" lon="4.26607">
        <ele>319.775635</ele>
        <time>2015-03-26T16:21:56Z</time>
      </trkpt>
      <trkpt lat="44.1178" lon="4.26613">
        <ele>319.775635</ele>
        <time>2015-03-26T16:22:01Z</time>
      </trkpt>
      <trkpt lat="44.11778" lon="4.26627">
        <ele>319.295044</ele>
        <time>2015-03-26T16:22:11Z</time>
      </trkpt>
      <trkpt lat="44.11778" lon="4.26641">
        <ele>317.372437</ele>
        <time>2015-03-26T16:22:23Z</time>
      </trkpt>
      <trkpt lat="44.11778" lon="4.26652">
        <ele>316.411011</ele>
        <time>2015-03-26T16:22:32Z</time>
      </trkpt>
      <trkpt lat="44.11776" lon="4.26664">
        <ele>314.969116</ele>
        <time>2015-03-26T16:22:42Z</time>
      </trkpt>
      <trkpt lat="44.11775" lon="4.26676">
        <ele>314.488403</ele>
        <time>2015-03-26T16:22:51Z</time>
      </trkpt>
      <trkpt lat="44.11776" lon="4.26694">
        <ele>313.046509</ele>
        <time>2015-03-26T16:23:04Z</time>
      </trkpt>
      <trkpt lat="44.11779" lon="4.26706">
        <ele>312.565796</ele>
        <time>2015-03-26T16:23:15Z</time>
      </trkpt>
      <trkpt lat="44.11779" lon="4.26711">
        <ele>312.085205</ele>
        <time>2015-03-26T16:23:18Z</time>
      </trkpt>
      <trkpt lat="44.1178" lon="4.26722">
        <ele>311.604492</ele>
        <time>2015-03-26T16:23:24Z</time>
      </trkpt>
      <trkpt lat="44.11783" lon="4.2673">
        <ele>310.643066</ele>
        <time>2015-03-26T16:23:32Z</time>
      </trkpt>
      <trkpt lat="44.11785" lon="4.26741">
        <ele>310.162476</ele>
        <time>2015-03-26T16:23:40Z</time>
      </trkpt>
      <trkpt lat="44.11786" lon="4.26757">
        <ele>308.720459</ele>
        <time>2015-03-26T16:23:51Z</time>
      </trkpt>
      <trkpt lat="44.11785" lon="4.2677">
        <ele>307.759277</ele>
        <time>2015-03-26T16:24:01Z</time>
      </trkpt>
      <trkpt lat="44.11785" lon="4.26786">
        <ele>306.317261</ele>
        <time>2015-03-26T16:24:11Z</time>
      </trkpt>
      <trkpt lat="44.11785" lon="4.26791">
        <ele>305.83667</ele>
        <time>2015-03-26T16:24:15Z</time>
      </trkpt>
      <trkpt lat="44.11785" lon="4.26796">
        <ele>305.355957</ele>
        <time>2015-03-26T16:24:19Z</time>
      </trkpt>
      <trkpt lat="44.11781" lon="4.26807">
        <ele>305.355957</ele>
        <time>2015-03-26T16:24:28Z</time>
      </trkpt>
      <trkpt lat="44.11779" lon="4.2682">
        <ele>304.394653</ele>
        <time>2015-03-26T16:24:38Z</time>
      </trkpt>
      <trkpt lat="44.11777" lon="4.26831">
        <ele>303.433228</ele>
        <time>2015-03-26T16:24:46Z</time>
      </trkpt>
      <trkpt lat="44.11771" lon="4.26842">
        <ele>302.952515</ele>
        <time>2015-03-26T16:24:56Z</time>
      </trkpt>
      <trkpt lat="44.11769" lon="4.26853">
        <ele>301.51062</ele>
        <time>2015-03-26T16:25:06Z</time>
      </trkpt>
      <trkpt lat="44.11767" lon="4.26866">
        <ele>300.549316</ele>
        <time>2015-03-26T16:25:15Z</time>
      </trkpt>
      <trkpt lat="44.11765" lon="4.2688">
        <ele>299.1073</ele>
        <time>2015-03-26T16:25:24Z</time>
      </trkpt>
      <trkpt lat="44.11763" lon="4.26891">
        <ele>298.626709</ele>
        <time>2015-03-26T16:25:32Z</time>
      </trkpt>
      <trkpt lat="44.11763" lon="4.26901">
        <ele>297.665405</ele>
        <time>2015-03-26T16:25:39Z</time>
      </trkpt>
      <trkpt lat="44.11761" lon="4.26912">
        <ele>297.184692</ele>
        <time>2015-03-26T16:25:46Z</time>
      </trkpt>
      <trkpt lat="44.1176" lon="4.26915">
        <ele>296.704102</ele>
        <time>2015-03-26T16:25:49Z</time>
      </trkpt>
      <trkpt lat="44.1176" lon="4.26917">
        <ele>296.704102</ele>
        <time>2015-03-26T16:25:51Z</time>
      </trkpt>
      <trkpt lat="44.1176" lon="4.26928">
        <ele>295.742676</ele>
        <time>2015-03-26T16:25:58Z</time>
      </trkpt>
      <trkpt lat="44.11758" lon="4.26938">
        <ele>295.261963</ele>
        <time>2015-03-26T16:26:05Z</time>
      </trkpt>
      <trkpt lat="44.11756" lon="4.26955">
        <ele>294.300781</ele>
        <time>2015-03-26T16:26:17Z</time>
      </trkpt>
      <trkpt lat="44.11756" lon="4.2697">
        <ele>293.339355</ele>
        <time>2015-03-26T16:26:27Z</time>
      </trkpt>
      <trkpt lat="44.11755" lon="4.26979">
        <ele>292.858765</ele>
        <time>2015-03-26T16:26:33Z</time>
      </trkpt>
      <trkpt lat="44.11756" lon="4.2699">
        <ele>292.378174</ele>
        <time>2015-03-26T16:26:41Z</time>
      </trkpt>
      <trkpt lat="44.11757" lon="4.27005">
        <ele>290.455566</ele>
        <time>2015-03-26T16:26:53Z</time>
      </trkpt>
      <trkpt lat="44.11761" lon="4.27022">
        <ele>289.974854</ele>
        <time>2015-03-26T16:27:05Z</time>
      </trkpt>
      <trkpt lat="44.11764" lon="4.27032">
        <ele>289.494141</ele>
        <time>2015-03-26T16:27:11Z</time>
      </trkpt>
      <trkpt lat="44.11766" lon="4.27037">
        <ele>289.01355</ele>
        <time>2015-03-26T16:27:15Z</time>
      </trkpt>
      <trkpt lat="44.1177" lon="4.27046">
        <ele>288.052246</ele>
        <time>2015-03-26T16:27:24Z</time>
      </trkpt>
      <trkpt lat="44.1177" lon="4.27047">
        <ele>288.052246</ele>
        <time>2015-03-26T16:27:25Z</time>
      </trkpt>
      <trkpt lat="44.11773" lon="4.27057">
        <ele>287.09082</ele>
        <time>2015-03-26T16:27:31Z</time>
      </trkpt>
      <trkpt lat="44.11775" lon="4.27062">
        <ele>286.610229</ele>
        <time>2015-03-26T16:27:35Z</time>
      </trkpt>
      <trkpt lat="44.11781" lon="4.2707">
        <ele>286.129517</ele>
        <time>2015-03-26T16:27:44Z</time>
      </trkpt>
      <trkpt lat="44.11785" lon="4.27077">
        <ele>285.648804</ele>
        <time>2015-03-26T16:27:51Z</time>
      </trkpt>
      <trkpt lat="44.11795" lon="4.27081">
        <ele>284.206909</ele>
        <time>2015-03-26T16:28:02Z</time>
      </trkpt>
      <trkpt lat="44.11806" lon="4.27089">
        <ele>282.765015</ele>
        <time>2015-03-26T16:28:17Z</time>
      </trkpt>
      <trkpt lat="44.11815" lon="4.27105">
        <ele>281.803589</ele>
        <time>2015-03-26T16:28:30Z</time>
      </trkpt>
      <trkpt lat="44.1182" lon="4.2713">
        <ele>280.361694</ele>
        <time>2015-03-26T16:28:43Z</time>
      </trkpt>
      <trkpt lat="44.11827" lon="4.27151">
        <ele>279.400269</ele>
        <time>2015-03-26T16:28:57Z</time>
      </trkpt>
      <trkpt lat="44.11825" lon="4.27162">
        <ele>278.919678</ele>
        <time>2015-03-26T16:29:06Z</time>
      </trkpt>
      <trkpt lat="44.11822" lon="4.2717">
        <ele>278.438965</ele>
        <time>2015-03-26T16:29:13Z</time>
      </trkpt>
      <trkpt lat="44.1182" lon="4.27181">
        <ele>277.958252</ele>
        <time>2015-03-26T16:29:20Z</time>
      </trkpt>
      <trkpt lat="44.1182" lon="4.27189">
        <ele>277.477661</ele>
        <time>2015-03-26T16:29:26Z</time>
      </trkpt>
      <trkpt lat="44.11819" lon="4.27197">
        <ele>277.477661</ele>
        <time>2015-03-26T16:29:32Z</time>
      </trkpt>
      <trkpt lat="44.11818" lon="4.27208">
        <ele>276.99707</ele>
        <time>2015-03-26T16:29:39Z</time>
      </trkpt>
      <trkpt lat="44.11813" lon="4.27219">
        <ele>276.516357</ele>
        <time>2015-03-26T16:29:47Z</time>
      </trkpt>
      <trkpt lat="44.11809" lon="4.27224">
        <ele>276.516357</ele>
        <time>2015-03-26T16:29:52Z</time>
      </trkpt>
      <trkpt lat="44.11803" lon="4.27232">
        <ele>276.516357</ele>
        <time>2015-03-26T16:29:59Z</time>
      </trkpt>
      <trkpt lat="44.11802" lon="4.27237">
        <ele>276.516357</ele>
        <time>2015-03-26T16:30:03Z</time>
      </trkpt>
      <trkpt lat="44.11798" lon="4.27253">
        <ele>276.035645</ele>
        <time>2015-03-26T16:30:15Z</time>
      </trkpt>
      <trkpt lat="44.11796" lon="4.27269">
        <ele>276.516357</ele>
        <time>2015-03-26T16:30:26Z</time>
      </trkpt>
      <trkpt lat="44.11797" lon="4.27284">
        <ele>276.035645</ele>
        <time>2015-03-26T16:30:37Z</time>
      </trkpt>
      <trkpt lat="44.11797" lon="4.27297">
        <ele>276.035645</ele>
        <time>2015-03-26T16:30:46Z</time>
      </trkpt>
      <trkpt lat="44.118" lon="4.27312">
        <ele>275.555054</ele>
        <time>2015-03-26T16:30:56Z</time>
      </trkpt>
      <trkpt lat="44.11804" lon="4.27325">
        <ele>275.074463</ele>
        <time>2015-03-26T16:31:06Z</time>
      </trkpt>
      <trkpt lat="44.11807" lon="4.2734">
        <ele>275.074463</ele>
        <time>2015-03-26T16:31:15Z</time>
      </trkpt>
      <trkpt lat="44.11807" lon="4.27351">
        <ele>274.59375</ele>
        <time>2015-03-26T16:31:24Z</time>
      </trkpt>
      <trkpt lat="44.11804" lon="4.27371">
        <ele>274.113037</ele>
        <time>2015-03-26T16:31:35Z</time>
      </trkpt>
      <trkpt lat="44.118" lon="4.2738">
        <ele>273.632446</ele>
        <time>2015-03-26T16:31:43Z</time>
      </trkpt>
      <trkpt lat="44.11793" lon="4.27394">
        <ele>272.671143</ele>
        <time>2015-03-26T16:31:55Z</time>
      </trkpt>
      <trkpt lat="44.11786" lon="4.27404">
        <ele>272.19043</ele>
        <time>2015-03-26T16:32:06Z</time>
      </trkpt>
      <trkpt lat="44.11781" lon="4.27422">
        <ele>270.748413</ele>
        <time>2015-03-26T16:32:18Z</time>
      </trkpt>
      <trkpt lat="44.11777" lon="4.2744">
        <ele>269.306519</ele>
        <time>2015-03-26T16:32:32Z</time>
      </trkpt>
      <trkpt lat="44.11774" lon="4.27452">
        <ele>267.864502</ele>
        <time>2015-03-26T16:32:42Z</time>
      </trkpt>
      <trkpt lat="44.11771" lon="4.27465">
        <ele>266.903198</ele>
        <time>2015-03-26T16:32:52Z</time>
      </trkpt>
      <trkpt lat="44.11769" lon="4.27479">
        <ele>266.903198</ele>
        <time>2015-03-26T16:33:01Z</time>
      </trkpt>
      <trkpt lat="44.11767" lon="4.27492">
        <ele>265.941895</ele>
        <time>2015-03-26T16:33:10Z</time>
      </trkpt>
      <trkpt lat="44.11763" lon="4.27507">
        <ele>265.461304</ele>
        <time>2015-03-26T16:33:21Z</time>
      </trkpt>
      <trkpt lat="44.11761" lon="4.27521">
        <ele>264.499878</ele>
        <time>2015-03-26T16:33:31Z</time>
      </trkpt>
      <trkpt lat="44.11759" lon="4.27533">
        <ele>263.538574</ele>
        <time>2015-03-26T16:33:39Z</time>
      </trkpt>
      <trkpt lat="44.1176" lon="4.27547">
        <ele>263.538574</ele>
        <time>2015-03-26T16:33:48Z</time>
      </trkpt>
      <trkpt lat="44.11765" lon="4.27559">
        <ele>262.577148</ele>
        <time>2015-03-26T16:33:57Z</time>
      </trkpt>
      <trkpt lat="44.11768" lon="4.27573">
        <ele>261.135254</ele>
        <time>2015-03-26T16:34:08Z</time>
      </trkpt>
      <trkpt lat="44.11768" lon="4.27591">
        <ele>259.693359</ele>
        <time>2015-03-26T16:34:20Z</time>
      </trkpt>
      <trkpt lat="44.11767" lon="4.27602">
        <ele>259.212646</ele>
        <time>2015-03-26T16:34:28Z</time>
      </trkpt>
      <trkpt lat="44.11765" lon="4.27616">
        <ele>258.251343</ele>
        <time>2015-03-26T16:34:37Z</time>
      </trkpt>
      <trkpt lat="44.11764" lon="4.27633">
        <ele>257.290039</ele>
        <time>2015-03-26T16:34:50Z</time>
      </trkpt>
      <trkpt lat="44.11761" lon="4.27648">
        <ele>256.328735</ele>
        <time>2015-03-26T16:35:00Z</time>
      </trkpt>
      <trkpt lat="44.11758" lon="4.27661">
        <ele>255.36731</ele>
        <time>2015-03-26T16:35:08Z</time>
      </trkpt>
      <trkpt lat="44.11752" lon="4.27671">
        <ele>255.36731</ele>
        <time>2015-03-26T16:35:16Z</time>
      </trkpt>
      <trkpt lat="44.1175" lon="4.27672">
        <ele>255.36731</ele>
        <time>2015-03-26T16:35:18Z</time>
      </trkpt>
      <trkpt lat="44.11741" lon="4.27679">
        <ele>253.925415</ele>
        <time>2015-03-26T16:35:29Z</time>
      </trkpt>
      <trkpt lat="44.1173" lon="4.27683">
        <ele>252.963989</ele>
        <time>2015-03-26T16:35:41Z</time>
      </trkpt>
      <trkpt lat="44.11717" lon="4.27684">
        <ele>251.522095</ele>
        <time>2015-03-26T16:35:53Z</time>
      </trkpt>
      <trkpt lat="44.1171" lon="4.27688">
        <ele>251.041382</ele>
        <time>2015-03-26T16:36:02Z</time>
      </trkpt>
      <trkpt lat="44.11706" lon="4.27689">
        <ele>250.560791</ele>
        <time>2015-03-26T16:36:05Z</time>
      </trkpt>
      <trkpt lat="44.11697" lon="4.27695">
        <ele>249.118774</ele>
        <time>2015-03-26T16:36:15Z</time>
      </trkpt>
      <trkpt lat="44.11693" lon="4.27711">
        <ele>247.676758</ele>
        <time>2015-03-26T16:36:27Z</time>
      </trkpt>
      <trkpt lat="44.11691" lon="4.27715">
        <ele>247.196045</ele>
        <time>2015-03-26T16:36:31Z</time>
      </trkpt>
      <trkpt lat="44.11687" lon="4.27727">
        <ele>246.234863</ele>
        <time>2015-03-26T16:36:41Z</time>
      </trkpt>
      <trkpt lat="44.11686" lon="4.27729">
        <ele>245.273438</ele>
        <time>2015-03-26T16:36:43Z</time>
      </trkpt>
      <trkpt lat="44.11684" lon="4.27741">
        <ele>244.792847</ele>
        <time>2015-03-26T16:36:52Z</time>
      </trkpt>
      <trkpt lat="44.11683" lon="4.27741">
        <ele>244.312256</ele>
        <time>2015-03-26T16:36:53Z</time>
      </trkpt>
      <trkpt lat="44.11677" lon="4.27755">
        <ele>244.312256</ele>
        <time>2015-03-26T16:37:04Z</time>
      </trkpt>
      <trkpt lat="44.11675" lon="4.27769">
        <ele>244.792847</ele>
        <time>2015-03-26T16:37:13Z</time>
      </trkpt>
      <trkpt lat="44.11674" lon="4.27771">
        <ele>244.312256</ele>
        <time>2015-03-26T16:37:15Z</time>
      </trkpt>
      <trkpt lat="44.11673" lon="4.27774">
        <ele>244.312256</ele>
        <time>2015-03-26T16:37:17Z</time>
      </trkpt>
      <trkpt lat="44.1167" lon="4.27789">
        <ele>244.792847</ele>
        <time>2015-03-26T16:37:27Z</time>
      </trkpt>
      <trkpt lat="44.11666" lon="4.27808">
        <ele>244.792847</ele>
        <time>2015-03-26T16:37:39Z</time>
      </trkpt>
      <trkpt lat="44.11667" lon="4.27818">
        <ele>245.273438</ele>
        <time>2015-03-26T16:37:47Z</time>
      </trkpt>
      <trkpt lat="44.11664" lon="4.27834">
        <ele>246.234863</ele>
        <time>2015-03-26T16:37:56Z</time>
      </trkpt>
      <trkpt lat="44.11663" lon="4.27849">
        <ele>246.234863</ele>
        <time>2015-03-26T16:38:07Z</time>
      </trkpt>
      <trkpt lat="44.11664" lon="4.27862">
        <ele>246.715454</ele>
        <time>2015-03-26T16:38:16Z</time>
      </trkpt>
      <trkpt lat="44.11665" lon="4.27879">
        <ele>247.676758</ele>
        <time>2015-03-26T16:38:28Z</time>
      </trkpt>
      <trkpt lat="44.11666" lon="4.27891">
        <ele>248.638184</ele>
        <time>2015-03-26T16:38:37Z</time>
      </trkpt>
      <trkpt lat="44.11666" lon="4.27904">
        <ele>248.638184</ele>
        <time>2015-03-26T16:38:45Z</time>
      </trkpt>
      <trkpt lat="44.11666" lon="4.27909">
        <ele>249.118774</ele>
        <time>2015-03-26T16:38:49Z</time>
      </trkpt>
      <trkpt lat="44.11667" lon="4.27915">
        <ele>248.638184</ele>
        <time>2015-03-26T16:38:55Z</time>
      </trkpt>
      <trkpt lat="44.11667" lon="4.27929">
        <ele>249.118774</ele>
        <time>2015-03-26T16:39:03Z</time>
      </trkpt>
      <trkpt lat="44.11664" lon="4.27941">
        <ele>248.157593</ele>
        <time>2015-03-26T16:39:12Z</time>
      </trkpt>
      <trkpt lat="44.11663" lon="4.27955">
        <ele>249.118774</ele>
        <time>2015-03-26T16:39:21Z</time>
      </trkpt>
      <trkpt lat="44.11661" lon="4.27966">
        <ele>249.118774</ele>
        <time>2015-03-26T16:39:29Z</time>
      </trkpt>
      <trkpt lat="44.1166" lon="4.27977">
        <ele>248.638184</ele>
        <time>2015-03-26T16:39:38Z</time>
      </trkpt>
      <trkpt lat="44.1166" lon="4.27995">
        <ele>248.157593</ele>
        <time>2015-03-26T16:39:49Z</time>
      </trkpt>
      <trkpt lat="44.11657" lon="4.2801">
        <ele>248.638184</ele>
        <time>2015-03-26T16:40:00Z</time>
      </trkpt>
      <trkpt lat="44.11655" lon="4.28023">
        <ele>249.118774</ele>
        <time>2015-03-26T16:40:09Z</time>
      </trkpt>
      <trkpt lat="44.11653" lon="4.28035">
        <ele>248.638184</ele>
        <time>2015-03-26T16:40:17Z</time>
      </trkpt>
      <trkpt lat="44.11652" lon="4.28036">
        <ele>248.638184</ele>
        <time>2015-03-26T16:40:18Z</time>
      </trkpt>
      <trkpt lat="44.11651" lon="4.28052">
        <ele>248.157593</ele>
        <time>2015-03-26T16:40:27Z</time>
      </trkpt>
      <trkpt lat="44.11649" lon="4.28064">
        <ele>248.638184</ele>
        <time>2015-03-26T16:40:34Z</time>
      </trkpt>
      <trkpt lat="44.11648" lon="4.28073">
        <ele>248.638184</ele>
        <time>2015-03-26T16:40:40Z</time>
      </trkpt>
      <trkpt lat="44.11646" lon="4.28088">
        <ele>248.638184</ele>
        <time>2015-03-26T16:40:50Z</time>
      </trkpt>
      <trkpt lat="44.11642" lon="4.28104">
        <ele>248.157593</ele>
        <time>2015-03-26T16:41:02Z</time>
      </trkpt>
      <trkpt lat="44.11637" lon="4.2812">
        <ele>248.638184</ele>
        <time>2015-03-26T16:41:12Z</time>
      </trkpt>
      <trkpt lat="44.11636" lon="4.28128">
        <ele>248.638184</ele>
        <time>2015-03-26T16:41:20Z</time>
      </trkpt>
      <trkpt lat="44.11635" lon="4.28138">
        <ele>248.638184</ele>
        <time>2015-03-26T16:41:29Z</time>
      </trkpt>
      <trkpt lat="44.11631" lon="4.28152">
        <ele>249.118774</ele>
        <time>2015-03-26T16:41:38Z</time>
      </trkpt>
      <trkpt lat="44.11631" lon="4.28161">
        <ele>249.118774</ele>
        <time>2015-03-26T16:41:43Z</time>
      </trkpt>
      <trkpt lat="44.11629" lon="4.28175">
        <ele>249.599487</ele>
        <time>2015-03-26T16:41:52Z</time>
      </trkpt>
      <trkpt lat="44.11629" lon="4.28185">
        <ele>250.0802</ele>
        <time>2015-03-26T16:42:00Z</time>
      </trkpt>
      <trkpt lat="44.11628" lon="4.28193">
        <ele>251.041382</ele>
        <time>2015-03-26T16:42:07Z</time>
      </trkpt>
      <trkpt lat="44.11629" lon="4.28205">
        <ele>251.522095</ele>
        <time>2015-03-26T16:42:18Z</time>
      </trkpt>
      <trkpt lat="44.11621" lon="4.28233">
        <ele>252.483398</ele>
        <time>2015-03-26T16:42:31Z</time>
      </trkpt>
      <trkpt lat="44.11623" lon="4.28246">
        <ele>252.963989</ele>
        <time>2015-03-26T16:42:41Z</time>
      </trkpt>
      <trkpt lat="44.11624" lon="4.28249">
        <ele>252.963989</ele>
        <time>2015-03-26T16:42:43Z</time>
      </trkpt>
      <trkpt lat="44.11625" lon="4.28255">
        <ele>252.963989</ele>
        <time>2015-03-26T16:42:48Z</time>
      </trkpt>
      <trkpt lat="44.11628" lon="4.28265">
        <ele>253.444702</ele>
        <time>2015-03-26T16:42:56Z</time>
      </trkpt>
      <trkpt lat="44.11633" lon="4.28281">
        <ele>253.925415</ele>
        <time>2015-03-26T16:43:07Z</time>
      </trkpt>
      <trkpt lat="44.11637" lon="4.28284">
        <ele>253.925415</ele>
        <time>2015-03-26T16:43:11Z</time>
      </trkpt>
      <trkpt lat="44.11639" lon="4.28295">
        <ele>253.925415</ele>
        <time>2015-03-26T16:43:19Z</time>
      </trkpt>
      <trkpt lat="44.11634" lon="4.28316">
        <ele>254.886597</ele>
        <time>2015-03-26T16:43:31Z</time>
      </trkpt>
      <trkpt lat="44.11629" lon="4.28332">
        <ele>254.886597</ele>
        <time>2015-03-26T16:43:43Z</time>
      </trkpt>
      <trkpt lat="44.11628" lon="4.2835">
        <ele>255.36731</ele>
        <time>2015-03-26T16:43:55Z</time>
      </trkpt>
      <trkpt lat="44.11628" lon="4.28366">
        <ele>255.36731</ele>
        <time>2015-03-26T16:44:06Z</time>
      </trkpt>
      <trkpt lat="44.11626" lon="4.28375">
        <ele>255.36731</ele>
        <time>2015-03-26T16:44:10Z</time>
      </trkpt>
      <trkpt lat="44.11627" lon="4.28392">
        <ele>256.328735</ele>
        <time>2015-03-26T16:44:20Z</time>
      </trkpt>
      <trkpt lat="44.11628" lon="4.28393">
        <ele>256.809326</ele>
        <time>2015-03-26T16:44:22Z</time>
      </trkpt>
      <trkpt lat="44.11635" lon="4.28404">
        <ele>257.290039</ele>
        <time>2015-03-26T16:44:32Z</time>
      </trkpt>
      <trkpt lat="44.11638" lon="4.28412">
        <ele>257.290039</ele>
        <time>2015-03-26T16:44:39Z</time>
      </trkpt>
      <trkpt lat="44.11644" lon="4.28425">
        <ele>257.290039</ele>
        <time>2015-03-26T16:44:51Z</time>
      </trkpt>
      <trkpt lat="44.11644" lon="4.28443">
        <ele>258.731934</ele>
        <time>2015-03-26T16:45:00Z</time>
      </trkpt>
      <trkpt lat="44.11645" lon="4.28443">
        <ele>258.731934</ele>
        <time>2015-03-26T16:45:01Z</time>
      </trkpt>
      <trkpt lat="44.11646" lon="4.28455">
        <ele>259.212646</ele>
        <time>2015-03-26T16:45:09Z</time>
      </trkpt>
      <trkpt lat="44.11647" lon="4.28461">
        <ele>259.212646</ele>
        <time>2015-03-26T16:45:13Z</time>
      </trkpt>
      <trkpt lat="44.11648" lon="4.28479">
        <ele>259.693359</ele>
        <time>2015-03-26T16:45:23Z</time>
      </trkpt>
      <trkpt lat="44.11651" lon="4.28496">
        <ele>259.693359</ele>
        <time>2015-03-26T16:45:34Z</time>
      </trkpt>
      <trkpt lat="44.11652" lon="4.28504">
        <ele>259.693359</ele>
        <time>2015-03-26T16:45:40Z</time>
      </trkpt>
      <trkpt lat="44.11652" lon="4.28516">
        <ele>259.212646</ele>
        <time>2015-03-26T16:45:48Z</time>
      </trkpt>
      <trkpt lat="44.11653" lon="4.2853">
        <ele>259.212646</ele>
        <time>2015-03-26T16:45:57Z</time>
      </trkpt>
      <trkpt lat="44.11656" lon="4.2854">
        <ele>258.731934</ele>
        <time>2015-03-26T16:46:08Z</time>
      </trkpt>
      <trkpt lat="44.11658" lon="4.28542">
        <ele>258.251343</ele>
        <time>2015-03-26T16:46:19Z</time>
      </trkpt>
      <trkpt lat="44.11659" lon="4.28544">
        <ele>258.731934</ele>
        <time>2015-03-26T16:46:31Z</time>
      </trkpt>
      <trkpt lat="44.11659" lon="4.28543">
        <ele>258.251343</ele>
        <time>2015-03-26T16:47:21Z</time>
      </trkpt>
      <trkpt lat="44.11656" lon="4.28542">
        <ele>257.290039</ele>
        <time>2015-03-26T16:52:17Z</time>
      </trkpt>
      <trkpt lat="44.11656" lon="4.28542">
        <ele>258.251343</ele>
        <time>2015-03-26T16:53:18Z</time>
      </trkpt>
    </trkseg>
  </trk>
</gpx>